<?xml version="1.0" encoding="UTF-8" standalone="no" ?>
<gpx xmlns="http://www.topografix.com/GPX/1/1" xmlns:xsi="http://www.w3.org/2001/XMLSchema-instance" xsi:schemaLocation="http://www.topografix.com/GPX/1/1 http://www.topografix.com/GPX/1/1/gpx.xsd" version="1.1" creator="VisuGPX - https://www.visugpx.com">
  <metadata>
    <name>Boucle vers Lozanne </name>
  </metadata>
  <trk>
    <name><![CDATA[2022 08 16 boucle locale]]></name>
    <trkseg>
      <trkpt lat="45.83297" lon="4.70908">
        <ele>308.47902</ele>
        <time>2022-08-16T14:13:53.020Z</time>
      </trkpt>
      <trkpt lat="45.83321" lon="4.68539">
        <ele>280.61484</ele>
        <time>2022-08-16T14:21:41.000Z</time>
      </trkpt>
      <trkpt lat="45.83317" lon="4.68538">
        <ele>280.08312</ele>
        <time>2022-08-16T14:21:42.000Z</time>
      </trkpt>
      <trkpt lat="45.83314" lon="4.6854">
        <ele>279.37854</ele>
        <time>2022-08-16T14:21:45.000Z</time>
      </trkpt>
      <trkpt lat="45.83312" lon="4.68538">
        <ele>279.16906</ele>
        <time>2022-08-16T14:21:51.000Z</time>
      </trkpt>
      <trkpt lat="45.83312" lon="4.68535">
        <ele>279.25613</ele>
        <time>2022-08-16T14:22:00.000Z</time>
      </trkpt>
      <trkpt lat="45.83313" lon="4.68539">
        <ele>279.30779</ele>
        <time>2022-08-16T14:22:06.000Z</time>
      </trkpt>
      <trkpt lat="45.83317" lon="4.68535">
        <ele>280.2076</ele>
        <time>2022-08-16T14:22:09.000Z</time>
      </trkpt>
      <trkpt lat="45.83315" lon="4.68534">
        <ele>279.95935</ele>
        <time>2022-08-16T14:22:18.000Z</time>
      </trkpt>
      <trkpt lat="45.83312" lon="4.68535">
        <ele>279.39295</ele>
        <time>2022-08-16T14:22:33.000Z</time>
      </trkpt>
      <trkpt lat="45.83311" lon="4.68537">
        <ele>279.00616</ele>
        <time>2022-08-16T14:22:51.121Z</time>
      </trkpt>
      <trkpt lat="45.83305" lon="4.68539">
        <ele>277.93337</ele>
        <time>2022-08-16T14:22:55.512Z</time>
      </trkpt>
      <trkpt lat="45.83309" lon="4.68536">
        <ele>278.74016</ele>
        <time>2022-08-16T14:22:57.000Z</time>
      </trkpt>
      <trkpt lat="45.83308" lon="4.68534">
        <ele>278.60335</ele>
        <time>2022-08-16T14:22:59.000Z</time>
      </trkpt>
      <trkpt lat="45.83306" lon="4.68534">
        <ele>278.39633</ele>
        <time>2022-08-16T14:23:03.000Z</time>
      </trkpt>
      <trkpt lat="45.83307" lon="4.68533">
        <ele>278.77358</ele>
        <time>2022-08-16T14:23:22.000Z</time>
      </trkpt>
      <trkpt lat="45.83311" lon="4.68532">
        <ele>279.41194</ele>
        <time>2022-08-16T14:23:23.000Z</time>
      </trkpt>
      <trkpt lat="45.83314" lon="4.68531">
        <ele>280.0032</ele>
        <time>2022-08-16T14:23:24.000Z</time>
      </trkpt>
      <trkpt lat="45.83318" lon="4.6853">
        <ele>280.52849</ele>
        <time>2022-08-16T14:23:25.000Z</time>
      </trkpt>
      <trkpt lat="45.83322" lon="4.68528">
        <ele>280.81346</ele>
        <time>2022-08-16T14:23:26.000Z</time>
      </trkpt>
      <trkpt lat="45.83326" lon="4.68528">
        <ele>280.74553</ele>
        <time>2022-08-16T14:23:27.000Z</time>
      </trkpt>
      <trkpt lat="45.83329" lon="4.68528">
        <ele>280.51913</ele>
        <time>2022-08-16T14:23:28.000Z</time>
      </trkpt>
      <trkpt lat="45.83333" lon="4.6853">
        <ele>280.21495</ele>
        <time>2022-08-16T14:23:29.000Z</time>
      </trkpt>
      <trkpt lat="45.83336" lon="4.68532">
        <ele>279.8632</ele>
        <time>2022-08-16T14:23:30.000Z</time>
      </trkpt>
      <trkpt lat="45.83338" lon="4.68535">
        <ele>279.53981</ele>
        <time>2022-08-16T14:23:31.000Z</time>
      </trkpt>
      <trkpt lat="45.83341" lon="4.68538">
        <ele>279.25485</ele>
        <time>2022-08-16T14:23:32.000Z</time>
      </trkpt>
      <trkpt lat="45.83344" lon="4.6854">
        <ele>279.02219</ele>
        <time>2022-08-16T14:23:33.000Z</time>
      </trkpt>
      <trkpt lat="45.83347" lon="4.68543">
        <ele>278.89491</ele>
        <time>2022-08-16T14:23:34.000Z</time>
      </trkpt>
      <trkpt lat="45.83351" lon="4.68545">
        <ele>278.77357</ele>
        <time>2022-08-16T14:23:35.000Z</time>
      </trkpt>
      <trkpt lat="45.83354" lon="4.68546">
        <ele>278.59672</ele>
        <time>2022-08-16T14:23:36.000Z</time>
      </trkpt>
      <trkpt lat="45.83358" lon="4.68547">
        <ele>278.41994</ele>
        <time>2022-08-16T14:23:37.000Z</time>
      </trkpt>
      <trkpt lat="45.83363" lon="4.68547">
        <ele>278.26199</ele>
        <time>2022-08-16T14:23:38.000Z</time>
      </trkpt>
      <trkpt lat="45.83367" lon="4.68547">
        <ele>278.25762</ele>
        <time>2022-08-16T14:23:39.000Z</time>
      </trkpt>
      <trkpt lat="45.83371" lon="4.68546">
        <ele>278.5729</ele>
        <time>2022-08-16T14:23:40.000Z</time>
      </trkpt>
      <trkpt lat="45.83376" lon="4.68544">
        <ele>279.21342</ele>
        <time>2022-08-16T14:23:41.000Z</time>
      </trkpt>
      <trkpt lat="45.8338" lon="4.68542">
        <ele>279.90097</ele>
        <time>2022-08-16T14:23:42.000Z</time>
      </trkpt>
      <trkpt lat="45.83384" lon="4.68539">
        <ele>280.44258</ele>
        <time>2022-08-16T14:23:43.000Z</time>
      </trkpt>
      <trkpt lat="45.83389" lon="4.68536">
        <ele>280.47664</ele>
        <time>2022-08-16T14:23:44.000Z</time>
      </trkpt>
      <trkpt lat="45.83394" lon="4.68533">
        <ele>279.76661</ele>
        <time>2022-08-16T14:23:45.000Z</time>
      </trkpt>
      <trkpt lat="45.83399" lon="4.6853">
        <ele>278.44453</ele>
        <time>2022-08-16T14:23:46.000Z</time>
      </trkpt>
      <trkpt lat="45.83404" lon="4.68525">
        <ele>277.01617</ele>
        <time>2022-08-16T14:23:47.000Z</time>
      </trkpt>
      <trkpt lat="45.83408" lon="4.68523">
        <ele>276.17932</ele>
        <time>2022-08-16T14:23:48.000Z</time>
      </trkpt>
      <trkpt lat="45.83413" lon="4.68521">
        <ele>275.84118</ele>
        <time>2022-08-16T14:23:49.000Z</time>
      </trkpt>
      <trkpt lat="45.83418" lon="4.68517">
        <ele>276.04665</ele>
        <time>2022-08-16T14:23:50.000Z</time>
      </trkpt>
      <trkpt lat="45.83422" lon="4.68513">
        <ele>276.76927</ele>
        <time>2022-08-16T14:23:51.000Z</time>
      </trkpt>
      <trkpt lat="45.83427" lon="4.68511">
        <ele>277.71434</ele>
        <time>2022-08-16T14:23:52.000Z</time>
      </trkpt>
      <trkpt lat="45.83433" lon="4.68509">
        <ele>278.43717</ele>
        <time>2022-08-16T14:23:53.000Z</time>
      </trkpt>
      <trkpt lat="45.83438" lon="4.68505">
        <ele>278.30409</ele>
        <time>2022-08-16T14:23:54.000Z</time>
      </trkpt>
      <trkpt lat="45.83444" lon="4.68505">
        <ele>278.10912</ele>
        <time>2022-08-16T14:23:55.000Z</time>
      </trkpt>
      <trkpt lat="45.83451" lon="4.68505">
        <ele>277.54586</ele>
        <time>2022-08-16T14:23:56.000Z</time>
      </trkpt>
      <trkpt lat="45.83456" lon="4.68502">
        <ele>276.46024</ele>
        <time>2022-08-16T14:23:57.000Z</time>
      </trkpt>
      <trkpt lat="45.83463" lon="4.68501">
        <ele>275.53629</ele>
        <time>2022-08-16T14:23:58.000Z</time>
      </trkpt>
      <trkpt lat="45.83471" lon="4.68495">
        <ele>274.41797</ele>
        <time>2022-08-16T14:23:59.000Z</time>
      </trkpt>
      <trkpt lat="45.8348" lon="4.6849">
        <ele>274.48935</ele>
        <time>2022-08-16T14:24:00.000Z</time>
      </trkpt>
      <trkpt lat="45.83485" lon="4.68487">
        <ele>274.8054</ele>
        <time>2022-08-16T14:24:01.000Z</time>
      </trkpt>
      <trkpt lat="45.83491" lon="4.68483">
        <ele>275.2045</ele>
        <time>2022-08-16T14:24:02.000Z</time>
      </trkpt>
      <trkpt lat="45.83497" lon="4.68478">
        <ele>275.05295</ele>
        <time>2022-08-16T14:24:03.000Z</time>
      </trkpt>
      <trkpt lat="45.83503" lon="4.68474">
        <ele>274.5169</ele>
        <time>2022-08-16T14:24:04.000Z</time>
      </trkpt>
      <trkpt lat="45.83509" lon="4.68469">
        <ele>273.45159</ele>
        <time>2022-08-16T14:24:05.000Z</time>
      </trkpt>
      <trkpt lat="45.83514" lon="4.68463">
        <ele>272.84102</ele>
        <time>2022-08-16T14:24:06.000Z</time>
      </trkpt>
      <trkpt lat="45.83521" lon="4.68461">
        <ele>273.04025</ele>
        <time>2022-08-16T14:24:07.000Z</time>
      </trkpt>
      <trkpt lat="45.83525" lon="4.68457">
        <ele>273.22229</ele>
        <time>2022-08-16T14:24:08.000Z</time>
      </trkpt>
      <trkpt lat="45.83533" lon="4.68452">
        <ele>272.75624</ele>
        <time>2022-08-16T14:24:09.000Z</time>
      </trkpt>
      <trkpt lat="45.83539" lon="4.68446">
        <ele>271.56613</ele>
        <time>2022-08-16T14:24:10.000Z</time>
      </trkpt>
      <trkpt lat="45.83544" lon="4.68442">
        <ele>270.53815</ele>
        <time>2022-08-16T14:24:11.000Z</time>
      </trkpt>
      <trkpt lat="45.83548" lon="4.68438">
        <ele>270.08803</ele>
        <time>2022-08-16T14:24:12.000Z</time>
      </trkpt>
      <trkpt lat="45.83553" lon="4.68434">
        <ele>270.15743</ele>
        <time>2022-08-16T14:24:13.000Z</time>
      </trkpt>
      <trkpt lat="45.83557" lon="4.68428">
        <ele>270.77136</ele>
        <time>2022-08-16T14:24:14.000Z</time>
      </trkpt>
      <trkpt lat="45.83562" lon="4.68419">
        <ele>271.86875</ele>
        <time>2022-08-16T14:24:15.000Z</time>
      </trkpt>
      <trkpt lat="45.83567" lon="4.68411">
        <ele>271.99503</ele>
        <time>2022-08-16T14:24:16.000Z</time>
      </trkpt>
      <trkpt lat="45.83572" lon="4.68401">
        <ele>270.83459</ele>
        <time>2022-08-16T14:24:17.000Z</time>
      </trkpt>
      <trkpt lat="45.83576" lon="4.68396">
        <ele>270.20501</ele>
        <time>2022-08-16T14:24:18.000Z</time>
      </trkpt>
      <trkpt lat="45.8358" lon="4.68389">
        <ele>270.12359</ele>
        <time>2022-08-16T14:24:19.000Z</time>
      </trkpt>
      <trkpt lat="45.83585" lon="4.68385">
        <ele>270.73003</ele>
        <time>2022-08-16T14:24:20.000Z</time>
      </trkpt>
      <trkpt lat="45.83587" lon="4.68378">
        <ele>270.9391</ele>
        <time>2022-08-16T14:24:21.000Z</time>
      </trkpt>
      <trkpt lat="45.83588" lon="4.6837">
        <ele>270.99192</ele>
        <time>2022-08-16T14:24:22.000Z</time>
      </trkpt>
      <trkpt lat="45.83588" lon="4.68362">
        <ele>270.84755</ele>
        <time>2022-08-16T14:24:23.000Z</time>
      </trkpt>
      <trkpt lat="45.83587" lon="4.68355">
        <ele>270.8243</ele>
        <time>2022-08-16T14:24:24.000Z</time>
      </trkpt>
      <trkpt lat="45.83587" lon="4.68349">
        <ele>270.82426</ele>
        <time>2022-08-16T14:24:25.000Z</time>
      </trkpt>
      <trkpt lat="45.83586" lon="4.68344">
        <ele>270.82273</ele>
        <time>2022-08-16T14:24:26.000Z</time>
      </trkpt>
      <trkpt lat="45.83585" lon="4.68339">
        <ele>270.83107</ele>
        <time>2022-08-16T14:24:27.000Z</time>
      </trkpt>
      <trkpt lat="45.83585" lon="4.68336">
        <ele>270.86497</ele>
        <time>2022-08-16T14:24:28.000Z</time>
      </trkpt>
      <trkpt lat="45.83585" lon="4.6833">
        <ele>270.96451</ele>
        <time>2022-08-16T14:24:29.000Z</time>
      </trkpt>
      <trkpt lat="45.83585" lon="4.68325">
        <ele>271.04371</ele>
        <time>2022-08-16T14:24:30.000Z</time>
      </trkpt>
      <trkpt lat="45.83586" lon="4.68322">
        <ele>271.1099</ele>
        <time>2022-08-16T14:24:31.000Z</time>
      </trkpt>
      <trkpt lat="45.83586" lon="4.68318">
        <ele>271.22177</ele>
        <time>2022-08-16T14:24:32.000Z</time>
      </trkpt>
      <trkpt lat="45.83586" lon="4.68314">
        <ele>271.33627</ele>
        <time>2022-08-16T14:24:33.000Z</time>
      </trkpt>
      <trkpt lat="45.83587" lon="4.68311">
        <ele>271.44268</ele>
        <time>2022-08-16T14:24:34.000Z</time>
      </trkpt>
      <trkpt lat="45.83587" lon="4.68308">
        <ele>271.52404</ele>
        <time>2022-08-16T14:24:35.000Z</time>
      </trkpt>
      <trkpt lat="45.83589" lon="4.68305">
        <ele>271.56919</ele>
        <time>2022-08-16T14:24:36.000Z</time>
      </trkpt>
      <trkpt lat="45.8359" lon="4.68302">
        <ele>271.56981</ele>
        <time>2022-08-16T14:24:37.000Z</time>
      </trkpt>
      <trkpt lat="45.83591" lon="4.68299">
        <ele>271.52692</ele>
        <time>2022-08-16T14:24:38.000Z</time>
      </trkpt>
      <trkpt lat="45.83593" lon="4.68296">
        <ele>271.46273</ele>
        <time>2022-08-16T14:24:39.000Z</time>
      </trkpt>
      <trkpt lat="45.83594" lon="4.68293">
        <ele>271.37113</ele>
        <time>2022-08-16T14:24:40.000Z</time>
      </trkpt>
      <trkpt lat="45.83595" lon="4.68289">
        <ele>271.24992</ele>
        <time>2022-08-16T14:24:41.000Z</time>
      </trkpt>
      <trkpt lat="45.83596" lon="4.68285">
        <ele>271.11319</ele>
        <time>2022-08-16T14:24:42.000Z</time>
      </trkpt>
      <trkpt lat="45.83597" lon="4.6828">
        <ele>270.95351</ele>
        <time>2022-08-16T14:24:43.000Z</time>
      </trkpt>
      <trkpt lat="45.83598" lon="4.68276">
        <ele>270.79081</ele>
        <time>2022-08-16T14:24:44.000Z</time>
      </trkpt>
      <trkpt lat="45.83599" lon="4.68271">
        <ele>270.5914</ele>
        <time>2022-08-16T14:24:45.000Z</time>
      </trkpt>
      <trkpt lat="45.83598" lon="4.68262">
        <ele>270.20465</ele>
        <time>2022-08-16T14:24:46.000Z</time>
      </trkpt>
      <trkpt lat="45.836" lon="4.68255">
        <ele>269.82304</ele>
        <time>2022-08-16T14:24:47.000Z</time>
      </trkpt>
      <trkpt lat="45.83602" lon="4.68246">
        <ele>269.23643</ele>
        <time>2022-08-16T14:24:48.000Z</time>
      </trkpt>
      <trkpt lat="45.83604" lon="4.68239">
        <ele>268.844</ele>
        <time>2022-08-16T14:24:49.000Z</time>
      </trkpt>
      <trkpt lat="45.83607" lon="4.6823">
        <ele>268.45196</ele>
        <time>2022-08-16T14:24:50.000Z</time>
      </trkpt>
      <trkpt lat="45.83609" lon="4.68221">
        <ele>268.1796</ele>
        <time>2022-08-16T14:24:51.000Z</time>
      </trkpt>
      <trkpt lat="45.83612" lon="4.68214">
        <ele>267.97577</ele>
        <time>2022-08-16T14:24:52.000Z</time>
      </trkpt>
      <trkpt lat="45.83616" lon="4.68206">
        <ele>267.72455</ele>
        <time>2022-08-16T14:24:53.000Z</time>
      </trkpt>
      <trkpt lat="45.83618" lon="4.68196">
        <ele>267.36885</ele>
        <time>2022-08-16T14:24:54.000Z</time>
      </trkpt>
      <trkpt lat="45.83622" lon="4.68186">
        <ele>267.13308</ele>
        <time>2022-08-16T14:24:55.000Z</time>
      </trkpt>
      <trkpt lat="45.83625" lon="4.68177">
        <ele>267.02818</ele>
        <time>2022-08-16T14:24:56.000Z</time>
      </trkpt>
      <trkpt lat="45.83629" lon="4.6817">
        <ele>267.07633</ele>
        <time>2022-08-16T14:24:57.000Z</time>
      </trkpt>
      <trkpt lat="45.83631" lon="4.68161">
        <ele>267.1004</ele>
        <time>2022-08-16T14:24:58.000Z</time>
      </trkpt>
      <trkpt lat="45.83634" lon="4.68154">
        <ele>267.06395</ele>
        <time>2022-08-16T14:24:59.000Z</time>
      </trkpt>
      <trkpt lat="45.83637" lon="4.68145">
        <ele>266.83262</ele>
        <time>2022-08-16T14:25:00.000Z</time>
      </trkpt>
      <trkpt lat="45.8364" lon="4.68141">
        <ele>266.63752</ele>
        <time>2022-08-16T14:25:01.000Z</time>
      </trkpt>
      <trkpt lat="45.83644" lon="4.68136">
        <ele>266.45957</ele>
        <time>2022-08-16T14:25:02.000Z</time>
      </trkpt>
      <trkpt lat="45.83648" lon="4.68129">
        <ele>266.42195</ele>
        <time>2022-08-16T14:25:03.000Z</time>
      </trkpt>
      <trkpt lat="45.83651" lon="4.68122">
        <ele>266.48651</ele>
        <time>2022-08-16T14:25:04.000Z</time>
      </trkpt>
      <trkpt lat="45.83655" lon="4.68118">
        <ele>266.50973</ele>
        <time>2022-08-16T14:25:05.000Z</time>
      </trkpt>
      <trkpt lat="45.83659" lon="4.68113">
        <ele>266.31563</ele>
        <time>2022-08-16T14:25:06.000Z</time>
      </trkpt>
      <trkpt lat="45.83663" lon="4.68108">
        <ele>265.98341</ele>
        <time>2022-08-16T14:25:07.000Z</time>
      </trkpt>
      <trkpt lat="45.83667" lon="4.68102">
        <ele>265.61852</ele>
        <time>2022-08-16T14:25:08.000Z</time>
      </trkpt>
      <trkpt lat="45.83672" lon="4.68097">
        <ele>265.51826</ele>
        <time>2022-08-16T14:25:09.000Z</time>
      </trkpt>
      <trkpt lat="45.83677" lon="4.68091">
        <ele>265.45687</ele>
        <time>2022-08-16T14:25:10.000Z</time>
      </trkpt>
      <trkpt lat="45.83681" lon="4.68085">
        <ele>265.1554</ele>
        <time>2022-08-16T14:25:11.000Z</time>
      </trkpt>
      <trkpt lat="45.83685" lon="4.6808">
        <ele>264.65242</ele>
        <time>2022-08-16T14:25:12.000Z</time>
      </trkpt>
      <trkpt lat="45.83689" lon="4.68076">
        <ele>264.00019</ele>
        <time>2022-08-16T14:25:13.000Z</time>
      </trkpt>
      <trkpt lat="45.83692" lon="4.68073">
        <ele>263.33462</ele>
        <time>2022-08-16T14:25:14.000Z</time>
      </trkpt>
      <trkpt lat="45.83695" lon="4.68071">
        <ele>262.73421</ele>
        <time>2022-08-16T14:25:15.000Z</time>
      </trkpt>
      <trkpt lat="45.83698" lon="4.68066">
        <ele>262.06685</ele>
        <time>2022-08-16T14:25:16.000Z</time>
      </trkpt>
      <trkpt lat="45.83699" lon="4.68061">
        <ele>261.75549</ele>
        <time>2022-08-16T14:25:17.000Z</time>
      </trkpt>
      <trkpt lat="45.83698" lon="4.68054">
        <ele>261.89567</ele>
        <time>2022-08-16T14:25:18.000Z</time>
      </trkpt>
      <trkpt lat="45.83696" lon="4.68052">
        <ele>262.1899</ele>
        <time>2022-08-16T14:25:19.000Z</time>
      </trkpt>
      <trkpt lat="45.83694" lon="4.68048">
        <ele>262.46256</ele>
        <time>2022-08-16T14:25:20.000Z</time>
      </trkpt>
      <trkpt lat="45.83692" lon="4.68048">
        <ele>262.79111</ele>
        <time>2022-08-16T14:25:21.000Z</time>
      </trkpt>
      <trkpt lat="45.83689" lon="4.68044">
        <ele>263.20805</ele>
        <time>2022-08-16T14:25:22.000Z</time>
      </trkpt>
      <trkpt lat="45.83688" lon="4.6804">
        <ele>263.24395</ele>
        <time>2022-08-16T14:25:23.000Z</time>
      </trkpt>
      <trkpt lat="45.83687" lon="4.68038">
        <ele>263.40515</ele>
        <time>2022-08-16T14:25:24.000Z</time>
      </trkpt>
      <trkpt lat="45.83685" lon="4.68034">
        <ele>263.50927</ele>
        <time>2022-08-16T14:25:25.000Z</time>
      </trkpt>
      <trkpt lat="45.83683" lon="4.68031">
        <ele>263.65236</ele>
        <time>2022-08-16T14:25:26.000Z</time>
      </trkpt>
      <trkpt lat="45.83681" lon="4.68028">
        <ele>263.74952</ele>
        <time>2022-08-16T14:25:27.000Z</time>
      </trkpt>
      <trkpt lat="45.83679" lon="4.68025">
        <ele>263.8377</ele>
        <time>2022-08-16T14:25:28.000Z</time>
      </trkpt>
      <trkpt lat="45.83677" lon="4.68022">
        <ele>263.96857</ele>
        <time>2022-08-16T14:25:29.000Z</time>
      </trkpt>
      <trkpt lat="45.83674" lon="4.68019">
        <ele>264.1265</ele>
        <time>2022-08-16T14:25:30.000Z</time>
      </trkpt>
      <trkpt lat="45.83672" lon="4.68016">
        <ele>264.29592</ele>
        <time>2022-08-16T14:25:31.000Z</time>
      </trkpt>
      <trkpt lat="45.83669" lon="4.68013">
        <ele>264.4045</ele>
        <time>2022-08-16T14:25:32.000Z</time>
      </trkpt>
      <trkpt lat="45.83667" lon="4.6801">
        <ele>264.47077</ele>
        <time>2022-08-16T14:25:33.000Z</time>
      </trkpt>
      <trkpt lat="45.83664" lon="4.68006">
        <ele>264.54832</ele>
        <time>2022-08-16T14:25:34.000Z</time>
      </trkpt>
      <trkpt lat="45.83662" lon="4.68003">
        <ele>264.63037</ele>
        <time>2022-08-16T14:25:35.000Z</time>
      </trkpt>
      <trkpt lat="45.83659" lon="4.67999">
        <ele>264.73395</ele>
        <time>2022-08-16T14:25:36.000Z</time>
      </trkpt>
      <trkpt lat="45.83656" lon="4.67996">
        <ele>264.78451</ele>
        <time>2022-08-16T14:25:37.000Z</time>
      </trkpt>
      <trkpt lat="45.83654" lon="4.67992">
        <ele>264.81783</ele>
        <time>2022-08-16T14:25:38.000Z</time>
      </trkpt>
      <trkpt lat="45.83652" lon="4.67988">
        <ele>264.82721</ele>
        <time>2022-08-16T14:25:39.000Z</time>
      </trkpt>
      <trkpt lat="45.8365" lon="4.67985">
        <ele>264.82684</ele>
        <time>2022-08-16T14:25:40.000Z</time>
      </trkpt>
      <trkpt lat="45.83648" lon="4.67982">
        <ele>264.80717</ele>
        <time>2022-08-16T14:25:41.000Z</time>
      </trkpt>
      <trkpt lat="45.83646" lon="4.67979">
        <ele>264.83398</ele>
        <time>2022-08-16T14:25:42.000Z</time>
      </trkpt>
      <trkpt lat="45.83643" lon="4.67976">
        <ele>264.91026</ele>
        <time>2022-08-16T14:25:43.000Z</time>
      </trkpt>
      <trkpt lat="45.83641" lon="4.67973">
        <ele>265.01307</ele>
        <time>2022-08-16T14:25:44.000Z</time>
      </trkpt>
      <trkpt lat="45.83638" lon="4.6797">
        <ele>265.14094</ele>
        <time>2022-08-16T14:25:45.000Z</time>
      </trkpt>
      <trkpt lat="45.83635" lon="4.67967">
        <ele>265.25203</ele>
        <time>2022-08-16T14:25:46.000Z</time>
      </trkpt>
      <trkpt lat="45.83632" lon="4.67964">
        <ele>265.37453</ele>
        <time>2022-08-16T14:25:47.000Z</time>
      </trkpt>
      <trkpt lat="45.83629" lon="4.67962">
        <ele>265.49283</ele>
        <time>2022-08-16T14:25:48.000Z</time>
      </trkpt>
      <trkpt lat="45.83626" lon="4.67959">
        <ele>265.63015</ele>
        <time>2022-08-16T14:25:49.000Z</time>
      </trkpt>
      <trkpt lat="45.83622" lon="4.67956">
        <ele>265.77293</ele>
        <time>2022-08-16T14:25:50.000Z</time>
      </trkpt>
      <trkpt lat="45.8362" lon="4.67955">
        <ele>265.89904</ele>
        <time>2022-08-16T14:25:51.000Z</time>
      </trkpt>
      <trkpt lat="45.83618" lon="4.67953">
        <ele>265.95537</ele>
        <time>2022-08-16T14:25:52.000Z</time>
      </trkpt>
      <trkpt lat="45.83615" lon="4.67951">
        <ele>265.99236</ele>
        <time>2022-08-16T14:25:53.000Z</time>
      </trkpt>
      <trkpt lat="45.83613" lon="4.67948">
        <ele>265.99942</ele>
        <time>2022-08-16T14:25:54.000Z</time>
      </trkpt>
      <trkpt lat="45.8361" lon="4.67946">
        <ele>266.02969</ele>
        <time>2022-08-16T14:25:55.000Z</time>
      </trkpt>
      <trkpt lat="45.83608" lon="4.67944">
        <ele>266.02577</ele>
        <time>2022-08-16T14:25:56.000Z</time>
      </trkpt>
      <trkpt lat="45.83606" lon="4.67941">
        <ele>266.00753</ele>
        <time>2022-08-16T14:25:57.000Z</time>
      </trkpt>
      <trkpt lat="45.83603" lon="4.67938">
        <ele>265.98203</ele>
        <time>2022-08-16T14:25:58.000Z</time>
      </trkpt>
      <trkpt lat="45.836" lon="4.67935">
        <ele>265.95482</ele>
        <time>2022-08-16T14:25:59.000Z</time>
      </trkpt>
      <trkpt lat="45.83597" lon="4.67932">
        <ele>265.96534</ele>
        <time>2022-08-16T14:26:00.000Z</time>
      </trkpt>
      <trkpt lat="45.83594" lon="4.6793">
        <ele>265.96933</ele>
        <time>2022-08-16T14:26:01.000Z</time>
      </trkpt>
      <trkpt lat="45.83592" lon="4.67927">
        <ele>265.93484</ele>
        <time>2022-08-16T14:26:02.000Z</time>
      </trkpt>
      <trkpt lat="45.83589" lon="4.67925">
        <ele>265.95533</ele>
        <time>2022-08-16T14:26:03.000Z</time>
      </trkpt>
      <trkpt lat="45.83586" lon="4.67922">
        <ele>265.95093</ele>
        <time>2022-08-16T14:26:04.000Z</time>
      </trkpt>
      <trkpt lat="45.83583" lon="4.67919">
        <ele>265.95383</ele>
        <time>2022-08-16T14:26:05.000Z</time>
      </trkpt>
      <trkpt lat="45.83579" lon="4.67916">
        <ele>265.93092</ele>
        <time>2022-08-16T14:26:06.000Z</time>
      </trkpt>
      <trkpt lat="45.83576" lon="4.67913">
        <ele>265.85794</ele>
        <time>2022-08-16T14:26:07.000Z</time>
      </trkpt>
      <trkpt lat="45.83573" lon="4.67909">
        <ele>265.79976</ele>
        <time>2022-08-16T14:26:08.000Z</time>
      </trkpt>
      <trkpt lat="45.83569" lon="4.67906">
        <ele>265.73369</ele>
        <time>2022-08-16T14:26:09.000Z</time>
      </trkpt>
      <trkpt lat="45.83567" lon="4.67902">
        <ele>265.63584</ele>
        <time>2022-08-16T14:26:10.000Z</time>
      </trkpt>
      <trkpt lat="45.83564" lon="4.67898">
        <ele>265.50025</ele>
        <time>2022-08-16T14:26:11.000Z</time>
      </trkpt>
      <trkpt lat="45.83562" lon="4.67895">
        <ele>265.35259</ele>
        <time>2022-08-16T14:26:12.000Z</time>
      </trkpt>
      <trkpt lat="45.8356" lon="4.67891">
        <ele>265.13622</ele>
        <time>2022-08-16T14:26:13.000Z</time>
      </trkpt>
      <trkpt lat="45.83558" lon="4.67887">
        <ele>264.87844</ele>
        <time>2022-08-16T14:26:14.000Z</time>
      </trkpt>
      <trkpt lat="45.83556" lon="4.67881">
        <ele>264.64881</ele>
        <time>2022-08-16T14:26:15.000Z</time>
      </trkpt>
      <trkpt lat="45.83553" lon="4.67877">
        <ele>264.55794</ele>
        <time>2022-08-16T14:26:16.000Z</time>
      </trkpt>
      <trkpt lat="45.8355" lon="4.67873">
        <ele>264.60113</ele>
        <time>2022-08-16T14:26:17.000Z</time>
      </trkpt>
      <trkpt lat="45.83547" lon="4.67869">
        <ele>264.73154</ele>
        <time>2022-08-16T14:26:18.000Z</time>
      </trkpt>
      <trkpt lat="45.83544" lon="4.67866">
        <ele>264.85889</ele>
        <time>2022-08-16T14:26:19.000Z</time>
      </trkpt>
      <trkpt lat="45.8354" lon="4.67861">
        <ele>264.92008</ele>
        <time>2022-08-16T14:26:20.000Z</time>
      </trkpt>
      <trkpt lat="45.83537" lon="4.67857">
        <ele>264.96438</ele>
        <time>2022-08-16T14:26:21.000Z</time>
      </trkpt>
      <trkpt lat="45.83534" lon="4.67852">
        <ele>265.02867</ele>
        <time>2022-08-16T14:26:22.000Z</time>
      </trkpt>
      <trkpt lat="45.83531" lon="4.67848">
        <ele>265.17196</ele>
        <time>2022-08-16T14:26:23.000Z</time>
      </trkpt>
      <trkpt lat="45.83527" lon="4.67844">
        <ele>265.33067</ele>
        <time>2022-08-16T14:26:24.000Z</time>
      </trkpt>
      <trkpt lat="45.83524" lon="4.67841">
        <ele>265.47248</ele>
        <time>2022-08-16T14:26:25.000Z</time>
      </trkpt>
      <trkpt lat="45.83521" lon="4.67837">
        <ele>265.63342</ele>
        <time>2022-08-16T14:26:26.000Z</time>
      </trkpt>
      <trkpt lat="45.83518" lon="4.67834">
        <ele>265.7711</ele>
        <time>2022-08-16T14:26:27.000Z</time>
      </trkpt>
      <trkpt lat="45.83514" lon="4.67831">
        <ele>265.97486</ele>
        <time>2022-08-16T14:26:28.000Z</time>
      </trkpt>
      <trkpt lat="45.83503" lon="4.67828">
        <ele>266.74056</ele>
        <time>2022-08-16T14:26:29.000Z</time>
      </trkpt>
      <trkpt lat="45.83499" lon="4.67826">
        <ele>266.92631</ele>
        <time>2022-08-16T14:26:30.000Z</time>
      </trkpt>
      <trkpt lat="45.83494" lon="4.67824">
        <ele>267.1116</ele>
        <time>2022-08-16T14:26:31.000Z</time>
      </trkpt>
      <trkpt lat="45.83488" lon="4.67821">
        <ele>267.17743</ele>
        <time>2022-08-16T14:26:32.000Z</time>
      </trkpt>
      <trkpt lat="45.83482" lon="4.67816">
        <ele>266.99746</ele>
        <time>2022-08-16T14:26:33.000Z</time>
      </trkpt>
      <trkpt lat="45.83477" lon="4.67812">
        <ele>266.80612</ele>
        <time>2022-08-16T14:26:34.000Z</time>
      </trkpt>
      <trkpt lat="45.83471" lon="4.67806">
        <ele>266.56616</ele>
        <time>2022-08-16T14:26:35.000Z</time>
      </trkpt>
      <trkpt lat="45.83465" lon="4.67801">
        <ele>266.30041</ele>
        <time>2022-08-16T14:26:36.000Z</time>
      </trkpt>
      <trkpt lat="45.83463" lon="4.67795">
        <ele>265.89441</ele>
        <time>2022-08-16T14:26:37.000Z</time>
      </trkpt>
      <trkpt lat="45.8346" lon="4.6779">
        <ele>265.65001</ele>
        <time>2022-08-16T14:26:38.000Z</time>
      </trkpt>
      <trkpt lat="45.8346" lon="4.67785">
        <ele>265.32259</ele>
        <time>2022-08-16T14:26:39.000Z</time>
      </trkpt>
      <trkpt lat="45.83459" lon="4.6778">
        <ele>265.01558</ele>
        <time>2022-08-16T14:26:40.000Z</time>
      </trkpt>
      <trkpt lat="45.83458" lon="4.67775">
        <ele>264.75058</ele>
        <time>2022-08-16T14:26:41.000Z</time>
      </trkpt>
      <trkpt lat="45.83455" lon="4.6777">
        <ele>264.72999</ele>
        <time>2022-08-16T14:26:42.000Z</time>
      </trkpt>
      <trkpt lat="45.83454" lon="4.67763">
        <ele>264.45661</ele>
        <time>2022-08-16T14:26:43.000Z</time>
      </trkpt>
      <trkpt lat="45.83453" lon="4.67757">
        <ele>264.22282</ele>
        <time>2022-08-16T14:26:44.000Z</time>
      </trkpt>
      <trkpt lat="45.83451" lon="4.67753">
        <ele>264.24096</ele>
        <time>2022-08-16T14:26:45.000Z</time>
      </trkpt>
      <trkpt lat="45.83451" lon="4.67747">
        <ele>263.87892</ele>
        <time>2022-08-16T14:26:46.000Z</time>
      </trkpt>
      <trkpt lat="45.8345" lon="4.67741">
        <ele>263.80698</ele>
        <time>2022-08-16T14:26:47.000Z</time>
      </trkpt>
      <trkpt lat="45.83448" lon="4.67736">
        <ele>263.98219</ele>
        <time>2022-08-16T14:26:48.000Z</time>
      </trkpt>
      <trkpt lat="45.83445" lon="4.67732">
        <ele>264.1749</ele>
        <time>2022-08-16T14:26:49.000Z</time>
      </trkpt>
      <trkpt lat="45.83443" lon="4.67728">
        <ele>264.3657</ele>
        <time>2022-08-16T14:26:50.000Z</time>
      </trkpt>
      <trkpt lat="45.83441" lon="4.67725">
        <ele>264.63428</ele>
        <time>2022-08-16T14:26:51.000Z</time>
      </trkpt>
      <trkpt lat="45.83438" lon="4.67723">
        <ele>264.9476</ele>
        <time>2022-08-16T14:26:52.000Z</time>
      </trkpt>
      <trkpt lat="45.83435" lon="4.67721">
        <ele>265.24096</ele>
        <time>2022-08-16T14:26:53.000Z</time>
      </trkpt>
      <trkpt lat="45.83432" lon="4.67718">
        <ele>265.51094</ele>
        <time>2022-08-16T14:26:54.000Z</time>
      </trkpt>
      <trkpt lat="45.8343" lon="4.67716">
        <ele>265.74699</ele>
        <time>2022-08-16T14:26:55.000Z</time>
      </trkpt>
      <trkpt lat="45.83427" lon="4.67714">
        <ele>265.95015</ele>
        <time>2022-08-16T14:26:56.000Z</time>
      </trkpt>
      <trkpt lat="45.83424" lon="4.67711">
        <ele>266.15097</ele>
        <time>2022-08-16T14:26:57.000Z</time>
      </trkpt>
      <trkpt lat="45.83422" lon="4.67709">
        <ele>266.37499</ele>
        <time>2022-08-16T14:26:58.000Z</time>
      </trkpt>
      <trkpt lat="45.83419" lon="4.67706">
        <ele>266.56247</ele>
        <time>2022-08-16T14:26:59.000Z</time>
      </trkpt>
      <trkpt lat="45.83416" lon="4.67703">
        <ele>266.79336</ele>
        <time>2022-08-16T14:27:00.000Z</time>
      </trkpt>
      <trkpt lat="45.83413" lon="4.67701">
        <ele>266.98732</ele>
        <time>2022-08-16T14:27:01.000Z</time>
      </trkpt>
      <trkpt lat="45.83409" lon="4.67698">
        <ele>267.221</ele>
        <time>2022-08-16T14:27:02.000Z</time>
      </trkpt>
      <trkpt lat="45.83406" lon="4.67696">
        <ele>267.39401</ele>
        <time>2022-08-16T14:27:03.000Z</time>
      </trkpt>
      <trkpt lat="45.83403" lon="4.67694">
        <ele>267.56326</ele>
        <time>2022-08-16T14:27:04.000Z</time>
      </trkpt>
      <trkpt lat="45.83399" lon="4.67692">
        <ele>267.66726</ele>
        <time>2022-08-16T14:27:05.000Z</time>
      </trkpt>
      <trkpt lat="45.83396" lon="4.6769">
        <ele>267.74579</ele>
        <time>2022-08-16T14:27:06.000Z</time>
      </trkpt>
      <trkpt lat="45.83392" lon="4.67688">
        <ele>267.79284</ele>
        <time>2022-08-16T14:27:07.000Z</time>
      </trkpt>
      <trkpt lat="45.83389" lon="4.67686">
        <ele>267.8361</ele>
        <time>2022-08-16T14:27:08.000Z</time>
      </trkpt>
      <trkpt lat="45.83386" lon="4.67683">
        <ele>267.86186</ele>
        <time>2022-08-16T14:27:09.000Z</time>
      </trkpt>
      <trkpt lat="45.83382" lon="4.67681">
        <ele>267.96346</ele>
        <time>2022-08-16T14:27:10.000Z</time>
      </trkpt>
      <trkpt lat="45.83379" lon="4.67679">
        <ele>268.09284</ele>
        <time>2022-08-16T14:27:11.000Z</time>
      </trkpt>
      <trkpt lat="45.83375" lon="4.67677">
        <ele>268.20604</ele>
        <time>2022-08-16T14:27:12.000Z</time>
      </trkpt>
      <trkpt lat="45.83372" lon="4.67674">
        <ele>268.33785</ele>
        <time>2022-08-16T14:27:13.000Z</time>
      </trkpt>
      <trkpt lat="45.83367" lon="4.67672">
        <ele>268.59021</ele>
        <time>2022-08-16T14:27:14.000Z</time>
      </trkpt>
      <trkpt lat="45.83363" lon="4.6767">
        <ele>268.87324</ele>
        <time>2022-08-16T14:27:15.000Z</time>
      </trkpt>
      <trkpt lat="45.83358" lon="4.67669">
        <ele>269.12401</ele>
        <time>2022-08-16T14:27:16.000Z</time>
      </trkpt>
      <trkpt lat="45.83355" lon="4.67668">
        <ele>269.38657</ele>
        <time>2022-08-16T14:27:17.000Z</time>
      </trkpt>
      <trkpt lat="45.83351" lon="4.67667">
        <ele>269.72836</ele>
        <time>2022-08-16T14:27:18.000Z</time>
      </trkpt>
      <trkpt lat="45.83348" lon="4.67666">
        <ele>270.04798</ele>
        <time>2022-08-16T14:27:19.000Z</time>
      </trkpt>
      <trkpt lat="45.83345" lon="4.67665">
        <ele>270.30398</ele>
        <time>2022-08-16T14:27:20.000Z</time>
      </trkpt>
      <trkpt lat="45.83342" lon="4.67663">
        <ele>270.51552</ele>
        <time>2022-08-16T14:27:21.000Z</time>
      </trkpt>
      <trkpt lat="45.83339" lon="4.67662">
        <ele>270.6724</ele>
        <time>2022-08-16T14:27:22.000Z</time>
      </trkpt>
      <trkpt lat="45.83336" lon="4.6766">
        <ele>270.78626</ele>
        <time>2022-08-16T14:27:23.000Z</time>
      </trkpt>
      <trkpt lat="45.83333" lon="4.67658">
        <ele>270.8679</ele>
        <time>2022-08-16T14:27:24.000Z</time>
      </trkpt>
      <trkpt lat="45.83329" lon="4.67656">
        <ele>270.97884</ele>
        <time>2022-08-16T14:27:25.000Z</time>
      </trkpt>
      <trkpt lat="45.83326" lon="4.67653">
        <ele>271.04977</ele>
        <time>2022-08-16T14:27:26.000Z</time>
      </trkpt>
      <trkpt lat="45.83322" lon="4.6765">
        <ele>271.16395</ele>
        <time>2022-08-16T14:27:27.000Z</time>
      </trkpt>
      <trkpt lat="45.83319" lon="4.67648">
        <ele>271.278</ele>
        <time>2022-08-16T14:27:28.000Z</time>
      </trkpt>
      <trkpt lat="45.83316" lon="4.67645">
        <ele>271.4737</ele>
        <time>2022-08-16T14:27:29.000Z</time>
      </trkpt>
      <trkpt lat="45.83313" lon="4.67644">
        <ele>271.66458</ele>
        <time>2022-08-16T14:27:30.000Z</time>
      </trkpt>
      <trkpt lat="45.8331" lon="4.67643">
        <ele>271.86646</ele>
        <time>2022-08-16T14:27:31.000Z</time>
      </trkpt>
      <trkpt lat="45.83307" lon="4.67642">
        <ele>272.09644</ele>
        <time>2022-08-16T14:27:32.000Z</time>
      </trkpt>
      <trkpt lat="45.83304" lon="4.67641">
        <ele>272.28939</ele>
        <time>2022-08-16T14:27:33.000Z</time>
      </trkpt>
      <trkpt lat="45.833" lon="4.6764">
        <ele>272.5282</ele>
        <time>2022-08-16T14:27:34.000Z</time>
      </trkpt>
      <trkpt lat="45.83295" lon="4.67639">
        <ele>272.75659</ele>
        <time>2022-08-16T14:27:35.000Z</time>
      </trkpt>
      <trkpt lat="45.8329" lon="4.67638">
        <ele>272.92967</ele>
        <time>2022-08-16T14:27:36.000Z</time>
      </trkpt>
      <trkpt lat="45.83285" lon="4.67636">
        <ele>272.98227</ele>
        <time>2022-08-16T14:27:37.000Z</time>
      </trkpt>
      <trkpt lat="45.83279" lon="4.67635">
        <ele>272.94196</ele>
        <time>2022-08-16T14:27:38.000Z</time>
      </trkpt>
      <trkpt lat="45.83269" lon="4.67634">
        <ele>272.80611</ele>
        <time>2022-08-16T14:27:39.000Z</time>
      </trkpt>
      <trkpt lat="45.83263" lon="4.67633">
        <ele>272.56825</ele>
        <time>2022-08-16T14:27:40.000Z</time>
      </trkpt>
      <trkpt lat="45.83257" lon="4.67631">
        <ele>272.1645</ele>
        <time>2022-08-16T14:27:41.000Z</time>
      </trkpt>
      <trkpt lat="45.83252" lon="4.67629">
        <ele>271.82076</ele>
        <time>2022-08-16T14:27:42.000Z</time>
      </trkpt>
      <trkpt lat="45.83247" lon="4.67624">
        <ele>271.48405</ele>
        <time>2022-08-16T14:27:43.000Z</time>
      </trkpt>
      <trkpt lat="45.83243" lon="4.67619">
        <ele>271.33837</ele>
        <time>2022-08-16T14:27:44.000Z</time>
      </trkpt>
      <trkpt lat="45.83241" lon="4.67612">
        <ele>271.27643</ele>
        <time>2022-08-16T14:27:45.000Z</time>
      </trkpt>
      <trkpt lat="45.8324" lon="4.67605">
        <ele>271.26029</ele>
        <time>2022-08-16T14:27:46.000Z</time>
      </trkpt>
      <trkpt lat="45.83239" lon="4.67598">
        <ele>271.32197</ele>
        <time>2022-08-16T14:27:47.000Z</time>
      </trkpt>
      <trkpt lat="45.8324" lon="4.67591">
        <ele>271.29042</ele>
        <time>2022-08-16T14:27:48.000Z</time>
      </trkpt>
      <trkpt lat="45.83241" lon="4.67585">
        <ele>271.18468</ele>
        <time>2022-08-16T14:27:49.000Z</time>
      </trkpt>
      <trkpt lat="45.83242" lon="4.6758">
        <ele>271.08064</ele>
        <time>2022-08-16T14:27:50.000Z</time>
      </trkpt>
      <trkpt lat="45.83244" lon="4.67576">
        <ele>270.89357</ele>
        <time>2022-08-16T14:27:51.000Z</time>
      </trkpt>
      <trkpt lat="45.83245" lon="4.67571">
        <ele>270.73149</ele>
        <time>2022-08-16T14:27:52.000Z</time>
      </trkpt>
      <trkpt lat="45.83246" lon="4.67567">
        <ele>270.71788</ele>
        <time>2022-08-16T14:27:53.000Z</time>
      </trkpt>
      <trkpt lat="45.83247" lon="4.67563">
        <ele>270.71378</ele>
        <time>2022-08-16T14:27:54.000Z</time>
      </trkpt>
      <trkpt lat="45.83246" lon="4.67559">
        <ele>270.90347</ele>
        <time>2022-08-16T14:27:55.000Z</time>
      </trkpt>
      <trkpt lat="45.83246" lon="4.67554">
        <ele>271.06977</ele>
        <time>2022-08-16T14:27:56.000Z</time>
      </trkpt>
      <trkpt lat="45.83246" lon="4.67549">
        <ele>271.1085</ele>
        <time>2022-08-16T14:27:58.000Z</time>
      </trkpt>
      <trkpt lat="45.83246" lon="4.67547">
        <ele>271.10671</ele>
        <time>2022-08-16T14:27:59.000Z</time>
      </trkpt>
      <trkpt lat="45.83246" lon="4.67543">
        <ele>271.15367</ele>
        <time>2022-08-16T14:28:00.000Z</time>
      </trkpt>
      <trkpt lat="45.83245" lon="4.6754">
        <ele>271.18749</ele>
        <time>2022-08-16T14:28:01.000Z</time>
      </trkpt>
      <trkpt lat="45.83244" lon="4.67538">
        <ele>271.2457</ele>
        <time>2022-08-16T14:28:02.000Z</time>
      </trkpt>
      <trkpt lat="45.83243" lon="4.67536">
        <ele>271.28323</ele>
        <time>2022-08-16T14:28:03.000Z</time>
      </trkpt>
      <trkpt lat="45.83241" lon="4.67534">
        <ele>271.38583</ele>
        <time>2022-08-16T14:28:04.000Z</time>
      </trkpt>
      <trkpt lat="45.83239" lon="4.67532">
        <ele>271.53286</ele>
        <time>2022-08-16T14:28:05.000Z</time>
      </trkpt>
      <trkpt lat="45.83236" lon="4.67529">
        <ele>271.71663</ele>
        <time>2022-08-16T14:28:06.000Z</time>
      </trkpt>
      <trkpt lat="45.83233" lon="4.67527">
        <ele>271.88737</ele>
        <time>2022-08-16T14:28:07.000Z</time>
      </trkpt>
      <trkpt lat="45.8323" lon="4.67524">
        <ele>272.08634</ele>
        <time>2022-08-16T14:28:08.000Z</time>
      </trkpt>
      <trkpt lat="45.83227" lon="4.67522">
        <ele>272.24633</ele>
        <time>2022-08-16T14:28:09.000Z</time>
      </trkpt>
      <trkpt lat="45.83224" lon="4.6752">
        <ele>272.34276</ele>
        <time>2022-08-16T14:28:10.000Z</time>
      </trkpt>
      <trkpt lat="45.83221" lon="4.67518">
        <ele>272.51708</ele>
        <time>2022-08-16T14:28:11.000Z</time>
      </trkpt>
      <trkpt lat="45.83218" lon="4.67516">
        <ele>272.73639</ele>
        <time>2022-08-16T14:28:12.000Z</time>
      </trkpt>
      <trkpt lat="45.83216" lon="4.67513">
        <ele>273.03827</ele>
        <time>2022-08-16T14:28:13.000Z</time>
      </trkpt>
      <trkpt lat="45.83213" lon="4.67511">
        <ele>273.35447</ele>
        <time>2022-08-16T14:28:14.000Z</time>
      </trkpt>
      <trkpt lat="45.83211" lon="4.67508">
        <ele>273.63633</ele>
        <time>2022-08-16T14:28:15.000Z</time>
      </trkpt>
      <trkpt lat="45.83209" lon="4.67505">
        <ele>273.94058</ele>
        <time>2022-08-16T14:28:16.000Z</time>
      </trkpt>
      <trkpt lat="45.83206" lon="4.67503">
        <ele>274.18305</ele>
        <time>2022-08-16T14:28:17.000Z</time>
      </trkpt>
      <trkpt lat="45.83204" lon="4.675">
        <ele>274.34281</ele>
        <time>2022-08-16T14:28:18.000Z</time>
      </trkpt>
      <trkpt lat="45.83187" lon="4.6748">
        <ele>274.71716</ele>
        <time>2022-08-16T14:28:24.000Z</time>
      </trkpt>
      <trkpt lat="45.83184" lon="4.67477">
        <ele>274.79625</ele>
        <time>2022-08-16T14:28:25.000Z</time>
      </trkpt>
      <trkpt lat="45.83181" lon="4.67474">
        <ele>274.87838</ele>
        <time>2022-08-16T14:28:26.000Z</time>
      </trkpt>
      <trkpt lat="45.83178" lon="4.67471">
        <ele>274.90158</ele>
        <time>2022-08-16T14:28:27.000Z</time>
      </trkpt>
      <trkpt lat="45.83176" lon="4.67469">
        <ele>274.89177</ele>
        <time>2022-08-16T14:28:28.000Z</time>
      </trkpt>
      <trkpt lat="45.83173" lon="4.67467">
        <ele>274.87222</ele>
        <time>2022-08-16T14:28:29.000Z</time>
      </trkpt>
      <trkpt lat="45.8317" lon="4.67467">
        <ele>274.87503</ele>
        <time>2022-08-16T14:28:30.000Z</time>
      </trkpt>
      <trkpt lat="45.83166" lon="4.67467">
        <ele>274.90855</ele>
        <time>2022-08-16T14:28:31.000Z</time>
      </trkpt>
      <trkpt lat="45.83163" lon="4.67468">
        <ele>274.97029</ele>
        <time>2022-08-16T14:28:32.000Z</time>
      </trkpt>
      <trkpt lat="45.83161" lon="4.67469">
        <ele>275.037</ele>
        <time>2022-08-16T14:28:33.000Z</time>
      </trkpt>
      <trkpt lat="45.83158" lon="4.67469">
        <ele>275.11213</ele>
        <time>2022-08-16T14:28:34.000Z</time>
      </trkpt>
      <trkpt lat="45.83155" lon="4.67468">
        <ele>275.17477</ele>
        <time>2022-08-16T14:28:35.000Z</time>
      </trkpt>
      <trkpt lat="45.83152" lon="4.67467">
        <ele>275.22033</ele>
        <time>2022-08-16T14:28:36.000Z</time>
      </trkpt>
      <trkpt lat="45.8315" lon="4.67465">
        <ele>275.22355</ele>
        <time>2022-08-16T14:28:37.000Z</time>
      </trkpt>
      <trkpt lat="45.83148" lon="4.67463">
        <ele>275.18112</ele>
        <time>2022-08-16T14:28:38.000Z</time>
      </trkpt>
      <trkpt lat="45.83147" lon="4.67461">
        <ele>275.11973</ele>
        <time>2022-08-16T14:28:39.000Z</time>
      </trkpt>
      <trkpt lat="45.83146" lon="4.67458">
        <ele>275.04019</ele>
        <time>2022-08-16T14:28:40.000Z</time>
      </trkpt>
      <trkpt lat="45.83146" lon="4.67454">
        <ele>274.92241</ele>
        <time>2022-08-16T14:28:41.000Z</time>
      </trkpt>
      <trkpt lat="45.83146" lon="4.67451">
        <ele>274.77846</ele>
        <time>2022-08-16T14:28:42.000Z</time>
      </trkpt>
      <trkpt lat="45.83148" lon="4.67447">
        <ele>274.66397</ele>
        <time>2022-08-16T14:28:43.000Z</time>
      </trkpt>
      <trkpt lat="45.83149" lon="4.67445">
        <ele>274.58644</ele>
        <time>2022-08-16T14:28:44.000Z</time>
      </trkpt>
      <trkpt lat="45.83152" lon="4.67443">
        <ele>274.52504</ele>
        <time>2022-08-16T14:28:45.000Z</time>
      </trkpt>
      <trkpt lat="45.83155" lon="4.67442">
        <ele>274.48052</ele>
        <time>2022-08-16T14:28:46.000Z</time>
      </trkpt>
      <trkpt lat="45.83157" lon="4.67441">
        <ele>274.44055</ele>
        <time>2022-08-16T14:28:47.000Z</time>
      </trkpt>
      <trkpt lat="45.8316" lon="4.6744">
        <ele>274.3989</ele>
        <time>2022-08-16T14:28:48.000Z</time>
      </trkpt>
      <trkpt lat="45.83162" lon="4.67439">
        <ele>274.36769</ele>
        <time>2022-08-16T14:28:49.000Z</time>
      </trkpt>
      <trkpt lat="45.83164" lon="4.67438">
        <ele>274.34719</ele>
        <time>2022-08-16T14:28:50.000Z</time>
      </trkpt>
      <trkpt lat="45.83167" lon="4.67437">
        <ele>274.33621</ele>
        <time>2022-08-16T14:28:51.000Z</time>
      </trkpt>
      <trkpt lat="45.83169" lon="4.67436">
        <ele>274.33485</ele>
        <time>2022-08-16T14:28:52.000Z</time>
      </trkpt>
      <trkpt lat="45.83171" lon="4.67435">
        <ele>274.34293</ele>
        <time>2022-08-16T14:28:53.000Z</time>
      </trkpt>
      <trkpt lat="45.83174" lon="4.67434">
        <ele>274.35782</ele>
        <time>2022-08-16T14:28:54.000Z</time>
      </trkpt>
      <trkpt lat="45.83176" lon="4.67432">
        <ele>274.39315</ele>
        <time>2022-08-16T14:28:55.000Z</time>
      </trkpt>
      <trkpt lat="45.83178" lon="4.67431">
        <ele>274.43433</ele>
        <time>2022-08-16T14:28:56.000Z</time>
      </trkpt>
      <trkpt lat="45.83181" lon="4.6743">
        <ele>274.49252</ele>
        <time>2022-08-16T14:28:57.000Z</time>
      </trkpt>
      <trkpt lat="45.83183" lon="4.6743">
        <ele>274.54297</ele>
        <time>2022-08-16T14:28:58.000Z</time>
      </trkpt>
      <trkpt lat="45.83186" lon="4.67429">
        <ele>274.58178</ele>
        <time>2022-08-16T14:28:59.000Z</time>
      </trkpt>
      <trkpt lat="45.83189" lon="4.67429">
        <ele>274.6413</ele>
        <time>2022-08-16T14:29:00.000Z</time>
      </trkpt>
      <trkpt lat="45.83192" lon="4.67428">
        <ele>274.71811</ele>
        <time>2022-08-16T14:29:01.000Z</time>
      </trkpt>
      <trkpt lat="45.83195" lon="4.67426">
        <ele>274.90882</ele>
        <time>2022-08-16T14:29:02.000Z</time>
      </trkpt>
      <trkpt lat="45.83199" lon="4.67425">
        <ele>275.15998</ele>
        <time>2022-08-16T14:29:03.000Z</time>
      </trkpt>
      <trkpt lat="45.83202" lon="4.67422">
        <ele>275.5492</ele>
        <time>2022-08-16T14:29:04.000Z</time>
      </trkpt>
      <trkpt lat="45.83205" lon="4.67419">
        <ele>276.07524</ele>
        <time>2022-08-16T14:29:05.000Z</time>
      </trkpt>
      <trkpt lat="45.83209" lon="4.67416">
        <ele>276.76834</ele>
        <time>2022-08-16T14:29:06.000Z</time>
      </trkpt>
      <trkpt lat="45.83212" lon="4.67412">
        <ele>277.48341</ele>
        <time>2022-08-16T14:29:07.000Z</time>
      </trkpt>
      <trkpt lat="45.83215" lon="4.67409">
        <ele>278.0993</ele>
        <time>2022-08-16T14:29:08.000Z</time>
      </trkpt>
      <trkpt lat="45.83218" lon="4.67406">
        <ele>278.79593</ele>
        <time>2022-08-16T14:29:09.000Z</time>
      </trkpt>
      <trkpt lat="45.83221" lon="4.67403">
        <ele>279.53651</ele>
        <time>2022-08-16T14:29:10.000Z</time>
      </trkpt>
      <trkpt lat="45.83224" lon="4.67401">
        <ele>280.19367</ele>
        <time>2022-08-16T14:29:11.000Z</time>
      </trkpt>
      <trkpt lat="45.83227" lon="4.67398">
        <ele>280.79724</ele>
        <time>2022-08-16T14:29:12.000Z</time>
      </trkpt>
      <trkpt lat="45.83229" lon="4.67397">
        <ele>281.26931</ele>
        <time>2022-08-16T14:29:13.000Z</time>
      </trkpt>
      <trkpt lat="45.83231" lon="4.67395">
        <ele>281.68067</ele>
        <time>2022-08-16T14:29:14.000Z</time>
      </trkpt>
      <trkpt lat="45.83233" lon="4.67394">
        <ele>282.10607</ele>
        <time>2022-08-16T14:29:15.000Z</time>
      </trkpt>
      <trkpt lat="45.83235" lon="4.67392">
        <ele>282.59337</ele>
        <time>2022-08-16T14:29:16.000Z</time>
      </trkpt>
      <trkpt lat="45.83238" lon="4.67391">
        <ele>283.18082</ele>
        <time>2022-08-16T14:29:17.000Z</time>
      </trkpt>
      <trkpt lat="45.83241" lon="4.6739">
        <ele>283.60033</ele>
        <time>2022-08-16T14:29:18.000Z</time>
      </trkpt>
      <trkpt lat="45.83243" lon="4.67389">
        <ele>284.00432</ele>
        <time>2022-08-16T14:29:19.000Z</time>
      </trkpt>
      <trkpt lat="45.83245" lon="4.67387">
        <ele>284.52208</ele>
        <time>2022-08-16T14:29:20.000Z</time>
      </trkpt>
      <trkpt lat="45.83247" lon="4.67385">
        <ele>284.99327</ele>
        <time>2022-08-16T14:29:21.000Z</time>
      </trkpt>
      <trkpt lat="45.83249" lon="4.6738">
        <ele>285.71326</ele>
        <time>2022-08-16T14:29:23.000Z</time>
      </trkpt>
      <trkpt lat="45.8325" lon="4.67376">
        <ele>286.18138</ele>
        <time>2022-08-16T14:29:24.000Z</time>
      </trkpt>
      <trkpt lat="45.83252" lon="4.67373">
        <ele>286.66751</ele>
        <time>2022-08-16T14:29:25.000Z</time>
      </trkpt>
      <trkpt lat="45.83254" lon="4.67369">
        <ele>287.08058</ele>
        <time>2022-08-16T14:29:26.000Z</time>
      </trkpt>
      <trkpt lat="45.83255" lon="4.67364">
        <ele>287.44084</ele>
        <time>2022-08-16T14:29:27.000Z</time>
      </trkpt>
      <trkpt lat="45.83256" lon="4.6736">
        <ele>287.80716</ele>
        <time>2022-08-16T14:29:28.000Z</time>
      </trkpt>
      <trkpt lat="45.83258" lon="4.67356">
        <ele>288.13367</ele>
        <time>2022-08-16T14:29:29.000Z</time>
      </trkpt>
      <trkpt lat="45.83259" lon="4.67352">
        <ele>288.40896</ele>
        <time>2022-08-16T14:29:30.000Z</time>
      </trkpt>
      <trkpt lat="45.8326" lon="4.67349">
        <ele>288.638</ele>
        <time>2022-08-16T14:29:31.000Z</time>
      </trkpt>
      <trkpt lat="45.8326" lon="4.67345">
        <ele>288.8055</ele>
        <time>2022-08-16T14:29:32.000Z</time>
      </trkpt>
      <trkpt lat="45.83261" lon="4.67342">
        <ele>288.99904</ele>
        <time>2022-08-16T14:29:33.000Z</time>
      </trkpt>
      <trkpt lat="45.83261" lon="4.67337">
        <ele>289.20652</ele>
        <time>2022-08-16T14:29:34.000Z</time>
      </trkpt>
      <trkpt lat="45.83262" lon="4.67332">
        <ele>289.46002</ele>
        <time>2022-08-16T14:29:35.000Z</time>
      </trkpt>
      <trkpt lat="45.83263" lon="4.67327">
        <ele>289.68735</ele>
        <time>2022-08-16T14:29:36.000Z</time>
      </trkpt>
      <trkpt lat="45.83263" lon="4.67321">
        <ele>289.89086</ele>
        <time>2022-08-16T14:29:37.000Z</time>
      </trkpt>
      <trkpt lat="45.83263" lon="4.67316">
        <ele>290.04336</ele>
        <time>2022-08-16T14:29:38.000Z</time>
      </trkpt>
      <trkpt lat="45.83263" lon="4.67312">
        <ele>290.15238</ele>
        <time>2022-08-16T14:29:39.000Z</time>
      </trkpt>
      <trkpt lat="45.83262" lon="4.67307">
        <ele>290.23086</ele>
        <time>2022-08-16T14:29:40.000Z</time>
      </trkpt>
      <trkpt lat="45.83262" lon="4.67302">
        <ele>290.30967</ele>
        <time>2022-08-16T14:29:41.000Z</time>
      </trkpt>
      <trkpt lat="45.83261" lon="4.67298">
        <ele>290.39642</ele>
        <time>2022-08-16T14:29:42.000Z</time>
      </trkpt>
      <trkpt lat="45.83261" lon="4.67294">
        <ele>290.48068</ele>
        <time>2022-08-16T14:29:43.000Z</time>
      </trkpt>
      <trkpt lat="45.83261" lon="4.6729">
        <ele>290.59646</ele>
        <time>2022-08-16T14:29:44.000Z</time>
      </trkpt>
      <trkpt lat="45.8326" lon="4.67286">
        <ele>290.76725</ele>
        <time>2022-08-16T14:29:45.000Z</time>
      </trkpt>
      <trkpt lat="45.8326" lon="4.67282">
        <ele>290.98842</ele>
        <time>2022-08-16T14:29:46.000Z</time>
      </trkpt>
      <trkpt lat="45.8326" lon="4.67279">
        <ele>291.25165</ele>
        <time>2022-08-16T14:29:47.000Z</time>
      </trkpt>
      <trkpt lat="45.8326" lon="4.67275">
        <ele>291.5561</ele>
        <time>2022-08-16T14:29:48.000Z</time>
      </trkpt>
      <trkpt lat="45.8326" lon="4.67272">
        <ele>291.87699</ele>
        <time>2022-08-16T14:29:49.000Z</time>
      </trkpt>
      <trkpt lat="45.83261" lon="4.67268">
        <ele>292.20208</ele>
        <time>2022-08-16T14:29:50.000Z</time>
      </trkpt>
      <trkpt lat="45.83261" lon="4.67266">
        <ele>292.50213</ele>
        <time>2022-08-16T14:29:51.000Z</time>
      </trkpt>
      <trkpt lat="45.83262" lon="4.67262">
        <ele>292.82392</ele>
        <time>2022-08-16T14:29:52.000Z</time>
      </trkpt>
      <trkpt lat="45.83262" lon="4.67259">
        <ele>293.11066</ele>
        <time>2022-08-16T14:29:53.000Z</time>
      </trkpt>
      <trkpt lat="45.83262" lon="4.67256">
        <ele>293.42528</ele>
        <time>2022-08-16T14:29:54.000Z</time>
      </trkpt>
      <trkpt lat="45.83261" lon="4.67251">
        <ele>293.76871</ele>
        <time>2022-08-16T14:29:55.000Z</time>
      </trkpt>
      <trkpt lat="45.8326" lon="4.67248">
        <ele>294.04117</ele>
        <time>2022-08-16T14:29:56.000Z</time>
      </trkpt>
      <trkpt lat="45.83259" lon="4.67244">
        <ele>294.29729</ele>
        <time>2022-08-16T14:29:57.000Z</time>
      </trkpt>
      <trkpt lat="45.83259" lon="4.67241">
        <ele>294.53743</ele>
        <time>2022-08-16T14:29:58.000Z</time>
      </trkpt>
      <trkpt lat="45.83258" lon="4.67237">
        <ele>294.74755</ele>
        <time>2022-08-16T14:29:59.000Z</time>
      </trkpt>
      <trkpt lat="45.83258" lon="4.67234">
        <ele>294.95936</ele>
        <time>2022-08-16T14:30:00.000Z</time>
      </trkpt>
      <trkpt lat="45.83256" lon="4.6723">
        <ele>295.16839</ele>
        <time>2022-08-16T14:30:01.000Z</time>
      </trkpt>
      <trkpt lat="45.83255" lon="4.67227">
        <ele>295.3455</ele>
        <time>2022-08-16T14:30:02.000Z</time>
      </trkpt>
      <trkpt lat="45.83254" lon="4.67224">
        <ele>295.51819</ele>
        <time>2022-08-16T14:30:03.000Z</time>
      </trkpt>
      <trkpt lat="45.83253" lon="4.6722">
        <ele>295.6915</ele>
        <time>2022-08-16T14:30:04.000Z</time>
      </trkpt>
      <trkpt lat="45.83252" lon="4.67217">
        <ele>295.84115</ele>
        <time>2022-08-16T14:30:05.000Z</time>
      </trkpt>
      <trkpt lat="45.83252" lon="4.67213">
        <ele>295.99368</ele>
        <time>2022-08-16T14:30:06.000Z</time>
      </trkpt>
      <trkpt lat="45.83252" lon="4.6721">
        <ele>296.12062</ele>
        <time>2022-08-16T14:30:07.000Z</time>
      </trkpt>
      <trkpt lat="45.83251" lon="4.67207">
        <ele>296.22748</ele>
        <time>2022-08-16T14:30:08.000Z</time>
      </trkpt>
      <trkpt lat="45.8325" lon="4.67202">
        <ele>296.3839</ele>
        <time>2022-08-16T14:30:10.000Z</time>
      </trkpt>
      <trkpt lat="45.83249" lon="4.67199">
        <ele>296.45484</ele>
        <time>2022-08-16T14:30:11.000Z</time>
      </trkpt>
      <trkpt lat="45.83248" lon="4.67196">
        <ele>296.50519</ele>
        <time>2022-08-16T14:30:12.000Z</time>
      </trkpt>
      <trkpt lat="45.83246" lon="4.67194">
        <ele>296.52913</ele>
        <time>2022-08-16T14:30:13.000Z</time>
      </trkpt>
      <trkpt lat="45.83244" lon="4.67191">
        <ele>296.5729</ele>
        <time>2022-08-16T14:30:14.000Z</time>
      </trkpt>
      <trkpt lat="45.83243" lon="4.67189">
        <ele>296.61995</ele>
        <time>2022-08-16T14:30:15.000Z</time>
      </trkpt>
      <trkpt lat="45.83241" lon="4.67186">
        <ele>296.67857</ele>
        <time>2022-08-16T14:30:16.000Z</time>
      </trkpt>
      <trkpt lat="45.8324" lon="4.67183">
        <ele>296.73263</ele>
        <time>2022-08-16T14:30:17.000Z</time>
      </trkpt>
      <trkpt lat="45.83238" lon="4.6718">
        <ele>296.77742</ele>
        <time>2022-08-16T14:30:18.000Z</time>
      </trkpt>
      <trkpt lat="45.83236" lon="4.67177">
        <ele>296.81331</ele>
        <time>2022-08-16T14:30:19.000Z</time>
      </trkpt>
      <trkpt lat="45.83234" lon="4.67174">
        <ele>296.85294</ele>
        <time>2022-08-16T14:30:20.000Z</time>
      </trkpt>
      <trkpt lat="45.83233" lon="4.67171">
        <ele>296.89588</ele>
        <time>2022-08-16T14:30:21.000Z</time>
      </trkpt>
      <trkpt lat="45.83232" lon="4.67168">
        <ele>296.93806</ele>
        <time>2022-08-16T14:30:22.000Z</time>
      </trkpt>
      <trkpt lat="45.83231" lon="4.67166">
        <ele>296.97453</ele>
        <time>2022-08-16T14:30:23.000Z</time>
      </trkpt>
      <trkpt lat="45.8323" lon="4.67164">
        <ele>297.03973</ele>
        <time>2022-08-16T14:30:24.000Z</time>
      </trkpt>
      <trkpt lat="45.8323" lon="4.67161">
        <ele>297.11758</ele>
        <time>2022-08-16T14:30:25.000Z</time>
      </trkpt>
      <trkpt lat="45.83229" lon="4.67158">
        <ele>297.21455</ele>
        <time>2022-08-16T14:30:26.000Z</time>
      </trkpt>
      <trkpt lat="45.83229" lon="4.67155">
        <ele>297.32804</ele>
        <time>2022-08-16T14:30:27.000Z</time>
      </trkpt>
      <trkpt lat="45.83229" lon="4.67152">
        <ele>297.46251</ele>
        <time>2022-08-16T14:30:28.000Z</time>
      </trkpt>
      <trkpt lat="45.83229" lon="4.67149">
        <ele>297.63861</ele>
        <time>2022-08-16T14:30:29.000Z</time>
      </trkpt>
      <trkpt lat="45.83228" lon="4.67145">
        <ele>297.83415</ele>
        <time>2022-08-16T14:30:30.000Z</time>
      </trkpt>
      <trkpt lat="45.83228" lon="4.67141">
        <ele>298.02167</ele>
        <time>2022-08-16T14:30:31.000Z</time>
      </trkpt>
      <trkpt lat="45.83226" lon="4.67137">
        <ele>298.2036</ele>
        <time>2022-08-16T14:30:32.000Z</time>
      </trkpt>
      <trkpt lat="45.83225" lon="4.67133">
        <ele>298.34869</ele>
        <time>2022-08-16T14:30:33.000Z</time>
      </trkpt>
      <trkpt lat="45.83224" lon="4.67129">
        <ele>298.49857</ele>
        <time>2022-08-16T14:30:34.000Z</time>
      </trkpt>
      <trkpt lat="45.83223" lon="4.67125">
        <ele>298.64759</ele>
        <time>2022-08-16T14:30:35.000Z</time>
      </trkpt>
      <trkpt lat="45.83223" lon="4.67121">
        <ele>298.80639</ele>
        <time>2022-08-16T14:30:36.000Z</time>
      </trkpt>
      <trkpt lat="45.83222" lon="4.67117">
        <ele>298.91387</ele>
        <time>2022-08-16T14:30:37.000Z</time>
      </trkpt>
      <trkpt lat="45.83222" lon="4.67113">
        <ele>298.99007</ele>
        <time>2022-08-16T14:30:38.000Z</time>
      </trkpt>
      <trkpt lat="45.8322" lon="4.67109">
        <ele>299.03485</ele>
        <time>2022-08-16T14:30:39.000Z</time>
      </trkpt>
      <trkpt lat="45.83219" lon="4.67105">
        <ele>299.10377</ele>
        <time>2022-08-16T14:30:40.000Z</time>
      </trkpt>
      <trkpt lat="45.83219" lon="4.67102">
        <ele>299.17431</ele>
        <time>2022-08-16T14:30:41.000Z</time>
      </trkpt>
      <trkpt lat="45.83218" lon="4.67098">
        <ele>299.26636</ele>
        <time>2022-08-16T14:30:42.000Z</time>
      </trkpt>
      <trkpt lat="45.83217" lon="4.67094">
        <ele>299.36467</ele>
        <time>2022-08-16T14:30:43.000Z</time>
      </trkpt>
      <trkpt lat="45.83217" lon="4.67091">
        <ele>299.44272</ele>
        <time>2022-08-16T14:30:44.000Z</time>
      </trkpt>
      <trkpt lat="45.83216" lon="4.67088">
        <ele>299.51429</ele>
        <time>2022-08-16T14:30:45.000Z</time>
      </trkpt>
      <trkpt lat="45.83215" lon="4.67084">
        <ele>299.55208</ele>
        <time>2022-08-16T14:30:47.000Z</time>
      </trkpt>
      <trkpt lat="45.83216" lon="4.67079">
        <ele>299.68169</ele>
        <time>2022-08-16T14:30:49.000Z</time>
      </trkpt>
      <trkpt lat="45.83218" lon="4.67076">
        <ele>299.79305</ele>
        <time>2022-08-16T14:30:50.000Z</time>
      </trkpt>
      <trkpt lat="45.8322" lon="4.67074">
        <ele>299.88909</ele>
        <time>2022-08-16T14:30:51.000Z</time>
      </trkpt>
      <trkpt lat="45.83222" lon="4.67073">
        <ele>299.97105</ele>
        <time>2022-08-16T14:30:52.000Z</time>
      </trkpt>
      <trkpt lat="45.83222" lon="4.67073">
        <ele>299.97105</ele>
        <time>2022-08-16T14:30:52.000Z</time>
      </trkpt>
      <trkpt lat="45.83224" lon="4.67071">
        <ele>300.04729</ele>
        <time>2022-08-16T14:30:53.000Z</time>
      </trkpt>
      <trkpt lat="45.83226" lon="4.6707">
        <ele>300.11266</ele>
        <time>2022-08-16T14:30:54.000Z</time>
      </trkpt>
      <trkpt lat="45.83228" lon="4.67068">
        <ele>300.17256</ele>
        <time>2022-08-16T14:30:55.000Z</time>
      </trkpt>
      <trkpt lat="45.8323" lon="4.67066">
        <ele>300.24875</ele>
        <time>2022-08-16T14:30:56.000Z</time>
      </trkpt>
      <trkpt lat="45.83233" lon="4.67063">
        <ele>300.3364</ele>
        <time>2022-08-16T14:30:57.000Z</time>
      </trkpt>
      <trkpt lat="45.83236" lon="4.6706">
        <ele>300.42431</ele>
        <time>2022-08-16T14:30:58.000Z</time>
      </trkpt>
      <trkpt lat="45.83238" lon="4.67058">
        <ele>300.49378</ele>
        <time>2022-08-16T14:30:59.000Z</time>
      </trkpt>
      <trkpt lat="45.8324" lon="4.67056">
        <ele>300.55126</ele>
        <time>2022-08-16T14:31:00.000Z</time>
      </trkpt>
      <trkpt lat="45.83241" lon="4.67053">
        <ele>300.60578</ele>
        <time>2022-08-16T14:31:01.000Z</time>
      </trkpt>
      <trkpt lat="45.83243" lon="4.67051">
        <ele>300.66745</ele>
        <time>2022-08-16T14:31:02.000Z</time>
      </trkpt>
      <trkpt lat="45.83246" lon="4.67048">
        <ele>300.74514</ele>
        <time>2022-08-16T14:31:03.000Z</time>
      </trkpt>
      <trkpt lat="45.83248" lon="4.67045">
        <ele>300.85189</ele>
        <time>2022-08-16T14:31:04.000Z</time>
      </trkpt>
      <trkpt lat="45.83252" lon="4.67041">
        <ele>300.9731</ele>
        <time>2022-08-16T14:31:05.000Z</time>
      </trkpt>
      <trkpt lat="45.83255" lon="4.67037">
        <ele>301.1027</ele>
        <time>2022-08-16T14:31:06.000Z</time>
      </trkpt>
      <trkpt lat="45.83258" lon="4.67034">
        <ele>301.20684</ele>
        <time>2022-08-16T14:31:07.000Z</time>
      </trkpt>
      <trkpt lat="45.8326" lon="4.67031">
        <ele>301.29948</ele>
        <time>2022-08-16T14:31:08.000Z</time>
      </trkpt>
      <trkpt lat="45.83262" lon="4.67028">
        <ele>301.3793</ele>
        <time>2022-08-16T14:31:09.000Z</time>
      </trkpt>
      <trkpt lat="45.83264" lon="4.67025">
        <ele>301.4506</ele>
        <time>2022-08-16T14:31:10.000Z</time>
      </trkpt>
      <trkpt lat="45.83266" lon="4.67022">
        <ele>301.51188</ele>
        <time>2022-08-16T14:31:11.000Z</time>
      </trkpt>
      <trkpt lat="45.83268" lon="4.6702">
        <ele>301.56679</ele>
        <time>2022-08-16T14:31:12.000Z</time>
      </trkpt>
      <trkpt lat="45.83271" lon="4.67017">
        <ele>301.63435</ele>
        <time>2022-08-16T14:31:13.000Z</time>
      </trkpt>
      <trkpt lat="45.83275" lon="4.67014">
        <ele>301.71393</ele>
        <time>2022-08-16T14:31:14.000Z</time>
      </trkpt>
      <trkpt lat="45.83278" lon="4.67012">
        <ele>301.77778</ele>
        <time>2022-08-16T14:31:15.000Z</time>
      </trkpt>
      <trkpt lat="45.83281" lon="4.6701">
        <ele>301.81973</ele>
        <time>2022-08-16T14:31:16.000Z</time>
      </trkpt>
      <trkpt lat="45.83283" lon="4.67008">
        <ele>301.85901</ele>
        <time>2022-08-16T14:31:17.000Z</time>
      </trkpt>
      <trkpt lat="45.83285" lon="4.67006">
        <ele>301.89323</ele>
        <time>2022-08-16T14:31:18.000Z</time>
      </trkpt>
      <trkpt lat="45.83287" lon="4.67004">
        <ele>301.92912</ele>
        <time>2022-08-16T14:31:19.000Z</time>
      </trkpt>
      <trkpt lat="45.83289" lon="4.67003">
        <ele>301.96078</ele>
        <time>2022-08-16T14:31:20.000Z</time>
      </trkpt>
      <trkpt lat="45.83291" lon="4.67001">
        <ele>301.99614</ele>
        <time>2022-08-16T14:31:21.000Z</time>
      </trkpt>
      <trkpt lat="45.83293" lon="4.66998">
        <ele>302.04139</ele>
        <time>2022-08-16T14:31:22.000Z</time>
      </trkpt>
      <trkpt lat="45.83295" lon="4.66996">
        <ele>302.10408</ele>
        <time>2022-08-16T14:31:23.000Z</time>
      </trkpt>
      <trkpt lat="45.83297" lon="4.66993">
        <ele>302.1867</ele>
        <time>2022-08-16T14:31:24.000Z</time>
      </trkpt>
      <trkpt lat="45.83298" lon="4.6699">
        <ele>302.28304</ele>
        <time>2022-08-16T14:31:25.000Z</time>
      </trkpt>
      <trkpt lat="45.833" lon="4.66988">
        <ele>302.38413</ele>
        <time>2022-08-16T14:31:26.000Z</time>
      </trkpt>
      <trkpt lat="45.83302" lon="4.66984">
        <ele>302.58357</ele>
        <time>2022-08-16T14:31:28.000Z</time>
      </trkpt>
      <trkpt lat="45.83303" lon="4.66982">
        <ele>302.69174</ele>
        <time>2022-08-16T14:31:29.000Z</time>
      </trkpt>
      <trkpt lat="45.83306" lon="4.66981">
        <ele>302.79926</ele>
        <time>2022-08-16T14:31:30.000Z</time>
      </trkpt>
      <trkpt lat="45.83308" lon="4.6698">
        <ele>302.90849</ele>
        <time>2022-08-16T14:31:31.000Z</time>
      </trkpt>
      <trkpt lat="45.8331" lon="4.66979">
        <ele>303.00966</ele>
        <time>2022-08-16T14:31:32.000Z</time>
      </trkpt>
      <trkpt lat="45.83312" lon="4.66978">
        <ele>303.13003</ele>
        <time>2022-08-16T14:31:34.000Z</time>
      </trkpt>
      <trkpt lat="45.8331" lon="4.66977">
        <ele>303.11462</ele>
        <time>2022-08-16T14:31:36.000Z</time>
      </trkpt>
      <trkpt lat="45.83308" lon="4.66975">
        <ele>303.15169</ele>
        <time>2022-08-16T14:31:37.000Z</time>
      </trkpt>
      <trkpt lat="45.83305" lon="4.66974">
        <ele>303.08438</ele>
        <time>2022-08-16T14:31:39.000Z</time>
      </trkpt>
      <trkpt lat="45.83303" lon="4.66973">
        <ele>303.05985</ele>
        <time>2022-08-16T14:31:40.000Z</time>
      </trkpt>
      <trkpt lat="45.83301" lon="4.66973">
        <ele>303.01004</ele>
        <time>2022-08-16T14:31:45.000Z</time>
      </trkpt>
      <trkpt lat="45.833" lon="4.66975">
        <ele>302.87309</ele>
        <time>2022-08-16T14:32:07.000Z</time>
      </trkpt>
      <trkpt lat="45.83302" lon="4.66973">
        <ele>303.00871</ele>
        <time>2022-08-16T14:32:25.000Z</time>
      </trkpt>
      <trkpt lat="45.83304" lon="4.66972">
        <ele>303.11059</ele>
        <time>2022-08-16T14:32:28.000Z</time>
      </trkpt>
      <trkpt lat="45.83306" lon="4.66976">
        <ele>303.04307</ele>
        <time>2022-08-16T14:32:46.000Z</time>
      </trkpt>
      <trkpt lat="45.83309" lon="4.66978">
        <ele>303.0153</ele>
        <time>2022-08-16T14:32:47.000Z</time>
      </trkpt>
      <trkpt lat="45.83311" lon="4.66981">
        <ele>302.97576</ele>
        <time>2022-08-16T14:32:48.000Z</time>
      </trkpt>
      <trkpt lat="45.83314" lon="4.66983">
        <ele>302.98875</ele>
        <time>2022-08-16T14:32:49.000Z</time>
      </trkpt>
      <trkpt lat="45.83317" lon="4.66986">
        <ele>302.9924</ele>
        <time>2022-08-16T14:32:50.000Z</time>
      </trkpt>
      <trkpt lat="45.8332" lon="4.6699">
        <ele>302.94816</ele>
        <time>2022-08-16T14:32:51.000Z</time>
      </trkpt>
      <trkpt lat="45.83323" lon="4.66994">
        <ele>302.92628</ele>
        <time>2022-08-16T14:32:52.000Z</time>
      </trkpt>
      <trkpt lat="45.83325" lon="4.67">
        <ele>302.93113</ele>
        <time>2022-08-16T14:32:53.000Z</time>
      </trkpt>
      <trkpt lat="45.83327" lon="4.67004">
        <ele>302.98113</ele>
        <time>2022-08-16T14:32:54.000Z</time>
      </trkpt>
      <trkpt lat="45.8333" lon="4.67008">
        <ele>303.07177</ele>
        <time>2022-08-16T14:32:55.000Z</time>
      </trkpt>
      <trkpt lat="45.83332" lon="4.6701">
        <ele>303.158</ele>
        <time>2022-08-16T14:32:56.000Z</time>
      </trkpt>
      <trkpt lat="45.83335" lon="4.67013">
        <ele>303.24333</ele>
        <time>2022-08-16T14:32:57.000Z</time>
      </trkpt>
      <trkpt lat="45.83338" lon="4.67015">
        <ele>303.30486</ele>
        <time>2022-08-16T14:32:58.000Z</time>
      </trkpt>
      <trkpt lat="45.83341" lon="4.67017">
        <ele>303.3245</ele>
        <time>2022-08-16T14:32:59.000Z</time>
      </trkpt>
      <trkpt lat="45.83344" lon="4.6702">
        <ele>303.31201</ele>
        <time>2022-08-16T14:33:00.000Z</time>
      </trkpt>
      <trkpt lat="45.83346" lon="4.67022">
        <ele>303.27535</ele>
        <time>2022-08-16T14:33:01.000Z</time>
      </trkpt>
      <trkpt lat="45.83348" lon="4.67024">
        <ele>303.22158</ele>
        <time>2022-08-16T14:33:03.000Z</time>
      </trkpt>
      <trkpt lat="45.83352" lon="4.67025">
        <ele>303.19687</ele>
        <time>2022-08-16T14:33:05.000Z</time>
      </trkpt>
      <trkpt lat="45.83355" lon="4.67026">
        <ele>303.19542</ele>
        <time>2022-08-16T14:33:06.000Z</time>
      </trkpt>
      <trkpt lat="45.83359" lon="4.67027">
        <ele>303.17575</ele>
        <time>2022-08-16T14:33:07.000Z</time>
      </trkpt>
      <trkpt lat="45.83363" lon="4.67028">
        <ele>303.16745</ele>
        <time>2022-08-16T14:33:08.000Z</time>
      </trkpt>
      <trkpt lat="45.83365" lon="4.6703">
        <ele>303.15243</ele>
        <time>2022-08-16T14:33:09.000Z</time>
      </trkpt>
      <trkpt lat="45.83367" lon="4.67032">
        <ele>303.13075</ele>
        <time>2022-08-16T14:33:10.000Z</time>
      </trkpt>
      <trkpt lat="45.83369" lon="4.67035">
        <ele>303.1188</ele>
        <time>2022-08-16T14:33:11.000Z</time>
      </trkpt>
      <trkpt lat="45.8337" lon="4.67038">
        <ele>303.08829</ele>
        <time>2022-08-16T14:33:13.000Z</time>
      </trkpt>
      <trkpt lat="45.8337" lon="4.67041">
        <ele>303.03698</ele>
        <time>2022-08-16T14:33:22.000Z</time>
      </trkpt>
      <trkpt lat="45.8337" lon="4.67039">
        <ele>303.0931</ele>
        <time>2022-08-16T14:33:55.000Z</time>
      </trkpt>
      <trkpt lat="45.83369" lon="4.67041">
        <ele>303.024</ele>
        <time>2022-08-16T14:34:00.000Z</time>
      </trkpt>
      <trkpt lat="45.83372" lon="4.67042">
        <ele>303.07887</ele>
        <time>2022-08-16T14:34:09.000Z</time>
      </trkpt>
      <trkpt lat="45.83375" lon="4.67046">
        <ele>303.06305</ele>
        <time>2022-08-16T14:34:10.000Z</time>
      </trkpt>
      <trkpt lat="45.83393" lon="4.6706">
        <ele>302.84566</ele>
        <time>2022-08-16T14:34:15.000Z</time>
      </trkpt>
      <trkpt lat="45.83397" lon="4.67062">
        <ele>302.83058</ele>
        <time>2022-08-16T14:34:16.000Z</time>
      </trkpt>
      <trkpt lat="45.83401" lon="4.67065">
        <ele>302.84185</ele>
        <time>2022-08-16T14:34:17.000Z</time>
      </trkpt>
      <trkpt lat="45.83405" lon="4.67068">
        <ele>302.8421</ele>
        <time>2022-08-16T14:34:18.000Z</time>
      </trkpt>
      <trkpt lat="45.83408" lon="4.67072">
        <ele>302.80991</ele>
        <time>2022-08-16T14:34:19.000Z</time>
      </trkpt>
      <trkpt lat="45.8341" lon="4.67075">
        <ele>302.74818</ele>
        <time>2022-08-16T14:34:20.000Z</time>
      </trkpt>
      <trkpt lat="45.83413" lon="4.6708">
        <ele>302.64821</ele>
        <time>2022-08-16T14:34:21.000Z</time>
      </trkpt>
      <trkpt lat="45.83417" lon="4.67085">
        <ele>302.49778</ele>
        <time>2022-08-16T14:34:22.000Z</time>
      </trkpt>
      <trkpt lat="45.83421" lon="4.6709">
        <ele>302.33485</ele>
        <time>2022-08-16T14:34:23.000Z</time>
      </trkpt>
      <trkpt lat="45.83424" lon="4.67095">
        <ele>302.16474</ele>
        <time>2022-08-16T14:34:24.000Z</time>
      </trkpt>
      <trkpt lat="45.83429" lon="4.67101">
        <ele>301.97658</ele>
        <time>2022-08-16T14:34:25.000Z</time>
      </trkpt>
      <trkpt lat="45.83433" lon="4.67105">
        <ele>301.88835</ele>
        <time>2022-08-16T14:34:26.000Z</time>
      </trkpt>
      <trkpt lat="45.83438" lon="4.67109">
        <ele>301.80222</ele>
        <time>2022-08-16T14:34:27.000Z</time>
      </trkpt>
      <trkpt lat="45.8344" lon="4.67114">
        <ele>301.67427</ele>
        <time>2022-08-16T14:34:28.000Z</time>
      </trkpt>
      <trkpt lat="45.83444" lon="4.67117">
        <ele>301.55119</ele>
        <time>2022-08-16T14:34:29.000Z</time>
      </trkpt>
      <trkpt lat="45.83447" lon="4.67121">
        <ele>301.37089</ele>
        <time>2022-08-16T14:34:30.000Z</time>
      </trkpt>
      <trkpt lat="45.83452" lon="4.67125">
        <ele>301.11538</ele>
        <time>2022-08-16T14:34:31.000Z</time>
      </trkpt>
      <trkpt lat="45.83456" lon="4.67132">
        <ele>300.86103</ele>
        <time>2022-08-16T14:34:32.000Z</time>
      </trkpt>
      <trkpt lat="45.8346" lon="4.67138">
        <ele>300.59917</ele>
        <time>2022-08-16T14:34:33.000Z</time>
      </trkpt>
      <trkpt lat="45.83465" lon="4.67142">
        <ele>300.29906</ele>
        <time>2022-08-16T14:34:34.000Z</time>
      </trkpt>
      <trkpt lat="45.8347" lon="4.67149">
        <ele>299.83979</ele>
        <time>2022-08-16T14:34:35.000Z</time>
      </trkpt>
      <trkpt lat="45.83477" lon="4.67157">
        <ele>299.19487</ele>
        <time>2022-08-16T14:34:36.000Z</time>
      </trkpt>
      <trkpt lat="45.83477" lon="4.67161">
        <ele>299.08067</ele>
        <time>2022-08-16T14:34:37.000Z</time>
      </trkpt>
      <trkpt lat="45.83481" lon="4.67166">
        <ele>298.81992</ele>
        <time>2022-08-16T14:34:38.000Z</time>
      </trkpt>
      <trkpt lat="45.83486" lon="4.67174">
        <ele>298.51034</ele>
        <time>2022-08-16T14:34:39.000Z</time>
      </trkpt>
      <trkpt lat="45.8349" lon="4.67179">
        <ele>298.16584</ele>
        <time>2022-08-16T14:34:40.000Z</time>
      </trkpt>
      <trkpt lat="45.83495" lon="4.67186">
        <ele>297.54564</ele>
        <time>2022-08-16T14:34:41.000Z</time>
      </trkpt>
      <trkpt lat="45.83501" lon="4.67194">
        <ele>296.90474</ele>
        <time>2022-08-16T14:34:42.000Z</time>
      </trkpt>
      <trkpt lat="45.83508" lon="4.67201">
        <ele>296.5508</ele>
        <time>2022-08-16T14:34:43.000Z</time>
      </trkpt>
      <trkpt lat="45.83517" lon="4.67207">
        <ele>296.19777</ele>
        <time>2022-08-16T14:34:44.000Z</time>
      </trkpt>
      <trkpt lat="45.83526" lon="4.67213">
        <ele>295.54014</ele>
        <time>2022-08-16T14:34:45.000Z</time>
      </trkpt>
      <trkpt lat="45.83533" lon="4.6722">
        <ele>294.81527</ele>
        <time>2022-08-16T14:34:46.000Z</time>
      </trkpt>
      <trkpt lat="45.8354" lon="4.67228">
        <ele>294.14169</ele>
        <time>2022-08-16T14:34:47.000Z</time>
      </trkpt>
      <trkpt lat="45.83548" lon="4.67235">
        <ele>293.77117</ele>
        <time>2022-08-16T14:34:48.000Z</time>
      </trkpt>
      <trkpt lat="45.83554" lon="4.67244">
        <ele>293.47956</ele>
        <time>2022-08-16T14:34:49.000Z</time>
      </trkpt>
      <trkpt lat="45.83561" lon="4.6725">
        <ele>292.97253</ele>
        <time>2022-08-16T14:34:50.000Z</time>
      </trkpt>
      <trkpt lat="45.83568" lon="4.67256">
        <ele>292.33261</ele>
        <time>2022-08-16T14:34:51.000Z</time>
      </trkpt>
      <trkpt lat="45.83575" lon="4.67262">
        <ele>291.97086</ele>
        <time>2022-08-16T14:34:52.000Z</time>
      </trkpt>
      <trkpt lat="45.83582" lon="4.67269">
        <ele>291.83055</ele>
        <time>2022-08-16T14:34:53.000Z</time>
      </trkpt>
      <trkpt lat="45.8359" lon="4.67273">
        <ele>291.59164</ele>
        <time>2022-08-16T14:34:54.000Z</time>
      </trkpt>
      <trkpt lat="45.83597" lon="4.6728">
        <ele>291.20502</ele>
        <time>2022-08-16T14:34:55.000Z</time>
      </trkpt>
      <trkpt lat="45.83604" lon="4.67286">
        <ele>290.63812</ele>
        <time>2022-08-16T14:34:56.000Z</time>
      </trkpt>
      <trkpt lat="45.83611" lon="4.67293">
        <ele>290.03766</ele>
        <time>2022-08-16T14:34:57.000Z</time>
      </trkpt>
      <trkpt lat="45.83619" lon="4.67298">
        <ele>289.6749</ele>
        <time>2022-08-16T14:34:58.000Z</time>
      </trkpt>
      <trkpt lat="45.83627" lon="4.67304">
        <ele>289.49897</ele>
        <time>2022-08-16T14:34:59.000Z</time>
      </trkpt>
      <trkpt lat="45.83634" lon="4.67308">
        <ele>289.33538</ele>
        <time>2022-08-16T14:35:00.000Z</time>
      </trkpt>
      <trkpt lat="45.83642" lon="4.67314">
        <ele>289.0888</ele>
        <time>2022-08-16T14:35:01.000Z</time>
      </trkpt>
      <trkpt lat="45.8365" lon="4.67319">
        <ele>288.76269</ele>
        <time>2022-08-16T14:35:02.000Z</time>
      </trkpt>
      <trkpt lat="45.83656" lon="4.67324">
        <ele>288.39688</ele>
        <time>2022-08-16T14:35:03.000Z</time>
      </trkpt>
      <trkpt lat="45.83662" lon="4.67328">
        <ele>288.07057</ele>
        <time>2022-08-16T14:35:04.000Z</time>
      </trkpt>
      <trkpt lat="45.83668" lon="4.67332">
        <ele>287.78959</ele>
        <time>2022-08-16T14:35:05.000Z</time>
      </trkpt>
      <trkpt lat="45.83676" lon="4.67337">
        <ele>287.46549</ele>
        <time>2022-08-16T14:35:06.000Z</time>
      </trkpt>
      <trkpt lat="45.83684" lon="4.67343">
        <ele>287.24004</ele>
        <time>2022-08-16T14:35:07.000Z</time>
      </trkpt>
      <trkpt lat="45.8369" lon="4.67347">
        <ele>287.05474</ele>
        <time>2022-08-16T14:35:08.000Z</time>
      </trkpt>
      <trkpt lat="45.83696" lon="4.67351">
        <ele>286.79308</ele>
        <time>2022-08-16T14:35:09.000Z</time>
      </trkpt>
      <trkpt lat="45.83704" lon="4.67355">
        <ele>286.42957</ele>
        <time>2022-08-16T14:35:10.000Z</time>
      </trkpt>
      <trkpt lat="45.8371" lon="4.67359">
        <ele>286.13017</ele>
        <time>2022-08-16T14:35:11.000Z</time>
      </trkpt>
      <trkpt lat="45.83716" lon="4.67364">
        <ele>285.83529</ele>
        <time>2022-08-16T14:35:12.000Z</time>
      </trkpt>
      <trkpt lat="45.83723" lon="4.67368">
        <ele>285.54484</ele>
        <time>2022-08-16T14:35:13.000Z</time>
      </trkpt>
      <trkpt lat="45.8373" lon="4.67373">
        <ele>285.3614</ele>
        <time>2022-08-16T14:35:14.000Z</time>
      </trkpt>
      <trkpt lat="45.83736" lon="4.67378">
        <ele>285.20786</ele>
        <time>2022-08-16T14:35:15.000Z</time>
      </trkpt>
      <trkpt lat="45.83743" lon="4.67382">
        <ele>284.98179</ele>
        <time>2022-08-16T14:35:16.000Z</time>
      </trkpt>
      <trkpt lat="45.8375" lon="4.67387">
        <ele>284.64806</ele>
        <time>2022-08-16T14:35:17.000Z</time>
      </trkpt>
      <trkpt lat="45.83756" lon="4.67391">
        <ele>284.28252</ele>
        <time>2022-08-16T14:35:18.000Z</time>
      </trkpt>
      <trkpt lat="45.83764" lon="4.67396">
        <ele>283.87751</ele>
        <time>2022-08-16T14:35:19.000Z</time>
      </trkpt>
      <trkpt lat="45.8377" lon="4.674">
        <ele>283.64174</ele>
        <time>2022-08-16T14:35:20.000Z</time>
      </trkpt>
      <trkpt lat="45.83777" lon="4.67403">
        <ele>283.51496</ele>
        <time>2022-08-16T14:35:21.000Z</time>
      </trkpt>
      <trkpt lat="45.83783" lon="4.67406">
        <ele>283.43687</ele>
        <time>2022-08-16T14:35:22.000Z</time>
      </trkpt>
      <trkpt lat="45.8379" lon="4.6741">
        <ele>283.335</ele>
        <time>2022-08-16T14:35:23.000Z</time>
      </trkpt>
      <trkpt lat="45.83796" lon="4.67411">
        <ele>283.18915</ele>
        <time>2022-08-16T14:35:24.000Z</time>
      </trkpt>
      <trkpt lat="45.83802" lon="4.67413">
        <ele>283.05497</ele>
        <time>2022-08-16T14:35:25.000Z</time>
      </trkpt>
      <trkpt lat="45.83809" lon="4.67416">
        <ele>282.87734</ele>
        <time>2022-08-16T14:35:26.000Z</time>
      </trkpt>
      <trkpt lat="45.83816" lon="4.67419">
        <ele>282.70584</ele>
        <time>2022-08-16T14:35:27.000Z</time>
      </trkpt>
      <trkpt lat="45.83822" lon="4.67422">
        <ele>282.5297</ele>
        <time>2022-08-16T14:35:28.000Z</time>
      </trkpt>
      <trkpt lat="45.83828" lon="4.67424">
        <ele>282.35429</ele>
        <time>2022-08-16T14:35:29.000Z</time>
      </trkpt>
      <trkpt lat="45.83834" lon="4.67426">
        <ele>282.12078</ele>
        <time>2022-08-16T14:35:30.000Z</time>
      </trkpt>
      <trkpt lat="45.83839" lon="4.67426">
        <ele>281.90957</ele>
        <time>2022-08-16T14:35:31.000Z</time>
      </trkpt>
      <trkpt lat="45.83844" lon="4.67428">
        <ele>281.68403</ele>
        <time>2022-08-16T14:35:32.000Z</time>
      </trkpt>
      <trkpt lat="45.8385" lon="4.6743">
        <ele>281.42979</ele>
        <time>2022-08-16T14:35:33.000Z</time>
      </trkpt>
      <trkpt lat="45.83857" lon="4.67433">
        <ele>281.24386</ele>
        <time>2022-08-16T14:35:34.000Z</time>
      </trkpt>
      <trkpt lat="45.83862" lon="4.67435">
        <ele>281.18213</ele>
        <time>2022-08-16T14:35:35.000Z</time>
      </trkpt>
      <trkpt lat="45.83867" lon="4.67437">
        <ele>281.1782</ele>
        <time>2022-08-16T14:35:36.000Z</time>
      </trkpt>
      <trkpt lat="45.83874" lon="4.6744">
        <ele>281.18374</ele>
        <time>2022-08-16T14:35:37.000Z</time>
      </trkpt>
      <trkpt lat="45.8388" lon="4.67444">
        <ele>281.15684</ele>
        <time>2022-08-16T14:35:38.000Z</time>
      </trkpt>
      <trkpt lat="45.83885" lon="4.67447">
        <ele>281.10832</ele>
        <time>2022-08-16T14:35:39.000Z</time>
      </trkpt>
      <trkpt lat="45.8389" lon="4.6745">
        <ele>281.03474</ele>
        <time>2022-08-16T14:35:40.000Z</time>
      </trkpt>
      <trkpt lat="45.83896" lon="4.67451">
        <ele>280.9005</ele>
        <time>2022-08-16T14:35:41.000Z</time>
      </trkpt>
      <trkpt lat="45.83903" lon="4.67452">
        <ele>280.62543</ele>
        <time>2022-08-16T14:35:42.000Z</time>
      </trkpt>
      <trkpt lat="45.8391" lon="4.67455">
        <ele>280.24914</ele>
        <time>2022-08-16T14:35:43.000Z</time>
      </trkpt>
      <trkpt lat="45.83916" lon="4.67456">
        <ele>279.85613</ele>
        <time>2022-08-16T14:35:44.000Z</time>
      </trkpt>
      <trkpt lat="45.83923" lon="4.67459">
        <ele>279.45997</ele>
        <time>2022-08-16T14:35:45.000Z</time>
      </trkpt>
      <trkpt lat="45.83929" lon="4.6746">
        <ele>279.08383</ele>
        <time>2022-08-16T14:35:46.000Z</time>
      </trkpt>
      <trkpt lat="45.83935" lon="4.67462">
        <ele>278.70573</ele>
        <time>2022-08-16T14:35:47.000Z</time>
      </trkpt>
      <trkpt lat="45.83943" lon="4.67463">
        <ele>278.29999</ele>
        <time>2022-08-16T14:35:48.000Z</time>
      </trkpt>
      <trkpt lat="45.8395" lon="4.67465">
        <ele>278.02775</ele>
        <time>2022-08-16T14:35:49.000Z</time>
      </trkpt>
      <trkpt lat="45.83956" lon="4.67466">
        <ele>277.8591</ele>
        <time>2022-08-16T14:35:50.000Z</time>
      </trkpt>
      <trkpt lat="45.83962" lon="4.6747">
        <ele>277.8633</ele>
        <time>2022-08-16T14:35:51.000Z</time>
      </trkpt>
      <trkpt lat="45.83973" lon="4.67472">
        <ele>277.67751</ele>
        <time>2022-08-16T14:35:52.000Z</time>
      </trkpt>
      <trkpt lat="45.83979" lon="4.67475">
        <ele>277.70423</ele>
        <time>2022-08-16T14:35:53.000Z</time>
      </trkpt>
      <trkpt lat="45.83986" lon="4.67477">
        <ele>277.6531</ele>
        <time>2022-08-16T14:35:54.000Z</time>
      </trkpt>
      <trkpt lat="45.83993" lon="4.6748">
        <ele>277.64025</ele>
        <time>2022-08-16T14:35:55.000Z</time>
      </trkpt>
      <trkpt lat="45.83999" lon="4.67482">
        <ele>277.47939</ele>
        <time>2022-08-16T14:35:56.000Z</time>
      </trkpt>
      <trkpt lat="45.84004" lon="4.67487">
        <ele>277.63558</ele>
        <time>2022-08-16T14:35:57.000Z</time>
      </trkpt>
      <trkpt lat="45.84013" lon="4.67486">
        <ele>277.24684</ele>
        <time>2022-08-16T14:35:58.000Z</time>
      </trkpt>
      <trkpt lat="45.84019" lon="4.67487">
        <ele>277.0651</ele>
        <time>2022-08-16T14:35:59.000Z</time>
      </trkpt>
      <trkpt lat="45.84026" lon="4.6749">
        <ele>276.95181</ele>
        <time>2022-08-16T14:36:00.000Z</time>
      </trkpt>
      <trkpt lat="45.84031" lon="4.67492">
        <ele>276.84625</ele>
        <time>2022-08-16T14:36:01.000Z</time>
      </trkpt>
      <trkpt lat="45.84037" lon="4.67493">
        <ele>276.61792</ele>
        <time>2022-08-16T14:36:02.000Z</time>
      </trkpt>
      <trkpt lat="45.84045" lon="4.67498">
        <ele>276.64167</ele>
        <time>2022-08-16T14:36:03.000Z</time>
      </trkpt>
      <trkpt lat="45.84047" lon="4.67496">
        <ele>276.51704</ele>
        <time>2022-08-16T14:36:04.000Z</time>
      </trkpt>
      <trkpt lat="45.84055" lon="4.675">
        <ele>276.51658</ele>
        <time>2022-08-16T14:36:05.000Z</time>
      </trkpt>
      <trkpt lat="45.84061" lon="4.67502">
        <ele>276.45026</ele>
        <time>2022-08-16T14:36:06.000Z</time>
      </trkpt>
      <trkpt lat="45.84067" lon="4.675">
        <ele>276.18526</ele>
        <time>2022-08-16T14:36:07.000Z</time>
      </trkpt>
      <trkpt lat="45.84074" lon="4.675">
        <ele>275.94706</ele>
        <time>2022-08-16T14:36:08.000Z</time>
      </trkpt>
      <trkpt lat="45.8408" lon="4.67501">
        <ele>275.87741</ele>
        <time>2022-08-16T14:36:09.000Z</time>
      </trkpt>
      <trkpt lat="45.84085" lon="4.67504">
        <ele>275.93497</ele>
        <time>2022-08-16T14:36:10.000Z</time>
      </trkpt>
      <trkpt lat="45.84093" lon="4.67505">
        <ele>275.90657</ele>
        <time>2022-08-16T14:36:11.000Z</time>
      </trkpt>
      <trkpt lat="45.84099" lon="4.67507">
        <ele>275.93487</ele>
        <time>2022-08-16T14:36:12.000Z</time>
      </trkpt>
      <trkpt lat="45.84104" lon="4.67511">
        <ele>275.91271</ele>
        <time>2022-08-16T14:36:13.000Z</time>
      </trkpt>
      <trkpt lat="45.8411" lon="4.67515">
        <ele>275.78343</ele>
        <time>2022-08-16T14:36:14.000Z</time>
      </trkpt>
      <trkpt lat="45.84116" lon="4.67518">
        <ele>275.58576</ele>
        <time>2022-08-16T14:36:15.000Z</time>
      </trkpt>
      <trkpt lat="45.84121" lon="4.67521">
        <ele>275.45625</ele>
        <time>2022-08-16T14:36:16.000Z</time>
      </trkpt>
      <trkpt lat="45.84125" lon="4.67525">
        <ele>275.37208</ele>
        <time>2022-08-16T14:36:17.000Z</time>
      </trkpt>
      <trkpt lat="45.8413" lon="4.6753">
        <ele>275.25801</ele>
        <time>2022-08-16T14:36:18.000Z</time>
      </trkpt>
      <trkpt lat="45.84134" lon="4.67535">
        <ele>275.13839</ele>
        <time>2022-08-16T14:36:19.000Z</time>
      </trkpt>
      <trkpt lat="45.84138" lon="4.6754">
        <ele>275.04439</ele>
        <time>2022-08-16T14:36:20.000Z</time>
      </trkpt>
      <trkpt lat="45.84143" lon="4.67544">
        <ele>275.07038</ele>
        <time>2022-08-16T14:36:21.000Z</time>
      </trkpt>
      <trkpt lat="45.84147" lon="4.67549">
        <ele>275.20762</ele>
        <time>2022-08-16T14:36:22.000Z</time>
      </trkpt>
      <trkpt lat="45.84152" lon="4.67553">
        <ele>275.10887</ele>
        <time>2022-08-16T14:36:23.000Z</time>
      </trkpt>
      <trkpt lat="45.84156" lon="4.67559">
        <ele>274.23733</ele>
        <time>2022-08-16T14:36:24.000Z</time>
      </trkpt>
      <trkpt lat="45.84161" lon="4.67564">
        <ele>272.40965</ele>
        <time>2022-08-16T14:36:25.000Z</time>
      </trkpt>
      <trkpt lat="45.84165" lon="4.67569">
        <ele>270.31474</ele>
        <time>2022-08-16T14:36:26.000Z</time>
      </trkpt>
      <trkpt lat="45.84169" lon="4.67576">
        <ele>268.59863</ele>
        <time>2022-08-16T14:36:27.000Z</time>
      </trkpt>
      <trkpt lat="45.84172" lon="4.67579">
        <ele>267.96826</ele>
        <time>2022-08-16T14:36:28.000Z</time>
      </trkpt>
      <trkpt lat="45.84177" lon="4.67584">
        <ele>267.47892</ele>
        <time>2022-08-16T14:36:29.000Z</time>
      </trkpt>
      <trkpt lat="45.84183" lon="4.67588">
        <ele>267.23449</ele>
        <time>2022-08-16T14:36:30.000Z</time>
      </trkpt>
      <trkpt lat="45.84187" lon="4.67593">
        <ele>267.15644</ele>
        <time>2022-08-16T14:36:31.000Z</time>
      </trkpt>
      <trkpt lat="45.84192" lon="4.67597">
        <ele>267.36487</ele>
        <time>2022-08-16T14:36:32.000Z</time>
      </trkpt>
      <trkpt lat="45.84196" lon="4.67602">
        <ele>268.00734</ele>
        <time>2022-08-16T14:36:33.000Z</time>
      </trkpt>
      <trkpt lat="45.842" lon="4.67606">
        <ele>269.21232</ele>
        <time>2022-08-16T14:36:34.000Z</time>
      </trkpt>
      <trkpt lat="45.84204" lon="4.67611">
        <ele>270.629</ele>
        <time>2022-08-16T14:36:35.000Z</time>
      </trkpt>
      <trkpt lat="45.84208" lon="4.67617">
        <ele>271.94926</ele>
        <time>2022-08-16T14:36:36.000Z</time>
      </trkpt>
      <trkpt lat="45.84212" lon="4.67623">
        <ele>273.10888</ele>
        <time>2022-08-16T14:36:37.000Z</time>
      </trkpt>
      <trkpt lat="45.84218" lon="4.67628">
        <ele>273.74561</ele>
        <time>2022-08-16T14:36:38.000Z</time>
      </trkpt>
      <trkpt lat="45.84223" lon="4.67634">
        <ele>273.88607</ele>
        <time>2022-08-16T14:36:39.000Z</time>
      </trkpt>
      <trkpt lat="45.84228" lon="4.67637">
        <ele>273.72057</ele>
        <time>2022-08-16T14:36:40.000Z</time>
      </trkpt>
      <trkpt lat="45.84231" lon="4.6764">
        <ele>273.58894</ele>
        <time>2022-08-16T14:36:41.000Z</time>
      </trkpt>
      <trkpt lat="45.84237" lon="4.67644">
        <ele>273.38859</ele>
        <time>2022-08-16T14:36:42.000Z</time>
      </trkpt>
      <trkpt lat="45.84242" lon="4.67645">
        <ele>273.32497</ele>
        <time>2022-08-16T14:36:43.000Z</time>
      </trkpt>
      <trkpt lat="45.84248" lon="4.67646">
        <ele>273.27044</ele>
        <time>2022-08-16T14:36:44.000Z</time>
      </trkpt>
      <trkpt lat="45.84253" lon="4.67649">
        <ele>273.26459</ele>
        <time>2022-08-16T14:36:45.000Z</time>
      </trkpt>
      <trkpt lat="45.84259" lon="4.6765">
        <ele>273.19279</ele>
        <time>2022-08-16T14:36:46.000Z</time>
      </trkpt>
      <trkpt lat="45.84265" lon="4.6765">
        <ele>273.06971</ele>
        <time>2022-08-16T14:36:47.000Z</time>
      </trkpt>
      <trkpt lat="45.8427" lon="4.67651">
        <ele>272.9359</ele>
        <time>2022-08-16T14:36:48.000Z</time>
      </trkpt>
      <trkpt lat="45.84275" lon="4.67652">
        <ele>272.80608</ele>
        <time>2022-08-16T14:36:49.000Z</time>
      </trkpt>
      <trkpt lat="45.84281" lon="4.67651">
        <ele>272.66201</ele>
        <time>2022-08-16T14:36:50.000Z</time>
      </trkpt>
      <trkpt lat="45.84287" lon="4.67649">
        <ele>272.57414</ele>
        <time>2022-08-16T14:36:51.000Z</time>
      </trkpt>
      <trkpt lat="45.84294" lon="4.67647">
        <ele>272.4994</ele>
        <time>2022-08-16T14:36:52.000Z</time>
      </trkpt>
      <trkpt lat="45.843" lon="4.67645">
        <ele>272.44874</ele>
        <time>2022-08-16T14:36:53.000Z</time>
      </trkpt>
      <trkpt lat="45.84305" lon="4.67642">
        <ele>272.40993</ele>
        <time>2022-08-16T14:36:54.000Z</time>
      </trkpt>
      <trkpt lat="45.84339" lon="4.67616">
        <ele>272.79605</ele>
        <time>2022-08-16T14:37:01.431Z</time>
      </trkpt>
      <trkpt lat="45.84344" lon="4.67613">
        <ele>272.68028</ele>
        <time>2022-08-16T14:37:03.000Z</time>
      </trkpt>
      <trkpt lat="45.84349" lon="4.67612">
        <ele>272.65035</ele>
        <time>2022-08-16T14:37:04.000Z</time>
      </trkpt>
      <trkpt lat="45.84353" lon="4.67612">
        <ele>272.67785</ele>
        <time>2022-08-16T14:37:05.000Z</time>
      </trkpt>
      <trkpt lat="45.84357" lon="4.67608">
        <ele>272.78015</ele>
        <time>2022-08-16T14:37:06.000Z</time>
      </trkpt>
      <trkpt lat="45.84361" lon="4.67605">
        <ele>272.91249</ele>
        <time>2022-08-16T14:37:07.000Z</time>
      </trkpt>
      <trkpt lat="45.84365" lon="4.67605">
        <ele>273.01765</ele>
        <time>2022-08-16T14:37:08.000Z</time>
      </trkpt>
      <trkpt lat="45.84369" lon="4.67602">
        <ele>273.14702</ele>
        <time>2022-08-16T14:37:09.000Z</time>
      </trkpt>
      <trkpt lat="45.84374" lon="4.67601">
        <ele>273.25091</ele>
        <time>2022-08-16T14:37:10.000Z</time>
      </trkpt>
      <trkpt lat="45.84379" lon="4.67598">
        <ele>273.32364</ele>
        <time>2022-08-16T14:37:11.000Z</time>
      </trkpt>
      <trkpt lat="45.84383" lon="4.67598">
        <ele>273.37628</ele>
        <time>2022-08-16T14:37:12.000Z</time>
      </trkpt>
      <trkpt lat="45.84388" lon="4.67596">
        <ele>273.44831</ele>
        <time>2022-08-16T14:37:13.000Z</time>
      </trkpt>
      <trkpt lat="45.84392" lon="4.67594">
        <ele>273.50853</ele>
        <time>2022-08-16T14:37:14.000Z</time>
      </trkpt>
      <trkpt lat="45.84397" lon="4.67594">
        <ele>273.54486</ele>
        <time>2022-08-16T14:37:15.000Z</time>
      </trkpt>
      <trkpt lat="45.84402" lon="4.67594">
        <ele>273.57018</ele>
        <time>2022-08-16T14:37:16.000Z</time>
      </trkpt>
      <trkpt lat="45.84407" lon="4.67594">
        <ele>273.58586</ele>
        <time>2022-08-16T14:37:17.000Z</time>
      </trkpt>
      <trkpt lat="45.84411" lon="4.67595">
        <ele>273.59543</ele>
        <time>2022-08-16T14:37:18.000Z</time>
      </trkpt>
      <trkpt lat="45.84416" lon="4.67597">
        <ele>273.60772</ele>
        <time>2022-08-16T14:37:19.000Z</time>
      </trkpt>
      <trkpt lat="45.84419" lon="4.67598">
        <ele>273.61733</ele>
        <time>2022-08-16T14:37:20.000Z</time>
      </trkpt>
      <trkpt lat="45.84423" lon="4.676">
        <ele>273.59921</ele>
        <time>2022-08-16T14:37:21.000Z</time>
      </trkpt>
      <trkpt lat="45.84427" lon="4.67599">
        <ele>273.56433</ele>
        <time>2022-08-16T14:37:22.000Z</time>
      </trkpt>
      <trkpt lat="45.84431" lon="4.67598">
        <ele>273.51693</ele>
        <time>2022-08-16T14:37:23.000Z</time>
      </trkpt>
      <trkpt lat="45.84435" lon="4.67598">
        <ele>273.48237</ele>
        <time>2022-08-16T14:37:24.000Z</time>
      </trkpt>
      <trkpt lat="45.84438" lon="4.67596">
        <ele>273.49153</ele>
        <time>2022-08-16T14:37:25.000Z</time>
      </trkpt>
      <trkpt lat="45.84442" lon="4.67593">
        <ele>273.51888</ele>
        <time>2022-08-16T14:37:26.000Z</time>
      </trkpt>
      <trkpt lat="45.84446" lon="4.67592">
        <ele>273.55331</ele>
        <time>2022-08-16T14:37:27.000Z</time>
      </trkpt>
      <trkpt lat="45.84448" lon="4.6759">
        <ele>273.61306</ele>
        <time>2022-08-16T14:37:28.000Z</time>
      </trkpt>
      <trkpt lat="45.8445" lon="4.67588">
        <ele>273.65389</ele>
        <time>2022-08-16T14:37:29.000Z</time>
      </trkpt>
      <trkpt lat="45.84452" lon="4.67587">
        <ele>273.69537</ele>
        <time>2022-08-16T14:37:30.000Z</time>
      </trkpt>
      <trkpt lat="45.8445" lon="4.67588">
        <ele>273.66086</ele>
        <time>2022-08-16T14:37:38.000Z</time>
      </trkpt>
      <trkpt lat="45.84452" lon="4.67585">
        <ele>273.7105</ele>
        <time>2022-08-16T14:38:06.000Z</time>
      </trkpt>
      <trkpt lat="45.84455" lon="4.67583">
        <ele>273.77633</ele>
        <time>2022-08-16T14:38:07.000Z</time>
      </trkpt>
      <trkpt lat="45.84458" lon="4.6758">
        <ele>273.83597</ele>
        <time>2022-08-16T14:38:08.000Z</time>
      </trkpt>
      <trkpt lat="45.84462" lon="4.67577">
        <ele>273.87973</ele>
        <time>2022-08-16T14:38:09.000Z</time>
      </trkpt>
      <trkpt lat="45.84465" lon="4.67574">
        <ele>273.90291</ele>
        <time>2022-08-16T14:38:10.000Z</time>
      </trkpt>
      <trkpt lat="45.84468" lon="4.67571">
        <ele>273.90478</ele>
        <time>2022-08-16T14:38:11.000Z</time>
      </trkpt>
      <trkpt lat="45.84471" lon="4.67569">
        <ele>273.89127</ele>
        <time>2022-08-16T14:38:12.000Z</time>
      </trkpt>
      <trkpt lat="45.84474" lon="4.67566">
        <ele>273.87142</ele>
        <time>2022-08-16T14:38:13.000Z</time>
      </trkpt>
      <trkpt lat="45.84477" lon="4.67564">
        <ele>273.84991</ele>
        <time>2022-08-16T14:38:14.000Z</time>
      </trkpt>
      <trkpt lat="45.8448" lon="4.67561">
        <ele>273.82954</ele>
        <time>2022-08-16T14:38:15.000Z</time>
      </trkpt>
      <trkpt lat="45.84484" lon="4.67558">
        <ele>273.83342</ele>
        <time>2022-08-16T14:38:16.000Z</time>
      </trkpt>
      <trkpt lat="45.84488" lon="4.67557">
        <ele>273.90622</ele>
        <time>2022-08-16T14:38:17.000Z</time>
      </trkpt>
      <trkpt lat="45.84493" lon="4.67556">
        <ele>274.11089</ele>
        <time>2022-08-16T14:38:18.000Z</time>
      </trkpt>
      <trkpt lat="45.84497" lon="4.67557">
        <ele>274.33743</ele>
        <time>2022-08-16T14:38:19.000Z</time>
      </trkpt>
      <trkpt lat="45.84502" lon="4.67559">
        <ele>274.46188</ele>
        <time>2022-08-16T14:38:20.000Z</time>
      </trkpt>
      <trkpt lat="45.84506" lon="4.67562">
        <ele>274.37792</ele>
        <time>2022-08-16T14:38:21.000Z</time>
      </trkpt>
      <trkpt lat="45.8451" lon="4.67565">
        <ele>274.10567</ele>
        <time>2022-08-16T14:38:22.000Z</time>
      </trkpt>
      <trkpt lat="45.84514" lon="4.67569">
        <ele>273.73527</ele>
        <time>2022-08-16T14:38:23.000Z</time>
      </trkpt>
      <trkpt lat="45.84518" lon="4.67572">
        <ele>273.41155</ele>
        <time>2022-08-16T14:38:24.000Z</time>
      </trkpt>
      <trkpt lat="45.84522" lon="4.67576">
        <ele>273.22416</ele>
        <time>2022-08-16T14:38:25.000Z</time>
      </trkpt>
      <trkpt lat="45.84528" lon="4.6758">
        <ele>273.189</ele>
        <time>2022-08-16T14:38:26.000Z</time>
      </trkpt>
      <trkpt lat="45.84532" lon="4.67582">
        <ele>273.29243</ele>
        <time>2022-08-16T14:38:27.000Z</time>
      </trkpt>
      <trkpt lat="45.84537" lon="4.67586">
        <ele>273.5084</ele>
        <time>2022-08-16T14:38:28.000Z</time>
      </trkpt>
      <trkpt lat="45.84541" lon="4.67588">
        <ele>273.6739</ele>
        <time>2022-08-16T14:38:29.000Z</time>
      </trkpt>
      <trkpt lat="45.84546" lon="4.6759">
        <ele>273.82925</ele>
        <time>2022-08-16T14:38:30.000Z</time>
      </trkpt>
      <trkpt lat="45.84549" lon="4.67592">
        <ele>273.93115</ele>
        <time>2022-08-16T14:38:31.000Z</time>
      </trkpt>
      <trkpt lat="45.84555" lon="4.67593">
        <ele>274.03857</ele>
        <time>2022-08-16T14:38:32.000Z</time>
      </trkpt>
      <trkpt lat="45.84562" lon="4.67592">
        <ele>274.15334</ele>
        <time>2022-08-16T14:38:33.000Z</time>
      </trkpt>
      <trkpt lat="45.84567" lon="4.67595">
        <ele>274.15062</ele>
        <time>2022-08-16T14:38:34.000Z</time>
      </trkpt>
      <trkpt lat="45.84571" lon="4.67596">
        <ele>274.16035</ele>
        <time>2022-08-16T14:38:35.000Z</time>
      </trkpt>
      <trkpt lat="45.84576" lon="4.67597">
        <ele>274.15526</ele>
        <time>2022-08-16T14:38:36.000Z</time>
      </trkpt>
      <trkpt lat="45.8458" lon="4.67597">
        <ele>274.1409</ele>
        <time>2022-08-16T14:38:37.000Z</time>
      </trkpt>
      <trkpt lat="45.84584" lon="4.67595">
        <ele>274.20396</ele>
        <time>2022-08-16T14:38:38.000Z</time>
      </trkpt>
      <trkpt lat="45.84588" lon="4.67596">
        <ele>274.14515</ele>
        <time>2022-08-16T14:38:39.000Z</time>
      </trkpt>
      <trkpt lat="45.84592" lon="4.67596">
        <ele>274.11386</ele>
        <time>2022-08-16T14:38:40.000Z</time>
      </trkpt>
      <trkpt lat="45.84596" lon="4.67595">
        <ele>274.0994</ele>
        <time>2022-08-16T14:38:41.000Z</time>
      </trkpt>
      <trkpt lat="45.846" lon="4.67593">
        <ele>274.04592</ele>
        <time>2022-08-16T14:38:42.000Z</time>
      </trkpt>
      <trkpt lat="45.84604" lon="4.67591">
        <ele>273.94323</ele>
        <time>2022-08-16T14:38:43.000Z</time>
      </trkpt>
      <trkpt lat="45.84608" lon="4.6759">
        <ele>273.81057</ele>
        <time>2022-08-16T14:38:44.000Z</time>
      </trkpt>
      <trkpt lat="45.84614" lon="4.67584">
        <ele>273.50985</ele>
        <time>2022-08-16T14:38:45.000Z</time>
      </trkpt>
      <trkpt lat="45.84618" lon="4.6758">
        <ele>273.28252</ele>
        <time>2022-08-16T14:38:46.000Z</time>
      </trkpt>
      <trkpt lat="45.84623" lon="4.67576">
        <ele>273.24354</ele>
        <time>2022-08-16T14:38:47.000Z</time>
      </trkpt>
      <trkpt lat="45.84627" lon="4.67574">
        <ele>273.28606</ele>
        <time>2022-08-16T14:38:48.000Z</time>
      </trkpt>
      <trkpt lat="45.8463" lon="4.67572">
        <ele>273.31775</ele>
        <time>2022-08-16T14:38:49.000Z</time>
      </trkpt>
      <trkpt lat="45.84634" lon="4.67569">
        <ele>273.33224</ele>
        <time>2022-08-16T14:38:50.000Z</time>
      </trkpt>
      <trkpt lat="45.84638" lon="4.67567">
        <ele>273.31736</ele>
        <time>2022-08-16T14:38:51.000Z</time>
      </trkpt>
      <trkpt lat="45.84644" lon="4.6756">
        <ele>273.27478</ele>
        <time>2022-08-16T14:38:52.000Z</time>
      </trkpt>
      <trkpt lat="45.84648" lon="4.67555">
        <ele>273.22234</ele>
        <time>2022-08-16T14:38:53.000Z</time>
      </trkpt>
      <trkpt lat="45.8465" lon="4.67552">
        <ele>273.1466</ele>
        <time>2022-08-16T14:38:54.000Z</time>
      </trkpt>
      <trkpt lat="45.84653" lon="4.67546">
        <ele>273.05803</ele>
        <time>2022-08-16T14:38:55.000Z</time>
      </trkpt>
      <trkpt lat="45.84656" lon="4.67541">
        <ele>273.00043</ele>
        <time>2022-08-16T14:38:56.000Z</time>
      </trkpt>
      <trkpt lat="45.84659" lon="4.67537">
        <ele>272.9293</ele>
        <time>2022-08-16T14:38:57.000Z</time>
      </trkpt>
      <trkpt lat="45.84662" lon="4.67532">
        <ele>272.87614</ele>
        <time>2022-08-16T14:38:58.000Z</time>
      </trkpt>
      <trkpt lat="45.84665" lon="4.67528">
        <ele>272.89129</ele>
        <time>2022-08-16T14:38:59.000Z</time>
      </trkpt>
      <trkpt lat="45.84667" lon="4.67523">
        <ele>272.97174</ele>
        <time>2022-08-16T14:39:00.000Z</time>
      </trkpt>
      <trkpt lat="45.84669" lon="4.67519">
        <ele>273.0699</ele>
        <time>2022-08-16T14:39:01.000Z</time>
      </trkpt>
      <trkpt lat="45.84672" lon="4.67511">
        <ele>273.37864</ele>
        <time>2022-08-16T14:39:02.000Z</time>
      </trkpt>
      <trkpt lat="45.84673" lon="4.67507">
        <ele>273.57407</ele>
        <time>2022-08-16T14:39:03.000Z</time>
      </trkpt>
      <trkpt lat="45.84677" lon="4.67501">
        <ele>273.64834</ele>
        <time>2022-08-16T14:39:04.000Z</time>
      </trkpt>
      <trkpt lat="45.84679" lon="4.67497">
        <ele>273.51458</ele>
        <time>2022-08-16T14:39:05.000Z</time>
      </trkpt>
      <trkpt lat="45.84681" lon="4.67492">
        <ele>273.28809</ele>
        <time>2022-08-16T14:39:06.000Z</time>
      </trkpt>
      <trkpt lat="45.84683" lon="4.67486">
        <ele>272.98269</ele>
        <time>2022-08-16T14:39:07.000Z</time>
      </trkpt>
      <trkpt lat="45.84686" lon="4.67481">
        <ele>272.63174</ele>
        <time>2022-08-16T14:39:08.000Z</time>
      </trkpt>
      <trkpt lat="45.84688" lon="4.67477">
        <ele>272.35989</ele>
        <time>2022-08-16T14:39:09.000Z</time>
      </trkpt>
      <trkpt lat="45.84692" lon="4.67471">
        <ele>272.14298</ele>
        <time>2022-08-16T14:39:10.000Z</time>
      </trkpt>
      <trkpt lat="45.84696" lon="4.67464">
        <ele>271.87021</ele>
        <time>2022-08-16T14:39:11.000Z</time>
      </trkpt>
      <trkpt lat="45.84701" lon="4.6746">
        <ele>271.5233</ele>
        <time>2022-08-16T14:39:12.000Z</time>
      </trkpt>
      <trkpt lat="45.84706" lon="4.6746">
        <ele>271.26417</ele>
        <time>2022-08-16T14:39:13.000Z</time>
      </trkpt>
      <trkpt lat="45.84714" lon="4.67458">
        <ele>271.01444</ele>
        <time>2022-08-16T14:39:14.000Z</time>
      </trkpt>
      <trkpt lat="45.84719" lon="4.67455">
        <ele>271.05824</ele>
        <time>2022-08-16T14:39:15.000Z</time>
      </trkpt>
      <trkpt lat="45.84724" lon="4.67453">
        <ele>271.22165</ele>
        <time>2022-08-16T14:39:16.000Z</time>
      </trkpt>
      <trkpt lat="45.8473" lon="4.67452">
        <ele>271.41141</ele>
        <time>2022-08-16T14:39:17.000Z</time>
      </trkpt>
      <trkpt lat="45.84737" lon="4.67452">
        <ele>271.55385</ele>
        <time>2022-08-16T14:39:18.000Z</time>
      </trkpt>
      <trkpt lat="45.84742" lon="4.67453">
        <ele>271.69262</ele>
        <time>2022-08-16T14:39:19.000Z</time>
      </trkpt>
      <trkpt lat="45.84747" lon="4.67453">
        <ele>271.89032</ele>
        <time>2022-08-16T14:39:20.000Z</time>
      </trkpt>
      <trkpt lat="45.84752" lon="4.67452">
        <ele>272.12767</ele>
        <time>2022-08-16T14:39:21.000Z</time>
      </trkpt>
      <trkpt lat="45.84758" lon="4.6745">
        <ele>272.46942</ele>
        <time>2022-08-16T14:39:22.000Z</time>
      </trkpt>
      <trkpt lat="45.84762" lon="4.67448">
        <ele>272.55905</ele>
        <time>2022-08-16T14:39:23.000Z</time>
      </trkpt>
      <trkpt lat="45.84768" lon="4.67448">
        <ele>272.41633</ele>
        <time>2022-08-16T14:39:24.000Z</time>
      </trkpt>
      <trkpt lat="45.84772" lon="4.67448">
        <ele>272.24218</ele>
        <time>2022-08-16T14:39:25.000Z</time>
      </trkpt>
      <trkpt lat="45.84777" lon="4.67449">
        <ele>272.1333</ele>
        <time>2022-08-16T14:39:26.000Z</time>
      </trkpt>
      <trkpt lat="45.84781" lon="4.6745">
        <ele>272.12322</ele>
        <time>2022-08-16T14:39:27.000Z</time>
      </trkpt>
      <trkpt lat="45.84786" lon="4.67452">
        <ele>272.18607</ele>
        <time>2022-08-16T14:39:28.000Z</time>
      </trkpt>
      <trkpt lat="45.84789" lon="4.67451">
        <ele>272.13807</ele>
        <time>2022-08-16T14:39:29.000Z</time>
      </trkpt>
      <trkpt lat="45.84793" lon="4.67451">
        <ele>272.15849</ele>
        <time>2022-08-16T14:39:30.000Z</time>
      </trkpt>
      <trkpt lat="45.84798" lon="4.6745">
        <ele>272.16748</ele>
        <time>2022-08-16T14:39:31.000Z</time>
      </trkpt>
      <trkpt lat="45.84803" lon="4.67449">
        <ele>272.1624</ele>
        <time>2022-08-16T14:39:32.000Z</time>
      </trkpt>
      <trkpt lat="45.84808" lon="4.67448">
        <ele>272.10694</ele>
        <time>2022-08-16T14:39:33.000Z</time>
      </trkpt>
      <trkpt lat="45.84813" lon="4.67447">
        <ele>272.03243</ele>
        <time>2022-08-16T14:39:34.000Z</time>
      </trkpt>
      <trkpt lat="45.84816" lon="4.67447">
        <ele>271.96283</ele>
        <time>2022-08-16T14:39:35.000Z</time>
      </trkpt>
      <trkpt lat="45.84821" lon="4.67448">
        <ele>271.88942</ele>
        <time>2022-08-16T14:39:36.000Z</time>
      </trkpt>
      <trkpt lat="45.84825" lon="4.67448">
        <ele>271.78077</ele>
        <time>2022-08-16T14:39:37.000Z</time>
      </trkpt>
      <trkpt lat="45.8483" lon="4.67447">
        <ele>271.65398</ele>
        <time>2022-08-16T14:39:38.000Z</time>
      </trkpt>
      <trkpt lat="45.84834" lon="4.67446">
        <ele>271.53304</ele>
        <time>2022-08-16T14:39:39.000Z</time>
      </trkpt>
      <trkpt lat="45.84839" lon="4.67446">
        <ele>271.39478</ele>
        <time>2022-08-16T14:39:40.000Z</time>
      </trkpt>
      <trkpt lat="45.84843" lon="4.67446">
        <ele>271.27087</ele>
        <time>2022-08-16T14:39:41.000Z</time>
      </trkpt>
      <trkpt lat="45.84849" lon="4.67445">
        <ele>271.09527</ele>
        <time>2022-08-16T14:39:42.000Z</time>
      </trkpt>
      <trkpt lat="45.84854" lon="4.67445">
        <ele>270.93483</ele>
        <time>2022-08-16T14:39:43.000Z</time>
      </trkpt>
      <trkpt lat="45.84859" lon="4.67443">
        <ele>270.76948</ele>
        <time>2022-08-16T14:39:44.000Z</time>
      </trkpt>
      <trkpt lat="45.84865" lon="4.67443">
        <ele>270.60358</ele>
        <time>2022-08-16T14:39:45.000Z</time>
      </trkpt>
      <trkpt lat="45.84871" lon="4.67441">
        <ele>270.43065</ele>
        <time>2022-08-16T14:39:46.000Z</time>
      </trkpt>
      <trkpt lat="45.84876" lon="4.67444">
        <ele>270.38116</ele>
        <time>2022-08-16T14:39:47.000Z</time>
      </trkpt>
      <trkpt lat="45.84884" lon="4.67433">
        <ele>270.14217</ele>
        <time>2022-08-16T14:39:48.000Z</time>
      </trkpt>
      <trkpt lat="45.84887" lon="4.6743">
        <ele>270.03676</ele>
        <time>2022-08-16T14:39:49.000Z</time>
      </trkpt>
      <trkpt lat="45.84892" lon="4.67434">
        <ele>270.04983</ele>
        <time>2022-08-16T14:39:50.000Z</time>
      </trkpt>
      <trkpt lat="45.84897" lon="4.67437">
        <ele>270.0748</ele>
        <time>2022-08-16T14:39:51.000Z</time>
      </trkpt>
      <trkpt lat="45.84902" lon="4.67435">
        <ele>270.00479</ele>
        <time>2022-08-16T14:39:52.000Z</time>
      </trkpt>
      <trkpt lat="45.84905" lon="4.67431">
        <ele>269.92137</ele>
        <time>2022-08-16T14:39:53.000Z</time>
      </trkpt>
      <trkpt lat="45.84907" lon="4.67434">
        <ele>269.96738</ele>
        <time>2022-08-16T14:39:54.000Z</time>
      </trkpt>
      <trkpt lat="45.84912" lon="4.67434">
        <ele>269.94139</ele>
        <time>2022-08-16T14:39:55.000Z</time>
      </trkpt>
      <trkpt lat="45.84917" lon="4.67437">
        <ele>269.93668</ele>
        <time>2022-08-16T14:39:56.000Z</time>
      </trkpt>
      <trkpt lat="45.84926" lon="4.67436">
        <ele>269.81863</ele>
        <time>2022-08-16T14:39:57.000Z</time>
      </trkpt>
      <trkpt lat="45.84937" lon="4.67437">
        <ele>269.66584</ele>
        <time>2022-08-16T14:39:58.000Z</time>
      </trkpt>
      <trkpt lat="45.84942" lon="4.67433">
        <ele>269.48507</ele>
        <time>2022-08-16T14:39:59.000Z</time>
      </trkpt>
      <trkpt lat="45.84944" lon="4.67434">
        <ele>269.43504</ele>
        <time>2022-08-16T14:40:00.000Z</time>
      </trkpt>
      <trkpt lat="45.84952" lon="4.67435">
        <ele>269.20262</ele>
        <time>2022-08-16T14:40:01.000Z</time>
      </trkpt>
      <trkpt lat="45.84957" lon="4.67426">
        <ele>268.88235</ele>
        <time>2022-08-16T14:40:02.000Z</time>
      </trkpt>
      <trkpt lat="45.84966" lon="4.67431">
        <ele>268.80422</ele>
        <time>2022-08-16T14:40:03.000Z</time>
      </trkpt>
      <trkpt lat="45.84973" lon="4.67432">
        <ele>268.68459</ele>
        <time>2022-08-16T14:40:04.000Z</time>
      </trkpt>
      <trkpt lat="45.84976" lon="4.67427">
        <ele>268.55892</ele>
        <time>2022-08-16T14:40:05.000Z</time>
      </trkpt>
      <trkpt lat="45.8498" lon="4.67423">
        <ele>268.42238</ele>
        <time>2022-08-16T14:40:06.000Z</time>
      </trkpt>
      <trkpt lat="45.84984" lon="4.67422">
        <ele>268.34061</ele>
        <time>2022-08-16T14:40:07.000Z</time>
      </trkpt>
      <trkpt lat="45.84989" lon="4.67422">
        <ele>268.2557</ele>
        <time>2022-08-16T14:40:08.000Z</time>
      </trkpt>
      <trkpt lat="45.84992" lon="4.67423">
        <ele>268.24687</ele>
        <time>2022-08-16T14:40:09.000Z</time>
      </trkpt>
      <trkpt lat="45.84995" lon="4.67424">
        <ele>268.21575</ele>
        <time>2022-08-16T14:40:10.000Z</time>
      </trkpt>
      <trkpt lat="45.84997" lon="4.67424">
        <ele>268.17338</ele>
        <time>2022-08-16T14:40:11.000Z</time>
      </trkpt>
      <trkpt lat="45.85" lon="4.67423">
        <ele>268.095</ele>
        <time>2022-08-16T14:40:12.000Z</time>
      </trkpt>
      <trkpt lat="45.85007" lon="4.6742">
        <ele>267.84452</ele>
        <time>2022-08-16T14:40:13.000Z</time>
      </trkpt>
      <trkpt lat="45.85009" lon="4.6742">
        <ele>267.80042</ele>
        <time>2022-08-16T14:40:14.000Z</time>
      </trkpt>
      <trkpt lat="45.85013" lon="4.6742">
        <ele>267.68476</ele>
        <time>2022-08-16T14:40:15.000Z</time>
      </trkpt>
      <trkpt lat="45.85015" lon="4.6742">
        <ele>267.62108</ele>
        <time>2022-08-16T14:40:16.000Z</time>
      </trkpt>
      <trkpt lat="45.85018" lon="4.67419">
        <ele>267.51846</ele>
        <time>2022-08-16T14:40:17.000Z</time>
      </trkpt>
      <trkpt lat="45.85021" lon="4.67418">
        <ele>267.34825</ele>
        <time>2022-08-16T14:40:18.000Z</time>
      </trkpt>
      <trkpt lat="45.85025" lon="4.67419">
        <ele>267.24992</ele>
        <time>2022-08-16T14:40:19.000Z</time>
      </trkpt>
      <trkpt lat="45.85029" lon="4.67417">
        <ele>267.03599</ele>
        <time>2022-08-16T14:40:20.000Z</time>
      </trkpt>
      <trkpt lat="45.85033" lon="4.67414">
        <ele>266.76519</ele>
        <time>2022-08-16T14:40:21.000Z</time>
      </trkpt>
      <trkpt lat="45.85037" lon="4.67412">
        <ele>266.54991</ele>
        <time>2022-08-16T14:40:22.000Z</time>
      </trkpt>
      <trkpt lat="45.8504" lon="4.67409">
        <ele>266.33542</ele>
        <time>2022-08-16T14:40:23.000Z</time>
      </trkpt>
      <trkpt lat="45.85047" lon="4.67406">
        <ele>265.99431</ele>
        <time>2022-08-16T14:40:24.000Z</time>
      </trkpt>
      <trkpt lat="45.8505" lon="4.67404">
        <ele>265.7926</ele>
        <time>2022-08-16T14:40:25.000Z</time>
      </trkpt>
      <trkpt lat="45.85058" lon="4.67399">
        <ele>265.33202</ele>
        <time>2022-08-16T14:40:26.000Z</time>
      </trkpt>
      <trkpt lat="45.85064" lon="4.67393">
        <ele>264.8714</ele>
        <time>2022-08-16T14:40:27.000Z</time>
      </trkpt>
      <trkpt lat="45.85069" lon="4.67391">
        <ele>264.66073</ele>
        <time>2022-08-16T14:40:28.000Z</time>
      </trkpt>
      <trkpt lat="45.85073" lon="4.67386">
        <ele>264.3689</ele>
        <time>2022-08-16T14:40:29.000Z</time>
      </trkpt>
      <trkpt lat="45.85082" lon="4.6738">
        <ele>263.95975</ele>
        <time>2022-08-16T14:40:30.000Z</time>
      </trkpt>
      <trkpt lat="45.85087" lon="4.67379">
        <ele>263.77276</ele>
        <time>2022-08-16T14:40:31.000Z</time>
      </trkpt>
      <trkpt lat="45.85091" lon="4.67377">
        <ele>263.60318</ele>
        <time>2022-08-16T14:40:32.000Z</time>
      </trkpt>
      <trkpt lat="45.85093" lon="4.67377">
        <ele>263.54536</ele>
        <time>2022-08-16T14:40:33.000Z</time>
      </trkpt>
      <trkpt lat="45.85098" lon="4.67372">
        <ele>263.29417</ele>
        <time>2022-08-16T14:40:34.000Z</time>
      </trkpt>
      <trkpt lat="45.85101" lon="4.67371">
        <ele>263.22597</ele>
        <time>2022-08-16T14:40:35.000Z</time>
      </trkpt>
      <trkpt lat="45.85103" lon="4.6737">
        <ele>263.18901</ele>
        <time>2022-08-16T14:40:36.000Z</time>
      </trkpt>
      <trkpt lat="45.85107" lon="4.67369">
        <ele>263.15819</ele>
        <time>2022-08-16T14:40:37.000Z</time>
      </trkpt>
      <trkpt lat="45.8511" lon="4.6737">
        <ele>263.17983</ele>
        <time>2022-08-16T14:40:38.000Z</time>
      </trkpt>
      <trkpt lat="45.85116" lon="4.67365">
        <ele>263.01674</ele>
        <time>2022-08-16T14:40:39.000Z</time>
      </trkpt>
      <trkpt lat="45.8512" lon="4.67362">
        <ele>262.87584</ele>
        <time>2022-08-16T14:40:40.000Z</time>
      </trkpt>
      <trkpt lat="45.85124" lon="4.67361">
        <ele>262.78251</ele>
        <time>2022-08-16T14:40:41.000Z</time>
      </trkpt>
      <trkpt lat="45.85129" lon="4.67356">
        <ele>262.53348</ele>
        <time>2022-08-16T14:40:42.000Z</time>
      </trkpt>
      <trkpt lat="45.85135" lon="4.67357">
        <ele>262.43409</ele>
        <time>2022-08-16T14:40:43.000Z</time>
      </trkpt>
      <trkpt lat="45.85134" lon="4.67354">
        <ele>262.35417</ele>
        <time>2022-08-16T14:40:44.000Z</time>
      </trkpt>
      <trkpt lat="45.8514" lon="4.67345">
        <ele>261.89189</ele>
        <time>2022-08-16T14:40:45.000Z</time>
      </trkpt>
      <trkpt lat="45.85147" lon="4.67345">
        <ele>261.92722</ele>
        <time>2022-08-16T14:40:46.000Z</time>
      </trkpt>
      <trkpt lat="45.85152" lon="4.6734">
        <ele>261.81193</ele>
        <time>2022-08-16T14:40:47.000Z</time>
      </trkpt>
      <trkpt lat="45.85155" lon="4.67338">
        <ele>261.75225</ele>
        <time>2022-08-16T14:40:48.000Z</time>
      </trkpt>
      <trkpt lat="45.85159" lon="4.67337">
        <ele>261.78564</ele>
        <time>2022-08-16T14:40:49.000Z</time>
      </trkpt>
      <trkpt lat="45.85164" lon="4.67333">
        <ele>261.68799</ele>
        <time>2022-08-16T14:40:50.000Z</time>
      </trkpt>
      <trkpt lat="45.85165" lon="4.67329">
        <ele>261.48752</ele>
        <time>2022-08-16T14:40:51.000Z</time>
      </trkpt>
      <trkpt lat="45.85169" lon="4.67329">
        <ele>261.47698</ele>
        <time>2022-08-16T14:40:52.000Z</time>
      </trkpt>
      <trkpt lat="45.85172" lon="4.67327">
        <ele>261.37619</ele>
        <time>2022-08-16T14:40:53.000Z</time>
      </trkpt>
      <trkpt lat="45.85176" lon="4.67327">
        <ele>261.38033</ele>
        <time>2022-08-16T14:40:54.000Z</time>
      </trkpt>
      <trkpt lat="45.85179" lon="4.67326">
        <ele>261.32122</ele>
        <time>2022-08-16T14:40:55.000Z</time>
      </trkpt>
      <trkpt lat="45.85182" lon="4.67323">
        <ele>261.17311</ele>
        <time>2022-08-16T14:40:56.000Z</time>
      </trkpt>
      <trkpt lat="45.85187" lon="4.67319">
        <ele>260.95769</ele>
        <time>2022-08-16T14:40:57.000Z</time>
      </trkpt>
      <trkpt lat="45.85193" lon="4.67317">
        <ele>260.93147</ele>
        <time>2022-08-16T14:40:58.000Z</time>
      </trkpt>
      <trkpt lat="45.85197" lon="4.67314">
        <ele>260.82557</ele>
        <time>2022-08-16T14:40:59.000Z</time>
      </trkpt>
      <trkpt lat="45.85199" lon="4.67315">
        <ele>260.94999</ele>
        <time>2022-08-16T14:41:00.000Z</time>
      </trkpt>
      <trkpt lat="45.85204" lon="4.67315">
        <ele>261.00501</ele>
        <time>2022-08-16T14:41:01.000Z</time>
      </trkpt>
      <trkpt lat="45.85207" lon="4.67314">
        <ele>261.04394</ele>
        <time>2022-08-16T14:41:02.000Z</time>
      </trkpt>
      <trkpt lat="45.8521" lon="4.67321">
        <ele>261.40528</ele>
        <time>2022-08-16T14:41:03.000Z</time>
      </trkpt>
      <trkpt lat="45.85213" lon="4.67326">
        <ele>261.62307</ele>
        <time>2022-08-16T14:41:04.000Z</time>
      </trkpt>
      <trkpt lat="45.85214" lon="4.67329">
        <ele>261.77355</ele>
        <time>2022-08-16T14:41:06.000Z</time>
      </trkpt>
      <trkpt lat="45.85218" lon="4.67332">
        <ele>261.89749</ele>
        <time>2022-08-16T14:41:07.000Z</time>
      </trkpt>
      <trkpt lat="45.85222" lon="4.67337">
        <ele>262.04481</ele>
        <time>2022-08-16T14:41:09.000Z</time>
      </trkpt>
      <trkpt lat="45.85224" lon="4.67337">
        <ele>262.06046</ele>
        <time>2022-08-16T14:41:10.000Z</time>
      </trkpt>
      <trkpt lat="45.85227" lon="4.67337">
        <ele>262.07034</ele>
        <time>2022-08-16T14:41:11.000Z</time>
      </trkpt>
      <trkpt lat="45.85228" lon="4.67338">
        <ele>262.08932</ele>
        <time>2022-08-16T14:41:12.000Z</time>
      </trkpt>
      <trkpt lat="45.85232" lon="4.67339">
        <ele>262.13275</ele>
        <time>2022-08-16T14:41:14.000Z</time>
      </trkpt>
      <trkpt lat="45.85235" lon="4.67339">
        <ele>262.15552</ele>
        <time>2022-08-16T14:41:15.000Z</time>
      </trkpt>
      <trkpt lat="45.85237" lon="4.67339">
        <ele>262.16693</ele>
        <time>2022-08-16T14:41:16.000Z</time>
      </trkpt>
      <trkpt lat="45.85241" lon="4.67338">
        <ele>262.17708</ele>
        <time>2022-08-16T14:41:18.000Z</time>
      </trkpt>
      <trkpt lat="45.85243" lon="4.67338">
        <ele>262.18193</ele>
        <time>2022-08-16T14:41:21.000Z</time>
      </trkpt>
      <trkpt lat="45.85244" lon="4.67336">
        <ele>262.13255</ele>
        <time>2022-08-16T14:41:25.000Z</time>
      </trkpt>
      <trkpt lat="45.85245" lon="4.67337">
        <ele>262.17497</ele>
        <time>2022-08-16T14:41:34.000Z</time>
      </trkpt>
      <trkpt lat="45.85248" lon="4.67337">
        <ele>262.199</ele>
        <time>2022-08-16T14:42:02.000Z</time>
      </trkpt>
      <trkpt lat="45.85252" lon="4.67336">
        <ele>262.21222</ele>
        <time>2022-08-16T14:42:03.000Z</time>
      </trkpt>
      <trkpt lat="45.85255" lon="4.67336">
        <ele>262.23763</ele>
        <time>2022-08-16T14:42:04.000Z</time>
      </trkpt>
      <trkpt lat="45.85259" lon="4.67335">
        <ele>262.25961</ele>
        <time>2022-08-16T14:42:05.000Z</time>
      </trkpt>
      <trkpt lat="45.85262" lon="4.67335">
        <ele>262.28067</ele>
        <time>2022-08-16T14:42:06.000Z</time>
      </trkpt>
      <trkpt lat="45.85265" lon="4.67334">
        <ele>262.2926</ele>
        <time>2022-08-16T14:42:07.000Z</time>
      </trkpt>
      <trkpt lat="45.85268" lon="4.67333">
        <ele>262.29992</ele>
        <time>2022-08-16T14:42:08.000Z</time>
      </trkpt>
      <trkpt lat="45.85271" lon="4.67332">
        <ele>262.29428</ele>
        <time>2022-08-16T14:42:09.000Z</time>
      </trkpt>
      <trkpt lat="45.85274" lon="4.67331">
        <ele>262.2921</ele>
        <time>2022-08-16T14:42:10.000Z</time>
      </trkpt>
      <trkpt lat="45.85276" lon="4.67329">
        <ele>262.28745</ele>
        <time>2022-08-16T14:42:11.000Z</time>
      </trkpt>
      <trkpt lat="45.85278" lon="4.67328">
        <ele>262.29967</ele>
        <time>2022-08-16T14:42:12.000Z</time>
      </trkpt>
      <trkpt lat="45.8528" lon="4.67325">
        <ele>262.25836</ele>
        <time>2022-08-16T14:42:13.000Z</time>
      </trkpt>
      <trkpt lat="45.85282" lon="4.67321">
        <ele>262.18082</ele>
        <time>2022-08-16T14:42:14.000Z</time>
      </trkpt>
      <trkpt lat="45.85283" lon="4.67316">
        <ele>262.07487</ele>
        <time>2022-08-16T14:42:15.000Z</time>
      </trkpt>
      <trkpt lat="45.85283" lon="4.67311">
        <ele>261.94352</ele>
        <time>2022-08-16T14:42:16.000Z</time>
      </trkpt>
      <trkpt lat="45.85283" lon="4.67307">
        <ele>261.81108</ele>
        <time>2022-08-16T14:42:17.000Z</time>
      </trkpt>
      <trkpt lat="45.85282" lon="4.67302">
        <ele>261.65944</ele>
        <time>2022-08-16T14:42:18.000Z</time>
      </trkpt>
      <trkpt lat="45.85282" lon="4.67297">
        <ele>261.49014</ele>
        <time>2022-08-16T14:42:19.000Z</time>
      </trkpt>
      <trkpt lat="45.85282" lon="4.67292">
        <ele>261.32593</ele>
        <time>2022-08-16T14:42:20.000Z</time>
      </trkpt>
      <trkpt lat="45.85282" lon="4.67287">
        <ele>261.11859</ele>
        <time>2022-08-16T14:42:21.000Z</time>
      </trkpt>
      <trkpt lat="45.85283" lon="4.67281">
        <ele>260.84444</ele>
        <time>2022-08-16T14:42:22.000Z</time>
      </trkpt>
      <trkpt lat="45.85283" lon="4.67274">
        <ele>260.47175</ele>
        <time>2022-08-16T14:42:23.000Z</time>
      </trkpt>
      <trkpt lat="45.85283" lon="4.67268">
        <ele>260.04368</ele>
        <time>2022-08-16T14:42:24.000Z</time>
      </trkpt>
      <trkpt lat="45.85283" lon="4.67262">
        <ele>259.62691</ele>
        <time>2022-08-16T14:42:25.000Z</time>
      </trkpt>
      <trkpt lat="45.85284" lon="4.67256">
        <ele>259.19619</ele>
        <time>2022-08-16T14:42:26.000Z</time>
      </trkpt>
      <trkpt lat="45.85284" lon="4.67249">
        <ele>258.7198</ele>
        <time>2022-08-16T14:42:27.000Z</time>
      </trkpt>
      <trkpt lat="45.85284" lon="4.67243">
        <ele>258.20862</ele>
        <time>2022-08-16T14:42:28.000Z</time>
      </trkpt>
      <trkpt lat="45.85284" lon="4.67236">
        <ele>257.63539</ele>
        <time>2022-08-16T14:42:29.000Z</time>
      </trkpt>
      <trkpt lat="45.85284" lon="4.6723">
        <ele>257.04098</ele>
        <time>2022-08-16T14:42:30.000Z</time>
      </trkpt>
      <trkpt lat="45.85283" lon="4.67224">
        <ele>256.42066</ele>
        <time>2022-08-16T14:42:31.000Z</time>
      </trkpt>
      <trkpt lat="45.85283" lon="4.67217">
        <ele>255.77527</ele>
        <time>2022-08-16T14:42:32.000Z</time>
      </trkpt>
      <trkpt lat="45.85283" lon="4.67211">
        <ele>255.02518</ele>
        <time>2022-08-16T14:42:33.000Z</time>
      </trkpt>
      <trkpt lat="45.85281" lon="4.67202">
        <ele>253.81899</ele>
        <time>2022-08-16T14:42:34.000Z</time>
      </trkpt>
      <trkpt lat="45.85281" lon="4.67194">
        <ele>252.83683</ele>
        <time>2022-08-16T14:42:35.000Z</time>
      </trkpt>
      <trkpt lat="45.85283" lon="4.67187">
        <ele>252.06797</ele>
        <time>2022-08-16T14:42:36.000Z</time>
      </trkpt>
      <trkpt lat="45.85283" lon="4.6718">
        <ele>251.24872</ele>
        <time>2022-08-16T14:42:37.000Z</time>
      </trkpt>
      <trkpt lat="45.85284" lon="4.67173">
        <ele>250.66442</ele>
        <time>2022-08-16T14:42:38.000Z</time>
      </trkpt>
      <trkpt lat="45.85283" lon="4.67168">
        <ele>250.05744</ele>
        <time>2022-08-16T14:42:39.000Z</time>
      </trkpt>
      <trkpt lat="45.85277" lon="4.67164">
        <ele>249.2321</ele>
        <time>2022-08-16T14:42:40.000Z</time>
      </trkpt>
      <trkpt lat="45.85276" lon="4.6716">
        <ele>248.66028</ele>
        <time>2022-08-16T14:42:41.000Z</time>
      </trkpt>
      <trkpt lat="45.85272" lon="4.67154">
        <ele>247.6338</ele>
        <time>2022-08-16T14:42:42.000Z</time>
      </trkpt>
      <trkpt lat="45.85268" lon="4.67153">
        <ele>247.08252</ele>
        <time>2022-08-16T14:42:43.000Z</time>
      </trkpt>
      <trkpt lat="45.85265" lon="4.67152">
        <ele>246.81561</ele>
        <time>2022-08-16T14:42:44.000Z</time>
      </trkpt>
      <trkpt lat="45.85264" lon="4.67153">
        <ele>246.93557</ele>
        <time>2022-08-16T14:42:45.000Z</time>
      </trkpt>
      <trkpt lat="45.85262" lon="4.67151">
        <ele>246.46289</ele>
        <time>2022-08-16T14:42:46.000Z</time>
      </trkpt>
      <trkpt lat="45.8526" lon="4.6715">
        <ele>246.24572</ele>
        <time>2022-08-16T14:42:54.000Z</time>
      </trkpt>
      <trkpt lat="45.85257" lon="4.67148">
        <ele>245.68791</ele>
        <time>2022-08-16T14:43:54.000Z</time>
      </trkpt>
      <trkpt lat="45.85253" lon="4.67144">
        <ele>244.76539</ele>
        <time>2022-08-16T14:43:55.000Z</time>
      </trkpt>
      <trkpt lat="45.85243" lon="4.67137">
        <ele>242.76522</ele>
        <time>2022-08-16T14:43:56.000Z</time>
      </trkpt>
      <trkpt lat="45.85238" lon="4.6714">
        <ele>243.15734</ele>
        <time>2022-08-16T14:43:57.000Z</time>
      </trkpt>
      <trkpt lat="45.85233" lon="4.67137">
        <ele>242.48808</ele>
        <time>2022-08-16T14:43:58.000Z</time>
      </trkpt>
      <trkpt lat="45.85226" lon="4.67133">
        <ele>241.60626</ele>
        <time>2022-08-16T14:43:59.000Z</time>
      </trkpt>
      <trkpt lat="45.85221" lon="4.67131">
        <ele>241.34247</ele>
        <time>2022-08-16T14:44:00.000Z</time>
      </trkpt>
      <trkpt lat="45.85215" lon="4.67128">
        <ele>240.88773</ele>
        <time>2022-08-16T14:44:01.000Z</time>
      </trkpt>
      <trkpt lat="45.85207" lon="4.67124">
        <ele>240.19524</ele>
        <time>2022-08-16T14:44:02.000Z</time>
      </trkpt>
      <trkpt lat="45.85199" lon="4.67118">
        <ele>238.75501</ele>
        <time>2022-08-16T14:44:03.000Z</time>
      </trkpt>
      <trkpt lat="45.85191" lon="4.67112">
        <ele>237.59811</ele>
        <time>2022-08-16T14:44:04.000Z</time>
      </trkpt>
      <trkpt lat="45.85183" lon="4.67107">
        <ele>236.75434</ele>
        <time>2022-08-16T14:44:05.000Z</time>
      </trkpt>
      <trkpt lat="45.85175" lon="4.67102">
        <ele>236.56499</ele>
        <time>2022-08-16T14:44:06.000Z</time>
      </trkpt>
      <trkpt lat="45.85169" lon="4.671">
        <ele>236.80289</ele>
        <time>2022-08-16T14:44:07.000Z</time>
      </trkpt>
      <trkpt lat="45.85162" lon="4.67094">
        <ele>236.51988</ele>
        <time>2022-08-16T14:44:08.000Z</time>
      </trkpt>
      <trkpt lat="45.85157" lon="4.67091">
        <ele>236.24416</ele>
        <time>2022-08-16T14:44:09.000Z</time>
      </trkpt>
      <trkpt lat="45.85149" lon="4.67086">
        <ele>235.61897</ele>
        <time>2022-08-16T14:44:10.000Z</time>
      </trkpt>
      <trkpt lat="45.85144" lon="4.67083">
        <ele>235.38644</ele>
        <time>2022-08-16T14:44:11.000Z</time>
      </trkpt>
      <trkpt lat="45.85138" lon="4.6708">
        <ele>235.19451</ele>
        <time>2022-08-16T14:44:12.000Z</time>
      </trkpt>
      <trkpt lat="45.85132" lon="4.67075">
        <ele>234.7954</ele>
        <time>2022-08-16T14:44:13.000Z</time>
      </trkpt>
      <trkpt lat="45.85127" lon="4.67071">
        <ele>234.45618</ele>
        <time>2022-08-16T14:44:14.000Z</time>
      </trkpt>
      <trkpt lat="45.85121" lon="4.6707">
        <ele>234.56902</ele>
        <time>2022-08-16T14:44:15.000Z</time>
      </trkpt>
      <trkpt lat="45.85116" lon="4.67071">
        <ele>234.87496</ele>
        <time>2022-08-16T14:44:16.000Z</time>
      </trkpt>
      <trkpt lat="45.85111" lon="4.67069">
        <ele>234.73773</ele>
        <time>2022-08-16T14:44:17.000Z</time>
      </trkpt>
      <trkpt lat="45.85108" lon="4.67069">
        <ele>234.85975</ele>
        <time>2022-08-16T14:44:18.000Z</time>
      </trkpt>
      <trkpt lat="45.85107" lon="4.67064">
        <ele>234.30721</ele>
        <time>2022-08-16T14:44:19.000Z</time>
      </trkpt>
      <trkpt lat="45.8511" lon="4.67064">
        <ele>234.11986</ele>
        <time>2022-08-16T14:44:20.000Z</time>
      </trkpt>
      <trkpt lat="45.85109" lon="4.67061">
        <ele>233.7106</ele>
        <time>2022-08-16T14:44:27.000Z</time>
      </trkpt>
      <trkpt lat="45.85108" lon="4.67059">
        <ele>233.40442</ele>
        <time>2022-08-16T14:44:46.000Z</time>
      </trkpt>
      <trkpt lat="45.85108" lon="4.67055">
        <ele>232.8614</ele>
        <time>2022-08-16T14:45:00.000Z</time>
      </trkpt>
      <trkpt lat="45.8511" lon="4.67051">
        <ele>232.06021</ele>
        <time>2022-08-16T14:45:02.000Z</time>
      </trkpt>
      <trkpt lat="45.85111" lon="4.67048">
        <ele>231.52523</ele>
        <time>2022-08-16T14:45:03.000Z</time>
      </trkpt>
      <trkpt lat="45.85113" lon="4.67046">
        <ele>230.98217</ele>
        <time>2022-08-16T14:45:04.000Z</time>
      </trkpt>
      <trkpt lat="45.85115" lon="4.67043">
        <ele>230.45646</ele>
        <time>2022-08-16T14:45:05.000Z</time>
      </trkpt>
      <trkpt lat="45.85118" lon="4.6704">
        <ele>229.92809</ele>
        <time>2022-08-16T14:45:06.000Z</time>
      </trkpt>
      <trkpt lat="45.8512" lon="4.67038">
        <ele>229.45578</ele>
        <time>2022-08-16T14:45:07.000Z</time>
      </trkpt>
      <trkpt lat="45.85123" lon="4.67035">
        <ele>228.88538</ele>
        <time>2022-08-16T14:45:08.000Z</time>
      </trkpt>
      <trkpt lat="45.85126" lon="4.67032">
        <ele>228.27473</ele>
        <time>2022-08-16T14:45:09.000Z</time>
      </trkpt>
      <trkpt lat="45.85128" lon="4.6703">
        <ele>227.73671</ele>
        <time>2022-08-16T14:45:10.000Z</time>
      </trkpt>
      <trkpt lat="45.8513" lon="4.67027">
        <ele>227.08946</ele>
        <time>2022-08-16T14:45:11.000Z</time>
      </trkpt>
      <trkpt lat="45.85133" lon="4.67025">
        <ele>226.37131</ele>
        <time>2022-08-16T14:45:12.000Z</time>
      </trkpt>
      <trkpt lat="45.85137" lon="4.67024">
        <ele>225.67527</ele>
        <time>2022-08-16T14:45:13.000Z</time>
      </trkpt>
      <trkpt lat="45.85141" lon="4.67023">
        <ele>224.83929</ele>
        <time>2022-08-16T14:45:14.000Z</time>
      </trkpt>
      <trkpt lat="45.85144" lon="4.67023">
        <ele>224.06555</ele>
        <time>2022-08-16T14:45:15.000Z</time>
      </trkpt>
      <trkpt lat="45.85148" lon="4.67023">
        <ele>223.38984</ele>
        <time>2022-08-16T14:45:16.000Z</time>
      </trkpt>
      <trkpt lat="45.8515" lon="4.67024">
        <ele>222.91343</ele>
        <time>2022-08-16T14:45:17.000Z</time>
      </trkpt>
      <trkpt lat="45.85153" lon="4.67025">
        <ele>222.42438</ele>
        <time>2022-08-16T14:45:18.000Z</time>
      </trkpt>
      <trkpt lat="45.85155" lon="4.67025">
        <ele>221.72472</ele>
        <time>2022-08-16T14:45:19.000Z</time>
      </trkpt>
      <trkpt lat="45.85158" lon="4.67026">
        <ele>221.06815</ele>
        <time>2022-08-16T14:45:20.000Z</time>
      </trkpt>
      <trkpt lat="45.8516" lon="4.67027">
        <ele>220.49986</ele>
        <time>2022-08-16T14:45:21.000Z</time>
      </trkpt>
      <trkpt lat="45.85164" lon="4.67029">
        <ele>220.02427</ele>
        <time>2022-08-16T14:45:22.000Z</time>
      </trkpt>
      <trkpt lat="45.85167" lon="4.67031">
        <ele>219.74522</ele>
        <time>2022-08-16T14:45:23.000Z</time>
      </trkpt>
      <trkpt lat="45.85171" lon="4.67033">
        <ele>219.85005</ele>
        <time>2022-08-16T14:45:24.000Z</time>
      </trkpt>
      <trkpt lat="45.85174" lon="4.67035">
        <ele>220.10162</ele>
        <time>2022-08-16T14:45:25.000Z</time>
      </trkpt>
      <trkpt lat="45.85177" lon="4.67037">
        <ele>220.35369</ele>
        <time>2022-08-16T14:45:26.000Z</time>
      </trkpt>
      <trkpt lat="45.85181" lon="4.67038">
        <ele>220.443</ele>
        <time>2022-08-16T14:45:27.000Z</time>
      </trkpt>
      <trkpt lat="45.85184" lon="4.67039">
        <ele>220.44991</ele>
        <time>2022-08-16T14:45:28.000Z</time>
      </trkpt>
      <trkpt lat="45.85187" lon="4.6704">
        <ele>220.2205</ele>
        <time>2022-08-16T14:45:29.000Z</time>
      </trkpt>
      <trkpt lat="45.8519" lon="4.6704">
        <ele>219.72439</ele>
        <time>2022-08-16T14:45:30.000Z</time>
      </trkpt>
      <trkpt lat="45.85194" lon="4.67039">
        <ele>219.07502</ele>
        <time>2022-08-16T14:45:31.000Z</time>
      </trkpt>
      <trkpt lat="45.85197" lon="4.67038">
        <ele>218.48552</ele>
        <time>2022-08-16T14:45:32.000Z</time>
      </trkpt>
      <trkpt lat="45.85199" lon="4.67037">
        <ele>218.00366</ele>
        <time>2022-08-16T14:45:33.000Z</time>
      </trkpt>
      <trkpt lat="45.85202" lon="4.67036">
        <ele>217.62626</ele>
        <time>2022-08-16T14:45:34.000Z</time>
      </trkpt>
      <trkpt lat="45.85206" lon="4.67037">
        <ele>217.33916</ele>
        <time>2022-08-16T14:45:35.000Z</time>
      </trkpt>
      <trkpt lat="45.85209" lon="4.67037">
        <ele>217.08837</ele>
        <time>2022-08-16T14:45:36.000Z</time>
      </trkpt>
      <trkpt lat="45.85212" lon="4.67037">
        <ele>216.90939</ele>
        <time>2022-08-16T14:45:37.000Z</time>
      </trkpt>
      <trkpt lat="45.85214" lon="4.67038">
        <ele>216.69026</ele>
        <time>2022-08-16T14:45:38.000Z</time>
      </trkpt>
      <trkpt lat="45.85218" lon="4.67038">
        <ele>216.51041</ele>
        <time>2022-08-16T14:45:39.000Z</time>
      </trkpt>
      <trkpt lat="45.85221" lon="4.67038">
        <ele>216.35287</ele>
        <time>2022-08-16T14:45:40.000Z</time>
      </trkpt>
      <trkpt lat="45.85224" lon="4.67039">
        <ele>216.24056</ele>
        <time>2022-08-16T14:45:41.000Z</time>
      </trkpt>
      <trkpt lat="45.85226" lon="4.67039">
        <ele>216.11632</ele>
        <time>2022-08-16T14:45:42.000Z</time>
      </trkpt>
      <trkpt lat="45.85228" lon="4.67039">
        <ele>216.04756</ele>
        <time>2022-08-16T14:45:43.000Z</time>
      </trkpt>
      <trkpt lat="45.8523" lon="4.67039">
        <ele>216.06472</ele>
        <time>2022-08-16T14:45:44.000Z</time>
      </trkpt>
      <trkpt lat="45.85233" lon="4.6704">
        <ele>216.00405</ele>
        <time>2022-08-16T14:45:46.000Z</time>
      </trkpt>
      <trkpt lat="45.85237" lon="4.67039">
        <ele>215.87694</ele>
        <time>2022-08-16T14:45:48.000Z</time>
      </trkpt>
      <trkpt lat="45.85239" lon="4.67039">
        <ele>215.76547</ele>
        <time>2022-08-16T14:45:49.000Z</time>
      </trkpt>
      <trkpt lat="45.85242" lon="4.67039">
        <ele>215.72856</ele>
        <time>2022-08-16T14:45:50.000Z</time>
      </trkpt>
      <trkpt lat="45.85245" lon="4.67039">
        <ele>215.72016</ele>
        <time>2022-08-16T14:45:51.000Z</time>
      </trkpt>
      <trkpt lat="45.85249" lon="4.67039">
        <ele>215.63856</ele>
        <time>2022-08-16T14:45:52.000Z</time>
      </trkpt>
      <trkpt lat="45.85253" lon="4.67038">
        <ele>215.57607</ele>
        <time>2022-08-16T14:45:53.000Z</time>
      </trkpt>
      <trkpt lat="45.85259" lon="4.67038">
        <ele>215.74698</ele>
        <time>2022-08-16T14:45:54.000Z</time>
      </trkpt>
      <trkpt lat="45.85265" lon="4.67038">
        <ele>216.03746</ele>
        <time>2022-08-16T14:45:55.000Z</time>
      </trkpt>
      <trkpt lat="45.85279" lon="4.67038">
        <ele>217.01828</ele>
        <time>2022-08-16T14:45:56.000Z</time>
      </trkpt>
      <trkpt lat="45.85289" lon="4.67039">
        <ele>217.79956</ele>
        <time>2022-08-16T14:45:57.000Z</time>
      </trkpt>
      <trkpt lat="45.85299" lon="4.67037">
        <ele>217.37564</ele>
        <time>2022-08-16T14:45:58.000Z</time>
      </trkpt>
      <trkpt lat="45.85304" lon="4.67037">
        <ele>217.943</ele>
        <time>2022-08-16T14:45:59.000Z</time>
      </trkpt>
      <trkpt lat="45.85311" lon="4.67036">
        <ele>218.34989</ele>
        <time>2022-08-16T14:46:00.000Z</time>
      </trkpt>
      <trkpt lat="45.8532" lon="4.67039">
        <ele>221.37093</ele>
        <time>2022-08-16T14:46:01.000Z</time>
      </trkpt>
      <trkpt lat="45.85323" lon="4.67028">
        <ele>217.3834</ele>
        <time>2022-08-16T14:46:02.000Z</time>
      </trkpt>
      <trkpt lat="45.85325" lon="4.67013">
        <ele>213.74864</ele>
        <time>2022-08-16T14:46:03.000Z</time>
      </trkpt>
      <trkpt lat="45.85329" lon="4.67015">
        <ele>214.98601</ele>
        <time>2022-08-16T14:46:04.000Z</time>
      </trkpt>
      <trkpt lat="45.85332" lon="4.67013">
        <ele>214.54832</ele>
        <time>2022-08-16T14:46:05.000Z</time>
      </trkpt>
      <trkpt lat="45.85339" lon="4.67004">
        <ele>212.72364</ele>
        <time>2022-08-16T14:46:06.000Z</time>
      </trkpt>
      <trkpt lat="45.85342" lon="4.67001">
        <ele>212.16486</ele>
        <time>2022-08-16T14:46:07.000Z</time>
      </trkpt>
      <trkpt lat="45.85348" lon="4.67004">
        <ele>212.70644</ele>
        <time>2022-08-16T14:46:08.000Z</time>
      </trkpt>
      <trkpt lat="45.85355" lon="4.66996">
        <ele>210.84311</ele>
        <time>2022-08-16T14:46:09.000Z</time>
      </trkpt>
      <trkpt lat="45.85365" lon="4.66993">
        <ele>210.21355</ele>
        <time>2022-08-16T14:46:10.000Z</time>
      </trkpt>
      <trkpt lat="45.8537" lon="4.66978">
        <ele>206.51373</ele>
        <time>2022-08-16T14:46:11.000Z</time>
      </trkpt>
      <trkpt lat="45.85374" lon="4.6698">
        <ele>206.73051</ele>
        <time>2022-08-16T14:46:12.000Z</time>
      </trkpt>
      <trkpt lat="45.85376" lon="4.66981">
        <ele>206.88209</ele>
        <time>2022-08-16T14:46:13.000Z</time>
      </trkpt>
      <trkpt lat="45.85381" lon="4.66977">
        <ele>206.26015</ele>
        <time>2022-08-16T14:46:14.000Z</time>
      </trkpt>
      <trkpt lat="45.85387" lon="4.66975">
        <ele>206.52917</ele>
        <time>2022-08-16T14:46:15.000Z</time>
      </trkpt>
      <trkpt lat="45.8539" lon="4.66972">
        <ele>207.04776</ele>
        <time>2022-08-16T14:46:16.000Z</time>
      </trkpt>
      <trkpt lat="45.85393" lon="4.66965">
        <ele>208.37272</ele>
        <time>2022-08-16T14:46:17.000Z</time>
      </trkpt>
      <trkpt lat="45.85396" lon="4.66961">
        <ele>209.52566</ele>
        <time>2022-08-16T14:46:18.000Z</time>
      </trkpt>
      <trkpt lat="45.85401" lon="4.66956">
        <ele>210.50788</ele>
        <time>2022-08-16T14:46:19.000Z</time>
      </trkpt>
      <trkpt lat="45.85405" lon="4.66954">
        <ele>210.89299</ele>
        <time>2022-08-16T14:46:20.000Z</time>
      </trkpt>
      <trkpt lat="45.85408" lon="4.66954">
        <ele>210.81886</ele>
        <time>2022-08-16T14:46:21.000Z</time>
      </trkpt>
      <trkpt lat="45.85414" lon="4.66958">
        <ele>209.69093</ele>
        <time>2022-08-16T14:46:22.000Z</time>
      </trkpt>
      <trkpt lat="45.85421" lon="4.66958">
        <ele>209.38009</ele>
        <time>2022-08-16T14:46:23.000Z</time>
      </trkpt>
      <trkpt lat="45.85427" lon="4.66953">
        <ele>210.83165</ele>
        <time>2022-08-16T14:46:24.000Z</time>
      </trkpt>
      <trkpt lat="45.85433" lon="4.66954">
        <ele>210.2156</ele>
        <time>2022-08-16T14:46:26.000Z</time>
      </trkpt>
      <trkpt lat="45.8544" lon="4.66954">
        <ele>210.2689</ele>
        <time>2022-08-16T14:46:27.000Z</time>
      </trkpt>
      <trkpt lat="45.85444" lon="4.66947">
        <ele>212.37737</ele>
        <time>2022-08-16T14:46:28.000Z</time>
      </trkpt>
      <trkpt lat="45.85454" lon="4.66958">
        <ele>208.8168</ele>
        <time>2022-08-16T14:46:29.000Z</time>
      </trkpt>
      <trkpt lat="45.8546" lon="4.66962">
        <ele>207.44779</ele>
        <time>2022-08-16T14:46:30.000Z</time>
      </trkpt>
      <trkpt lat="45.85463" lon="4.66963">
        <ele>206.76024</ele>
        <time>2022-08-16T14:46:31.000Z</time>
      </trkpt>
      <trkpt lat="45.85474" lon="4.66959">
        <ele>205.70991</ele>
        <time>2022-08-16T14:46:32.000Z</time>
      </trkpt>
      <trkpt lat="45.85479" lon="4.66961">
        <ele>204.29149</ele>
        <time>2022-08-16T14:46:33.000Z</time>
      </trkpt>
      <trkpt lat="45.85487" lon="4.66959">
        <ele>203.37399</ele>
        <time>2022-08-16T14:46:34.000Z</time>
      </trkpt>
      <trkpt lat="45.85491" lon="4.66961">
        <ele>202.45986</ele>
        <time>2022-08-16T14:46:35.000Z</time>
      </trkpt>
      <trkpt lat="45.85497" lon="4.66957">
        <ele>202.56019</ele>
        <time>2022-08-16T14:46:36.000Z</time>
      </trkpt>
      <trkpt lat="45.85502" lon="4.6696">
        <ele>201.75467</ele>
        <time>2022-08-16T14:46:37.000Z</time>
      </trkpt>
      <trkpt lat="45.85508" lon="4.66958">
        <ele>202.00076</ele>
        <time>2022-08-16T14:46:38.000Z</time>
      </trkpt>
      <trkpt lat="45.85511" lon="4.66962">
        <ele>201.63526</ele>
        <time>2022-08-16T14:46:39.000Z</time>
      </trkpt>
      <trkpt lat="45.85515" lon="4.66956">
        <ele>202.85657</ele>
        <time>2022-08-16T14:46:40.000Z</time>
      </trkpt>
      <trkpt lat="45.8552" lon="4.66945">
        <ele>206.13794</ele>
        <time>2022-08-16T14:46:41.000Z</time>
      </trkpt>
      <trkpt lat="45.85524" lon="4.66941">
        <ele>206.99172</ele>
        <time>2022-08-16T14:46:42.000Z</time>
      </trkpt>
      <trkpt lat="45.85524" lon="4.66948">
        <ele>205.7282</ele>
        <time>2022-08-16T14:46:43.000Z</time>
      </trkpt>
      <trkpt lat="45.85528" lon="4.6695">
        <ele>205.50402</ele>
        <time>2022-08-16T14:46:44.000Z</time>
      </trkpt>
      <trkpt lat="45.85534" lon="4.6695">
        <ele>204.7363</ele>
        <time>2022-08-16T14:46:45.000Z</time>
      </trkpt>
      <trkpt lat="45.85535" lon="4.66958">
        <ele>203.50872</ele>
        <time>2022-08-16T14:46:46.000Z</time>
      </trkpt>
      <trkpt lat="45.85537" lon="4.66965">
        <ele>202.95405</ele>
        <time>2022-08-16T14:46:47.000Z</time>
      </trkpt>
      <trkpt lat="45.85539" lon="4.66969">
        <ele>202.55785</ele>
        <time>2022-08-16T14:46:48.000Z</time>
      </trkpt>
      <trkpt lat="45.8554" lon="4.66973">
        <ele>202.43537</ele>
        <time>2022-08-16T14:46:49.000Z</time>
      </trkpt>
      <trkpt lat="45.85543" lon="4.66979">
        <ele>202.22151</ele>
        <time>2022-08-16T14:46:51.000Z</time>
      </trkpt>
      <trkpt lat="45.85545" lon="4.66984">
        <ele>201.89386</ele>
        <time>2022-08-16T14:46:52.000Z</time>
      </trkpt>
      <trkpt lat="45.85546" lon="4.66991">
        <ele>201.82837</ele>
        <time>2022-08-16T14:46:53.000Z</time>
      </trkpt>
      <trkpt lat="45.85547" lon="4.66996">
        <ele>201.92022</ele>
        <time>2022-08-16T14:46:54.000Z</time>
      </trkpt>
      <trkpt lat="45.85548" lon="4.67001">
        <ele>202.06376</ele>
        <time>2022-08-16T14:46:55.000Z</time>
      </trkpt>
      <trkpt lat="45.85549" lon="4.67006">
        <ele>202.4881</ele>
        <time>2022-08-16T14:46:56.000Z</time>
      </trkpt>
      <trkpt lat="45.85551" lon="4.67011">
        <ele>203.08071</ele>
        <time>2022-08-16T14:46:57.000Z</time>
      </trkpt>
      <trkpt lat="45.85552" lon="4.67015">
        <ele>203.69407</ele>
        <time>2022-08-16T14:46:58.000Z</time>
      </trkpt>
      <trkpt lat="45.85554" lon="4.67019">
        <ele>204.32661</ele>
        <time>2022-08-16T14:46:59.000Z</time>
      </trkpt>
      <trkpt lat="45.85555" lon="4.67023">
        <ele>204.86542</ele>
        <time>2022-08-16T14:47:00.000Z</time>
      </trkpt>
      <trkpt lat="45.85556" lon="4.67028">
        <ele>205.27138</ele>
        <time>2022-08-16T14:47:01.000Z</time>
      </trkpt>
      <trkpt lat="45.85558" lon="4.67032">
        <ele>205.37138</ele>
        <time>2022-08-16T14:47:02.000Z</time>
      </trkpt>
      <trkpt lat="45.85559" lon="4.67036">
        <ele>205.17919</ele>
        <time>2022-08-16T14:47:03.000Z</time>
      </trkpt>
      <trkpt lat="45.8556" lon="4.67041">
        <ele>204.93393</ele>
        <time>2022-08-16T14:47:04.000Z</time>
      </trkpt>
      <trkpt lat="45.85561" lon="4.67045">
        <ele>204.79929</ele>
        <time>2022-08-16T14:47:05.000Z</time>
      </trkpt>
      <trkpt lat="45.85562" lon="4.67051">
        <ele>204.75332</ele>
        <time>2022-08-16T14:47:06.000Z</time>
      </trkpt>
      <trkpt lat="45.85563" lon="4.67056">
        <ele>204.69539</ele>
        <time>2022-08-16T14:47:07.000Z</time>
      </trkpt>
      <trkpt lat="45.85565" lon="4.67062">
        <ele>204.74927</ele>
        <time>2022-08-16T14:47:08.000Z</time>
      </trkpt>
      <trkpt lat="45.85566" lon="4.67067">
        <ele>204.87219</ele>
        <time>2022-08-16T14:47:09.000Z</time>
      </trkpt>
      <trkpt lat="45.85568" lon="4.67071">
        <ele>204.98181</ele>
        <time>2022-08-16T14:47:10.000Z</time>
      </trkpt>
      <trkpt lat="45.8557" lon="4.67076">
        <ele>205.13755</ele>
        <time>2022-08-16T14:47:11.000Z</time>
      </trkpt>
      <trkpt lat="45.85571" lon="4.6708">
        <ele>205.28743</ele>
        <time>2022-08-16T14:47:12.000Z</time>
      </trkpt>
      <trkpt lat="45.85573" lon="4.67083">
        <ele>205.39532</ele>
        <time>2022-08-16T14:47:13.000Z</time>
      </trkpt>
      <trkpt lat="45.85574" lon="4.67087">
        <ele>205.41757</ele>
        <time>2022-08-16T14:47:14.000Z</time>
      </trkpt>
      <trkpt lat="45.85576" lon="4.67091">
        <ele>205.25952</ele>
        <time>2022-08-16T14:47:15.000Z</time>
      </trkpt>
      <trkpt lat="45.8558" lon="4.67102">
        <ele>204.15065</ele>
        <time>2022-08-16T14:47:16.000Z</time>
      </trkpt>
      <trkpt lat="45.85583" lon="4.6711">
        <ele>203.12779</ele>
        <time>2022-08-16T14:47:17.000Z</time>
      </trkpt>
      <trkpt lat="45.85584" lon="4.67119">
        <ele>203.09636</ele>
        <time>2022-08-16T14:47:18.000Z</time>
      </trkpt>
      <trkpt lat="45.85584" lon="4.67127">
        <ele>204.12134</ele>
        <time>2022-08-16T14:47:19.000Z</time>
      </trkpt>
      <trkpt lat="45.85586" lon="4.67131">
        <ele>205.20153</ele>
        <time>2022-08-16T14:47:20.000Z</time>
      </trkpt>
      <trkpt lat="45.85592" lon="4.67134">
        <ele>205.86512</ele>
        <time>2022-08-16T14:47:22.000Z</time>
      </trkpt>
      <trkpt lat="45.85593" lon="4.67143">
        <ele>207.99302</ele>
        <time>2022-08-16T14:47:23.000Z</time>
      </trkpt>
      <trkpt lat="45.85595" lon="4.67152">
        <ele>209.74875</ele>
        <time>2022-08-16T14:47:24.000Z</time>
      </trkpt>
      <trkpt lat="45.85597" lon="4.67154">
        <ele>208.94446</ele>
        <time>2022-08-16T14:47:25.000Z</time>
      </trkpt>
      <trkpt lat="45.85598" lon="4.67159">
        <ele>209.19085</ele>
        <time>2022-08-16T14:47:26.000Z</time>
      </trkpt>
      <trkpt lat="45.85601" lon="4.67163">
        <ele>208.68202</ele>
        <time>2022-08-16T14:47:27.000Z</time>
      </trkpt>
      <trkpt lat="45.85603" lon="4.67166">
        <ele>207.89617</ele>
        <time>2022-08-16T14:47:28.000Z</time>
      </trkpt>
      <trkpt lat="45.85605" lon="4.67171">
        <ele>207.49842</ele>
        <time>2022-08-16T14:47:29.000Z</time>
      </trkpt>
      <trkpt lat="45.85607" lon="4.67175">
        <ele>207.02264</ele>
        <time>2022-08-16T14:47:30.000Z</time>
      </trkpt>
      <trkpt lat="45.8561" lon="4.6718">
        <ele>206.52707</ele>
        <time>2022-08-16T14:47:31.000Z</time>
      </trkpt>
      <trkpt lat="45.85612" lon="4.67183">
        <ele>205.6694</ele>
        <time>2022-08-16T14:47:32.000Z</time>
      </trkpt>
      <trkpt lat="45.85616" lon="4.67186">
        <ele>204.59725</ele>
        <time>2022-08-16T14:47:33.000Z</time>
      </trkpt>
      <trkpt lat="45.8562" lon="4.6719">
        <ele>203.7317</ele>
        <time>2022-08-16T14:47:34.000Z</time>
      </trkpt>
      <trkpt lat="45.85624" lon="4.67193">
        <ele>203.04191</ele>
        <time>2022-08-16T14:47:35.000Z</time>
      </trkpt>
      <trkpt lat="45.85628" lon="4.67196">
        <ele>202.51596</ele>
        <time>2022-08-16T14:47:36.000Z</time>
      </trkpt>
      <trkpt lat="45.85632" lon="4.67199">
        <ele>201.95103</ele>
        <time>2022-08-16T14:47:37.000Z</time>
      </trkpt>
      <trkpt lat="45.85636" lon="4.67203">
        <ele>202.0065</ele>
        <time>2022-08-16T14:47:38.000Z</time>
      </trkpt>
      <trkpt lat="45.8564" lon="4.67206">
        <ele>202.23761</ele>
        <time>2022-08-16T14:47:39.000Z</time>
      </trkpt>
      <trkpt lat="45.85643" lon="4.6721">
        <ele>202.52245</ele>
        <time>2022-08-16T14:47:40.000Z</time>
      </trkpt>
      <trkpt lat="45.85647" lon="4.67214">
        <ele>202.75687</ele>
        <time>2022-08-16T14:47:41.000Z</time>
      </trkpt>
      <trkpt lat="45.8565" lon="4.67218">
        <ele>202.49009</ele>
        <time>2022-08-16T14:47:42.000Z</time>
      </trkpt>
      <trkpt lat="45.85654" lon="4.67221">
        <ele>201.60323</ele>
        <time>2022-08-16T14:47:43.000Z</time>
      </trkpt>
      <trkpt lat="45.85658" lon="4.67224">
        <ele>200.36495</ele>
        <time>2022-08-16T14:47:44.000Z</time>
      </trkpt>
      <trkpt lat="45.85661" lon="4.67226">
        <ele>199.43599</ele>
        <time>2022-08-16T14:47:45.000Z</time>
      </trkpt>
      <trkpt lat="45.85665" lon="4.67227">
        <ele>198.84953</ele>
        <time>2022-08-16T14:47:46.000Z</time>
      </trkpt>
      <trkpt lat="45.85669" lon="4.67229">
        <ele>198.67541</ele>
        <time>2022-08-16T14:47:47.000Z</time>
      </trkpt>
      <trkpt lat="45.85673" lon="4.6723">
        <ele>198.85257</ele>
        <time>2022-08-16T14:47:48.000Z</time>
      </trkpt>
      <trkpt lat="45.85677" lon="4.67233">
        <ele>199.56176</ele>
        <time>2022-08-16T14:47:49.000Z</time>
      </trkpt>
      <trkpt lat="45.85681" lon="4.67237">
        <ele>200.58978</ele>
        <time>2022-08-16T14:47:50.000Z</time>
      </trkpt>
      <trkpt lat="45.8569" lon="4.6724">
        <ele>201.24777</ele>
        <time>2022-08-16T14:47:51.000Z</time>
      </trkpt>
      <trkpt lat="45.85694" lon="4.67245">
        <ele>201.91889</ele>
        <time>2022-08-16T14:47:52.000Z</time>
      </trkpt>
      <trkpt lat="45.85698" lon="4.67249">
        <ele>201.98697</ele>
        <time>2022-08-16T14:47:53.000Z</time>
      </trkpt>
      <trkpt lat="45.85702" lon="4.67249">
        <ele>201.45489</ele>
        <time>2022-08-16T14:47:54.000Z</time>
      </trkpt>
      <trkpt lat="45.85709" lon="4.67253">
        <ele>200.62654</ele>
        <time>2022-08-16T14:47:55.000Z</time>
      </trkpt>
      <trkpt lat="45.85717" lon="4.67256">
        <ele>199.36182</ele>
        <time>2022-08-16T14:47:56.000Z</time>
      </trkpt>
      <trkpt lat="45.85722" lon="4.67259">
        <ele>198.79498</ele>
        <time>2022-08-16T14:47:57.000Z</time>
      </trkpt>
      <trkpt lat="45.85725" lon="4.67263">
        <ele>198.67667</ele>
        <time>2022-08-16T14:47:58.000Z</time>
      </trkpt>
      <trkpt lat="45.85729" lon="4.67271">
        <ele>199.12687</ele>
        <time>2022-08-16T14:47:59.000Z</time>
      </trkpt>
      <trkpt lat="45.85731" lon="4.67274">
        <ele>199.40281</ele>
        <time>2022-08-16T14:48:00.000Z</time>
      </trkpt>
      <trkpt lat="45.85735" lon="4.67283">
        <ele>200.40322</ele>
        <time>2022-08-16T14:48:01.000Z</time>
      </trkpt>
      <trkpt lat="45.85738" lon="4.6729">
        <ele>201.04697</ele>
        <time>2022-08-16T14:48:02.000Z</time>
      </trkpt>
      <trkpt lat="45.85744" lon="4.67295">
        <ele>201.08355</ele>
        <time>2022-08-16T14:48:03.000Z</time>
      </trkpt>
      <trkpt lat="45.85748" lon="4.673">
        <ele>201.07881</ele>
        <time>2022-08-16T14:48:04.000Z</time>
      </trkpt>
      <trkpt lat="45.85753" lon="4.67305">
        <ele>201.05306</ele>
        <time>2022-08-16T14:48:05.000Z</time>
      </trkpt>
      <trkpt lat="45.85757" lon="4.67307">
        <ele>200.56791</ele>
        <time>2022-08-16T14:48:06.000Z</time>
      </trkpt>
      <trkpt lat="45.85758" lon="4.67312">
        <ele>201.39976</ele>
        <time>2022-08-16T14:48:07.000Z</time>
      </trkpt>
      <trkpt lat="45.8576" lon="4.67316">
        <ele>201.85874</ele>
        <time>2022-08-16T14:48:08.000Z</time>
      </trkpt>
      <trkpt lat="45.85764" lon="4.67322">
        <ele>202.18526</ele>
        <time>2022-08-16T14:48:09.000Z</time>
      </trkpt>
      <trkpt lat="45.85764" lon="4.67328">
        <ele>202.88819</ele>
        <time>2022-08-16T14:48:10.000Z</time>
      </trkpt>
      <trkpt lat="45.85766" lon="4.67333">
        <ele>202.87177</ele>
        <time>2022-08-16T14:48:11.000Z</time>
      </trkpt>
      <trkpt lat="45.85771" lon="4.67336">
        <ele>202.42916</ele>
        <time>2022-08-16T14:48:12.000Z</time>
      </trkpt>
      <trkpt lat="45.85774" lon="4.67342">
        <ele>202.25226</ele>
        <time>2022-08-16T14:48:13.000Z</time>
      </trkpt>
      <trkpt lat="45.85775" lon="4.67347">
        <ele>202.54263</ele>
        <time>2022-08-16T14:48:16.000Z</time>
      </trkpt>
      <trkpt lat="45.85777" lon="4.67348">
        <ele>202.42906</ele>
        <time>2022-08-16T14:48:17.000Z</time>
      </trkpt>
      <trkpt lat="45.85776" lon="4.67351">
        <ele>202.62003</ele>
        <time>2022-08-16T14:48:18.000Z</time>
      </trkpt>
      <trkpt lat="45.85775" lon="4.67353">
        <ele>202.86276</ele>
        <time>2022-08-16T14:48:19.000Z</time>
      </trkpt>
      <trkpt lat="45.85773" lon="4.67355">
        <ele>203.07512</ele>
        <time>2022-08-16T14:48:20.000Z</time>
      </trkpt>
      <trkpt lat="45.85772" lon="4.67358">
        <ele>203.24727</ele>
        <time>2022-08-16T14:48:21.000Z</time>
      </trkpt>
      <trkpt lat="45.85772" lon="4.67358">
        <ele>203.24727</ele>
        <time>2022-08-16T14:48:21.000Z</time>
      </trkpt>
      <trkpt lat="45.8577" lon="4.67361">
        <ele>203.39875</ele>
        <time>2022-08-16T14:48:22.000Z</time>
      </trkpt>
      <trkpt lat="45.85768" lon="4.67364">
        <ele>203.5267</ele>
        <time>2022-08-16T14:48:23.000Z</time>
      </trkpt>
      <trkpt lat="45.85766" lon="4.67368">
        <ele>203.66277</ele>
        <time>2022-08-16T14:48:24.000Z</time>
      </trkpt>
      <trkpt lat="45.85764" lon="4.67371">
        <ele>203.89446</ele>
        <time>2022-08-16T14:48:25.000Z</time>
      </trkpt>
      <trkpt lat="45.85763" lon="4.67376">
        <ele>204.25694</ele>
        <time>2022-08-16T14:48:26.000Z</time>
      </trkpt>
      <trkpt lat="45.8576" lon="4.6738">
        <ele>204.82919</ele>
        <time>2022-08-16T14:48:27.000Z</time>
      </trkpt>
      <trkpt lat="45.85758" lon="4.67384">
        <ele>205.49533</ele>
        <time>2022-08-16T14:48:28.000Z</time>
      </trkpt>
      <trkpt lat="45.85756" lon="4.67388">
        <ele>206.1688</ele>
        <time>2022-08-16T14:48:29.000Z</time>
      </trkpt>
      <trkpt lat="45.85754" lon="4.67391">
        <ele>206.61835</ele>
        <time>2022-08-16T14:48:30.000Z</time>
      </trkpt>
      <trkpt lat="45.85753" lon="4.67394">
        <ele>206.87392</ele>
        <time>2022-08-16T14:48:31.000Z</time>
      </trkpt>
      <trkpt lat="45.85752" lon="4.67397">
        <ele>206.88419</ele>
        <time>2022-08-16T14:48:32.000Z</time>
      </trkpt>
      <trkpt lat="45.85751" lon="4.67402">
        <ele>206.56788</ele>
        <time>2022-08-16T14:48:33.000Z</time>
      </trkpt>
      <trkpt lat="45.8575" lon="4.67406">
        <ele>206.12503</ele>
        <time>2022-08-16T14:48:34.000Z</time>
      </trkpt>
      <trkpt lat="45.85749" lon="4.6741">
        <ele>205.62874</ele>
        <time>2022-08-16T14:48:35.000Z</time>
      </trkpt>
      <trkpt lat="45.85747" lon="4.67414">
        <ele>205.13562</ele>
        <time>2022-08-16T14:48:36.000Z</time>
      </trkpt>
      <trkpt lat="45.85746" lon="4.67419">
        <ele>204.65215</ele>
        <time>2022-08-16T14:48:37.000Z</time>
      </trkpt>
      <trkpt lat="45.85744" lon="4.67423">
        <ele>204.34822</ele>
        <time>2022-08-16T14:48:38.000Z</time>
      </trkpt>
      <trkpt lat="45.85742" lon="4.67426">
        <ele>204.15691</ele>
        <time>2022-08-16T14:48:39.000Z</time>
      </trkpt>
      <trkpt lat="45.8574" lon="4.6743">
        <ele>204.12498</ele>
        <time>2022-08-16T14:48:40.000Z</time>
      </trkpt>
      <trkpt lat="45.85738" lon="4.67434">
        <ele>204.30322</ele>
        <time>2022-08-16T14:48:41.000Z</time>
      </trkpt>
      <trkpt lat="45.85735" lon="4.67437">
        <ele>204.72778</ele>
        <time>2022-08-16T14:48:42.000Z</time>
      </trkpt>
      <trkpt lat="45.85731" lon="4.67439">
        <ele>205.33967</ele>
        <time>2022-08-16T14:48:43.000Z</time>
      </trkpt>
      <trkpt lat="45.85728" lon="4.67442">
        <ele>205.96805</ele>
        <time>2022-08-16T14:48:44.000Z</time>
      </trkpt>
      <trkpt lat="45.85725" lon="4.67445">
        <ele>206.38752</ele>
        <time>2022-08-16T14:48:45.000Z</time>
      </trkpt>
      <trkpt lat="45.85723" lon="4.67448">
        <ele>206.55496</ele>
        <time>2022-08-16T14:48:46.000Z</time>
      </trkpt>
      <trkpt lat="45.8572" lon="4.67452">
        <ele>206.26666</ele>
        <time>2022-08-16T14:48:47.000Z</time>
      </trkpt>
      <trkpt lat="45.85717" lon="4.67458">
        <ele>205.56258</ele>
        <time>2022-08-16T14:48:48.000Z</time>
      </trkpt>
      <trkpt lat="45.85714" lon="4.67462">
        <ele>205.03983</ele>
        <time>2022-08-16T14:48:49.000Z</time>
      </trkpt>
      <trkpt lat="45.85712" lon="4.67467">
        <ele>204.91624</ele>
        <time>2022-08-16T14:48:50.000Z</time>
      </trkpt>
      <trkpt lat="45.8571" lon="4.67473">
        <ele>205.21799</ele>
        <time>2022-08-16T14:48:51.000Z</time>
      </trkpt>
      <trkpt lat="45.85708" lon="4.67477">
        <ele>205.77966</ele>
        <time>2022-08-16T14:48:52.000Z</time>
      </trkpt>
      <trkpt lat="45.85703" lon="4.67483">
        <ele>206.5524</ele>
        <time>2022-08-16T14:48:53.000Z</time>
      </trkpt>
      <trkpt lat="45.85701" lon="4.6749">
        <ele>206.54044</ele>
        <time>2022-08-16T14:48:54.000Z</time>
      </trkpt>
      <trkpt lat="45.85699" lon="4.67497">
        <ele>206.19792</ele>
        <time>2022-08-16T14:48:55.000Z</time>
      </trkpt>
      <trkpt lat="45.85697" lon="4.67502">
        <ele>205.87722</ele>
        <time>2022-08-16T14:48:56.000Z</time>
      </trkpt>
      <trkpt lat="45.85692" lon="4.67503">
        <ele>205.46702</ele>
        <time>2022-08-16T14:48:57.000Z</time>
      </trkpt>
      <trkpt lat="45.85691" lon="4.67507">
        <ele>205.5831</ele>
        <time>2022-08-16T14:48:58.000Z</time>
      </trkpt>
      <trkpt lat="45.85687" lon="4.67511">
        <ele>205.84006</ele>
        <time>2022-08-16T14:48:59.000Z</time>
      </trkpt>
      <trkpt lat="45.85685" lon="4.67513">
        <ele>206.09407</ele>
        <time>2022-08-16T14:49:00.000Z</time>
      </trkpt>
      <trkpt lat="45.85681" lon="4.67517">
        <ele>206.37448</ele>
        <time>2022-08-16T14:49:01.000Z</time>
      </trkpt>
      <trkpt lat="45.85679" lon="4.6752">
        <ele>206.30474</ele>
        <time>2022-08-16T14:49:02.000Z</time>
      </trkpt>
      <trkpt lat="45.85676" lon="4.67523">
        <ele>205.97694</ele>
        <time>2022-08-16T14:49:03.000Z</time>
      </trkpt>
      <trkpt lat="45.85674" lon="4.67526">
        <ele>205.52482</ele>
        <time>2022-08-16T14:49:04.000Z</time>
      </trkpt>
      <trkpt lat="45.8567" lon="4.67529">
        <ele>204.96177</ele>
        <time>2022-08-16T14:49:05.000Z</time>
      </trkpt>
      <trkpt lat="45.85667" lon="4.67532">
        <ele>204.61351</ele>
        <time>2022-08-16T14:49:06.000Z</time>
      </trkpt>
      <trkpt lat="45.85664" lon="4.67535">
        <ele>204.5347</ele>
        <time>2022-08-16T14:49:07.000Z</time>
      </trkpt>
      <trkpt lat="45.85642" lon="4.67546">
        <ele>204.84453</ele>
        <time>2022-08-16T14:49:12.000Z</time>
      </trkpt>
      <trkpt lat="45.8564" lon="4.67549">
        <ele>204.20382</ele>
        <time>2022-08-16T14:49:13.000Z</time>
      </trkpt>
      <trkpt lat="45.85635" lon="4.67551">
        <ele>204.0471</ele>
        <time>2022-08-16T14:49:14.000Z</time>
      </trkpt>
      <trkpt lat="45.85631" lon="4.67554">
        <ele>204.51695</ele>
        <time>2022-08-16T14:49:15.000Z</time>
      </trkpt>
      <trkpt lat="45.85628" lon="4.6756">
        <ele>205.09562</ele>
        <time>2022-08-16T14:49:16.000Z</time>
      </trkpt>
      <trkpt lat="45.85626" lon="4.67563">
        <ele>205.54631</ele>
        <time>2022-08-16T14:49:17.000Z</time>
      </trkpt>
      <trkpt lat="45.85617" lon="4.67565">
        <ele>207.75495</ele>
        <time>2022-08-16T14:49:18.000Z</time>
      </trkpt>
      <trkpt lat="45.85615" lon="4.67571">
        <ele>206.46155</ele>
        <time>2022-08-16T14:49:19.000Z</time>
      </trkpt>
      <trkpt lat="45.85608" lon="4.67576">
        <ele>205.77124</ele>
        <time>2022-08-16T14:49:20.000Z</time>
      </trkpt>
      <trkpt lat="45.85605" lon="4.67585">
        <ele>204.46408</ele>
        <time>2022-08-16T14:49:21.000Z</time>
      </trkpt>
      <trkpt lat="45.85599" lon="4.67586">
        <ele>205.15177</ele>
        <time>2022-08-16T14:49:22.000Z</time>
      </trkpt>
      <trkpt lat="45.85597" lon="4.67592">
        <ele>204.83173</ele>
        <time>2022-08-16T14:49:23.000Z</time>
      </trkpt>
      <trkpt lat="45.85594" lon="4.67597">
        <ele>204.86661</ele>
        <time>2022-08-16T14:49:24.000Z</time>
      </trkpt>
      <trkpt lat="45.85589" lon="4.67602">
        <ele>204.94567</ele>
        <time>2022-08-16T14:49:25.000Z</time>
      </trkpt>
      <trkpt lat="45.85582" lon="4.67606">
        <ele>204.52511</ele>
        <time>2022-08-16T14:49:26.000Z</time>
      </trkpt>
      <trkpt lat="45.85577" lon="4.67611">
        <ele>203.012</ele>
        <time>2022-08-16T14:49:27.000Z</time>
      </trkpt>
      <trkpt lat="45.85574" lon="4.67618">
        <ele>201.98801</ele>
        <time>2022-08-16T14:49:28.000Z</time>
      </trkpt>
      <trkpt lat="45.85569" lon="4.67622">
        <ele>202.08903</ele>
        <time>2022-08-16T14:49:29.000Z</time>
      </trkpt>
      <trkpt lat="45.85569" lon="4.67627">
        <ele>202.48686</ele>
        <time>2022-08-16T14:49:30.000Z</time>
      </trkpt>
      <trkpt lat="45.85564" lon="4.67631">
        <ele>203.63941</ele>
        <time>2022-08-16T14:49:31.000Z</time>
      </trkpt>
      <trkpt lat="45.8556" lon="4.67638">
        <ele>204.30446</ele>
        <time>2022-08-16T14:49:32.000Z</time>
      </trkpt>
      <trkpt lat="45.85555" lon="4.67642">
        <ele>204.0967</ele>
        <time>2022-08-16T14:49:33.000Z</time>
      </trkpt>
      <trkpt lat="45.85551" lon="4.67645">
        <ele>203.35998</ele>
        <time>2022-08-16T14:49:34.000Z</time>
      </trkpt>
      <trkpt lat="45.85548" lon="4.67652">
        <ele>202.23797</ele>
        <time>2022-08-16T14:49:35.000Z</time>
      </trkpt>
      <trkpt lat="45.85543" lon="4.67657">
        <ele>201.89507</ele>
        <time>2022-08-16T14:49:36.000Z</time>
      </trkpt>
      <trkpt lat="45.85541" lon="4.67663">
        <ele>201.81417</ele>
        <time>2022-08-16T14:49:37.000Z</time>
      </trkpt>
      <trkpt lat="45.85535" lon="4.67668">
        <ele>202.22488</ele>
        <time>2022-08-16T14:49:38.000Z</time>
      </trkpt>
      <trkpt lat="45.85529" lon="4.67672">
        <ele>202.62581</ele>
        <time>2022-08-16T14:49:39.000Z</time>
      </trkpt>
      <trkpt lat="45.85525" lon="4.67678">
        <ele>202.75987</ele>
        <time>2022-08-16T14:49:40.000Z</time>
      </trkpt>
      <trkpt lat="45.85521" lon="4.67685">
        <ele>202.8595</ele>
        <time>2022-08-16T14:49:41.000Z</time>
      </trkpt>
      <trkpt lat="45.85518" lon="4.6769">
        <ele>202.99258</ele>
        <time>2022-08-16T14:49:42.000Z</time>
      </trkpt>
      <trkpt lat="45.85516" lon="4.67696">
        <ele>202.98387</ele>
        <time>2022-08-16T14:49:43.000Z</time>
      </trkpt>
      <trkpt lat="45.85512" lon="4.67702">
        <ele>202.9659</ele>
        <time>2022-08-16T14:49:44.000Z</time>
      </trkpt>
      <trkpt lat="45.85509" lon="4.67709">
        <ele>202.54216</ele>
        <time>2022-08-16T14:49:45.000Z</time>
      </trkpt>
      <trkpt lat="45.85506" lon="4.67716">
        <ele>202.10451</ele>
        <time>2022-08-16T14:49:46.000Z</time>
      </trkpt>
      <trkpt lat="45.85503" lon="4.67722">
        <ele>202.01991</ele>
        <time>2022-08-16T14:49:47.000Z</time>
      </trkpt>
      <trkpt lat="45.85501" lon="4.67728">
        <ele>202.21006</ele>
        <time>2022-08-16T14:49:48.000Z</time>
      </trkpt>
      <trkpt lat="45.85497" lon="4.67732">
        <ele>202.86155</ele>
        <time>2022-08-16T14:49:49.000Z</time>
      </trkpt>
      <trkpt lat="45.85492" lon="4.6774">
        <ele>203.77135</ele>
        <time>2022-08-16T14:49:50.000Z</time>
      </trkpt>
      <trkpt lat="45.85491" lon="4.67747">
        <ele>203.51959</ele>
        <time>2022-08-16T14:49:51.000Z</time>
      </trkpt>
      <trkpt lat="45.8549" lon="4.67759">
        <ele>202.49009</ele>
        <time>2022-08-16T14:49:52.000Z</time>
      </trkpt>
      <trkpt lat="45.85489" lon="4.67764">
        <ele>201.95313</ele>
        <time>2022-08-16T14:49:53.000Z</time>
      </trkpt>
      <trkpt lat="45.85488" lon="4.67773">
        <ele>201.84679</ele>
        <time>2022-08-16T14:49:54.000Z</time>
      </trkpt>
      <trkpt lat="45.85485" lon="4.67773">
        <ele>201.85203</ele>
        <time>2022-08-16T14:49:55.000Z</time>
      </trkpt>
      <trkpt lat="45.85486" lon="4.67781">
        <ele>203.1988</ele>
        <time>2022-08-16T14:49:57.000Z</time>
      </trkpt>
      <trkpt lat="45.85487" lon="4.67789">
        <ele>204.35969</ele>
        <time>2022-08-16T14:49:58.000Z</time>
      </trkpt>
      <trkpt lat="45.85491" lon="4.67793">
        <ele>202.30038</ele>
        <time>2022-08-16T14:49:59.000Z</time>
      </trkpt>
      <trkpt lat="45.85494" lon="4.67801">
        <ele>200.984</ele>
        <time>2022-08-16T14:50:00.000Z</time>
      </trkpt>
      <trkpt lat="45.85493" lon="4.67808">
        <ele>201.64081</ele>
        <time>2022-08-16T14:50:01.000Z</time>
      </trkpt>
      <trkpt lat="45.85496" lon="4.67814">
        <ele>199.84192</ele>
        <time>2022-08-16T14:50:02.000Z</time>
      </trkpt>
      <trkpt lat="45.85497" lon="4.6782">
        <ele>199.70861</ele>
        <time>2022-08-16T14:50:03.000Z</time>
      </trkpt>
      <trkpt lat="45.85496" lon="4.67829">
        <ele>200.94788</ele>
        <time>2022-08-16T14:50:04.000Z</time>
      </trkpt>
      <trkpt lat="45.85498" lon="4.67836">
        <ele>201.21886</ele>
        <time>2022-08-16T14:50:05.000Z</time>
      </trkpt>
      <trkpt lat="45.85499" lon="4.67841">
        <ele>202.69554</ele>
        <time>2022-08-16T14:50:06.000Z</time>
      </trkpt>
      <trkpt lat="45.85499" lon="4.67846">
        <ele>204.09155</ele>
        <time>2022-08-16T14:50:07.000Z</time>
      </trkpt>
      <trkpt lat="45.85499" lon="4.67851">
        <ele>206.58392</ele>
        <time>2022-08-16T14:50:08.000Z</time>
      </trkpt>
      <trkpt lat="45.85502" lon="4.67855">
        <ele>205.66268</ele>
        <time>2022-08-16T14:50:09.000Z</time>
      </trkpt>
      <trkpt lat="45.85505" lon="4.67856">
        <ele>204.21392</ele>
        <time>2022-08-16T14:50:10.000Z</time>
      </trkpt>
      <trkpt lat="45.85505" lon="4.67862">
        <ele>205.66036</ele>
        <time>2022-08-16T14:50:11.000Z</time>
      </trkpt>
      <trkpt lat="45.85506" lon="4.6787">
        <ele>205.76931</ele>
        <time>2022-08-16T14:50:12.000Z</time>
      </trkpt>
      <trkpt lat="45.85508" lon="4.67875">
        <ele>204.51505</ele>
        <time>2022-08-16T14:50:13.000Z</time>
      </trkpt>
      <trkpt lat="45.8551" lon="4.6788">
        <ele>202.80161</ele>
        <time>2022-08-16T14:50:14.000Z</time>
      </trkpt>
      <trkpt lat="45.85511" lon="4.67885">
        <ele>202.25798</ele>
        <time>2022-08-16T14:50:15.000Z</time>
      </trkpt>
      <trkpt lat="45.85513" lon="4.67888">
        <ele>201.76508</ele>
        <time>2022-08-16T14:50:16.000Z</time>
      </trkpt>
      <trkpt lat="45.85513" lon="4.67892">
        <ele>201.58692</ele>
        <time>2022-08-16T14:50:17.000Z</time>
      </trkpt>
      <trkpt lat="45.85515" lon="4.67894">
        <ele>200.7622</ele>
        <time>2022-08-16T14:50:18.000Z</time>
      </trkpt>
      <trkpt lat="45.85517" lon="4.67895">
        <ele>199.92849</ele>
        <time>2022-08-16T14:50:19.000Z</time>
      </trkpt>
      <trkpt lat="45.85519" lon="4.67897">
        <ele>199.27622</ele>
        <time>2022-08-16T14:50:20.000Z</time>
      </trkpt>
      <trkpt lat="45.85522" lon="4.67899">
        <ele>198.62718</ele>
        <time>2022-08-16T14:50:21.000Z</time>
      </trkpt>
      <trkpt lat="45.85524" lon="4.67902">
        <ele>198.07561</ele>
        <time>2022-08-16T14:50:22.000Z</time>
      </trkpt>
      <trkpt lat="45.85527" lon="4.67905">
        <ele>197.74703</ele>
        <time>2022-08-16T14:50:23.000Z</time>
      </trkpt>
      <trkpt lat="45.85529" lon="4.67911">
        <ele>197.52534</ele>
        <time>2022-08-16T14:50:24.000Z</time>
      </trkpt>
      <trkpt lat="45.8553" lon="4.6792">
        <ele>197.57644</ele>
        <time>2022-08-16T14:50:25.000Z</time>
      </trkpt>
      <trkpt lat="45.85532" lon="4.67929">
        <ele>197.71811</ele>
        <time>2022-08-16T14:50:26.000Z</time>
      </trkpt>
      <trkpt lat="45.85533" lon="4.67936">
        <ele>198.1045</ele>
        <time>2022-08-16T14:50:27.000Z</time>
      </trkpt>
      <trkpt lat="45.85533" lon="4.6794">
        <ele>198.59906</ele>
        <time>2022-08-16T14:50:28.000Z</time>
      </trkpt>
      <trkpt lat="45.85533" lon="4.67943">
        <ele>199.01685</ele>
        <time>2022-08-16T14:50:29.000Z</time>
      </trkpt>
      <trkpt lat="45.85535" lon="4.67947">
        <ele>199.44159</ele>
        <time>2022-08-16T14:50:31.000Z</time>
      </trkpt>
      <trkpt lat="45.85536" lon="4.6795">
        <ele>199.70687</ele>
        <time>2022-08-16T14:50:32.000Z</time>
      </trkpt>
      <trkpt lat="45.85537" lon="4.67953">
        <ele>200.15121</ele>
        <time>2022-08-16T14:50:33.000Z</time>
      </trkpt>
      <trkpt lat="45.85538" lon="4.67959">
        <ele>200.8372</ele>
        <time>2022-08-16T14:50:34.000Z</time>
      </trkpt>
      <trkpt lat="45.85539" lon="4.67965">
        <ele>201.29525</ele>
        <time>2022-08-16T14:50:35.000Z</time>
      </trkpt>
      <trkpt lat="45.8554" lon="4.67972">
        <ele>201.27789</ele>
        <time>2022-08-16T14:50:36.000Z</time>
      </trkpt>
      <trkpt lat="45.8554" lon="4.6799">
        <ele>200.65143</ele>
        <time>2022-08-16T14:50:37.000Z</time>
      </trkpt>
      <trkpt lat="45.85542" lon="4.67998">
        <ele>199.94675</ele>
        <time>2022-08-16T14:50:38.000Z</time>
      </trkpt>
      <trkpt lat="45.85544" lon="4.68006">
        <ele>199.64091</ele>
        <time>2022-08-16T14:50:39.000Z</time>
      </trkpt>
      <trkpt lat="45.85546" lon="4.68014">
        <ele>199.40702</ele>
        <time>2022-08-16T14:50:40.000Z</time>
      </trkpt>
      <trkpt lat="45.8555" lon="4.68027">
        <ele>199.74526</ele>
        <time>2022-08-16T14:50:41.000Z</time>
      </trkpt>
      <trkpt lat="45.85558" lon="4.68043">
        <ele>199.85762</ele>
        <time>2022-08-16T14:50:42.000Z</time>
      </trkpt>
      <trkpt lat="45.85558" lon="4.68054">
        <ele>199.64975</ele>
        <time>2022-08-16T14:50:43.000Z</time>
      </trkpt>
      <trkpt lat="45.8556" lon="4.6806">
        <ele>199.35666</ele>
        <time>2022-08-16T14:50:44.000Z</time>
      </trkpt>
      <trkpt lat="45.8556" lon="4.68068">
        <ele>199.42107</ele>
        <time>2022-08-16T14:50:45.000Z</time>
      </trkpt>
      <trkpt lat="45.8556" lon="4.68076">
        <ele>199.61403</ele>
        <time>2022-08-16T14:50:46.000Z</time>
      </trkpt>
      <trkpt lat="45.85564" lon="4.68082">
        <ele>199.49624</ele>
        <time>2022-08-16T14:50:47.000Z</time>
      </trkpt>
      <trkpt lat="45.85566" lon="4.68085">
        <ele>199.50287</ele>
        <time>2022-08-16T14:50:48.000Z</time>
      </trkpt>
      <trkpt lat="45.85568" lon="4.68095">
        <ele>199.76206</ele>
        <time>2022-08-16T14:50:49.000Z</time>
      </trkpt>
      <trkpt lat="45.85572" lon="4.68098">
        <ele>199.71688</ele>
        <time>2022-08-16T14:50:50.000Z</time>
      </trkpt>
      <trkpt lat="45.85575" lon="4.68105">
        <ele>199.67334</ele>
        <time>2022-08-16T14:50:51.000Z</time>
      </trkpt>
      <trkpt lat="45.85575" lon="4.68117">
        <ele>199.5222</ele>
        <time>2022-08-16T14:50:52.000Z</time>
      </trkpt>
      <trkpt lat="45.85578" lon="4.68125">
        <ele>199.4313</ele>
        <time>2022-08-16T14:50:53.000Z</time>
      </trkpt>
      <trkpt lat="45.85581" lon="4.68122">
        <ele>199.2808</ele>
        <time>2022-08-16T14:50:54.000Z</time>
      </trkpt>
      <trkpt lat="45.8558" lon="4.68134">
        <ele>199.73442</ele>
        <time>2022-08-16T14:50:55.000Z</time>
      </trkpt>
      <trkpt lat="45.85583" lon="4.68135">
        <ele>199.65951</ele>
        <time>2022-08-16T14:50:56.000Z</time>
      </trkpt>
      <trkpt lat="45.8559" lon="4.68142">
        <ele>199.68943</ele>
        <time>2022-08-16T14:50:57.000Z</time>
      </trkpt>
      <trkpt lat="45.85592" lon="4.68145">
        <ele>199.76702</ele>
        <time>2022-08-16T14:50:58.000Z</time>
      </trkpt>
      <trkpt lat="45.85595" lon="4.68152">
        <ele>200.02107</ele>
        <time>2022-08-16T14:50:59.000Z</time>
      </trkpt>
      <trkpt lat="45.85602" lon="4.68158">
        <ele>199.57346</ele>
        <time>2022-08-16T14:51:00.000Z</time>
      </trkpt>
      <trkpt lat="45.85606" lon="4.68164">
        <ele>199.36147</ele>
        <time>2022-08-16T14:51:01.000Z</time>
      </trkpt>
      <trkpt lat="45.85609" lon="4.6817">
        <ele>199.30904</ele>
        <time>2022-08-16T14:51:02.000Z</time>
      </trkpt>
      <trkpt lat="45.85609" lon="4.68173">
        <ele>199.52374</ele>
        <time>2022-08-16T14:51:03.000Z</time>
      </trkpt>
      <trkpt lat="45.85614" lon="4.6817">
        <ele>198.59194</ele>
        <time>2022-08-16T14:51:05.000Z</time>
      </trkpt>
      <trkpt lat="45.85618" lon="4.6817">
        <ele>197.96245</ele>
        <time>2022-08-16T14:51:06.000Z</time>
      </trkpt>
      <trkpt lat="45.85622" lon="4.68172">
        <ele>197.595</ele>
        <time>2022-08-16T14:51:07.000Z</time>
      </trkpt>
      <trkpt lat="45.85625" lon="4.68172">
        <ele>197.26152</ele>
        <time>2022-08-16T14:51:09.000Z</time>
      </trkpt>
      <trkpt lat="45.85627" lon="4.6817">
        <ele>196.88424</ele>
        <time>2022-08-16T14:51:10.000Z</time>
      </trkpt>
      <trkpt lat="45.85629" lon="4.68167">
        <ele>196.38995</ele>
        <time>2022-08-16T14:51:11.000Z</time>
      </trkpt>
      <trkpt lat="45.85631" lon="4.68167">
        <ele>196.2363</ele>
        <time>2022-08-16T14:51:18.000Z</time>
      </trkpt>
      <trkpt lat="45.85633" lon="4.68165">
        <ele>195.94339</ele>
        <time>2022-08-16T14:51:34.000Z</time>
      </trkpt>
      <trkpt lat="45.85635" lon="4.68162">
        <ele>195.76359</ele>
        <time>2022-08-16T14:51:35.000Z</time>
      </trkpt>
      <trkpt lat="45.85638" lon="4.68159">
        <ele>195.7002</ele>
        <time>2022-08-16T14:51:36.000Z</time>
      </trkpt>
      <trkpt lat="45.8564" lon="4.68157">
        <ele>195.78359</ele>
        <time>2022-08-16T14:51:37.000Z</time>
      </trkpt>
      <trkpt lat="45.85642" lon="4.68153">
        <ele>196.01779</ele>
        <time>2022-08-16T14:51:38.000Z</time>
      </trkpt>
      <trkpt lat="45.85643" lon="4.68149">
        <ele>196.35303</ele>
        <time>2022-08-16T14:51:39.000Z</time>
      </trkpt>
      <trkpt lat="45.85642" lon="4.68145">
        <ele>196.69554</ele>
        <time>2022-08-16T14:51:40.000Z</time>
      </trkpt>
      <trkpt lat="45.85642" lon="4.68141">
        <ele>196.95441</ele>
        <time>2022-08-16T14:51:41.000Z</time>
      </trkpt>
      <trkpt lat="45.85642" lon="4.68138">
        <ele>197.2282</ele>
        <time>2022-08-16T14:51:42.000Z</time>
      </trkpt>
      <trkpt lat="45.85643" lon="4.68135">
        <ele>197.5588</ele>
        <time>2022-08-16T14:51:43.000Z</time>
      </trkpt>
      <trkpt lat="45.85644" lon="4.68132">
        <ele>197.94546</ele>
        <time>2022-08-16T14:51:44.000Z</time>
      </trkpt>
      <trkpt lat="45.85647" lon="4.68132">
        <ele>198.27263</ele>
        <time>2022-08-16T14:51:45.000Z</time>
      </trkpt>
      <trkpt lat="45.8565" lon="4.68133">
        <ele>198.41252</ele>
        <time>2022-08-16T14:51:46.000Z</time>
      </trkpt>
      <trkpt lat="45.85652" lon="4.68135">
        <ele>198.44886</ele>
        <time>2022-08-16T14:51:47.000Z</time>
      </trkpt>
      <trkpt lat="45.85654" lon="4.68137">
        <ele>198.36147</ele>
        <time>2022-08-16T14:51:48.000Z</time>
      </trkpt>
      <trkpt lat="45.85655" lon="4.68141">
        <ele>198.06561</ele>
        <time>2022-08-16T14:51:49.000Z</time>
      </trkpt>
      <trkpt lat="45.85655" lon="4.68146">
        <ele>197.60241</ele>
        <time>2022-08-16T14:51:50.000Z</time>
      </trkpt>
      <trkpt lat="45.85655" lon="4.68151">
        <ele>197.15803</ele>
        <time>2022-08-16T14:51:51.000Z</time>
      </trkpt>
      <trkpt lat="45.85657" lon="4.68156">
        <ele>196.81953</ele>
        <time>2022-08-16T14:51:52.000Z</time>
      </trkpt>
      <trkpt lat="45.85658" lon="4.68161">
        <ele>196.65189</ele>
        <time>2022-08-16T14:51:53.000Z</time>
      </trkpt>
      <trkpt lat="45.8566" lon="4.68166">
        <ele>196.65063</ele>
        <time>2022-08-16T14:51:54.000Z</time>
      </trkpt>
      <trkpt lat="45.85663" lon="4.68169">
        <ele>196.70974</ele>
        <time>2022-08-16T14:51:55.000Z</time>
      </trkpt>
      <trkpt lat="45.85666" lon="4.68173">
        <ele>196.71328</ele>
        <time>2022-08-16T14:51:56.000Z</time>
      </trkpt>
      <trkpt lat="45.85669" lon="4.68177">
        <ele>196.69896</ele>
        <time>2022-08-16T14:51:57.000Z</time>
      </trkpt>
      <trkpt lat="45.85671" lon="4.68181">
        <ele>196.61537</ele>
        <time>2022-08-16T14:51:58.000Z</time>
      </trkpt>
      <trkpt lat="45.85674" lon="4.68184">
        <ele>196.55734</ele>
        <time>2022-08-16T14:51:59.000Z</time>
      </trkpt>
      <trkpt lat="45.85676" lon="4.68188">
        <ele>196.62084</ele>
        <time>2022-08-16T14:52:00.000Z</time>
      </trkpt>
      <trkpt lat="45.85678" lon="4.6819">
        <ele>196.73106</ele>
        <time>2022-08-16T14:52:01.000Z</time>
      </trkpt>
      <trkpt lat="45.85681" lon="4.68193">
        <ele>196.91855</ele>
        <time>2022-08-16T14:52:02.000Z</time>
      </trkpt>
      <trkpt lat="45.85683" lon="4.68195">
        <ele>197.09177</ele>
        <time>2022-08-16T14:52:03.000Z</time>
      </trkpt>
      <trkpt lat="45.85686" lon="4.68199">
        <ele>197.21574</ele>
        <time>2022-08-16T14:52:04.000Z</time>
      </trkpt>
      <trkpt lat="45.85689" lon="4.68203">
        <ele>197.23301</ele>
        <time>2022-08-16T14:52:05.000Z</time>
      </trkpt>
      <trkpt lat="45.85691" lon="4.68206">
        <ele>197.15488</ele>
        <time>2022-08-16T14:52:06.000Z</time>
      </trkpt>
      <trkpt lat="45.85693" lon="4.6821">
        <ele>197.02248</ele>
        <time>2022-08-16T14:52:07.000Z</time>
      </trkpt>
      <trkpt lat="45.85696" lon="4.68214">
        <ele>196.9714</ele>
        <time>2022-08-16T14:52:08.000Z</time>
      </trkpt>
      <trkpt lat="45.85698" lon="4.68218">
        <ele>196.99527</ele>
        <time>2022-08-16T14:52:09.000Z</time>
      </trkpt>
      <trkpt lat="45.857" lon="4.6822">
        <ele>197.17956</ele>
        <time>2022-08-16T14:52:10.000Z</time>
      </trkpt>
      <trkpt lat="45.85702" lon="4.68223">
        <ele>197.52876</ele>
        <time>2022-08-16T14:52:11.000Z</time>
      </trkpt>
      <trkpt lat="45.85704" lon="4.68225">
        <ele>197.93219</ele>
        <time>2022-08-16T14:52:12.000Z</time>
      </trkpt>
      <trkpt lat="45.85707" lon="4.68229">
        <ele>198.30247</ele>
        <time>2022-08-16T14:52:13.000Z</time>
      </trkpt>
      <trkpt lat="45.85709" lon="4.68233">
        <ele>198.42051</ele>
        <time>2022-08-16T14:52:14.000Z</time>
      </trkpt>
      <trkpt lat="45.85711" lon="4.68237">
        <ele>198.19245</ele>
        <time>2022-08-16T14:52:15.000Z</time>
      </trkpt>
      <trkpt lat="45.85713" lon="4.68241">
        <ele>197.79763</ele>
        <time>2022-08-16T14:52:16.000Z</time>
      </trkpt>
      <trkpt lat="45.85716" lon="4.68245">
        <ele>197.40072</ele>
        <time>2022-08-16T14:52:17.000Z</time>
      </trkpt>
      <trkpt lat="45.8572" lon="4.6825">
        <ele>197.05627</ele>
        <time>2022-08-16T14:52:18.000Z</time>
      </trkpt>
      <trkpt lat="45.85724" lon="4.68254">
        <ele>197.11945</ele>
        <time>2022-08-16T14:52:19.000Z</time>
      </trkpt>
      <trkpt lat="45.85728" lon="4.68257">
        <ele>197.45905</ele>
        <time>2022-08-16T14:52:20.000Z</time>
      </trkpt>
      <trkpt lat="45.85731" lon="4.68261">
        <ele>197.81955</ele>
        <time>2022-08-16T14:52:21.000Z</time>
      </trkpt>
      <trkpt lat="45.85734" lon="4.68264">
        <ele>198.03312</ele>
        <time>2022-08-16T14:52:22.000Z</time>
      </trkpt>
      <trkpt lat="45.85738" lon="4.68267">
        <ele>197.9413</ele>
        <time>2022-08-16T14:52:23.000Z</time>
      </trkpt>
      <trkpt lat="45.85742" lon="4.68271">
        <ele>197.56977</ele>
        <time>2022-08-16T14:52:24.000Z</time>
      </trkpt>
      <trkpt lat="45.85749" lon="4.68274">
        <ele>197.24833</ele>
        <time>2022-08-16T14:52:25.000Z</time>
      </trkpt>
      <trkpt lat="45.85755" lon="4.68281">
        <ele>196.61569</ele>
        <time>2022-08-16T14:52:26.000Z</time>
      </trkpt>
      <trkpt lat="45.85758" lon="4.68285">
        <ele>196.48198</ele>
        <time>2022-08-16T14:52:27.000Z</time>
      </trkpt>
      <trkpt lat="45.85762" lon="4.68291">
        <ele>196.4538</ele>
        <time>2022-08-16T14:52:28.000Z</time>
      </trkpt>
      <trkpt lat="45.85766" lon="4.68295">
        <ele>196.64663</ele>
        <time>2022-08-16T14:52:29.000Z</time>
      </trkpt>
      <trkpt lat="45.8577" lon="4.683">
        <ele>196.8213</ele>
        <time>2022-08-16T14:52:30.000Z</time>
      </trkpt>
      <trkpt lat="45.85773" lon="4.68303">
        <ele>196.89329</ele>
        <time>2022-08-16T14:52:31.000Z</time>
      </trkpt>
      <trkpt lat="45.85776" lon="4.68308">
        <ele>196.72197</ele>
        <time>2022-08-16T14:52:32.000Z</time>
      </trkpt>
      <trkpt lat="45.8578" lon="4.68312">
        <ele>196.51486</ele>
        <time>2022-08-16T14:52:33.000Z</time>
      </trkpt>
      <trkpt lat="45.85784" lon="4.68319">
        <ele>196.14321</ele>
        <time>2022-08-16T14:52:34.000Z</time>
      </trkpt>
      <trkpt lat="45.85787" lon="4.68322">
        <ele>196.06796</ele>
        <time>2022-08-16T14:52:35.000Z</time>
      </trkpt>
      <trkpt lat="45.85791" lon="4.68327">
        <ele>196.23912</ele>
        <time>2022-08-16T14:52:36.000Z</time>
      </trkpt>
      <trkpt lat="45.85801" lon="4.68333">
        <ele>196.87765</ele>
        <time>2022-08-16T14:52:38.000Z</time>
      </trkpt>
      <trkpt lat="45.85804" lon="4.68337">
        <ele>196.73396</ele>
        <time>2022-08-16T14:52:39.000Z</time>
      </trkpt>
      <trkpt lat="45.85808" lon="4.68341">
        <ele>196.60145</ele>
        <time>2022-08-16T14:52:40.000Z</time>
      </trkpt>
      <trkpt lat="45.85812" lon="4.68344">
        <ele>196.52335</ele>
        <time>2022-08-16T14:52:41.000Z</time>
      </trkpt>
      <trkpt lat="45.85815" lon="4.68346">
        <ele>196.52865</ele>
        <time>2022-08-16T14:52:42.000Z</time>
      </trkpt>
      <trkpt lat="45.8582" lon="4.68352">
        <ele>196.54756</ele>
        <time>2022-08-16T14:52:43.000Z</time>
      </trkpt>
      <trkpt lat="45.85824" lon="4.68357">
        <ele>196.66285</ele>
        <time>2022-08-16T14:52:44.000Z</time>
      </trkpt>
      <trkpt lat="45.85828" lon="4.68362">
        <ele>196.81308</ele>
        <time>2022-08-16T14:52:45.000Z</time>
      </trkpt>
      <trkpt lat="45.8583" lon="4.68366">
        <ele>196.84328</ele>
        <time>2022-08-16T14:52:46.000Z</time>
      </trkpt>
      <trkpt lat="45.85832" lon="4.6837">
        <ele>196.77714</ele>
        <time>2022-08-16T14:52:47.000Z</time>
      </trkpt>
      <trkpt lat="45.85835" lon="4.68376">
        <ele>196.81028</ele>
        <time>2022-08-16T14:52:48.000Z</time>
      </trkpt>
      <trkpt lat="45.85837" lon="4.6838">
        <ele>196.85461</ele>
        <time>2022-08-16T14:52:49.000Z</time>
      </trkpt>
      <trkpt lat="45.85839" lon="4.68384">
        <ele>196.92729</ele>
        <time>2022-08-16T14:52:50.000Z</time>
      </trkpt>
      <trkpt lat="45.85843" lon="4.68386">
        <ele>197.44032</ele>
        <time>2022-08-16T14:52:51.000Z</time>
      </trkpt>
      <trkpt lat="45.85845" lon="4.68393">
        <ele>197.34532</ele>
        <time>2022-08-16T14:52:52.000Z</time>
      </trkpt>
      <trkpt lat="45.85848" lon="4.68398">
        <ele>197.31722</ele>
        <time>2022-08-16T14:52:53.000Z</time>
      </trkpt>
      <trkpt lat="45.8585" lon="4.68401">
        <ele>197.22047</ele>
        <time>2022-08-16T14:52:54.000Z</time>
      </trkpt>
      <trkpt lat="45.85851" lon="4.68405">
        <ele>196.95382</ele>
        <time>2022-08-16T14:52:55.000Z</time>
      </trkpt>
      <trkpt lat="45.85854" lon="4.68408">
        <ele>196.94113</ele>
        <time>2022-08-16T14:52:56.000Z</time>
      </trkpt>
      <trkpt lat="45.85855" lon="4.68411">
        <ele>196.96789</ele>
        <time>2022-08-16T14:52:57.000Z</time>
      </trkpt>
      <trkpt lat="45.85857" lon="4.68417">
        <ele>196.97714</ele>
        <time>2022-08-16T14:52:59.000Z</time>
      </trkpt>
      <trkpt lat="45.85858" lon="4.6842">
        <ele>196.99067</ele>
        <time>2022-08-16T14:53:00.000Z</time>
      </trkpt>
      <trkpt lat="45.85859" lon="4.68425">
        <ele>197.10055</ele>
        <time>2022-08-16T14:53:01.000Z</time>
      </trkpt>
      <trkpt lat="45.8586" lon="4.68429">
        <ele>197.32254</ele>
        <time>2022-08-16T14:53:02.000Z</time>
      </trkpt>
      <trkpt lat="45.85861" lon="4.68434">
        <ele>197.47241</ele>
        <time>2022-08-16T14:53:03.000Z</time>
      </trkpt>
      <trkpt lat="45.85861" lon="4.68438">
        <ele>197.55002</ele>
        <time>2022-08-16T14:53:04.000Z</time>
      </trkpt>
      <trkpt lat="45.85862" lon="4.68443">
        <ele>197.61723</ele>
        <time>2022-08-16T14:53:05.000Z</time>
      </trkpt>
      <trkpt lat="45.85862" lon="4.68449">
        <ele>197.71605</ele>
        <time>2022-08-16T14:53:06.000Z</time>
      </trkpt>
      <trkpt lat="45.85863" lon="4.68456">
        <ele>197.79277</ele>
        <time>2022-08-16T14:53:07.000Z</time>
      </trkpt>
      <trkpt lat="45.85864" lon="4.68461">
        <ele>197.92814</ele>
        <time>2022-08-16T14:53:08.000Z</time>
      </trkpt>
      <trkpt lat="45.85864" lon="4.68466">
        <ele>198.01923</ele>
        <time>2022-08-16T14:53:09.000Z</time>
      </trkpt>
      <trkpt lat="45.85865" lon="4.68472">
        <ele>198.14626</ele>
        <time>2022-08-16T14:53:10.000Z</time>
      </trkpt>
      <trkpt lat="45.85865" lon="4.68478">
        <ele>198.27576</ele>
        <time>2022-08-16T14:53:11.000Z</time>
      </trkpt>
      <trkpt lat="45.85867" lon="4.68487">
        <ele>198.42568</ele>
        <time>2022-08-16T14:53:12.000Z</time>
      </trkpt>
      <trkpt lat="45.85869" lon="4.68494">
        <ele>198.44217</ele>
        <time>2022-08-16T14:53:13.000Z</time>
      </trkpt>
      <trkpt lat="45.85871" lon="4.68498">
        <ele>198.35412</ele>
        <time>2022-08-16T14:53:14.000Z</time>
      </trkpt>
      <trkpt lat="45.85872" lon="4.68505">
        <ele>198.1008</ele>
        <time>2022-08-16T14:53:15.000Z</time>
      </trkpt>
      <trkpt lat="45.85873" lon="4.68512">
        <ele>197.71014</ele>
        <time>2022-08-16T14:53:16.000Z</time>
      </trkpt>
      <trkpt lat="45.85874" lon="4.68519">
        <ele>197.41929</ele>
        <time>2022-08-16T14:53:17.000Z</time>
      </trkpt>
      <trkpt lat="45.85875" lon="4.68527">
        <ele>197.1618</ele>
        <time>2022-08-16T14:53:18.000Z</time>
      </trkpt>
      <trkpt lat="45.85875" lon="4.68532">
        <ele>196.90052</ele>
        <time>2022-08-16T14:53:19.000Z</time>
      </trkpt>
      <trkpt lat="45.85875" lon="4.68538">
        <ele>196.56474</ele>
        <time>2022-08-16T14:53:20.000Z</time>
      </trkpt>
      <trkpt lat="45.85876" lon="4.68547">
        <ele>196.27502</ele>
        <time>2022-08-16T14:53:21.000Z</time>
      </trkpt>
      <trkpt lat="45.85875" lon="4.68555">
        <ele>195.9787</ele>
        <time>2022-08-16T14:53:22.000Z</time>
      </trkpt>
      <trkpt lat="45.85876" lon="4.68559">
        <ele>196.04538</ele>
        <time>2022-08-16T14:53:23.000Z</time>
      </trkpt>
      <trkpt lat="45.85876" lon="4.68564">
        <ele>196.07735</ele>
        <time>2022-08-16T14:53:24.000Z</time>
      </trkpt>
      <trkpt lat="45.85879" lon="4.68571">
        <ele>196.78455</ele>
        <time>2022-08-16T14:53:25.000Z</time>
      </trkpt>
      <trkpt lat="45.85881" lon="4.68583">
        <ele>197.28521</ele>
        <time>2022-08-16T14:53:26.000Z</time>
      </trkpt>
      <trkpt lat="45.85883" lon="4.6859">
        <ele>197.61821</ele>
        <time>2022-08-16T14:53:27.000Z</time>
      </trkpt>
      <trkpt lat="45.85885" lon="4.68597">
        <ele>198.00745</ele>
        <time>2022-08-16T14:53:28.000Z</time>
      </trkpt>
      <trkpt lat="45.85887" lon="4.68604">
        <ele>198.33369</ele>
        <time>2022-08-16T14:53:29.000Z</time>
      </trkpt>
      <trkpt lat="45.85888" lon="4.6861">
        <ele>198.44075</ele>
        <time>2022-08-16T14:53:30.000Z</time>
      </trkpt>
      <trkpt lat="45.85889" lon="4.68615">
        <ele>198.48439</ele>
        <time>2022-08-16T14:53:31.000Z</time>
      </trkpt>
      <trkpt lat="45.85888" lon="4.6862">
        <ele>198.45177</ele>
        <time>2022-08-16T14:53:32.000Z</time>
      </trkpt>
      <trkpt lat="45.8589" lon="4.68628">
        <ele>198.56477</ele>
        <time>2022-08-16T14:53:33.000Z</time>
      </trkpt>
      <trkpt lat="45.8589" lon="4.68636">
        <ele>198.56359</ele>
        <time>2022-08-16T14:53:34.000Z</time>
      </trkpt>
      <trkpt lat="45.8589" lon="4.68639">
        <ele>198.52674</ele>
        <time>2022-08-16T14:53:35.000Z</time>
      </trkpt>
      <trkpt lat="45.8589" lon="4.68644">
        <ele>198.54902</ele>
        <time>2022-08-16T14:53:36.000Z</time>
      </trkpt>
      <trkpt lat="45.85889" lon="4.68648">
        <ele>198.49817</ele>
        <time>2022-08-16T14:53:37.000Z</time>
      </trkpt>
      <trkpt lat="45.8589" lon="4.68653">
        <ele>198.50991</ele>
        <time>2022-08-16T14:53:38.000Z</time>
      </trkpt>
      <trkpt lat="45.85889" lon="4.68661">
        <ele>198.41896</ele>
        <time>2022-08-16T14:53:39.000Z</time>
      </trkpt>
      <trkpt lat="45.85888" lon="4.68668">
        <ele>198.37303</ele>
        <time>2022-08-16T14:53:40.000Z</time>
      </trkpt>
      <trkpt lat="45.85888" lon="4.68676">
        <ele>198.30181</ele>
        <time>2022-08-16T14:53:41.000Z</time>
      </trkpt>
      <trkpt lat="45.85888" lon="4.68681">
        <ele>198.28653</ele>
        <time>2022-08-16T14:53:42.000Z</time>
      </trkpt>
      <trkpt lat="45.85888" lon="4.68687">
        <ele>198.3102</ele>
        <time>2022-08-16T14:53:43.000Z</time>
      </trkpt>
      <trkpt lat="45.85886" lon="4.68693">
        <ele>198.20046</ele>
        <time>2022-08-16T14:53:44.000Z</time>
      </trkpt>
      <trkpt lat="45.85885" lon="4.68698">
        <ele>198.00316</ele>
        <time>2022-08-16T14:53:45.000Z</time>
      </trkpt>
      <trkpt lat="45.85884" lon="4.68704">
        <ele>197.95946</ele>
        <time>2022-08-16T14:53:46.000Z</time>
      </trkpt>
      <trkpt lat="45.85885" lon="4.68711">
        <ele>198.07095</ele>
        <time>2022-08-16T14:53:47.000Z</time>
      </trkpt>
      <trkpt lat="45.85884" lon="4.68716">
        <ele>198.06508</ele>
        <time>2022-08-16T14:53:48.000Z</time>
      </trkpt>
      <trkpt lat="45.85884" lon="4.68721">
        <ele>198.10488</ele>
        <time>2022-08-16T14:53:49.000Z</time>
      </trkpt>
      <trkpt lat="45.85883" lon="4.68725">
        <ele>197.96904</ele>
        <time>2022-08-16T14:53:50.000Z</time>
      </trkpt>
      <trkpt lat="45.85883" lon="4.68729">
        <ele>197.87872</ele>
        <time>2022-08-16T14:53:51.000Z</time>
      </trkpt>
      <trkpt lat="45.85882" lon="4.68733">
        <ele>197.77373</ele>
        <time>2022-08-16T14:53:52.000Z</time>
      </trkpt>
      <trkpt lat="45.85882" lon="4.68737">
        <ele>197.6985</ele>
        <time>2022-08-16T14:53:53.000Z</time>
      </trkpt>
      <trkpt lat="45.85881" lon="4.68742">
        <ele>197.58833</ele>
        <time>2022-08-16T14:53:54.000Z</time>
      </trkpt>
      <trkpt lat="45.8588" lon="4.68746">
        <ele>197.45435</ele>
        <time>2022-08-16T14:53:55.000Z</time>
      </trkpt>
      <trkpt lat="45.85879" lon="4.6875">
        <ele>197.2054</ele>
        <time>2022-08-16T14:53:56.000Z</time>
      </trkpt>
      <trkpt lat="45.85879" lon="4.68754">
        <ele>196.96852</ele>
        <time>2022-08-16T14:53:57.000Z</time>
      </trkpt>
      <trkpt lat="45.85878" lon="4.68758">
        <ele>196.73127</ele>
        <time>2022-08-16T14:53:58.000Z</time>
      </trkpt>
      <trkpt lat="45.85877" lon="4.68763">
        <ele>196.50939</ele>
        <time>2022-08-16T14:53:59.000Z</time>
      </trkpt>
      <trkpt lat="45.85877" lon="4.68766">
        <ele>196.34357</ele>
        <time>2022-08-16T14:54:00.000Z</time>
      </trkpt>
      <trkpt lat="45.85877" lon="4.6877">
        <ele>196.23111</ele>
        <time>2022-08-16T14:54:02.000Z</time>
      </trkpt>
      <trkpt lat="45.85876" lon="4.68772">
        <ele>196.03354</ele>
        <time>2022-08-16T14:54:04.000Z</time>
      </trkpt>
      <trkpt lat="45.85875" lon="4.68775">
        <ele>195.92324</ele>
        <time>2022-08-16T14:54:08.000Z</time>
      </trkpt>
      <trkpt lat="45.85873" lon="4.68776">
        <ele>195.54466</ele>
        <time>2022-08-16T14:54:12.000Z</time>
      </trkpt>
      <trkpt lat="45.85871" lon="4.68776">
        <ele>195.07535</ele>
        <time>2022-08-16T14:54:14.000Z</time>
      </trkpt>
      <trkpt lat="45.85869" lon="4.68776">
        <ele>194.80459</ele>
        <time>2022-08-16T14:54:15.000Z</time>
      </trkpt>
      <trkpt lat="45.85864" lon="4.68776">
        <ele>194.48715</ele>
        <time>2022-08-16T14:54:17.000Z</time>
      </trkpt>
      <trkpt lat="45.85861" lon="4.68775">
        <ele>194.57118</ele>
        <time>2022-08-16T14:54:18.000Z</time>
      </trkpt>
      <trkpt lat="45.85856" lon="4.68773">
        <ele>195.18824</ele>
        <time>2022-08-16T14:54:20.000Z</time>
      </trkpt>
      <trkpt lat="45.85853" lon="4.68772">
        <ele>195.67886</ele>
        <time>2022-08-16T14:54:21.000Z</time>
      </trkpt>
      <trkpt lat="45.85851" lon="4.68771">
        <ele>196.12215</ele>
        <time>2022-08-16T14:54:22.000Z</time>
      </trkpt>
      <trkpt lat="45.85849" lon="4.68769">
        <ele>196.63489</ele>
        <time>2022-08-16T14:54:23.000Z</time>
      </trkpt>
      <trkpt lat="45.85846" lon="4.68767">
        <ele>197.10914</ele>
        <time>2022-08-16T14:54:24.000Z</time>
      </trkpt>
      <trkpt lat="45.85845" lon="4.68764">
        <ele>197.45472</ele>
        <time>2022-08-16T14:54:25.000Z</time>
      </trkpt>
      <trkpt lat="45.85844" lon="4.68761">
        <ele>197.68074</ele>
        <time>2022-08-16T14:54:26.000Z</time>
      </trkpt>
      <trkpt lat="45.85843" lon="4.68757">
        <ele>197.85627</ele>
        <time>2022-08-16T14:54:27.000Z</time>
      </trkpt>
      <trkpt lat="45.85842" lon="4.68754">
        <ele>198.00513</ele>
        <time>2022-08-16T14:54:28.000Z</time>
      </trkpt>
      <trkpt lat="45.85841" lon="4.6875">
        <ele>198.12452</ele>
        <time>2022-08-16T14:54:29.000Z</time>
      </trkpt>
      <trkpt lat="45.8584" lon="4.68747">
        <ele>198.21452</ele>
        <time>2022-08-16T14:54:30.000Z</time>
      </trkpt>
      <trkpt lat="45.85839" lon="4.68743">
        <ele>198.27782</ele>
        <time>2022-08-16T14:54:31.000Z</time>
      </trkpt>
      <trkpt lat="45.85838" lon="4.68739">
        <ele>198.31874</ele>
        <time>2022-08-16T14:54:32.000Z</time>
      </trkpt>
      <trkpt lat="45.85836" lon="4.68735">
        <ele>198.38197</ele>
        <time>2022-08-16T14:54:33.000Z</time>
      </trkpt>
      <trkpt lat="45.85835" lon="4.68731">
        <ele>198.45632</ele>
        <time>2022-08-16T14:54:34.000Z</time>
      </trkpt>
      <trkpt lat="45.85833" lon="4.68728">
        <ele>198.52652</ele>
        <time>2022-08-16T14:54:35.000Z</time>
      </trkpt>
      <trkpt lat="45.85832" lon="4.68725">
        <ele>198.60641</ele>
        <time>2022-08-16T14:54:36.000Z</time>
      </trkpt>
      <trkpt lat="45.85831" lon="4.68722">
        <ele>198.68365</ele>
        <time>2022-08-16T14:54:37.000Z</time>
      </trkpt>
      <trkpt lat="45.85831" lon="4.68719">
        <ele>198.75385</ele>
        <time>2022-08-16T14:54:38.000Z</time>
      </trkpt>
      <trkpt lat="45.85829" lon="4.68715">
        <ele>198.85801</ele>
        <time>2022-08-16T14:54:39.000Z</time>
      </trkpt>
      <trkpt lat="45.85828" lon="4.68712">
        <ele>198.9526</ele>
        <time>2022-08-16T14:54:40.000Z</time>
      </trkpt>
      <trkpt lat="45.85826" lon="4.68709">
        <ele>199.01824</ele>
        <time>2022-08-16T14:54:41.000Z</time>
      </trkpt>
      <trkpt lat="45.85823" lon="4.68705">
        <ele>199.03414</ele>
        <time>2022-08-16T14:54:42.000Z</time>
      </trkpt>
      <trkpt lat="45.85821" lon="4.68702">
        <ele>198.96001</ele>
        <time>2022-08-16T14:54:43.000Z</time>
      </trkpt>
      <trkpt lat="45.8582" lon="4.68698">
        <ele>198.84256</ele>
        <time>2022-08-16T14:54:44.000Z</time>
      </trkpt>
      <trkpt lat="45.85821" lon="4.68695">
        <ele>198.7327</ele>
        <time>2022-08-16T14:54:45.000Z</time>
      </trkpt>
      <trkpt lat="45.85823" lon="4.68696">
        <ele>198.67994</ele>
        <time>2022-08-16T14:54:47.000Z</time>
      </trkpt>
      <trkpt lat="45.85822" lon="4.68699">
        <ele>198.8529</ele>
        <time>2022-08-16T14:55:45.000Z</time>
      </trkpt>
      <trkpt lat="45.85822" lon="4.68703">
        <ele>198.98833</ele>
        <time>2022-08-16T14:55:46.000Z</time>
      </trkpt>
      <trkpt lat="45.8582" lon="4.68706">
        <ele>199.12593</ele>
        <time>2022-08-16T14:55:47.000Z</time>
      </trkpt>
      <trkpt lat="45.85818" lon="4.68709">
        <ele>199.23357</ele>
        <time>2022-08-16T14:55:48.000Z</time>
      </trkpt>
      <trkpt lat="45.85816" lon="4.68712">
        <ele>199.26708</ele>
        <time>2022-08-16T14:55:49.000Z</time>
      </trkpt>
      <trkpt lat="45.85815" lon="4.68716">
        <ele>199.22805</ele>
        <time>2022-08-16T14:55:50.000Z</time>
      </trkpt>
      <trkpt lat="45.85814" lon="4.68719">
        <ele>199.15232</ele>
        <time>2022-08-16T14:55:51.000Z</time>
      </trkpt>
      <trkpt lat="45.85813" lon="4.68721">
        <ele>199.06432</ele>
        <time>2022-08-16T14:55:52.000Z</time>
      </trkpt>
      <trkpt lat="45.85811" lon="4.68727">
        <ele>198.83254</ele>
        <time>2022-08-16T14:55:54.000Z</time>
      </trkpt>
      <trkpt lat="45.85811" lon="4.68732">
        <ele>198.60634</ele>
        <time>2022-08-16T14:55:55.000Z</time>
      </trkpt>
      <trkpt lat="45.8581" lon="4.68739">
        <ele>198.33497</ele>
        <time>2022-08-16T14:55:56.000Z</time>
      </trkpt>
      <trkpt lat="45.8581" lon="4.68746">
        <ele>198.13492</ele>
        <time>2022-08-16T14:55:57.000Z</time>
      </trkpt>
      <trkpt lat="45.8581" lon="4.68752">
        <ele>198.02695</ele>
        <time>2022-08-16T14:55:58.000Z</time>
      </trkpt>
      <trkpt lat="45.85809" lon="4.68758">
        <ele>197.95481</ele>
        <time>2022-08-16T14:55:59.000Z</time>
      </trkpt>
      <trkpt lat="45.85809" lon="4.68764">
        <ele>197.91204</ele>
        <time>2022-08-16T14:56:00.000Z</time>
      </trkpt>
      <trkpt lat="45.85808" lon="4.6877">
        <ele>197.89696</ele>
        <time>2022-08-16T14:56:01.000Z</time>
      </trkpt>
      <trkpt lat="45.85807" lon="4.68775">
        <ele>197.90027</ele>
        <time>2022-08-16T14:56:02.000Z</time>
      </trkpt>
      <trkpt lat="45.85807" lon="4.68781">
        <ele>197.89595</ele>
        <time>2022-08-16T14:56:03.000Z</time>
      </trkpt>
      <trkpt lat="45.85807" lon="4.68787">
        <ele>197.8896</ele>
        <time>2022-08-16T14:56:04.000Z</time>
      </trkpt>
      <trkpt lat="45.85807" lon="4.68793">
        <ele>197.88068</ele>
        <time>2022-08-16T14:56:05.000Z</time>
      </trkpt>
      <trkpt lat="45.85808" lon="4.68799">
        <ele>197.87798</ele>
        <time>2022-08-16T14:56:06.000Z</time>
      </trkpt>
      <trkpt lat="45.85808" lon="4.68804">
        <ele>197.88155</ele>
        <time>2022-08-16T14:56:07.000Z</time>
      </trkpt>
      <trkpt lat="45.8581" lon="4.6881">
        <ele>197.88563</ele>
        <time>2022-08-16T14:56:08.000Z</time>
      </trkpt>
      <trkpt lat="45.85812" lon="4.68815">
        <ele>197.88977</ele>
        <time>2022-08-16T14:56:09.000Z</time>
      </trkpt>
      <trkpt lat="45.85814" lon="4.68821">
        <ele>197.88849</ele>
        <time>2022-08-16T14:56:10.000Z</time>
      </trkpt>
      <trkpt lat="45.85815" lon="4.68826">
        <ele>197.87197</ele>
        <time>2022-08-16T14:56:11.000Z</time>
      </trkpt>
      <trkpt lat="45.85817" lon="4.68831">
        <ele>197.84866</ele>
        <time>2022-08-16T14:56:12.000Z</time>
      </trkpt>
      <trkpt lat="45.85818" lon="4.68835">
        <ele>197.78323</ele>
        <time>2022-08-16T14:56:13.000Z</time>
      </trkpt>
      <trkpt lat="45.85819" lon="4.68837">
        <ele>197.72391</ele>
        <time>2022-08-16T14:56:14.000Z</time>
      </trkpt>
      <trkpt lat="45.85818" lon="4.68841">
        <ele>197.74523</ele>
        <time>2022-08-16T14:56:16.000Z</time>
      </trkpt>
      <trkpt lat="45.85818" lon="4.68845">
        <ele>197.74802</ele>
        <time>2022-08-16T14:56:17.000Z</time>
      </trkpt>
      <trkpt lat="45.85817" lon="4.68848">
        <ele>197.81514</ele>
        <time>2022-08-16T14:56:18.000Z</time>
      </trkpt>
      <trkpt lat="45.85816" lon="4.68853">
        <ele>197.8476</ele>
        <time>2022-08-16T14:56:19.000Z</time>
      </trkpt>
      <trkpt lat="45.85815" lon="4.68858">
        <ele>197.88079</ele>
        <time>2022-08-16T14:56:20.000Z</time>
      </trkpt>
      <trkpt lat="45.85813" lon="4.68861">
        <ele>197.91587</ele>
        <time>2022-08-16T14:56:21.000Z</time>
      </trkpt>
      <trkpt lat="45.85808" lon="4.68868">
        <ele>197.81348</ele>
        <time>2022-08-16T14:56:23.000Z</time>
      </trkpt>
      <trkpt lat="45.85806" lon="4.68872">
        <ele>197.70481</ele>
        <time>2022-08-16T14:56:24.000Z</time>
      </trkpt>
      <trkpt lat="45.85804" lon="4.68877">
        <ele>197.59359</ele>
        <time>2022-08-16T14:56:25.000Z</time>
      </trkpt>
      <trkpt lat="45.85803" lon="4.68883">
        <ele>197.52455</ele>
        <time>2022-08-16T14:56:26.000Z</time>
      </trkpt>
      <trkpt lat="45.85802" lon="4.68888">
        <ele>197.48185</ele>
        <time>2022-08-16T14:56:27.000Z</time>
      </trkpt>
      <trkpt lat="45.85801" lon="4.68893">
        <ele>197.45256</ele>
        <time>2022-08-16T14:56:28.000Z</time>
      </trkpt>
      <trkpt lat="45.858" lon="4.68906">
        <ele>197.33066</ele>
        <time>2022-08-16T14:56:30.000Z</time>
      </trkpt>
      <trkpt lat="45.858" lon="4.68913">
        <ele>197.19192</ele>
        <time>2022-08-16T14:56:31.000Z</time>
      </trkpt>
      <trkpt lat="45.858" lon="4.68919">
        <ele>197.01644</ele>
        <time>2022-08-16T14:56:32.000Z</time>
      </trkpt>
      <trkpt lat="45.858" lon="4.68925">
        <ele>196.81531</ele>
        <time>2022-08-16T14:56:33.000Z</time>
      </trkpt>
      <trkpt lat="45.858" lon="4.68931">
        <ele>196.61151</ele>
        <time>2022-08-16T14:56:34.000Z</time>
      </trkpt>
      <trkpt lat="45.85799" lon="4.68937">
        <ele>196.45805</ele>
        <time>2022-08-16T14:56:35.000Z</time>
      </trkpt>
      <trkpt lat="45.85799" lon="4.68943">
        <ele>196.3599</ele>
        <time>2022-08-16T14:56:36.000Z</time>
      </trkpt>
      <trkpt lat="45.85799" lon="4.68949">
        <ele>196.31066</ele>
        <time>2022-08-16T14:56:37.000Z</time>
      </trkpt>
      <trkpt lat="45.85799" lon="4.68956">
        <ele>196.3221</ele>
        <time>2022-08-16T14:56:38.000Z</time>
      </trkpt>
      <trkpt lat="45.85798" lon="4.68961">
        <ele>196.36372</ele>
        <time>2022-08-16T14:56:39.000Z</time>
      </trkpt>
      <trkpt lat="45.85798" lon="4.68966">
        <ele>196.41958</ele>
        <time>2022-08-16T14:56:40.000Z</time>
      </trkpt>
      <trkpt lat="45.85797" lon="4.68972">
        <ele>196.43768</ele>
        <time>2022-08-16T14:56:41.000Z</time>
      </trkpt>
      <trkpt lat="45.85797" lon="4.68977">
        <ele>196.45999</ele>
        <time>2022-08-16T14:56:42.000Z</time>
      </trkpt>
      <trkpt lat="45.85797" lon="4.68983">
        <ele>196.51439</ele>
        <time>2022-08-16T14:56:43.000Z</time>
      </trkpt>
      <trkpt lat="45.85796" lon="4.68988">
        <ele>196.59584</ele>
        <time>2022-08-16T14:56:44.000Z</time>
      </trkpt>
      <trkpt lat="45.85796" lon="4.68993">
        <ele>196.63622</ele>
        <time>2022-08-16T14:56:45.000Z</time>
      </trkpt>
      <trkpt lat="45.85796" lon="4.69005">
        <ele>196.64673</ele>
        <time>2022-08-16T14:56:47.000Z</time>
      </trkpt>
      <trkpt lat="45.85796" lon="4.69011">
        <ele>196.6296</ele>
        <time>2022-08-16T14:56:48.000Z</time>
      </trkpt>
      <trkpt lat="45.85795" lon="4.69017">
        <ele>196.62314</ele>
        <time>2022-08-16T14:56:49.000Z</time>
      </trkpt>
      <trkpt lat="45.85795" lon="4.69023">
        <ele>196.65326</ele>
        <time>2022-08-16T14:56:50.000Z</time>
      </trkpt>
      <trkpt lat="45.85794" lon="4.69028">
        <ele>196.68906</ele>
        <time>2022-08-16T14:56:51.000Z</time>
      </trkpt>
      <trkpt lat="45.85794" lon="4.69034">
        <ele>196.79088</ele>
        <time>2022-08-16T14:56:52.000Z</time>
      </trkpt>
      <trkpt lat="45.85793" lon="4.69048">
        <ele>197.10975</ele>
        <time>2022-08-16T14:56:54.000Z</time>
      </trkpt>
      <trkpt lat="45.85793" lon="4.69054">
        <ele>197.34128</ele>
        <time>2022-08-16T14:56:55.000Z</time>
      </trkpt>
      <trkpt lat="45.85793" lon="4.6906">
        <ele>197.57117</ele>
        <time>2022-08-16T14:56:56.000Z</time>
      </trkpt>
      <trkpt lat="45.85792" lon="4.69066">
        <ele>197.77402</ele>
        <time>2022-08-16T14:56:57.000Z</time>
      </trkpt>
      <trkpt lat="45.8579" lon="4.69072">
        <ele>197.88408</ele>
        <time>2022-08-16T14:56:58.000Z</time>
      </trkpt>
      <trkpt lat="45.85789" lon="4.69078">
        <ele>197.90185</ele>
        <time>2022-08-16T14:56:59.000Z</time>
      </trkpt>
      <trkpt lat="45.85787" lon="4.69085">
        <ele>197.84566</ele>
        <time>2022-08-16T14:57:00.000Z</time>
      </trkpt>
      <trkpt lat="45.85786" lon="4.69091">
        <ele>197.74337</ele>
        <time>2022-08-16T14:57:01.000Z</time>
      </trkpt>
      <trkpt lat="45.85785" lon="4.69097">
        <ele>197.61507</ele>
        <time>2022-08-16T14:57:02.000Z</time>
      </trkpt>
      <trkpt lat="45.85784" lon="4.69103">
        <ele>197.47928</ele>
        <time>2022-08-16T14:57:03.000Z</time>
      </trkpt>
      <trkpt lat="45.85783" lon="4.69108">
        <ele>197.31347</ele>
        <time>2022-08-16T14:57:04.000Z</time>
      </trkpt>
      <trkpt lat="45.85782" lon="4.69113">
        <ele>197.16118</ele>
        <time>2022-08-16T14:57:05.000Z</time>
      </trkpt>
      <trkpt lat="45.85779" lon="4.6912">
        <ele>196.86706</ele>
        <time>2022-08-16T14:57:06.000Z</time>
      </trkpt>
      <trkpt lat="45.8578" lon="4.6913">
        <ele>196.60939</ele>
        <time>2022-08-16T14:57:07.000Z</time>
      </trkpt>
      <trkpt lat="45.8578" lon="4.69137">
        <ele>196.34116</ele>
        <time>2022-08-16T14:57:08.000Z</time>
      </trkpt>
      <trkpt lat="45.85781" lon="4.69139">
        <ele>196.19086</ele>
        <time>2022-08-16T14:57:09.000Z</time>
      </trkpt>
      <trkpt lat="45.85781" lon="4.69147">
        <ele>195.73565</ele>
        <time>2022-08-16T14:57:10.000Z</time>
      </trkpt>
      <trkpt lat="45.85774" lon="4.69154">
        <ele>196.02312</ele>
        <time>2022-08-16T14:57:11.000Z</time>
      </trkpt>
      <trkpt lat="45.85773" lon="4.6916">
        <ele>195.99572</ele>
        <time>2022-08-16T14:57:12.000Z</time>
      </trkpt>
      <trkpt lat="45.85769" lon="4.69166">
        <ele>196.27947</ele>
        <time>2022-08-16T14:57:13.000Z</time>
      </trkpt>
      <trkpt lat="45.85771" lon="4.69169">
        <ele>196.05841</ele>
        <time>2022-08-16T14:57:14.000Z</time>
      </trkpt>
      <trkpt lat="45.85771" lon="4.69176">
        <ele>195.96057</ele>
        <time>2022-08-16T14:57:15.000Z</time>
      </trkpt>
      <trkpt lat="45.85771" lon="4.69181">
        <ele>196.00425</ele>
        <time>2022-08-16T14:57:16.000Z</time>
      </trkpt>
      <trkpt lat="45.85768" lon="4.69187">
        <ele>196.18912</ele>
        <time>2022-08-16T14:57:17.000Z</time>
      </trkpt>
      <trkpt lat="45.85768" lon="4.69192">
        <ele>196.21504</ele>
        <time>2022-08-16T14:57:18.000Z</time>
      </trkpt>
      <trkpt lat="45.85765" lon="4.69195">
        <ele>196.38232</ele>
        <time>2022-08-16T14:57:19.000Z</time>
      </trkpt>
      <trkpt lat="45.85766" lon="4.69202">
        <ele>196.4235</ele>
        <time>2022-08-16T14:57:20.000Z</time>
      </trkpt>
      <trkpt lat="45.85764" lon="4.69204">
        <ele>196.53714</ele>
        <time>2022-08-16T14:57:21.000Z</time>
      </trkpt>
      <trkpt lat="45.85764" lon="4.69212">
        <ele>196.69158</ele>
        <time>2022-08-16T14:57:22.000Z</time>
      </trkpt>
      <trkpt lat="45.85764" lon="4.69219">
        <ele>196.82994</ele>
        <time>2022-08-16T14:57:23.000Z</time>
      </trkpt>
      <trkpt lat="45.85764" lon="4.69224">
        <ele>196.90916</ele>
        <time>2022-08-16T14:57:24.000Z</time>
      </trkpt>
      <trkpt lat="45.85765" lon="4.69229">
        <ele>196.98534</ele>
        <time>2022-08-16T14:57:25.000Z</time>
      </trkpt>
      <trkpt lat="45.85766" lon="4.69234">
        <ele>197.00913</ele>
        <time>2022-08-16T14:57:26.000Z</time>
      </trkpt>
      <trkpt lat="45.85766" lon="4.69237">
        <ele>197.00309</ele>
        <time>2022-08-16T14:57:27.000Z</time>
      </trkpt>
      <trkpt lat="45.85765" lon="4.6924">
        <ele>196.99349</ele>
        <time>2022-08-16T14:57:28.000Z</time>
      </trkpt>
      <trkpt lat="45.85764" lon="4.69243">
        <ele>196.97987</ele>
        <time>2022-08-16T14:57:29.000Z</time>
      </trkpt>
      <trkpt lat="45.85763" lon="4.69245">
        <ele>196.94878</ele>
        <time>2022-08-16T14:57:30.000Z</time>
      </trkpt>
      <trkpt lat="45.85761" lon="4.69247">
        <ele>196.91066</ele>
        <time>2022-08-16T14:57:31.000Z</time>
      </trkpt>
      <trkpt lat="45.8576" lon="4.69252">
        <ele>196.90499</ele>
        <time>2022-08-16T14:57:33.000Z</time>
      </trkpt>
      <trkpt lat="45.8576" lon="4.69255">
        <ele>196.93311</ele>
        <time>2022-08-16T14:57:34.000Z</time>
      </trkpt>
      <trkpt lat="45.8576" lon="4.69258">
        <ele>196.95043</ele>
        <time>2022-08-16T14:57:35.000Z</time>
      </trkpt>
      <trkpt lat="45.8576" lon="4.69261">
        <ele>196.97228</ele>
        <time>2022-08-16T14:57:36.000Z</time>
      </trkpt>
      <trkpt lat="45.85761" lon="4.69266">
        <ele>197.02173</ele>
        <time>2022-08-16T14:57:37.000Z</time>
      </trkpt>
      <trkpt lat="45.85761" lon="4.69266">
        <ele>197.02173</ele>
        <time>2022-08-16T14:57:37.000Z</time>
      </trkpt>
      <trkpt lat="45.85761" lon="4.6927">
        <ele>197.07224</ele>
        <time>2022-08-16T14:57:38.000Z</time>
      </trkpt>
      <trkpt lat="45.85762" lon="4.69273">
        <ele>197.1145</ele>
        <time>2022-08-16T14:57:39.000Z</time>
      </trkpt>
      <trkpt lat="45.85761" lon="4.69276">
        <ele>197.1451</ele>
        <time>2022-08-16T14:57:41.000Z</time>
      </trkpt>
      <trkpt lat="45.85759" lon="4.69272">
        <ele>197.08339</ele>
        <time>2022-08-16T14:57:43.000Z</time>
      </trkpt>
      <trkpt lat="45.85758" lon="4.69269">
        <ele>197.03564</ele>
        <time>2022-08-16T14:57:44.000Z</time>
      </trkpt>
      <trkpt lat="45.85758" lon="4.69266">
        <ele>196.99401</ele>
        <time>2022-08-16T14:57:45.000Z</time>
      </trkpt>
      <trkpt lat="45.85757" lon="4.69263">
        <ele>196.95604</ele>
        <time>2022-08-16T14:57:46.000Z</time>
      </trkpt>
      <trkpt lat="45.85757" lon="4.6926">
        <ele>196.90761</ele>
        <time>2022-08-16T14:57:47.000Z</time>
      </trkpt>
      <trkpt lat="45.85755" lon="4.69256">
        <ele>196.81407</ele>
        <time>2022-08-16T14:57:48.000Z</time>
      </trkpt>
      <trkpt lat="45.85754" lon="4.69253">
        <ele>196.69342</ele>
        <time>2022-08-16T14:57:49.000Z</time>
      </trkpt>
      <trkpt lat="45.85753" lon="4.6925">
        <ele>196.51793</ele>
        <time>2022-08-16T14:57:50.000Z</time>
      </trkpt>
      <trkpt lat="45.85751" lon="4.69246">
        <ele>196.2965</ele>
        <time>2022-08-16T14:57:51.000Z</time>
      </trkpt>
      <trkpt lat="45.8575" lon="4.69243">
        <ele>196.06652</ele>
        <time>2022-08-16T14:57:52.000Z</time>
      </trkpt>
      <trkpt lat="45.85749" lon="4.6924">
        <ele>195.90457</ele>
        <time>2022-08-16T14:57:53.000Z</time>
      </trkpt>
      <trkpt lat="45.85748" lon="4.69237">
        <ele>195.73803</ele>
        <time>2022-08-16T14:57:54.000Z</time>
      </trkpt>
      <trkpt lat="45.85747" lon="4.69234">
        <ele>195.57815</ele>
        <time>2022-08-16T14:57:55.000Z</time>
      </trkpt>
      <trkpt lat="45.85746" lon="4.69231">
        <ele>195.46115</ele>
        <time>2022-08-16T14:57:56.000Z</time>
      </trkpt>
      <trkpt lat="45.85744" lon="4.6923">
        <ele>195.41253</ele>
        <time>2022-08-16T14:57:57.000Z</time>
      </trkpt>
      <trkpt lat="45.85741" lon="4.69228">
        <ele>195.45391</ele>
        <time>2022-08-16T14:57:59.000Z</time>
      </trkpt>
      <trkpt lat="45.85739" lon="4.69227">
        <ele>195.5508</ele>
        <time>2022-08-16T14:58:00.000Z</time>
      </trkpt>
      <trkpt lat="45.85736" lon="4.69226">
        <ele>195.71427</ele>
        <time>2022-08-16T14:58:01.000Z</time>
      </trkpt>
      <trkpt lat="45.85733" lon="4.69225">
        <ele>195.9004</ele>
        <time>2022-08-16T14:58:02.000Z</time>
      </trkpt>
      <trkpt lat="45.85731" lon="4.69224">
        <ele>196.09907</ele>
        <time>2022-08-16T14:58:03.000Z</time>
      </trkpt>
      <trkpt lat="45.85728" lon="4.69224">
        <ele>196.30309</ele>
        <time>2022-08-16T14:58:04.000Z</time>
      </trkpt>
      <trkpt lat="45.85725" lon="4.69223">
        <ele>196.48507</ele>
        <time>2022-08-16T14:58:05.000Z</time>
      </trkpt>
      <trkpt lat="45.85723" lon="4.69222">
        <ele>196.6131</ele>
        <time>2022-08-16T14:58:06.000Z</time>
      </trkpt>
      <trkpt lat="45.8572" lon="4.69221">
        <ele>196.71024</ele>
        <time>2022-08-16T14:58:07.000Z</time>
      </trkpt>
      <trkpt lat="45.85717" lon="4.69221">
        <ele>196.78893</ele>
        <time>2022-08-16T14:58:08.000Z</time>
      </trkpt>
      <trkpt lat="45.85714" lon="4.69222">
        <ele>196.85037</ele>
        <time>2022-08-16T14:58:09.000Z</time>
      </trkpt>
      <trkpt lat="45.85711" lon="4.69222">
        <ele>196.90014</ele>
        <time>2022-08-16T14:58:10.000Z</time>
      </trkpt>
      <trkpt lat="45.85708" lon="4.69222">
        <ele>196.93664</ele>
        <time>2022-08-16T14:58:11.000Z</time>
      </trkpt>
      <trkpt lat="45.85706" lon="4.69222">
        <ele>196.97115</ele>
        <time>2022-08-16T14:58:12.000Z</time>
      </trkpt>
      <trkpt lat="45.85703" lon="4.69222">
        <ele>197.00251</ele>
        <time>2022-08-16T14:58:13.000Z</time>
      </trkpt>
      <trkpt lat="45.857" lon="4.69223">
        <ele>197.03368</ele>
        <time>2022-08-16T14:58:14.000Z</time>
      </trkpt>
      <trkpt lat="45.85698" lon="4.69224">
        <ele>197.07326</ele>
        <time>2022-08-16T14:58:15.000Z</time>
      </trkpt>
      <trkpt lat="45.85695" lon="4.69225">
        <ele>197.1177</ele>
        <time>2022-08-16T14:58:16.000Z</time>
      </trkpt>
      <trkpt lat="45.85693" lon="4.69226">
        <ele>197.16026</ele>
        <time>2022-08-16T14:58:17.000Z</time>
      </trkpt>
      <trkpt lat="45.8569" lon="4.69227">
        <ele>197.20614</ele>
        <time>2022-08-16T14:58:18.000Z</time>
      </trkpt>
      <trkpt lat="45.85687" lon="4.69229">
        <ele>197.25501</ele>
        <time>2022-08-16T14:58:19.000Z</time>
      </trkpt>
      <trkpt lat="45.85684" lon="4.6923">
        <ele>197.31782</ele>
        <time>2022-08-16T14:58:20.000Z</time>
      </trkpt>
      <trkpt lat="45.85681" lon="4.69232">
        <ele>197.38717</ele>
        <time>2022-08-16T14:58:21.000Z</time>
      </trkpt>
      <trkpt lat="45.85678" lon="4.69234">
        <ele>197.43657</ele>
        <time>2022-08-16T14:58:22.000Z</time>
      </trkpt>
      <trkpt lat="45.85675" lon="4.69236">
        <ele>197.47404</ele>
        <time>2022-08-16T14:58:23.000Z</time>
      </trkpt>
      <trkpt lat="45.85673" lon="4.69237">
        <ele>197.51963</ele>
        <time>2022-08-16T14:58:24.000Z</time>
      </trkpt>
      <trkpt lat="45.8567" lon="4.69238">
        <ele>197.56282</ele>
        <time>2022-08-16T14:58:25.000Z</time>
      </trkpt>
      <trkpt lat="45.85668" lon="4.69239">
        <ele>197.59872</ele>
        <time>2022-08-16T14:58:26.000Z</time>
      </trkpt>
      <trkpt lat="45.85665" lon="4.6924">
        <ele>197.63601</ele>
        <time>2022-08-16T14:58:27.000Z</time>
      </trkpt>
      <trkpt lat="45.85663" lon="4.69241">
        <ele>197.6663</ele>
        <time>2022-08-16T14:58:28.000Z</time>
      </trkpt>
      <trkpt lat="45.85661" lon="4.69241">
        <ele>197.69635</ele>
        <time>2022-08-16T14:58:29.000Z</time>
      </trkpt>
      <trkpt lat="45.85659" lon="4.69241">
        <ele>197.73456</ele>
        <time>2022-08-16T14:58:30.000Z</time>
      </trkpt>
      <trkpt lat="45.85656" lon="4.69241">
        <ele>197.77285</ele>
        <time>2022-08-16T14:58:31.000Z</time>
      </trkpt>
      <trkpt lat="45.85654" lon="4.69242">
        <ele>197.80432</ele>
        <time>2022-08-16T14:58:32.000Z</time>
      </trkpt>
      <trkpt lat="45.8565" lon="4.69242">
        <ele>197.8331</ele>
        <time>2022-08-16T14:58:34.000Z</time>
      </trkpt>
      <trkpt lat="45.85647" lon="4.69243">
        <ele>197.83486</ele>
        <time>2022-08-16T14:58:36.000Z</time>
      </trkpt>
      <trkpt lat="45.85645" lon="4.69243">
        <ele>197.82497</ele>
        <time>2022-08-16T14:58:37.000Z</time>
      </trkpt>
      <trkpt lat="45.85631" lon="4.69249">
        <ele>197.9478</ele>
        <time>2022-08-16T14:58:43.000Z</time>
      </trkpt>
      <trkpt lat="45.85629" lon="4.69249">
        <ele>198.11187</ele>
        <time>2022-08-16T14:58:44.000Z</time>
      </trkpt>
      <trkpt lat="45.85627" lon="4.69249">
        <ele>198.32789</ele>
        <time>2022-08-16T14:58:45.000Z</time>
      </trkpt>
      <trkpt lat="45.85625" lon="4.69252">
        <ele>198.49773</ele>
        <time>2022-08-16T14:58:47.000Z</time>
      </trkpt>
      <trkpt lat="45.85623" lon="4.69256">
        <ele>198.70749</ele>
        <time>2022-08-16T14:58:49.000Z</time>
      </trkpt>
      <trkpt lat="45.85621" lon="4.69255">
        <ele>198.9633</ele>
        <time>2022-08-16T14:58:54.000Z</time>
      </trkpt>
      <trkpt lat="45.85621" lon="4.69259">
        <ele>199.01312</ele>
        <time>2022-08-16T14:58:58.000Z</time>
      </trkpt>
      <trkpt lat="45.85619" lon="4.69258">
        <ele>199.29662</ele>
        <time>2022-08-16T14:59:05.000Z</time>
      </trkpt>
      <trkpt lat="45.85618" lon="4.69261">
        <ele>199.4253</ele>
        <time>2022-08-16T14:59:25.000Z</time>
      </trkpt>
      <trkpt lat="45.85619" lon="4.69264">
        <ele>199.17556</ele>
        <time>2022-08-16T15:00:44.000Z</time>
      </trkpt>
      <trkpt lat="45.85622" lon="4.69264">
        <ele>198.83164</ele>
        <time>2022-08-16T15:00:46.000Z</time>
      </trkpt>
      <trkpt lat="45.85623" lon="4.69259">
        <ele>198.71738</ele>
        <time>2022-08-16T15:00:48.000Z</time>
      </trkpt>
      <trkpt lat="45.85622" lon="4.69256">
        <ele>198.83807</ele>
        <time>2022-08-16T15:00:49.000Z</time>
      </trkpt>
      <trkpt lat="45.85621" lon="4.69252">
        <ele>199.01546</ele>
        <time>2022-08-16T15:00:50.000Z</time>
      </trkpt>
      <trkpt lat="45.8562" lon="4.6925">
        <ele>199.21753</ele>
        <time>2022-08-16T15:00:51.000Z</time>
      </trkpt>
      <trkpt lat="45.85619" lon="4.69248">
        <ele>199.38912</ele>
        <time>2022-08-16T15:00:52.000Z</time>
      </trkpt>
      <trkpt lat="45.85617" lon="4.69246">
        <ele>199.56734</ele>
        <time>2022-08-16T15:00:53.000Z</time>
      </trkpt>
      <trkpt lat="45.85616" lon="4.69244">
        <ele>199.7406</ele>
        <time>2022-08-16T15:00:54.000Z</time>
      </trkpt>
      <trkpt lat="45.85614" lon="4.69242">
        <ele>199.87591</ele>
        <time>2022-08-16T15:00:55.000Z</time>
      </trkpt>
      <trkpt lat="45.85612" lon="4.69239">
        <ele>199.96942</ele>
        <time>2022-08-16T15:00:56.000Z</time>
      </trkpt>
      <trkpt lat="45.85611" lon="4.69236">
        <ele>199.99966</ele>
        <time>2022-08-16T15:00:57.000Z</time>
      </trkpt>
      <trkpt lat="45.85609" lon="4.69234">
        <ele>199.99879</ele>
        <time>2022-08-16T15:00:58.000Z</time>
      </trkpt>
      <trkpt lat="45.85607" lon="4.69233">
        <ele>199.96079</ele>
        <time>2022-08-16T15:00:59.000Z</time>
      </trkpt>
      <trkpt lat="45.85605" lon="4.69234">
        <ele>199.90615</ele>
        <time>2022-08-16T15:01:00.000Z</time>
      </trkpt>
      <trkpt lat="45.85603" lon="4.69235">
        <ele>199.82722</ele>
        <time>2022-08-16T15:01:01.000Z</time>
      </trkpt>
      <trkpt lat="45.856" lon="4.69237">
        <ele>199.72075</ele>
        <time>2022-08-16T15:01:02.000Z</time>
      </trkpt>
      <trkpt lat="45.85598" lon="4.6924">
        <ele>199.63136</ele>
        <time>2022-08-16T15:01:03.000Z</time>
      </trkpt>
      <trkpt lat="45.85596" lon="4.69243">
        <ele>199.59511</ele>
        <time>2022-08-16T15:01:04.000Z</time>
      </trkpt>
      <trkpt lat="45.85594" lon="4.69246">
        <ele>199.57922</ele>
        <time>2022-08-16T15:01:05.000Z</time>
      </trkpt>
      <trkpt lat="45.85592" lon="4.69248">
        <ele>199.50115</ele>
        <time>2022-08-16T15:01:06.000Z</time>
      </trkpt>
      <trkpt lat="45.85589" lon="4.69248">
        <ele>199.33027</ele>
        <time>2022-08-16T15:01:07.000Z</time>
      </trkpt>
      <trkpt lat="45.85584" lon="4.69249">
        <ele>199.23095</ele>
        <time>2022-08-16T15:01:08.000Z</time>
      </trkpt>
      <trkpt lat="45.8558" lon="4.6925">
        <ele>199.16905</ele>
        <time>2022-08-16T15:01:09.000Z</time>
      </trkpt>
      <trkpt lat="45.85576" lon="4.6925">
        <ele>199.13197</ele>
        <time>2022-08-16T15:01:10.000Z</time>
      </trkpt>
      <trkpt lat="45.85571" lon="4.6925">
        <ele>199.12288</ele>
        <time>2022-08-16T15:01:11.000Z</time>
      </trkpt>
      <trkpt lat="45.85567" lon="4.69251">
        <ele>199.13624</ele>
        <time>2022-08-16T15:01:12.000Z</time>
      </trkpt>
      <trkpt lat="45.85563" lon="4.69252">
        <ele>199.17804</ele>
        <time>2022-08-16T15:01:13.000Z</time>
      </trkpt>
      <trkpt lat="45.85559" lon="4.69253">
        <ele>199.28758</ele>
        <time>2022-08-16T15:01:14.000Z</time>
      </trkpt>
      <trkpt lat="45.85556" lon="4.69254">
        <ele>199.41683</ele>
        <time>2022-08-16T15:01:15.000Z</time>
      </trkpt>
      <trkpt lat="45.85553" lon="4.69254">
        <ele>199.51411</ele>
        <time>2022-08-16T15:01:16.000Z</time>
      </trkpt>
      <trkpt lat="45.85551" lon="4.69254">
        <ele>199.59566</ele>
        <time>2022-08-16T15:01:17.000Z</time>
      </trkpt>
      <trkpt lat="45.85548" lon="4.69253">
        <ele>199.67182</ele>
        <time>2022-08-16T15:01:18.000Z</time>
      </trkpt>
      <trkpt lat="45.85546" lon="4.69253">
        <ele>199.71506</ele>
        <time>2022-08-16T15:01:19.000Z</time>
      </trkpt>
      <trkpt lat="45.85544" lon="4.69254">
        <ele>199.74796</ele>
        <time>2022-08-16T15:01:21.000Z</time>
      </trkpt>
      <trkpt lat="45.85542" lon="4.69254">
        <ele>199.74622</ele>
        <time>2022-08-16T15:01:24.000Z</time>
      </trkpt>
      <trkpt lat="45.85536" lon="4.69258">
        <ele>199.54215</ele>
        <time>2022-08-16T15:02:57.000Z</time>
      </trkpt>
      <trkpt lat="45.85533" lon="4.69259">
        <ele>199.35058</ele>
        <time>2022-08-16T15:02:58.000Z</time>
      </trkpt>
      <trkpt lat="45.8553" lon="4.6926">
        <ele>199.18395</ele>
        <time>2022-08-16T15:02:59.000Z</time>
      </trkpt>
      <trkpt lat="45.85527" lon="4.69262">
        <ele>199.07727</ele>
        <time>2022-08-16T15:03:00.000Z</time>
      </trkpt>
      <trkpt lat="45.85525" lon="4.69262">
        <ele>199.00202</ele>
        <time>2022-08-16T15:03:01.000Z</time>
      </trkpt>
      <trkpt lat="45.85522" lon="4.69263">
        <ele>198.98819</ele>
        <time>2022-08-16T15:03:02.000Z</time>
      </trkpt>
      <trkpt lat="45.85519" lon="4.69264">
        <ele>199.06692</ele>
        <time>2022-08-16T15:03:03.000Z</time>
      </trkpt>
      <trkpt lat="45.85515" lon="4.69264">
        <ele>199.3285</ele>
        <time>2022-08-16T15:03:04.000Z</time>
      </trkpt>
      <trkpt lat="45.85512" lon="4.69266">
        <ele>199.65549</ele>
        <time>2022-08-16T15:03:05.000Z</time>
      </trkpt>
      <trkpt lat="45.8551" lon="4.69267">
        <ele>199.97357</ele>
        <time>2022-08-16T15:03:06.000Z</time>
      </trkpt>
      <trkpt lat="45.85508" lon="4.69268">
        <ele>200.23504</ele>
        <time>2022-08-16T15:03:07.000Z</time>
      </trkpt>
      <trkpt lat="45.85506" lon="4.69269">
        <ele>200.48569</ele>
        <time>2022-08-16T15:03:08.000Z</time>
      </trkpt>
      <trkpt lat="45.85503" lon="4.6927">
        <ele>200.73545</ele>
        <time>2022-08-16T15:03:09.000Z</time>
      </trkpt>
      <trkpt lat="45.85501" lon="4.69271">
        <ele>200.91683</ele>
        <time>2022-08-16T15:03:10.000Z</time>
      </trkpt>
      <trkpt lat="45.85498" lon="4.69271">
        <ele>201.053</ele>
        <time>2022-08-16T15:03:11.000Z</time>
      </trkpt>
      <trkpt lat="45.85496" lon="4.69272">
        <ele>201.11771</ele>
        <time>2022-08-16T15:03:12.000Z</time>
      </trkpt>
      <trkpt lat="45.85494" lon="4.69272">
        <ele>201.1308</ele>
        <time>2022-08-16T15:03:13.000Z</time>
      </trkpt>
      <trkpt lat="45.85491" lon="4.69272">
        <ele>201.10749</ele>
        <time>2022-08-16T15:03:14.000Z</time>
      </trkpt>
      <trkpt lat="45.85488" lon="4.69272">
        <ele>201.03744</ele>
        <time>2022-08-16T15:03:15.000Z</time>
      </trkpt>
      <trkpt lat="45.85485" lon="4.69271">
        <ele>200.92538</ele>
        <time>2022-08-16T15:03:16.000Z</time>
      </trkpt>
      <trkpt lat="45.85481" lon="4.6927">
        <ele>200.75406</ele>
        <time>2022-08-16T15:03:17.000Z</time>
      </trkpt>
      <trkpt lat="45.85477" lon="4.69267">
        <ele>200.54777</ele>
        <time>2022-08-16T15:03:18.000Z</time>
      </trkpt>
      <trkpt lat="45.85472" lon="4.69265">
        <ele>200.39694</ele>
        <time>2022-08-16T15:03:19.000Z</time>
      </trkpt>
      <trkpt lat="45.85468" lon="4.69263">
        <ele>200.27777</ele>
        <time>2022-08-16T15:03:20.000Z</time>
      </trkpt>
      <trkpt lat="45.85464" lon="4.69261">
        <ele>200.17809</ele>
        <time>2022-08-16T15:03:21.000Z</time>
      </trkpt>
      <trkpt lat="45.85457" lon="4.69255">
        <ele>200.0482</ele>
        <time>2022-08-16T15:03:22.000Z</time>
      </trkpt>
      <trkpt lat="45.85454" lon="4.69252">
        <ele>200.0401</ele>
        <time>2022-08-16T15:03:23.000Z</time>
      </trkpt>
      <trkpt lat="45.85449" lon="4.69248">
        <ele>200.11284</ele>
        <time>2022-08-16T15:03:24.000Z</time>
      </trkpt>
      <trkpt lat="45.85447" lon="4.69244">
        <ele>200.21923</ele>
        <time>2022-08-16T15:03:26.000Z</time>
      </trkpt>
      <trkpt lat="45.85438" lon="4.69236">
        <ele>200.45481</ele>
        <time>2022-08-16T15:03:28.000Z</time>
      </trkpt>
      <trkpt lat="45.85434" lon="4.69234">
        <ele>200.49713</ele>
        <time>2022-08-16T15:03:29.000Z</time>
      </trkpt>
      <trkpt lat="45.85431" lon="4.69232">
        <ele>200.49844</ele>
        <time>2022-08-16T15:03:30.000Z</time>
      </trkpt>
      <trkpt lat="45.8543" lon="4.6923">
        <ele>200.46393</ele>
        <time>2022-08-16T15:03:31.000Z</time>
      </trkpt>
      <trkpt lat="45.85429" lon="4.69227">
        <ele>200.44205</ele>
        <time>2022-08-16T15:03:32.000Z</time>
      </trkpt>
      <trkpt lat="45.85427" lon="4.69225">
        <ele>200.42084</ele>
        <time>2022-08-16T15:03:33.000Z</time>
      </trkpt>
      <trkpt lat="45.85426" lon="4.69222">
        <ele>200.42073</ele>
        <time>2022-08-16T15:03:34.000Z</time>
      </trkpt>
      <trkpt lat="45.85422" lon="4.69216">
        <ele>200.50692</ele>
        <time>2022-08-16T15:03:36.000Z</time>
      </trkpt>
      <trkpt lat="45.8542" lon="4.69214">
        <ele>200.58927</ele>
        <time>2022-08-16T15:03:37.000Z</time>
      </trkpt>
      <trkpt lat="45.85418" lon="4.69211">
        <ele>200.67172</ele>
        <time>2022-08-16T15:03:38.000Z</time>
      </trkpt>
      <trkpt lat="45.85416" lon="4.69209">
        <ele>200.7642</ele>
        <time>2022-08-16T15:03:39.000Z</time>
      </trkpt>
      <trkpt lat="45.85413" lon="4.69206">
        <ele>200.87259</ele>
        <time>2022-08-16T15:03:40.000Z</time>
      </trkpt>
      <trkpt lat="45.85409" lon="4.69202">
        <ele>200.96472</ele>
        <time>2022-08-16T15:03:41.000Z</time>
      </trkpt>
      <trkpt lat="45.85407" lon="4.69199">
        <ele>200.97517</ele>
        <time>2022-08-16T15:03:42.000Z</time>
      </trkpt>
      <trkpt lat="45.85404" lon="4.69196">
        <ele>200.89898</ele>
        <time>2022-08-16T15:03:43.000Z</time>
      </trkpt>
      <trkpt lat="45.85401" lon="4.69194">
        <ele>200.76537</ele>
        <time>2022-08-16T15:03:44.000Z</time>
      </trkpt>
      <trkpt lat="45.85399" lon="4.69192">
        <ele>200.56633</ele>
        <time>2022-08-16T15:03:45.000Z</time>
      </trkpt>
      <trkpt lat="45.85396" lon="4.69189">
        <ele>200.32211</ele>
        <time>2022-08-16T15:03:46.000Z</time>
      </trkpt>
      <trkpt lat="45.85393" lon="4.69187">
        <ele>200.08765</ele>
        <time>2022-08-16T15:03:47.000Z</time>
      </trkpt>
      <trkpt lat="45.85391" lon="4.69184">
        <ele>199.94743</ele>
        <time>2022-08-16T15:03:48.000Z</time>
      </trkpt>
      <trkpt lat="45.85389" lon="4.69182">
        <ele>199.86935</ele>
        <time>2022-08-16T15:03:49.000Z</time>
      </trkpt>
      <trkpt lat="45.85387" lon="4.6918">
        <ele>199.84879</ele>
        <time>2022-08-16T15:03:50.000Z</time>
      </trkpt>
      <trkpt lat="45.85386" lon="4.69178">
        <ele>199.87202</ele>
        <time>2022-08-16T15:03:51.000Z</time>
      </trkpt>
      <trkpt lat="45.85384" lon="4.69176">
        <ele>199.95924</ele>
        <time>2022-08-16T15:03:52.000Z</time>
      </trkpt>
      <trkpt lat="45.85381" lon="4.69173">
        <ele>200.11246</ele>
        <time>2022-08-16T15:03:53.000Z</time>
      </trkpt>
      <trkpt lat="45.85379" lon="4.6917">
        <ele>200.3249</ele>
        <time>2022-08-16T15:03:54.000Z</time>
      </trkpt>
      <trkpt lat="45.8537" lon="4.69164">
        <ele>200.78902</ele>
        <time>2022-08-16T15:03:56.000Z</time>
      </trkpt>
      <trkpt lat="45.85348" lon="4.69156">
        <ele>201.35606</ele>
        <time>2022-08-16T15:03:58.000Z</time>
      </trkpt>
      <trkpt lat="45.85341" lon="4.69156">
        <ele>201.40834</ele>
        <time>2022-08-16T15:03:59.000Z</time>
      </trkpt>
      <trkpt lat="45.85334" lon="4.69154">
        <ele>201.06535</ele>
        <time>2022-08-16T15:04:00.000Z</time>
      </trkpt>
      <trkpt lat="45.85329" lon="4.69157">
        <ele>200.57474</ele>
        <time>2022-08-16T15:04:01.000Z</time>
      </trkpt>
      <trkpt lat="45.85322" lon="4.6916">
        <ele>200.31218</ele>
        <time>2022-08-16T15:04:03.000Z</time>
      </trkpt>
      <trkpt lat="45.85318" lon="4.69162">
        <ele>200.58741</ele>
        <time>2022-08-16T15:04:04.000Z</time>
      </trkpt>
      <trkpt lat="45.85313" lon="4.69163">
        <ele>201.32141</ele>
        <time>2022-08-16T15:04:05.000Z</time>
      </trkpt>
      <trkpt lat="45.8531" lon="4.69166">
        <ele>201.97304</ele>
        <time>2022-08-16T15:04:06.000Z</time>
      </trkpt>
      <trkpt lat="45.85306" lon="4.69167">
        <ele>202.56494</ele>
        <time>2022-08-16T15:04:07.000Z</time>
      </trkpt>
      <trkpt lat="45.85302" lon="4.6917">
        <ele>203.07451</ele>
        <time>2022-08-16T15:04:08.000Z</time>
      </trkpt>
      <trkpt lat="45.85299" lon="4.69173">
        <ele>202.95955</ele>
        <time>2022-08-16T15:04:09.000Z</time>
      </trkpt>
      <trkpt lat="45.85296" lon="4.69174">
        <ele>203.11204</ele>
        <time>2022-08-16T15:04:10.000Z</time>
      </trkpt>
      <trkpt lat="45.85293" lon="4.69175">
        <ele>203.40579</ele>
        <time>2022-08-16T15:04:11.000Z</time>
      </trkpt>
      <trkpt lat="45.85289" lon="4.69178">
        <ele>203.691</ele>
        <time>2022-08-16T15:04:12.000Z</time>
      </trkpt>
      <trkpt lat="45.85286" lon="4.69181">
        <ele>204.16833</ele>
        <time>2022-08-16T15:04:13.000Z</time>
      </trkpt>
      <trkpt lat="45.85282" lon="4.69184">
        <ele>204.77259</ele>
        <time>2022-08-16T15:04:14.000Z</time>
      </trkpt>
      <trkpt lat="45.85278" lon="4.69187">
        <ele>205.1428</ele>
        <time>2022-08-16T15:04:15.000Z</time>
      </trkpt>
      <trkpt lat="45.85273" lon="4.69195">
        <ele>204.87974</ele>
        <time>2022-08-16T15:04:17.000Z</time>
      </trkpt>
      <trkpt lat="45.85269" lon="4.69199">
        <ele>204.59645</ele>
        <time>2022-08-16T15:04:18.000Z</time>
      </trkpt>
      <trkpt lat="45.85266" lon="4.69203">
        <ele>204.51883</ele>
        <time>2022-08-16T15:04:19.000Z</time>
      </trkpt>
      <trkpt lat="45.85264" lon="4.69208">
        <ele>204.51902</ele>
        <time>2022-08-16T15:04:20.000Z</time>
      </trkpt>
      <trkpt lat="45.85261" lon="4.69214">
        <ele>204.80848</ele>
        <time>2022-08-16T15:04:21.000Z</time>
      </trkpt>
      <trkpt lat="45.85259" lon="4.69219">
        <ele>205.04685</ele>
        <time>2022-08-16T15:04:22.000Z</time>
      </trkpt>
      <trkpt lat="45.85257" lon="4.69223">
        <ele>205.13248</ele>
        <time>2022-08-16T15:04:23.000Z</time>
      </trkpt>
      <trkpt lat="45.85254" lon="4.69227">
        <ele>204.92534</ele>
        <time>2022-08-16T15:04:24.000Z</time>
      </trkpt>
      <trkpt lat="45.85252" lon="4.69232">
        <ele>204.53228</ele>
        <time>2022-08-16T15:04:25.000Z</time>
      </trkpt>
      <trkpt lat="45.8525" lon="4.69236">
        <ele>204.09492</ele>
        <time>2022-08-16T15:04:26.000Z</time>
      </trkpt>
      <trkpt lat="45.85248" lon="4.69239">
        <ele>203.79757</ele>
        <time>2022-08-16T15:04:27.000Z</time>
      </trkpt>
      <trkpt lat="45.85245" lon="4.69243">
        <ele>203.78043</ele>
        <time>2022-08-16T15:04:28.000Z</time>
      </trkpt>
      <trkpt lat="45.85242" lon="4.69248">
        <ele>204.06354</ele>
        <time>2022-08-16T15:04:29.000Z</time>
      </trkpt>
      <trkpt lat="45.8524" lon="4.69253">
        <ele>204.32135</ele>
        <time>2022-08-16T15:04:30.000Z</time>
      </trkpt>
      <trkpt lat="45.85238" lon="4.69257">
        <ele>204.38293</ele>
        <time>2022-08-16T15:04:31.000Z</time>
      </trkpt>
      <trkpt lat="45.85236" lon="4.69261">
        <ele>204.25562</ele>
        <time>2022-08-16T15:04:32.000Z</time>
      </trkpt>
      <trkpt lat="45.85233" lon="4.69266">
        <ele>203.80852</ele>
        <time>2022-08-16T15:04:33.000Z</time>
      </trkpt>
      <trkpt lat="45.85231" lon="4.69271">
        <ele>203.30382</ele>
        <time>2022-08-16T15:04:34.000Z</time>
      </trkpt>
      <trkpt lat="45.85227" lon="4.6928">
        <ele>202.75412</ele>
        <time>2022-08-16T15:04:36.000Z</time>
      </trkpt>
      <trkpt lat="45.85224" lon="4.69285">
        <ele>202.84677</ele>
        <time>2022-08-16T15:04:37.000Z</time>
      </trkpt>
      <trkpt lat="45.85222" lon="4.6929">
        <ele>203.20298</ele>
        <time>2022-08-16T15:04:38.000Z</time>
      </trkpt>
      <trkpt lat="45.8522" lon="4.69295">
        <ele>203.73773</ele>
        <time>2022-08-16T15:04:39.000Z</time>
      </trkpt>
      <trkpt lat="45.85218" lon="4.69299">
        <ele>204.33148</ele>
        <time>2022-08-16T15:04:40.000Z</time>
      </trkpt>
      <trkpt lat="45.85216" lon="4.69301">
        <ele>204.84357</ele>
        <time>2022-08-16T15:04:41.000Z</time>
      </trkpt>
      <trkpt lat="45.85212" lon="4.69301">
        <ele>205.87018</ele>
        <time>2022-08-16T15:04:43.000Z</time>
      </trkpt>
      <trkpt lat="45.85209" lon="4.69298">
        <ele>206.82483</ele>
        <time>2022-08-16T15:04:44.000Z</time>
      </trkpt>
      <trkpt lat="45.85205" lon="4.69295">
        <ele>207.32957</ele>
        <time>2022-08-16T15:04:45.000Z</time>
      </trkpt>
      <trkpt lat="45.85201" lon="4.69291">
        <ele>207.29237</ele>
        <time>2022-08-16T15:04:46.000Z</time>
      </trkpt>
      <trkpt lat="45.85195" lon="4.69284">
        <ele>206.31392</ele>
        <time>2022-08-16T15:04:48.000Z</time>
      </trkpt>
      <trkpt lat="45.85192" lon="4.6928">
        <ele>205.74129</ele>
        <time>2022-08-16T15:04:49.000Z</time>
      </trkpt>
      <trkpt lat="45.85189" lon="4.69277">
        <ele>205.24167</ele>
        <time>2022-08-16T15:04:50.000Z</time>
      </trkpt>
      <trkpt lat="45.85186" lon="4.69275">
        <ele>204.9977</ele>
        <time>2022-08-16T15:04:51.000Z</time>
      </trkpt>
      <trkpt lat="45.85184" lon="4.69274">
        <ele>204.92</ele>
        <time>2022-08-16T15:04:52.000Z</time>
      </trkpt>
      <trkpt lat="45.85181" lon="4.69274">
        <ele>205.01698</ele>
        <time>2022-08-16T15:04:53.000Z</time>
      </trkpt>
      <trkpt lat="45.8518" lon="4.69275">
        <ele>205.17823</ele>
        <time>2022-08-16T15:04:54.000Z</time>
      </trkpt>
      <trkpt lat="45.85179" lon="4.69285">
        <ele>205.13503</ele>
        <time>2022-08-16T15:04:56.000Z</time>
      </trkpt>
      <trkpt lat="45.85179" lon="4.6929">
        <ele>204.92521</ele>
        <time>2022-08-16T15:04:57.000Z</time>
      </trkpt>
      <trkpt lat="45.85179" lon="4.69301">
        <ele>204.73099</ele>
        <time>2022-08-16T15:04:59.000Z</time>
      </trkpt>
      <trkpt lat="45.85178" lon="4.69307">
        <ele>204.91865</ele>
        <time>2022-08-16T15:05:00.000Z</time>
      </trkpt>
      <trkpt lat="45.85177" lon="4.69313">
        <ele>205.35097</ele>
        <time>2022-08-16T15:05:01.000Z</time>
      </trkpt>
      <trkpt lat="45.85176" lon="4.69319">
        <ele>205.94744</ele>
        <time>2022-08-16T15:05:02.000Z</time>
      </trkpt>
      <trkpt lat="45.85175" lon="4.69324">
        <ele>206.57758</ele>
        <time>2022-08-16T15:05:03.000Z</time>
      </trkpt>
      <trkpt lat="45.85173" lon="4.69329">
        <ele>207.20842</ele>
        <time>2022-08-16T15:05:04.000Z</time>
      </trkpt>
      <trkpt lat="45.85171" lon="4.69335">
        <ele>207.62444</ele>
        <time>2022-08-16T15:05:05.000Z</time>
      </trkpt>
      <trkpt lat="45.85168" lon="4.6934">
        <ele>207.68893</ele>
        <time>2022-08-16T15:05:06.000Z</time>
      </trkpt>
      <trkpt lat="45.85166" lon="4.69346">
        <ele>207.53959</ele>
        <time>2022-08-16T15:05:07.000Z</time>
      </trkpt>
      <trkpt lat="45.85164" lon="4.6935">
        <ele>207.37601</ele>
        <time>2022-08-16T15:05:08.000Z</time>
      </trkpt>
      <trkpt lat="45.85163" lon="4.69353">
        <ele>207.22007</ele>
        <time>2022-08-16T15:05:09.000Z</time>
      </trkpt>
      <trkpt lat="45.85162" lon="4.69357">
        <ele>207.03796</ele>
        <time>2022-08-16T15:05:10.000Z</time>
      </trkpt>
      <trkpt lat="45.85161" lon="4.69361">
        <ele>206.83312</ele>
        <time>2022-08-16T15:05:11.000Z</time>
      </trkpt>
      <trkpt lat="45.85159" lon="4.69364">
        <ele>206.70354</ele>
        <time>2022-08-16T15:05:12.000Z</time>
      </trkpt>
      <trkpt lat="45.85157" lon="4.69368">
        <ele>206.68284</ele>
        <time>2022-08-16T15:05:13.000Z</time>
      </trkpt>
      <trkpt lat="45.85156" lon="4.69372">
        <ele>206.7459</ele>
        <time>2022-08-16T15:05:14.000Z</time>
      </trkpt>
      <trkpt lat="45.85156" lon="4.69375">
        <ele>206.78373</ele>
        <time>2022-08-16T15:05:15.000Z</time>
      </trkpt>
      <trkpt lat="45.85155" lon="4.69379">
        <ele>206.88816</ele>
        <time>2022-08-16T15:05:16.000Z</time>
      </trkpt>
      <trkpt lat="45.85154" lon="4.69383">
        <ele>207.03973</ele>
        <time>2022-08-16T15:05:17.000Z</time>
      </trkpt>
      <trkpt lat="45.85153" lon="4.69386">
        <ele>207.18852</ele>
        <time>2022-08-16T15:05:18.000Z</time>
      </trkpt>
      <trkpt lat="45.85153" lon="4.6939">
        <ele>207.30758</ele>
        <time>2022-08-16T15:05:19.000Z</time>
      </trkpt>
      <trkpt lat="45.85152" lon="4.69394">
        <ele>207.41425</ele>
        <time>2022-08-16T15:05:20.000Z</time>
      </trkpt>
      <trkpt lat="45.85152" lon="4.69397">
        <ele>207.48034</ele>
        <time>2022-08-16T15:05:21.000Z</time>
      </trkpt>
      <trkpt lat="45.85152" lon="4.69401">
        <ele>207.57326</ele>
        <time>2022-08-16T15:05:22.000Z</time>
      </trkpt>
      <trkpt lat="45.85151" lon="4.69405">
        <ele>207.73382</ele>
        <time>2022-08-16T15:05:23.000Z</time>
      </trkpt>
      <trkpt lat="45.8515" lon="4.69409">
        <ele>207.92622</ele>
        <time>2022-08-16T15:05:24.000Z</time>
      </trkpt>
      <trkpt lat="45.85149" lon="4.69413">
        <ele>208.14086</ele>
        <time>2022-08-16T15:05:25.000Z</time>
      </trkpt>
      <trkpt lat="45.85148" lon="4.69417">
        <ele>208.34407</ele>
        <time>2022-08-16T15:05:26.000Z</time>
      </trkpt>
      <trkpt lat="45.85147" lon="4.69421">
        <ele>208.52469</ele>
        <time>2022-08-16T15:05:27.000Z</time>
      </trkpt>
      <trkpt lat="45.85147" lon="4.69425">
        <ele>208.71018</ele>
        <time>2022-08-16T15:05:28.000Z</time>
      </trkpt>
      <trkpt lat="45.85146" lon="4.6943">
        <ele>208.89106</ele>
        <time>2022-08-16T15:05:29.000Z</time>
      </trkpt>
      <trkpt lat="45.85146" lon="4.69435">
        <ele>209.02858</ele>
        <time>2022-08-16T15:05:30.000Z</time>
      </trkpt>
      <trkpt lat="45.85145" lon="4.6944">
        <ele>209.11887</ele>
        <time>2022-08-16T15:05:31.000Z</time>
      </trkpt>
      <trkpt lat="45.85145" lon="4.69444">
        <ele>209.18968</ele>
        <time>2022-08-16T15:05:32.000Z</time>
      </trkpt>
      <trkpt lat="45.85144" lon="4.69448">
        <ele>209.23256</ele>
        <time>2022-08-16T15:05:33.000Z</time>
      </trkpt>
      <trkpt lat="45.85143" lon="4.69453">
        <ele>209.26678</ele>
        <time>2022-08-16T15:05:34.000Z</time>
      </trkpt>
      <trkpt lat="45.85142" lon="4.69458">
        <ele>209.30389</ele>
        <time>2022-08-16T15:05:35.000Z</time>
      </trkpt>
      <trkpt lat="45.85141" lon="4.69462">
        <ele>209.34199</ele>
        <time>2022-08-16T15:05:36.000Z</time>
      </trkpt>
      <trkpt lat="45.8514" lon="4.69468">
        <ele>209.37853</ele>
        <time>2022-08-16T15:05:37.000Z</time>
      </trkpt>
      <trkpt lat="45.8514" lon="4.69473">
        <ele>209.39057</ele>
        <time>2022-08-16T15:05:38.000Z</time>
      </trkpt>
      <trkpt lat="45.85139" lon="4.69477">
        <ele>209.39231</ele>
        <time>2022-08-16T15:05:39.000Z</time>
      </trkpt>
      <trkpt lat="45.85138" lon="4.69482">
        <ele>209.38964</ele>
        <time>2022-08-16T15:05:40.000Z</time>
      </trkpt>
      <trkpt lat="45.85138" lon="4.69486">
        <ele>209.39127</ele>
        <time>2022-08-16T15:05:41.000Z</time>
      </trkpt>
      <trkpt lat="45.85137" lon="4.69491">
        <ele>209.39503</ele>
        <time>2022-08-16T15:05:42.000Z</time>
      </trkpt>
      <trkpt lat="45.85137" lon="4.69496">
        <ele>209.40427</ele>
        <time>2022-08-16T15:05:43.000Z</time>
      </trkpt>
      <trkpt lat="45.85137" lon="4.69501">
        <ele>209.42318</ele>
        <time>2022-08-16T15:05:44.000Z</time>
      </trkpt>
      <trkpt lat="45.85137" lon="4.69505">
        <ele>209.44819</ele>
        <time>2022-08-16T15:05:45.000Z</time>
      </trkpt>
      <trkpt lat="45.85136" lon="4.6951">
        <ele>209.48485</ele>
        <time>2022-08-16T15:05:46.000Z</time>
      </trkpt>
      <trkpt lat="45.85135" lon="4.69515">
        <ele>209.52846</ele>
        <time>2022-08-16T15:05:47.000Z</time>
      </trkpt>
      <trkpt lat="45.85134" lon="4.6952">
        <ele>209.58674</ele>
        <time>2022-08-16T15:05:48.000Z</time>
      </trkpt>
      <trkpt lat="45.85134" lon="4.69524">
        <ele>209.66024</ele>
        <time>2022-08-16T15:05:49.000Z</time>
      </trkpt>
      <trkpt lat="45.85133" lon="4.69529">
        <ele>209.74437</ele>
        <time>2022-08-16T15:05:50.000Z</time>
      </trkpt>
      <trkpt lat="45.85132" lon="4.69533">
        <ele>209.83281</ele>
        <time>2022-08-16T15:05:51.000Z</time>
      </trkpt>
      <trkpt lat="45.85131" lon="4.69537">
        <ele>209.91618</ele>
        <time>2022-08-16T15:05:52.000Z</time>
      </trkpt>
      <trkpt lat="45.85131" lon="4.69542">
        <ele>210.01401</ele>
        <time>2022-08-16T15:05:53.000Z</time>
      </trkpt>
      <trkpt lat="45.85129" lon="4.69547">
        <ele>210.18062</ele>
        <time>2022-08-16T15:05:54.000Z</time>
      </trkpt>
      <trkpt lat="45.85128" lon="4.69552">
        <ele>210.34241</ele>
        <time>2022-08-16T15:05:55.000Z</time>
      </trkpt>
      <trkpt lat="45.85127" lon="4.69557">
        <ele>210.54769</ele>
        <time>2022-08-16T15:05:56.000Z</time>
      </trkpt>
      <trkpt lat="45.85126" lon="4.69562">
        <ele>210.75977</ele>
        <time>2022-08-16T15:05:57.000Z</time>
      </trkpt>
      <trkpt lat="45.85124" lon="4.69568">
        <ele>210.97561</ele>
        <time>2022-08-16T15:05:58.000Z</time>
      </trkpt>
      <trkpt lat="45.85123" lon="4.69573">
        <ele>211.23344</ele>
        <time>2022-08-16T15:05:59.000Z</time>
      </trkpt>
      <trkpt lat="45.85122" lon="4.69579">
        <ele>211.4644</ele>
        <time>2022-08-16T15:06:00.000Z</time>
      </trkpt>
      <trkpt lat="45.85121" lon="4.69584">
        <ele>211.67487</ele>
        <time>2022-08-16T15:06:01.000Z</time>
      </trkpt>
      <trkpt lat="45.8512" lon="4.69589">
        <ele>211.93513</ele>
        <time>2022-08-16T15:06:02.000Z</time>
      </trkpt>
      <trkpt lat="45.85119" lon="4.69595">
        <ele>212.17513</ele>
        <time>2022-08-16T15:06:03.000Z</time>
      </trkpt>
      <trkpt lat="45.85118" lon="4.696">
        <ele>212.42627</ele>
        <time>2022-08-16T15:06:04.000Z</time>
      </trkpt>
      <trkpt lat="45.85118" lon="4.69605">
        <ele>212.64682</ele>
        <time>2022-08-16T15:06:05.000Z</time>
      </trkpt>
      <trkpt lat="45.85118" lon="4.6961">
        <ele>212.81348</ele>
        <time>2022-08-16T15:06:06.000Z</time>
      </trkpt>
      <trkpt lat="45.85119" lon="4.69615">
        <ele>212.97599</ele>
        <time>2022-08-16T15:06:07.000Z</time>
      </trkpt>
      <trkpt lat="45.85119" lon="4.6962">
        <ele>213.13711</ele>
        <time>2022-08-16T15:06:08.000Z</time>
      </trkpt>
      <trkpt lat="45.85119" lon="4.69626">
        <ele>213.30774</ele>
        <time>2022-08-16T15:06:09.000Z</time>
      </trkpt>
      <trkpt lat="45.85119" lon="4.69631">
        <ele>213.41918</ele>
        <time>2022-08-16T15:06:10.000Z</time>
      </trkpt>
      <trkpt lat="45.8512" lon="4.69636">
        <ele>213.53437</ele>
        <time>2022-08-16T15:06:11.000Z</time>
      </trkpt>
      <trkpt lat="45.8512" lon="4.69641">
        <ele>213.58056</ele>
        <time>2022-08-16T15:06:12.000Z</time>
      </trkpt>
      <trkpt lat="45.85121" lon="4.69645">
        <ele>213.592</ele>
        <time>2022-08-16T15:06:13.000Z</time>
      </trkpt>
      <trkpt lat="45.85122" lon="4.69649">
        <ele>213.60943</ele>
        <time>2022-08-16T15:06:14.000Z</time>
      </trkpt>
      <trkpt lat="45.85123" lon="4.69653">
        <ele>213.56164</ele>
        <time>2022-08-16T15:06:15.000Z</time>
      </trkpt>
      <trkpt lat="45.85123" lon="4.69656">
        <ele>213.51385</ele>
        <time>2022-08-16T15:06:16.000Z</time>
      </trkpt>
      <trkpt lat="45.85124" lon="4.6966">
        <ele>213.46429</ele>
        <time>2022-08-16T15:06:17.000Z</time>
      </trkpt>
      <trkpt lat="45.85124" lon="4.69663">
        <ele>213.42405</ele>
        <time>2022-08-16T15:06:18.000Z</time>
      </trkpt>
      <trkpt lat="45.85123" lon="4.69665">
        <ele>213.38752</ele>
        <time>2022-08-16T15:06:19.000Z</time>
      </trkpt>
      <trkpt lat="45.85123" lon="4.69668">
        <ele>213.32052</ele>
        <time>2022-08-16T15:06:20.000Z</time>
      </trkpt>
      <trkpt lat="45.85123" lon="4.69671">
        <ele>213.19708</ele>
        <time>2022-08-16T15:06:22.000Z</time>
      </trkpt>
      <trkpt lat="45.85124" lon="4.69673">
        <ele>212.91247</ele>
        <time>2022-08-16T15:06:23.000Z</time>
      </trkpt>
      <trkpt lat="45.85126" lon="4.69676">
        <ele>212.56708</ele>
        <time>2022-08-16T15:06:24.000Z</time>
      </trkpt>
      <trkpt lat="45.85128" lon="4.6968">
        <ele>212.17938</ele>
        <time>2022-08-16T15:06:25.000Z</time>
      </trkpt>
      <trkpt lat="45.8513" lon="4.69691">
        <ele>211.59512</ele>
        <time>2022-08-16T15:06:26.000Z</time>
      </trkpt>
      <trkpt lat="45.8513" lon="4.69699">
        <ele>211.31659</ele>
        <time>2022-08-16T15:06:27.000Z</time>
      </trkpt>
      <trkpt lat="45.85131" lon="4.69707">
        <ele>211.10565</ele>
        <time>2022-08-16T15:06:28.000Z</time>
      </trkpt>
      <trkpt lat="45.85129" lon="4.69711">
        <ele>211.00162</ele>
        <time>2022-08-16T15:06:29.000Z</time>
      </trkpt>
      <trkpt lat="45.85129" lon="4.69717">
        <ele>210.86162</ele>
        <time>2022-08-16T15:06:30.000Z</time>
      </trkpt>
      <trkpt lat="45.8513" lon="4.69722">
        <ele>210.78858</ele>
        <time>2022-08-16T15:06:31.000Z</time>
      </trkpt>
      <trkpt lat="45.85129" lon="4.69727">
        <ele>210.69934</ele>
        <time>2022-08-16T15:06:32.000Z</time>
      </trkpt>
      <trkpt lat="45.85129" lon="4.69731">
        <ele>210.64807</ele>
        <time>2022-08-16T15:06:33.000Z</time>
      </trkpt>
      <trkpt lat="45.85128" lon="4.69735">
        <ele>210.59025</ele>
        <time>2022-08-16T15:06:34.000Z</time>
      </trkpt>
      <trkpt lat="45.85129" lon="4.69738">
        <ele>210.59654</ele>
        <time>2022-08-16T15:06:36.000Z</time>
      </trkpt>
      <trkpt lat="45.8513" lon="4.69741">
        <ele>210.6451</ele>
        <time>2022-08-16T15:06:37.000Z</time>
      </trkpt>
      <trkpt lat="45.85131" lon="4.69751">
        <ele>210.81586</ele>
        <time>2022-08-16T15:06:38.000Z</time>
      </trkpt>
      <trkpt lat="45.85132" lon="4.69755">
        <ele>210.96375</ele>
        <time>2022-08-16T15:06:39.000Z</time>
      </trkpt>
      <trkpt lat="45.85133" lon="4.6976">
        <ele>211.21037</ele>
        <time>2022-08-16T15:06:41.000Z</time>
      </trkpt>
      <trkpt lat="45.85134" lon="4.69763">
        <ele>211.36274</ele>
        <time>2022-08-16T15:06:42.000Z</time>
      </trkpt>
      <trkpt lat="45.85135" lon="4.69765">
        <ele>211.52404</ele>
        <time>2022-08-16T15:06:43.000Z</time>
      </trkpt>
      <trkpt lat="45.85136" lon="4.69768">
        <ele>211.71221</ele>
        <time>2022-08-16T15:06:44.000Z</time>
      </trkpt>
      <trkpt lat="45.85136" lon="4.69772">
        <ele>211.9155</ele>
        <time>2022-08-16T15:06:45.000Z</time>
      </trkpt>
      <trkpt lat="45.85138" lon="4.69777">
        <ele>212.28104</ele>
        <time>2022-08-16T15:06:47.000Z</time>
      </trkpt>
      <trkpt lat="45.85139" lon="4.6978">
        <ele>212.50442</ele>
        <time>2022-08-16T15:06:48.000Z</time>
      </trkpt>
      <trkpt lat="45.8514" lon="4.69784">
        <ele>212.82175</ele>
        <time>2022-08-16T15:06:49.000Z</time>
      </trkpt>
      <trkpt lat="45.85141" lon="4.69789">
        <ele>213.22233</ele>
        <time>2022-08-16T15:06:50.000Z</time>
      </trkpt>
      <trkpt lat="45.85141" lon="4.69793">
        <ele>213.61057</ele>
        <time>2022-08-16T15:06:51.000Z</time>
      </trkpt>
      <trkpt lat="45.85142" lon="4.69796">
        <ele>213.91862</ele>
        <time>2022-08-16T15:06:52.000Z</time>
      </trkpt>
      <trkpt lat="45.85143" lon="4.698">
        <ele>214.46307</ele>
        <time>2022-08-16T15:06:54.000Z</time>
      </trkpt>
      <trkpt lat="45.85143" lon="4.69803">
        <ele>214.88842</ele>
        <time>2022-08-16T15:06:55.000Z</time>
      </trkpt>
      <trkpt lat="45.85144" lon="4.69806">
        <ele>215.24444</ele>
        <time>2022-08-16T15:06:56.000Z</time>
      </trkpt>
      <trkpt lat="45.85144" lon="4.69811">
        <ele>216.0617</ele>
        <time>2022-08-16T15:06:58.000Z</time>
      </trkpt>
      <trkpt lat="45.85143" lon="4.69815">
        <ele>216.63163</ele>
        <time>2022-08-16T15:06:59.000Z</time>
      </trkpt>
      <trkpt lat="45.85141" lon="4.69818">
        <ele>217.11517</ele>
        <time>2022-08-16T15:07:00.000Z</time>
      </trkpt>
      <trkpt lat="45.85139" lon="4.6982">
        <ele>217.40937</ele>
        <time>2022-08-16T15:07:01.000Z</time>
      </trkpt>
      <trkpt lat="45.85137" lon="4.69822">
        <ele>217.53771</ele>
        <time>2022-08-16T15:07:02.000Z</time>
      </trkpt>
      <trkpt lat="45.85135" lon="4.69823">
        <ele>217.58108</ele>
        <time>2022-08-16T15:07:03.000Z</time>
      </trkpt>
      <trkpt lat="45.85133" lon="4.69824">
        <ele>217.62295</ele>
        <time>2022-08-16T15:07:04.000Z</time>
      </trkpt>
      <trkpt lat="45.85131" lon="4.69825">
        <ele>217.72446</ele>
        <time>2022-08-16T15:07:05.000Z</time>
      </trkpt>
      <trkpt lat="45.8513" lon="4.69827">
        <ele>217.88127</ele>
        <time>2022-08-16T15:07:06.000Z</time>
      </trkpt>
      <trkpt lat="45.85127" lon="4.6983">
        <ele>218.21967</ele>
        <time>2022-08-16T15:07:08.000Z</time>
      </trkpt>
      <trkpt lat="45.85126" lon="4.69831">
        <ele>218.43707</ele>
        <time>2022-08-16T15:07:09.000Z</time>
      </trkpt>
      <trkpt lat="45.85124" lon="4.69835">
        <ele>218.91762</ele>
        <time>2022-08-16T15:07:11.000Z</time>
      </trkpt>
      <trkpt lat="45.85122" lon="4.69838">
        <ele>219.42535</ele>
        <time>2022-08-16T15:07:13.000Z</time>
      </trkpt>
      <trkpt lat="45.85119" lon="4.69842">
        <ele>219.98565</ele>
        <time>2022-08-16T15:07:15.000Z</time>
      </trkpt>
      <trkpt lat="45.85117" lon="4.69844">
        <ele>220.25732</ele>
        <time>2022-08-16T15:07:16.000Z</time>
      </trkpt>
      <trkpt lat="45.85115" lon="4.69846">
        <ele>220.53892</ele>
        <time>2022-08-16T15:07:17.000Z</time>
      </trkpt>
      <trkpt lat="45.85113" lon="4.69849">
        <ele>220.85271</ele>
        <time>2022-08-16T15:07:18.000Z</time>
      </trkpt>
      <trkpt lat="45.85111" lon="4.69852">
        <ele>221.22625</ele>
        <time>2022-08-16T15:07:19.000Z</time>
      </trkpt>
      <trkpt lat="45.85109" lon="4.69854">
        <ele>221.50023</ele>
        <time>2022-08-16T15:07:20.000Z</time>
      </trkpt>
      <trkpt lat="45.85108" lon="4.69859">
        <ele>222.19376</ele>
        <time>2022-08-16T15:07:22.000Z</time>
      </trkpt>
      <trkpt lat="45.85106" lon="4.69862">
        <ele>222.56866</ele>
        <time>2022-08-16T15:07:23.000Z</time>
      </trkpt>
      <trkpt lat="45.85105" lon="4.69864">
        <ele>222.80711</ele>
        <time>2022-08-16T15:07:24.000Z</time>
      </trkpt>
      <trkpt lat="45.85103" lon="4.69866">
        <ele>223.08706</ele>
        <time>2022-08-16T15:07:25.000Z</time>
      </trkpt>
      <trkpt lat="45.851" lon="4.69869">
        <ele>223.57582</ele>
        <time>2022-08-16T15:07:27.000Z</time>
      </trkpt>
      <trkpt lat="45.85092" lon="4.69875">
        <ele>224.16516</ele>
        <time>2022-08-16T15:07:33.000Z</time>
      </trkpt>
      <trkpt lat="45.85089" lon="4.69877">
        <ele>224.3445</ele>
        <time>2022-08-16T15:07:35.000Z</time>
      </trkpt>
      <trkpt lat="45.85086" lon="4.6988">
        <ele>224.69473</ele>
        <time>2022-08-16T15:07:37.000Z</time>
      </trkpt>
      <trkpt lat="45.85084" lon="4.69881">
        <ele>224.85895</ele>
        <time>2022-08-16T15:07:38.000Z</time>
      </trkpt>
      <trkpt lat="45.85082" lon="4.69882">
        <ele>225.0191</ele>
        <time>2022-08-16T15:07:39.000Z</time>
      </trkpt>
      <trkpt lat="45.85079" lon="4.69884">
        <ele>225.25206</ele>
        <time>2022-08-16T15:07:41.000Z</time>
      </trkpt>
      <trkpt lat="45.85077" lon="4.69886">
        <ele>225.52131</ele>
        <time>2022-08-16T15:07:43.000Z</time>
      </trkpt>
      <trkpt lat="45.85076" lon="4.69889">
        <ele>225.91897</ele>
        <time>2022-08-16T15:07:46.000Z</time>
      </trkpt>
      <trkpt lat="45.85074" lon="4.6989">
        <ele>225.98092</ele>
        <time>2022-08-16T15:07:55.000Z</time>
      </trkpt>
      <trkpt lat="45.85072" lon="4.6989">
        <ele>225.98745</ele>
        <time>2022-08-16T15:07:57.000Z</time>
      </trkpt>
      <trkpt lat="45.8507" lon="4.6989">
        <ele>225.94944</ele>
        <time>2022-08-16T15:07:58.000Z</time>
      </trkpt>
      <trkpt lat="45.85066" lon="4.6989">
        <ele>225.90485</ele>
        <time>2022-08-16T15:07:59.000Z</time>
      </trkpt>
      <trkpt lat="45.85065" lon="4.69891">
        <ele>225.97606</ele>
        <time>2022-08-16T15:08:00.000Z</time>
      </trkpt>
      <trkpt lat="45.85061" lon="4.69891">
        <ele>226.04077</ele>
        <time>2022-08-16T15:08:02.000Z</time>
      </trkpt>
      <trkpt lat="45.85059" lon="4.69892">
        <ele>226.09876</ele>
        <time>2022-08-16T15:08:03.000Z</time>
      </trkpt>
      <trkpt lat="45.85056" lon="4.69893">
        <ele>226.3256</ele>
        <time>2022-08-16T15:08:05.000Z</time>
      </trkpt>
      <trkpt lat="45.85055" lon="4.69895">
        <ele>226.61961</ele>
        <time>2022-08-16T15:08:07.000Z</time>
      </trkpt>
      <trkpt lat="45.85051" lon="4.69895">
        <ele>226.69722</ele>
        <time>2022-08-16T15:08:09.000Z</time>
      </trkpt>
      <trkpt lat="45.85049" lon="4.69895">
        <ele>226.67938</ele>
        <time>2022-08-16T15:08:10.000Z</time>
      </trkpt>
      <trkpt lat="45.85047" lon="4.69896">
        <ele>226.73155</ele>
        <time>2022-08-16T15:08:11.000Z</time>
      </trkpt>
      <trkpt lat="45.85044" lon="4.69897">
        <ele>226.96015</ele>
        <time>2022-08-16T15:08:14.000Z</time>
      </trkpt>
      <trkpt lat="45.85042" lon="4.69898">
        <ele>227.12464</ele>
        <time>2022-08-16T15:08:15.000Z</time>
      </trkpt>
      <trkpt lat="45.8504" lon="4.69898">
        <ele>227.23098</ele>
        <time>2022-08-16T15:08:16.000Z</time>
      </trkpt>
      <trkpt lat="45.85038" lon="4.69898">
        <ele>227.21762</ele>
        <time>2022-08-16T15:08:18.000Z</time>
      </trkpt>
      <trkpt lat="45.85036" lon="4.69897">
        <ele>227.08769</ele>
        <time>2022-08-16T15:08:21.000Z</time>
      </trkpt>
      <trkpt lat="45.85034" lon="4.69895">
        <ele>226.91336</ele>
        <time>2022-08-16T15:08:25.000Z</time>
      </trkpt>
      <trkpt lat="45.85032" lon="4.69897">
        <ele>227.286</ele>
        <time>2022-08-16T15:08:27.000Z</time>
      </trkpt>
      <trkpt lat="45.85029" lon="4.699">
        <ele>227.85848</ele>
        <time>2022-08-16T15:08:29.000Z</time>
      </trkpt>
      <trkpt lat="45.85026" lon="4.69902">
        <ele>228.40804</ele>
        <time>2022-08-16T15:08:31.000Z</time>
      </trkpt>
      <trkpt lat="45.85024" lon="4.69904">
        <ele>228.85187</ele>
        <time>2022-08-16T15:08:33.000Z</time>
      </trkpt>
      <trkpt lat="45.85021" lon="4.69907">
        <ele>229.40179</ele>
        <time>2022-08-16T15:08:35.000Z</time>
      </trkpt>
      <trkpt lat="45.85019" lon="4.69908">
        <ele>229.71418</ele>
        <time>2022-08-16T15:08:36.000Z</time>
      </trkpt>
      <trkpt lat="45.85017" lon="4.69909">
        <ele>230.00444</ele>
        <time>2022-08-16T15:08:37.000Z</time>
      </trkpt>
      <trkpt lat="45.85015" lon="4.69911">
        <ele>230.48854</ele>
        <time>2022-08-16T15:08:39.000Z</time>
      </trkpt>
      <trkpt lat="45.85012" lon="4.69914">
        <ele>231.01259</ele>
        <time>2022-08-16T15:08:41.000Z</time>
      </trkpt>
      <trkpt lat="45.85009" lon="4.69916">
        <ele>231.50891</ele>
        <time>2022-08-16T15:08:43.000Z</time>
      </trkpt>
      <trkpt lat="45.85007" lon="4.69917">
        <ele>231.82122</ele>
        <time>2022-08-16T15:08:44.000Z</time>
      </trkpt>
      <trkpt lat="45.85005" lon="4.69919">
        <ele>232.17362</ele>
        <time>2022-08-16T15:08:45.000Z</time>
      </trkpt>
      <trkpt lat="45.85003" lon="4.69922">
        <ele>232.78529</ele>
        <time>2022-08-16T15:08:47.000Z</time>
      </trkpt>
      <trkpt lat="45.85001" lon="4.69925">
        <ele>233.12131</ele>
        <time>2022-08-16T15:08:48.000Z</time>
      </trkpt>
      <trkpt lat="45.84999" lon="4.69927">
        <ele>233.57633</ele>
        <time>2022-08-16T15:08:50.000Z</time>
      </trkpt>
      <trkpt lat="45.84996" lon="4.69929">
        <ele>233.98137</ele>
        <time>2022-08-16T15:08:52.000Z</time>
      </trkpt>
      <trkpt lat="45.84994" lon="4.69931">
        <ele>234.30646</ele>
        <time>2022-08-16T15:08:53.000Z</time>
      </trkpt>
      <trkpt lat="45.84991" lon="4.69933">
        <ele>234.65831</ele>
        <time>2022-08-16T15:08:54.000Z</time>
      </trkpt>
      <trkpt lat="45.84988" lon="4.69934">
        <ele>235.01373</ele>
        <time>2022-08-16T15:08:55.000Z</time>
      </trkpt>
      <trkpt lat="45.84986" lon="4.69936">
        <ele>235.30359</ele>
        <time>2022-08-16T15:08:56.000Z</time>
      </trkpt>
      <trkpt lat="45.84984" lon="4.69938">
        <ele>235.6186</ele>
        <time>2022-08-16T15:08:57.000Z</time>
      </trkpt>
      <trkpt lat="45.84982" lon="4.6994">
        <ele>235.95285</ele>
        <time>2022-08-16T15:08:58.000Z</time>
      </trkpt>
      <trkpt lat="45.8498" lon="4.69942">
        <ele>236.20978</ele>
        <time>2022-08-16T15:08:59.000Z</time>
      </trkpt>
      <trkpt lat="45.84976" lon="4.69945">
        <ele>236.67701</ele>
        <time>2022-08-16T15:09:01.000Z</time>
      </trkpt>
      <trkpt lat="45.84974" lon="4.69946">
        <ele>236.89471</ele>
        <time>2022-08-16T15:09:02.000Z</time>
      </trkpt>
      <trkpt lat="45.84972" lon="4.69947">
        <ele>237.10481</ele>
        <time>2022-08-16T15:09:03.000Z</time>
      </trkpt>
      <trkpt lat="45.84969" lon="4.69948">
        <ele>237.44031</ele>
        <time>2022-08-16T15:09:05.000Z</time>
      </trkpt>
      <trkpt lat="45.84967" lon="4.69949">
        <ele>237.62116</ele>
        <time>2022-08-16T15:09:06.000Z</time>
      </trkpt>
      <trkpt lat="45.84966" lon="4.6995">
        <ele>237.80506</ele>
        <time>2022-08-16T15:09:07.000Z</time>
      </trkpt>
      <trkpt lat="45.84964" lon="4.69951">
        <ele>238.00102</ele>
        <time>2022-08-16T15:09:08.000Z</time>
      </trkpt>
      <trkpt lat="45.8496" lon="4.69951">
        <ele>238.22345</ele>
        <time>2022-08-16T15:09:10.000Z</time>
      </trkpt>
      <trkpt lat="45.84957" lon="4.69951">
        <ele>238.41555</ele>
        <time>2022-08-16T15:09:12.000Z</time>
      </trkpt>
      <trkpt lat="45.84955" lon="4.69951">
        <ele>238.55323</ele>
        <time>2022-08-16T15:09:13.000Z</time>
      </trkpt>
      <trkpt lat="45.84952" lon="4.6995">
        <ele>238.74785</ele>
        <time>2022-08-16T15:09:15.000Z</time>
      </trkpt>
      <trkpt lat="45.84949" lon="4.6995">
        <ele>238.92065</ele>
        <time>2022-08-16T15:09:16.000Z</time>
      </trkpt>
      <trkpt lat="45.84946" lon="4.6995">
        <ele>239.10612</ele>
        <time>2022-08-16T15:09:17.000Z</time>
      </trkpt>
      <trkpt lat="45.84944" lon="4.6995">
        <ele>239.25452</ele>
        <time>2022-08-16T15:09:18.000Z</time>
      </trkpt>
      <trkpt lat="45.84941" lon="4.6995">
        <ele>239.47806</ele>
        <time>2022-08-16T15:09:20.000Z</time>
      </trkpt>
      <trkpt lat="45.84938" lon="4.69952">
        <ele>239.80545</ele>
        <time>2022-08-16T15:09:22.000Z</time>
      </trkpt>
      <trkpt lat="45.84936" lon="4.69952">
        <ele>239.9748</ele>
        <time>2022-08-16T15:09:23.000Z</time>
      </trkpt>
      <trkpt lat="45.84934" lon="4.69952">
        <ele>240.1047</ele>
        <time>2022-08-16T15:09:24.000Z</time>
      </trkpt>
      <trkpt lat="45.84932" lon="4.69952">
        <ele>240.23437</ele>
        <time>2022-08-16T15:09:25.000Z</time>
      </trkpt>
      <trkpt lat="45.8493" lon="4.69951">
        <ele>240.36513</ele>
        <time>2022-08-16T15:09:26.000Z</time>
      </trkpt>
      <trkpt lat="45.84927" lon="4.6995">
        <ele>240.48216</ele>
        <time>2022-08-16T15:09:27.000Z</time>
      </trkpt>
      <trkpt lat="45.84925" lon="4.69949">
        <ele>240.55618</ele>
        <time>2022-08-16T15:09:28.000Z</time>
      </trkpt>
      <trkpt lat="45.84923" lon="4.69949">
        <ele>240.68149</ele>
        <time>2022-08-16T15:09:29.000Z</time>
      </trkpt>
      <trkpt lat="45.84921" lon="4.69949">
        <ele>240.83154</ele>
        <time>2022-08-16T15:09:30.000Z</time>
      </trkpt>
      <trkpt lat="45.84919" lon="4.69949">
        <ele>241.04509</ele>
        <time>2022-08-16T15:09:31.000Z</time>
      </trkpt>
      <trkpt lat="45.84917" lon="4.69949">
        <ele>241.24812</ele>
        <time>2022-08-16T15:09:32.000Z</time>
      </trkpt>
      <trkpt lat="45.84915" lon="4.6995">
        <ele>241.47481</ele>
        <time>2022-08-16T15:09:33.000Z</time>
      </trkpt>
      <trkpt lat="45.84913" lon="4.6995">
        <ele>241.69615</ele>
        <time>2022-08-16T15:09:34.000Z</time>
      </trkpt>
      <trkpt lat="45.84911" lon="4.6995">
        <ele>241.91922</ele>
        <time>2022-08-16T15:09:35.000Z</time>
      </trkpt>
      <trkpt lat="45.84909" lon="4.6995">
        <ele>242.12541</ele>
        <time>2022-08-16T15:09:36.000Z</time>
      </trkpt>
      <trkpt lat="45.84907" lon="4.6995">
        <ele>242.35422</ele>
        <time>2022-08-16T15:09:37.000Z</time>
      </trkpt>
      <trkpt lat="45.84905" lon="4.69951">
        <ele>242.57566</ele>
        <time>2022-08-16T15:09:38.000Z</time>
      </trkpt>
      <trkpt lat="45.84902" lon="4.69952">
        <ele>243.01178</ele>
        <time>2022-08-16T15:09:40.000Z</time>
      </trkpt>
      <trkpt lat="45.849" lon="4.69954">
        <ele>243.46226</ele>
        <time>2022-08-16T15:09:42.000Z</time>
      </trkpt>
      <trkpt lat="45.84898" lon="4.69955">
        <ele>243.72133</ele>
        <time>2022-08-16T15:09:45.000Z</time>
      </trkpt>
      <trkpt lat="45.84896" lon="4.69955">
        <ele>243.95394</ele>
        <time>2022-08-16T15:09:47.000Z</time>
      </trkpt>
      <trkpt lat="45.84893" lon="4.69956">
        <ele>244.35714</ele>
        <time>2022-08-16T15:09:49.000Z</time>
      </trkpt>
      <trkpt lat="45.84891" lon="4.69956">
        <ele>244.63123</ele>
        <time>2022-08-16T15:09:51.000Z</time>
      </trkpt>
      <trkpt lat="45.84887" lon="4.69956">
        <ele>244.99137</ele>
        <time>2022-08-16T15:09:53.000Z</time>
      </trkpt>
      <trkpt lat="45.84883" lon="4.69956">
        <ele>245.41529</ele>
        <time>2022-08-16T15:09:55.000Z</time>
      </trkpt>
      <trkpt lat="45.84881" lon="4.69957">
        <ele>245.67332</ele>
        <time>2022-08-16T15:09:56.000Z</time>
      </trkpt>
      <trkpt lat="45.84879" lon="4.69957">
        <ele>245.93568</ele>
        <time>2022-08-16T15:09:57.000Z</time>
      </trkpt>
      <trkpt lat="45.84878" lon="4.69958">
        <ele>246.21471</ele>
        <time>2022-08-16T15:09:58.000Z</time>
      </trkpt>
      <trkpt lat="45.84875" lon="4.69961">
        <ele>246.72236</ele>
        <time>2022-08-16T15:10:00.000Z</time>
      </trkpt>
      <trkpt lat="45.84872" lon="4.69962">
        <ele>247.12678</ele>
        <time>2022-08-16T15:10:02.000Z</time>
      </trkpt>
      <trkpt lat="45.8487" lon="4.69962">
        <ele>247.24618</ele>
        <time>2022-08-16T15:10:03.000Z</time>
      </trkpt>
      <trkpt lat="45.84868" lon="4.69961">
        <ele>247.35872</ele>
        <time>2022-08-16T15:10:04.000Z</time>
      </trkpt>
      <trkpt lat="45.84865" lon="4.69961">
        <ele>247.58914</ele>
        <time>2022-08-16T15:10:06.000Z</time>
      </trkpt>
      <trkpt lat="45.84862" lon="4.69961">
        <ele>247.89032</ele>
        <time>2022-08-16T15:10:08.000Z</time>
      </trkpt>
      <trkpt lat="45.8486" lon="4.69964">
        <ele>248.28968</ele>
        <time>2022-08-16T15:10:10.000Z</time>
      </trkpt>
      <trkpt lat="45.84859" lon="4.69966">
        <ele>248.67881</ele>
        <time>2022-08-16T15:10:12.000Z</time>
      </trkpt>
      <trkpt lat="45.84859" lon="4.69969">
        <ele>248.95831</ele>
        <time>2022-08-16T15:10:18.000Z</time>
      </trkpt>
      <trkpt lat="45.84857" lon="4.6997">
        <ele>249.20416</ele>
        <time>2022-08-16T15:10:24.000Z</time>
      </trkpt>
      <trkpt lat="45.84857" lon="4.69967">
        <ele>248.93409</ele>
        <time>2022-08-16T15:10:36.000Z</time>
      </trkpt>
      <trkpt lat="45.84855" lon="4.6997">
        <ele>249.34335</ele>
        <time>2022-08-16T15:10:53.000Z</time>
      </trkpt>
      <trkpt lat="45.84854" lon="4.69972">
        <ele>249.73557</ele>
        <time>2022-08-16T15:10:55.000Z</time>
      </trkpt>
      <trkpt lat="45.84852" lon="4.69975">
        <ele>250.20803</ele>
        <time>2022-08-16T15:10:58.000Z</time>
      </trkpt>
      <trkpt lat="45.8485" lon="4.69977">
        <ele>250.4978</ele>
        <time>2022-08-16T15:10:59.000Z</time>
      </trkpt>
      <trkpt lat="45.84849" lon="4.69979">
        <ele>250.81925</ele>
        <time>2022-08-16T15:11:01.000Z</time>
      </trkpt>
      <trkpt lat="45.84847" lon="4.69981">
        <ele>251.16268</ele>
        <time>2022-08-16T15:11:03.000Z</time>
      </trkpt>
      <trkpt lat="45.84845" lon="4.69982">
        <ele>251.46618</ele>
        <time>2022-08-16T15:11:05.000Z</time>
      </trkpt>
      <trkpt lat="45.84842" lon="4.69983">
        <ele>251.77779</ele>
        <time>2022-08-16T15:11:08.000Z</time>
      </trkpt>
      <trkpt lat="45.84841" lon="4.69985">
        <ele>252.11489</ele>
        <time>2022-08-16T15:11:11.000Z</time>
      </trkpt>
      <trkpt lat="45.8484" lon="4.69988">
        <ele>252.46019</ele>
        <time>2022-08-16T15:11:13.000Z</time>
      </trkpt>
      <trkpt lat="45.84838" lon="4.6999">
        <ele>252.75725</ele>
        <time>2022-08-16T15:11:14.000Z</time>
      </trkpt>
      <trkpt lat="45.84836" lon="4.69991">
        <ele>253.02031</ele>
        <time>2022-08-16T15:11:17.000Z</time>
      </trkpt>
      <trkpt lat="45.84832" lon="4.69993">
        <ele>253.43611</ele>
        <time>2022-08-16T15:11:19.000Z</time>
      </trkpt>
      <trkpt lat="45.8483" lon="4.69994">
        <ele>253.7568</ele>
        <time>2022-08-16T15:11:21.000Z</time>
      </trkpt>
      <trkpt lat="45.84828" lon="4.69996">
        <ele>254.03182</ele>
        <time>2022-08-16T15:11:26.000Z</time>
      </trkpt>
      <trkpt lat="45.84825" lon="4.69995">
        <ele>254.17749</ele>
        <time>2022-08-16T15:11:28.000Z</time>
      </trkpt>
      <trkpt lat="45.84824" lon="4.69997">
        <ele>254.47087</ele>
        <time>2022-08-16T15:11:31.000Z</time>
      </trkpt>
      <trkpt lat="45.84823" lon="4.70001">
        <ele>254.83842</ele>
        <time>2022-08-16T15:11:33.000Z</time>
      </trkpt>
      <trkpt lat="45.84821" lon="4.70004">
        <ele>255.17182</ele>
        <time>2022-08-16T15:11:35.000Z</time>
      </trkpt>
      <trkpt lat="45.84819" lon="4.70005">
        <ele>255.38105</ele>
        <time>2022-08-16T15:11:36.000Z</time>
      </trkpt>
      <trkpt lat="45.84817" lon="4.70006">
        <ele>255.63938</ele>
        <time>2022-08-16T15:11:38.000Z</time>
      </trkpt>
      <trkpt lat="45.84814" lon="4.70007">
        <ele>255.98205</ele>
        <time>2022-08-16T15:11:40.000Z</time>
      </trkpt>
      <trkpt lat="45.84812" lon="4.70009">
        <ele>256.21652</ele>
        <time>2022-08-16T15:11:45.000Z</time>
      </trkpt>
      <trkpt lat="45.84809" lon="4.70011">
        <ele>256.65079</ele>
        <time>2022-08-16T15:11:48.000Z</time>
      </trkpt>
      <trkpt lat="45.84807" lon="4.70013">
        <ele>256.95999</ele>
        <time>2022-08-16T15:11:49.000Z</time>
      </trkpt>
      <trkpt lat="45.84805" lon="4.70015">
        <ele>257.30569</ele>
        <time>2022-08-16T15:11:50.000Z</time>
      </trkpt>
      <trkpt lat="45.84803" lon="4.70016">
        <ele>257.55519</ele>
        <time>2022-08-16T15:11:51.000Z</time>
      </trkpt>
      <trkpt lat="45.84801" lon="4.70016">
        <ele>257.73276</ele>
        <time>2022-08-16T15:11:52.000Z</time>
      </trkpt>
      <trkpt lat="45.84799" lon="4.70015">
        <ele>257.84632</ele>
        <time>2022-08-16T15:11:53.000Z</time>
      </trkpt>
      <trkpt lat="45.84795" lon="4.70015">
        <ele>258.15401</ele>
        <time>2022-08-16T15:11:55.000Z</time>
      </trkpt>
      <trkpt lat="45.84793" lon="4.70017">
        <ele>258.50797</ele>
        <time>2022-08-16T15:11:57.000Z</time>
      </trkpt>
      <trkpt lat="45.84789" lon="4.70017">
        <ele>258.81244</ele>
        <time>2022-08-16T15:11:59.000Z</time>
      </trkpt>
      <trkpt lat="45.84787" lon="4.70018">
        <ele>258.94329</ele>
        <time>2022-08-16T15:12:00.000Z</time>
      </trkpt>
      <trkpt lat="45.84785" lon="4.70017">
        <ele>259.05034</ele>
        <time>2022-08-16T15:12:01.000Z</time>
      </trkpt>
      <trkpt lat="45.84783" lon="4.70016">
        <ele>259.12862</ele>
        <time>2022-08-16T15:12:02.000Z</time>
      </trkpt>
      <trkpt lat="45.8478" lon="4.70015">
        <ele>259.20397</ele>
        <time>2022-08-16T15:12:03.000Z</time>
      </trkpt>
      <trkpt lat="45.84778" lon="4.70015">
        <ele>259.25921</ele>
        <time>2022-08-16T15:12:04.000Z</time>
      </trkpt>
      <trkpt lat="45.84775" lon="4.70014">
        <ele>259.36634</ele>
        <time>2022-08-16T15:12:06.000Z</time>
      </trkpt>
      <trkpt lat="45.84773" lon="4.70014">
        <ele>259.48146</ele>
        <time>2022-08-16T15:12:07.000Z</time>
      </trkpt>
      <trkpt lat="45.8477" lon="4.70014">
        <ele>259.61268</ele>
        <time>2022-08-16T15:12:08.000Z</time>
      </trkpt>
      <trkpt lat="45.84767" lon="4.70014">
        <ele>259.74951</ele>
        <time>2022-08-16T15:12:09.000Z</time>
      </trkpt>
      <trkpt lat="45.84764" lon="4.70015">
        <ele>259.95104</ele>
        <time>2022-08-16T15:12:10.000Z</time>
      </trkpt>
      <trkpt lat="45.84762" lon="4.70016">
        <ele>260.16403</ele>
        <time>2022-08-16T15:12:11.000Z</time>
      </trkpt>
      <trkpt lat="45.84759" lon="4.70017">
        <ele>260.35856</ele>
        <time>2022-08-16T15:12:12.000Z</time>
      </trkpt>
      <trkpt lat="45.84756" lon="4.70019">
        <ele>260.55402</ele>
        <time>2022-08-16T15:12:13.000Z</time>
      </trkpt>
      <trkpt lat="45.84754" lon="4.7002">
        <ele>260.72725</ele>
        <time>2022-08-16T15:12:14.000Z</time>
      </trkpt>
      <trkpt lat="45.84752" lon="4.70022">
        <ele>260.89517</ele>
        <time>2022-08-16T15:12:15.000Z</time>
      </trkpt>
      <trkpt lat="45.8475" lon="4.70024">
        <ele>261.09605</ele>
        <time>2022-08-16T15:12:16.000Z</time>
      </trkpt>
      <trkpt lat="45.84748" lon="4.70026">
        <ele>261.25466</ele>
        <time>2022-08-16T15:12:17.000Z</time>
      </trkpt>
      <trkpt lat="45.84747" lon="4.70027">
        <ele>261.42629</ele>
        <time>2022-08-16T15:12:18.000Z</time>
      </trkpt>
      <trkpt lat="45.84745" lon="4.70029">
        <ele>261.60622</ele>
        <time>2022-08-16T15:12:19.000Z</time>
      </trkpt>
      <trkpt lat="45.84742" lon="4.7003">
        <ele>261.77053</ele>
        <time>2022-08-16T15:12:20.000Z</time>
      </trkpt>
      <trkpt lat="45.8474" lon="4.70032">
        <ele>261.95431</ele>
        <time>2022-08-16T15:12:21.000Z</time>
      </trkpt>
      <trkpt lat="45.84738" lon="4.70033">
        <ele>262.12071</ele>
        <time>2022-08-16T15:12:22.000Z</time>
      </trkpt>
      <trkpt lat="45.84736" lon="4.70035">
        <ele>262.27068</ele>
        <time>2022-08-16T15:12:23.000Z</time>
      </trkpt>
      <trkpt lat="45.84734" lon="4.70036">
        <ele>262.49472</ele>
        <time>2022-08-16T15:12:24.000Z</time>
      </trkpt>
      <trkpt lat="45.84732" lon="4.70038">
        <ele>262.72616</ele>
        <time>2022-08-16T15:12:25.000Z</time>
      </trkpt>
      <trkpt lat="45.84729" lon="4.70041">
        <ele>263.01778</ele>
        <time>2022-08-16T15:12:26.000Z</time>
      </trkpt>
      <trkpt lat="45.84727" lon="4.70044">
        <ele>263.29314</ele>
        <time>2022-08-16T15:12:27.000Z</time>
      </trkpt>
      <trkpt lat="45.84725" lon="4.70047">
        <ele>263.55715</ele>
        <time>2022-08-16T15:12:28.000Z</time>
      </trkpt>
      <trkpt lat="45.84723" lon="4.7005">
        <ele>263.81675</ele>
        <time>2022-08-16T15:12:29.000Z</time>
      </trkpt>
      <trkpt lat="45.84721" lon="4.70053">
        <ele>264.05427</ele>
        <time>2022-08-16T15:12:30.000Z</time>
      </trkpt>
      <trkpt lat="45.84719" lon="4.70055">
        <ele>264.26312</ele>
        <time>2022-08-16T15:12:31.000Z</time>
      </trkpt>
      <trkpt lat="45.84718" lon="4.70059">
        <ele>264.53065</ele>
        <time>2022-08-16T15:12:32.000Z</time>
      </trkpt>
      <trkpt lat="45.84716" lon="4.70063">
        <ele>264.84063</ele>
        <time>2022-08-16T15:12:33.000Z</time>
      </trkpt>
      <trkpt lat="45.84715" lon="4.70067">
        <ele>265.08829</ele>
        <time>2022-08-16T15:12:34.000Z</time>
      </trkpt>
      <trkpt lat="45.84714" lon="4.7007">
        <ele>265.30456</ele>
        <time>2022-08-16T15:12:35.000Z</time>
      </trkpt>
      <trkpt lat="45.84712" lon="4.70072">
        <ele>265.48135</ele>
        <time>2022-08-16T15:12:36.000Z</time>
      </trkpt>
      <trkpt lat="45.8471" lon="4.70074">
        <ele>265.63981</ele>
        <time>2022-08-16T15:12:37.000Z</time>
      </trkpt>
      <trkpt lat="45.84707" lon="4.70076">
        <ele>265.78506</ele>
        <time>2022-08-16T15:12:38.000Z</time>
      </trkpt>
      <trkpt lat="45.84705" lon="4.70078">
        <ele>265.93324</ele>
        <time>2022-08-16T15:12:39.000Z</time>
      </trkpt>
      <trkpt lat="45.84702" lon="4.70079">
        <ele>266.04939</ele>
        <time>2022-08-16T15:12:40.000Z</time>
      </trkpt>
      <trkpt lat="45.847" lon="4.7008">
        <ele>266.12653</ele>
        <time>2022-08-16T15:12:41.000Z</time>
      </trkpt>
      <trkpt lat="45.84698" lon="4.70081">
        <ele>266.17357</ele>
        <time>2022-08-16T15:12:42.000Z</time>
      </trkpt>
      <trkpt lat="45.84696" lon="4.70081">
        <ele>266.21557</ele>
        <time>2022-08-16T15:12:43.000Z</time>
      </trkpt>
      <trkpt lat="45.84695" lon="4.7008">
        <ele>266.21962</ele>
        <time>2022-08-16T15:12:44.000Z</time>
      </trkpt>
      <trkpt lat="45.84693" lon="4.7008">
        <ele>266.27554</ele>
        <time>2022-08-16T15:12:45.000Z</time>
      </trkpt>
      <trkpt lat="45.8469" lon="4.70081">
        <ele>266.39657</ele>
        <time>2022-08-16T15:12:46.000Z</time>
      </trkpt>
      <trkpt lat="45.84688" lon="4.70082">
        <ele>266.54135</ele>
        <time>2022-08-16T15:12:47.000Z</time>
      </trkpt>
      <trkpt lat="45.84686" lon="4.70082">
        <ele>266.62236</ele>
        <time>2022-08-16T15:12:48.000Z</time>
      </trkpt>
      <trkpt lat="45.84684" lon="4.70083">
        <ele>266.70648</ele>
        <time>2022-08-16T15:12:49.000Z</time>
      </trkpt>
      <trkpt lat="45.8468" lon="4.70083">
        <ele>266.85542</ele>
        <time>2022-08-16T15:12:51.000Z</time>
      </trkpt>
      <trkpt lat="45.84678" lon="4.70083">
        <ele>266.96039</ele>
        <time>2022-08-16T15:12:52.000Z</time>
      </trkpt>
      <trkpt lat="45.84676" lon="4.70084">
        <ele>267.05758</ele>
        <time>2022-08-16T15:12:53.000Z</time>
      </trkpt>
      <trkpt lat="45.84674" lon="4.70084">
        <ele>267.12122</ele>
        <time>2022-08-16T15:12:55.000Z</time>
      </trkpt>
      <trkpt lat="45.84673" lon="4.70084">
        <ele>267.17049</ele>
        <time>2022-08-16T15:12:57.000Z</time>
      </trkpt>
      <trkpt lat="45.84669" lon="4.70084">
        <ele>267.30369</ele>
        <time>2022-08-16T15:12:59.000Z</time>
      </trkpt>
      <trkpt lat="45.84666" lon="4.70085">
        <ele>267.47544</ele>
        <time>2022-08-16T15:13:01.000Z</time>
      </trkpt>
      <trkpt lat="45.84665" lon="4.70086">
        <ele>267.63282</ele>
        <time>2022-08-16T15:13:02.000Z</time>
      </trkpt>
      <trkpt lat="45.84663" lon="4.70089">
        <ele>267.84625</ele>
        <time>2022-08-16T15:13:03.000Z</time>
      </trkpt>
      <trkpt lat="45.84662" lon="4.70091">
        <ele>268.03253</ele>
        <time>2022-08-16T15:13:04.000Z</time>
      </trkpt>
      <trkpt lat="45.8466" lon="4.70094">
        <ele>268.20767</ele>
        <time>2022-08-16T15:13:05.000Z</time>
      </trkpt>
      <trkpt lat="45.84659" lon="4.70096">
        <ele>268.38755</ele>
        <time>2022-08-16T15:13:06.000Z</time>
      </trkpt>
      <trkpt lat="45.84657" lon="4.70098">
        <ele>268.56942</ele>
        <time>2022-08-16T15:13:07.000Z</time>
      </trkpt>
      <trkpt lat="45.84656" lon="4.70101">
        <ele>268.76134</ele>
        <time>2022-08-16T15:13:08.000Z</time>
      </trkpt>
      <trkpt lat="45.84655" lon="4.70103">
        <ele>268.96011</ele>
        <time>2022-08-16T15:13:09.000Z</time>
      </trkpt>
      <trkpt lat="45.84654" lon="4.70106">
        <ele>269.14728</ele>
        <time>2022-08-16T15:13:10.000Z</time>
      </trkpt>
      <trkpt lat="45.84652" lon="4.70109">
        <ele>269.36395</ele>
        <time>2022-08-16T15:13:11.000Z</time>
      </trkpt>
      <trkpt lat="45.8465" lon="4.70112">
        <ele>269.59096</ele>
        <time>2022-08-16T15:13:12.000Z</time>
      </trkpt>
      <trkpt lat="45.84648" lon="4.70114">
        <ele>269.76413</ele>
        <time>2022-08-16T15:13:13.000Z</time>
      </trkpt>
      <trkpt lat="45.84647" lon="4.70116">
        <ele>269.94436</ele>
        <time>2022-08-16T15:13:14.000Z</time>
      </trkpt>
      <trkpt lat="45.84645" lon="4.70119">
        <ele>270.15854</ele>
        <time>2022-08-16T15:13:15.000Z</time>
      </trkpt>
      <trkpt lat="45.84644" lon="4.70121">
        <ele>270.30797</ele>
        <time>2022-08-16T15:13:16.000Z</time>
      </trkpt>
      <trkpt lat="45.84642" lon="4.70123">
        <ele>270.46661</ele>
        <time>2022-08-16T15:13:17.000Z</time>
      </trkpt>
      <trkpt lat="45.84641" lon="4.70125">
        <ele>270.61845</ele>
        <time>2022-08-16T15:13:18.000Z</time>
      </trkpt>
      <trkpt lat="45.84639" lon="4.70129">
        <ele>270.91022</ele>
        <time>2022-08-16T15:13:20.000Z</time>
      </trkpt>
      <trkpt lat="45.84637" lon="4.7013">
        <ele>271.06706</ele>
        <time>2022-08-16T15:13:21.000Z</time>
      </trkpt>
      <trkpt lat="45.84636" lon="4.70132">
        <ele>271.21954</ele>
        <time>2022-08-16T15:13:22.000Z</time>
      </trkpt>
      <trkpt lat="45.84634" lon="4.70136">
        <ele>271.49965</ele>
        <time>2022-08-16T15:13:24.000Z</time>
      </trkpt>
      <trkpt lat="45.84632" lon="4.70138">
        <ele>271.66556</ele>
        <time>2022-08-16T15:13:25.000Z</time>
      </trkpt>
      <trkpt lat="45.8463" lon="4.7014">
        <ele>271.91529</ele>
        <time>2022-08-16T15:13:27.000Z</time>
      </trkpt>
      <trkpt lat="45.84628" lon="4.70142">
        <ele>272.06292</ele>
        <time>2022-08-16T15:13:29.000Z</time>
      </trkpt>
      <trkpt lat="45.84627" lon="4.70144">
        <ele>272.24877</ele>
        <time>2022-08-16T15:13:32.000Z</time>
      </trkpt>
      <trkpt lat="45.84626" lon="4.70146">
        <ele>272.41813</ele>
        <time>2022-08-16T15:13:44.000Z</time>
      </trkpt>
      <trkpt lat="45.84626" lon="4.7015">
        <ele>272.61354</ele>
        <time>2022-08-16T15:14:00.000Z</time>
      </trkpt>
      <trkpt lat="45.84624" lon="4.7015">
        <ele>272.73403</ele>
        <time>2022-08-16T15:15:00.000Z</time>
      </trkpt>
      <trkpt lat="45.84622" lon="4.70152">
        <ele>272.92315</ele>
        <time>2022-08-16T15:15:03.000Z</time>
      </trkpt>
      <trkpt lat="45.84622" lon="4.70156">
        <ele>273.10572</ele>
        <time>2022-08-16T15:15:11.000Z</time>
      </trkpt>
      <trkpt lat="45.84622" lon="4.70158">
        <ele>273.26354</ele>
        <time>2022-08-16T15:18:32.000Z</time>
      </trkpt>
      <trkpt lat="45.84624" lon="4.70155">
        <ele>272.99447</ele>
        <time>2022-08-16T15:19:12.000Z</time>
      </trkpt>
      <trkpt lat="45.84623" lon="4.70151">
        <ele>272.8086</ele>
        <time>2022-08-16T15:19:15.000Z</time>
      </trkpt>
      <trkpt lat="45.84621" lon="4.70148">
        <ele>272.74779</ele>
        <time>2022-08-16T15:19:17.000Z</time>
      </trkpt>
      <trkpt lat="45.8462" lon="4.70146">
        <ele>272.75046</ele>
        <time>2022-08-16T15:19:18.000Z</time>
      </trkpt>
      <trkpt lat="45.84618" lon="4.70145">
        <ele>272.78822</ele>
        <time>2022-08-16T15:19:19.000Z</time>
      </trkpt>
      <trkpt lat="45.84614" lon="4.70142">
        <ele>272.81885</ele>
        <time>2022-08-16T15:19:21.000Z</time>
      </trkpt>
      <trkpt lat="45.84611" lon="4.70138">
        <ele>272.76789</ele>
        <time>2022-08-16T15:19:23.000Z</time>
      </trkpt>
      <trkpt lat="45.84609" lon="4.70136">
        <ele>272.73311</ele>
        <time>2022-08-16T15:19:24.000Z</time>
      </trkpt>
      <trkpt lat="45.84606" lon="4.70133">
        <ele>272.71156</ele>
        <time>2022-08-16T15:19:25.000Z</time>
      </trkpt>
      <trkpt lat="45.84603" lon="4.7013">
        <ele>272.66225</ele>
        <time>2022-08-16T15:19:26.000Z</time>
      </trkpt>
      <trkpt lat="45.84601" lon="4.70128">
        <ele>272.62298</ele>
        <time>2022-08-16T15:19:27.000Z</time>
      </trkpt>
      <trkpt lat="45.84598" lon="4.70126">
        <ele>272.59614</ele>
        <time>2022-08-16T15:19:28.000Z</time>
      </trkpt>
      <trkpt lat="45.84595" lon="4.70123">
        <ele>272.54897</ele>
        <time>2022-08-16T15:19:29.000Z</time>
      </trkpt>
      <trkpt lat="45.84592" lon="4.7012">
        <ele>272.49801</ele>
        <time>2022-08-16T15:19:30.000Z</time>
      </trkpt>
      <trkpt lat="45.8459" lon="4.70118">
        <ele>272.44471</ele>
        <time>2022-08-16T15:19:31.000Z</time>
      </trkpt>
      <trkpt lat="45.84588" lon="4.70115">
        <ele>272.38404</ele>
        <time>2022-08-16T15:19:32.000Z</time>
      </trkpt>
      <trkpt lat="45.84586" lon="4.70113">
        <ele>272.32191</ele>
        <time>2022-08-16T15:19:33.000Z</time>
      </trkpt>
      <trkpt lat="45.84584" lon="4.70111">
        <ele>272.25267</ele>
        <time>2022-08-16T15:19:34.000Z</time>
      </trkpt>
      <trkpt lat="45.84582" lon="4.70108">
        <ele>272.17489</ele>
        <time>2022-08-16T15:19:35.000Z</time>
      </trkpt>
      <trkpt lat="45.8458" lon="4.70105">
        <ele>272.07895</ele>
        <time>2022-08-16T15:19:36.000Z</time>
      </trkpt>
      <trkpt lat="45.84577" lon="4.70103">
        <ele>272.00986</ele>
        <time>2022-08-16T15:19:37.000Z</time>
      </trkpt>
      <trkpt lat="45.84575" lon="4.701">
        <ele>271.95</ele>
        <time>2022-08-16T15:19:38.000Z</time>
      </trkpt>
      <trkpt lat="45.84573" lon="4.70097">
        <ele>271.87976</ele>
        <time>2022-08-16T15:19:39.000Z</time>
      </trkpt>
      <trkpt lat="45.8457" lon="4.70094">
        <ele>271.80216</ele>
        <time>2022-08-16T15:19:40.000Z</time>
      </trkpt>
      <trkpt lat="45.84567" lon="4.70091">
        <ele>271.71613</ele>
        <time>2022-08-16T15:19:41.000Z</time>
      </trkpt>
      <trkpt lat="45.84565" lon="4.70089">
        <ele>271.62557</ele>
        <time>2022-08-16T15:19:42.000Z</time>
      </trkpt>
      <trkpt lat="45.84562" lon="4.70086">
        <ele>271.48952</ele>
        <time>2022-08-16T15:19:43.000Z</time>
      </trkpt>
      <trkpt lat="45.84559" lon="4.70082">
        <ele>271.29245</ele>
        <time>2022-08-16T15:19:44.000Z</time>
      </trkpt>
      <trkpt lat="45.84555" lon="4.70078">
        <ele>271.04807</ele>
        <time>2022-08-16T15:19:45.000Z</time>
      </trkpt>
      <trkpt lat="45.84553" lon="4.70076">
        <ele>270.86265</ele>
        <time>2022-08-16T15:19:46.000Z</time>
      </trkpt>
      <trkpt lat="45.84551" lon="4.70074">
        <ele>270.73383</ele>
        <time>2022-08-16T15:19:47.000Z</time>
      </trkpt>
      <trkpt lat="45.84549" lon="4.70071">
        <ele>270.59831</ele>
        <time>2022-08-16T15:19:48.000Z</time>
      </trkpt>
      <trkpt lat="45.84548" lon="4.70068">
        <ele>270.41167</ele>
        <time>2022-08-16T15:19:49.000Z</time>
      </trkpt>
      <trkpt lat="45.84547" lon="4.70063">
        <ele>270.15168</ele>
        <time>2022-08-16T15:19:50.000Z</time>
      </trkpt>
      <trkpt lat="45.84545" lon="4.70058">
        <ele>269.86365</ele>
        <time>2022-08-16T15:19:51.000Z</time>
      </trkpt>
      <trkpt lat="45.84543" lon="4.70054">
        <ele>269.65129</ele>
        <time>2022-08-16T15:19:52.000Z</time>
      </trkpt>
      <trkpt lat="45.84541" lon="4.7005">
        <ele>269.45653</ele>
        <time>2022-08-16T15:19:53.000Z</time>
      </trkpt>
      <trkpt lat="45.84539" lon="4.70047">
        <ele>269.33142</ele>
        <time>2022-08-16T15:19:54.000Z</time>
      </trkpt>
      <trkpt lat="45.84536" lon="4.70045">
        <ele>269.28368</ele>
        <time>2022-08-16T15:19:55.000Z</time>
      </trkpt>
      <trkpt lat="45.84534" lon="4.70043">
        <ele>269.24417</ele>
        <time>2022-08-16T15:19:56.000Z</time>
      </trkpt>
      <trkpt lat="45.84532" lon="4.7004">
        <ele>269.17486</ele>
        <time>2022-08-16T15:19:57.000Z</time>
      </trkpt>
      <trkpt lat="45.84529" lon="4.70037">
        <ele>269.08525</ele>
        <time>2022-08-16T15:19:58.000Z</time>
      </trkpt>
      <trkpt lat="45.84527" lon="4.70034">
        <ele>269.02965</ele>
        <time>2022-08-16T15:19:59.000Z</time>
      </trkpt>
      <trkpt lat="45.84524" lon="4.70031">
        <ele>269.02002</ele>
        <time>2022-08-16T15:20:00.000Z</time>
      </trkpt>
      <trkpt lat="45.84521" lon="4.70029">
        <ele>269.02116</ele>
        <time>2022-08-16T15:20:01.000Z</time>
      </trkpt>
      <trkpt lat="45.84518" lon="4.70026">
        <ele>268.98018</ele>
        <time>2022-08-16T15:20:02.000Z</time>
      </trkpt>
      <trkpt lat="45.84515" lon="4.70023">
        <ele>268.95399</ele>
        <time>2022-08-16T15:20:03.000Z</time>
      </trkpt>
      <trkpt lat="45.84512" lon="4.70021">
        <ele>268.97069</ele>
        <time>2022-08-16T15:20:04.000Z</time>
      </trkpt>
      <trkpt lat="45.84509" lon="4.70019">
        <ele>268.9914</ele>
        <time>2022-08-16T15:20:05.000Z</time>
      </trkpt>
      <trkpt lat="45.84506" lon="4.70017">
        <ele>268.99614</ele>
        <time>2022-08-16T15:20:06.000Z</time>
      </trkpt>
      <trkpt lat="45.84504" lon="4.70015">
        <ele>269.01171</ele>
        <time>2022-08-16T15:20:07.000Z</time>
      </trkpt>
      <trkpt lat="45.84502" lon="4.70014">
        <ele>269.03374</ele>
        <time>2022-08-16T15:20:08.000Z</time>
      </trkpt>
      <trkpt lat="45.845" lon="4.70013">
        <ele>269.065</ele>
        <time>2022-08-16T15:20:09.000Z</time>
      </trkpt>
      <trkpt lat="45.84497" lon="4.70011">
        <ele>269.05956</ele>
        <time>2022-08-16T15:20:11.000Z</time>
      </trkpt>
      <trkpt lat="45.84494" lon="4.7001">
        <ele>269.12809</ele>
        <time>2022-08-16T15:20:13.000Z</time>
      </trkpt>
      <trkpt lat="45.84491" lon="4.7001">
        <ele>269.23276</ele>
        <time>2022-08-16T15:20:14.000Z</time>
      </trkpt>
      <trkpt lat="45.84489" lon="4.70011">
        <ele>269.36887</ele>
        <time>2022-08-16T15:20:15.000Z</time>
      </trkpt>
      <trkpt lat="45.84487" lon="4.70014">
        <ele>269.56868</ele>
        <time>2022-08-16T15:20:16.000Z</time>
      </trkpt>
      <trkpt lat="45.84485" lon="4.70018">
        <ele>269.79807</ele>
        <time>2022-08-16T15:20:17.000Z</time>
      </trkpt>
      <trkpt lat="45.84483" lon="4.70022">
        <ele>270.00646</ele>
        <time>2022-08-16T15:20:18.000Z</time>
      </trkpt>
      <trkpt lat="45.84481" lon="4.70026">
        <ele>270.17339</ele>
        <time>2022-08-16T15:20:19.000Z</time>
      </trkpt>
      <trkpt lat="45.84479" lon="4.70029">
        <ele>270.32687</ele>
        <time>2022-08-16T15:20:20.000Z</time>
      </trkpt>
      <trkpt lat="45.84478" lon="4.70032">
        <ele>270.45425</ele>
        <time>2022-08-16T15:20:21.000Z</time>
      </trkpt>
      <trkpt lat="45.84475" lon="4.70035">
        <ele>270.56289</ele>
        <time>2022-08-16T15:20:22.000Z</time>
      </trkpt>
      <trkpt lat="45.84473" lon="4.70037">
        <ele>270.65933</ele>
        <time>2022-08-16T15:20:23.000Z</time>
      </trkpt>
      <trkpt lat="45.84471" lon="4.7004">
        <ele>270.73966</ele>
        <time>2022-08-16T15:20:24.000Z</time>
      </trkpt>
      <trkpt lat="45.84469" lon="4.70042">
        <ele>270.81756</ele>
        <time>2022-08-16T15:20:25.000Z</time>
      </trkpt>
      <trkpt lat="45.84467" lon="4.70045">
        <ele>270.8785</ele>
        <time>2022-08-16T15:20:26.000Z</time>
      </trkpt>
      <trkpt lat="45.84465" lon="4.70047">
        <ele>270.93961</ele>
        <time>2022-08-16T15:20:27.000Z</time>
      </trkpt>
      <trkpt lat="45.84462" lon="4.70049">
        <ele>270.97714</ele>
        <time>2022-08-16T15:20:28.000Z</time>
      </trkpt>
      <trkpt lat="45.8446" lon="4.70052">
        <ele>271.04418</ele>
        <time>2022-08-16T15:20:29.000Z</time>
      </trkpt>
      <trkpt lat="45.84458" lon="4.70056">
        <ele>271.11436</ele>
        <time>2022-08-16T15:20:30.000Z</time>
      </trkpt>
      <trkpt lat="45.84456" lon="4.70059">
        <ele>271.1735</ele>
        <time>2022-08-16T15:20:31.000Z</time>
      </trkpt>
      <trkpt lat="45.84454" lon="4.70061">
        <ele>271.2109</ele>
        <time>2022-08-16T15:20:32.000Z</time>
      </trkpt>
      <trkpt lat="45.84452" lon="4.70064">
        <ele>271.24597</ele>
        <time>2022-08-16T15:20:33.000Z</time>
      </trkpt>
      <trkpt lat="45.8445" lon="4.70066">
        <ele>271.29189</ele>
        <time>2022-08-16T15:20:34.000Z</time>
      </trkpt>
      <trkpt lat="45.84449" lon="4.70069">
        <ele>271.34249</ele>
        <time>2022-08-16T15:20:35.000Z</time>
      </trkpt>
      <trkpt lat="45.84447" lon="4.70073">
        <ele>271.40526</ele>
        <time>2022-08-16T15:20:36.000Z</time>
      </trkpt>
      <trkpt lat="45.84445" lon="4.70077">
        <ele>271.4672</ele>
        <time>2022-08-16T15:20:37.000Z</time>
      </trkpt>
      <trkpt lat="45.84443" lon="4.70081">
        <ele>271.55267</ele>
        <time>2022-08-16T15:20:38.000Z</time>
      </trkpt>
      <trkpt lat="45.84441" lon="4.70085">
        <ele>271.58602</ele>
        <time>2022-08-16T15:20:39.000Z</time>
      </trkpt>
      <trkpt lat="45.84439" lon="4.70088">
        <ele>271.59048</ele>
        <time>2022-08-16T15:20:40.000Z</time>
      </trkpt>
      <trkpt lat="45.84437" lon="4.70092">
        <ele>271.62578</ele>
        <time>2022-08-16T15:20:41.000Z</time>
      </trkpt>
      <trkpt lat="45.84435" lon="4.70097">
        <ele>271.65782</ele>
        <time>2022-08-16T15:20:42.000Z</time>
      </trkpt>
      <trkpt lat="45.84433" lon="4.70101">
        <ele>271.65009</ele>
        <time>2022-08-16T15:20:43.000Z</time>
      </trkpt>
      <trkpt lat="45.84431" lon="4.70105">
        <ele>271.65876</ele>
        <time>2022-08-16T15:20:44.000Z</time>
      </trkpt>
      <trkpt lat="45.84428" lon="4.70108">
        <ele>271.62019</ele>
        <time>2022-08-16T15:20:45.000Z</time>
      </trkpt>
      <trkpt lat="45.84425" lon="4.70111">
        <ele>271.56419</ele>
        <time>2022-08-16T15:20:46.000Z</time>
      </trkpt>
      <trkpt lat="45.84422" lon="4.70114">
        <ele>271.49745</ele>
        <time>2022-08-16T15:20:47.000Z</time>
      </trkpt>
      <trkpt lat="45.84419" lon="4.70115">
        <ele>271.4108</ele>
        <time>2022-08-16T15:20:48.000Z</time>
      </trkpt>
      <trkpt lat="45.84416" lon="4.70116">
        <ele>271.31313</ele>
        <time>2022-08-16T15:20:49.000Z</time>
      </trkpt>
      <trkpt lat="45.84412" lon="4.70116">
        <ele>271.16722</ele>
        <time>2022-08-16T15:20:50.000Z</time>
      </trkpt>
      <trkpt lat="45.84408" lon="4.70115">
        <ele>271.02947</ele>
        <time>2022-08-16T15:20:51.000Z</time>
      </trkpt>
      <trkpt lat="45.84404" lon="4.70115">
        <ele>270.91241</ele>
        <time>2022-08-16T15:20:52.000Z</time>
      </trkpt>
      <trkpt lat="45.84401" lon="4.70114">
        <ele>270.80999</ele>
        <time>2022-08-16T15:20:53.000Z</time>
      </trkpt>
      <trkpt lat="45.84398" lon="4.70113">
        <ele>270.68222</ele>
        <time>2022-08-16T15:20:54.000Z</time>
      </trkpt>
      <trkpt lat="45.84395" lon="4.70111">
        <ele>270.54233</ele>
        <time>2022-08-16T15:20:55.000Z</time>
      </trkpt>
      <trkpt lat="45.84392" lon="4.7011">
        <ele>270.39602</ele>
        <time>2022-08-16T15:20:56.000Z</time>
      </trkpt>
      <trkpt lat="45.84388" lon="4.70108">
        <ele>270.25307</ele>
        <time>2022-08-16T15:20:57.000Z</time>
      </trkpt>
      <trkpt lat="45.84383" lon="4.70107">
        <ele>270.1182</ele>
        <time>2022-08-16T15:20:58.000Z</time>
      </trkpt>
      <trkpt lat="45.84378" lon="4.70105">
        <ele>270.00013</ele>
        <time>2022-08-16T15:20:59.000Z</time>
      </trkpt>
      <trkpt lat="45.84374" lon="4.70104">
        <ele>269.9275</ele>
        <time>2022-08-16T15:21:00.000Z</time>
      </trkpt>
      <trkpt lat="45.84369" lon="4.70102">
        <ele>269.87759</ele>
        <time>2022-08-16T15:21:01.000Z</time>
      </trkpt>
      <trkpt lat="45.84366" lon="4.70102">
        <ele>269.91008</ele>
        <time>2022-08-16T15:21:02.000Z</time>
      </trkpt>
      <trkpt lat="45.84363" lon="4.70103">
        <ele>269.94887</ele>
        <time>2022-08-16T15:21:03.000Z</time>
      </trkpt>
      <trkpt lat="45.8436" lon="4.70102">
        <ele>269.9758</ele>
        <time>2022-08-16T15:21:04.000Z</time>
      </trkpt>
      <trkpt lat="45.84358" lon="4.70101">
        <ele>269.95814</ele>
        <time>2022-08-16T15:21:05.000Z</time>
      </trkpt>
      <trkpt lat="45.84355" lon="4.701">
        <ele>269.88752</ele>
        <time>2022-08-16T15:21:06.000Z</time>
      </trkpt>
      <trkpt lat="45.84353" lon="4.70098">
        <ele>269.82394</ele>
        <time>2022-08-16T15:21:07.000Z</time>
      </trkpt>
      <trkpt lat="45.84351" lon="4.70097">
        <ele>269.80577</ele>
        <time>2022-08-16T15:21:08.000Z</time>
      </trkpt>
      <trkpt lat="45.84348" lon="4.70096">
        <ele>269.81435</ele>
        <time>2022-08-16T15:21:09.000Z</time>
      </trkpt>
      <trkpt lat="45.84346" lon="4.70096">
        <ele>269.85802</ele>
        <time>2022-08-16T15:21:10.000Z</time>
      </trkpt>
      <trkpt lat="45.84344" lon="4.70095">
        <ele>269.85728</ele>
        <time>2022-08-16T15:21:12.000Z</time>
      </trkpt>
      <trkpt lat="45.84342" lon="4.70095">
        <ele>269.9388</ele>
        <time>2022-08-16T15:21:17.000Z</time>
      </trkpt>
      <trkpt lat="45.84339" lon="4.70095">
        <ele>270.02031</ele>
        <time>2022-08-16T15:21:19.000Z</time>
      </trkpt>
      <trkpt lat="45.84337" lon="4.70094">
        <ele>270.00844</ele>
        <time>2022-08-16T15:21:20.000Z</time>
      </trkpt>
      <trkpt lat="45.84336" lon="4.70093">
        <ele>269.96145</ele>
        <time>2022-08-16T15:21:21.000Z</time>
      </trkpt>
      <trkpt lat="45.84334" lon="4.70091">
        <ele>269.89315</ele>
        <time>2022-08-16T15:21:22.000Z</time>
      </trkpt>
      <trkpt lat="45.84333" lon="4.70089">
        <ele>269.85351</ele>
        <time>2022-08-16T15:21:23.000Z</time>
      </trkpt>
      <trkpt lat="45.84331" lon="4.70087">
        <ele>269.8221</ele>
        <time>2022-08-16T15:21:24.000Z</time>
      </trkpt>
      <trkpt lat="45.8433" lon="4.70085">
        <ele>269.79926</ele>
        <time>2022-08-16T15:21:25.000Z</time>
      </trkpt>
      <trkpt lat="45.84327" lon="4.70083">
        <ele>269.79796</ele>
        <time>2022-08-16T15:21:26.000Z</time>
      </trkpt>
      <trkpt lat="45.84325" lon="4.70081">
        <ele>269.80605</ele>
        <time>2022-08-16T15:21:27.000Z</time>
      </trkpt>
      <trkpt lat="45.84322" lon="4.70079">
        <ele>269.85189</ele>
        <time>2022-08-16T15:21:28.000Z</time>
      </trkpt>
      <trkpt lat="45.8432" lon="4.70077">
        <ele>269.92404</ele>
        <time>2022-08-16T15:21:29.000Z</time>
      </trkpt>
      <trkpt lat="45.84317" lon="4.70075">
        <ele>270.03133</ele>
        <time>2022-08-16T15:21:30.000Z</time>
      </trkpt>
      <trkpt lat="45.84314" lon="4.70073">
        <ele>270.14184</ele>
        <time>2022-08-16T15:21:31.000Z</time>
      </trkpt>
      <trkpt lat="45.84311" lon="4.7007">
        <ele>270.22314</ele>
        <time>2022-08-16T15:21:32.000Z</time>
      </trkpt>
      <trkpt lat="45.84308" lon="4.70067">
        <ele>270.33174</ele>
        <time>2022-08-16T15:21:33.000Z</time>
      </trkpt>
      <trkpt lat="45.84306" lon="4.70064">
        <ele>270.43887</ele>
        <time>2022-08-16T15:21:34.000Z</time>
      </trkpt>
      <trkpt lat="45.84303" lon="4.70061">
        <ele>270.57803</ele>
        <time>2022-08-16T15:21:35.000Z</time>
      </trkpt>
      <trkpt lat="45.84301" lon="4.70059">
        <ele>270.71063</ele>
        <time>2022-08-16T15:21:36.000Z</time>
      </trkpt>
      <trkpt lat="45.84298" lon="4.70056">
        <ele>270.81633</ele>
        <time>2022-08-16T15:21:37.000Z</time>
      </trkpt>
      <trkpt lat="45.84296" lon="4.70053">
        <ele>270.93124</ele>
        <time>2022-08-16T15:21:38.000Z</time>
      </trkpt>
      <trkpt lat="45.84294" lon="4.70051">
        <ele>271.03791</ele>
        <time>2022-08-16T15:21:39.000Z</time>
      </trkpt>
      <trkpt lat="45.84292" lon="4.70049">
        <ele>271.14221</ele>
        <time>2022-08-16T15:21:40.000Z</time>
      </trkpt>
      <trkpt lat="45.84289" lon="4.70047">
        <ele>271.27059</ele>
        <time>2022-08-16T15:21:41.000Z</time>
      </trkpt>
      <trkpt lat="45.84287" lon="4.70046">
        <ele>271.37586</ele>
        <time>2022-08-16T15:21:42.000Z</time>
      </trkpt>
      <trkpt lat="45.84284" lon="4.70044">
        <ele>271.4927</ele>
        <time>2022-08-16T15:21:43.000Z</time>
      </trkpt>
      <trkpt lat="45.8428" lon="4.70041">
        <ele>271.60877</ele>
        <time>2022-08-16T15:21:44.000Z</time>
      </trkpt>
      <trkpt lat="45.84277" lon="4.7004">
        <ele>271.71985</ele>
        <time>2022-08-16T15:21:45.000Z</time>
      </trkpt>
      <trkpt lat="45.84274" lon="4.70038">
        <ele>271.80498</ele>
        <time>2022-08-16T15:21:46.000Z</time>
      </trkpt>
      <trkpt lat="45.84272" lon="4.70037">
        <ele>271.85748</ele>
        <time>2022-08-16T15:21:47.000Z</time>
      </trkpt>
      <trkpt lat="45.84269" lon="4.70036">
        <ele>271.92375</ele>
        <time>2022-08-16T15:21:48.000Z</time>
      </trkpt>
      <trkpt lat="45.84265" lon="4.70035">
        <ele>272.00895</ele>
        <time>2022-08-16T15:21:49.000Z</time>
      </trkpt>
      <trkpt lat="45.84261" lon="4.70034">
        <ele>272.07246</ele>
        <time>2022-08-16T15:21:50.000Z</time>
      </trkpt>
      <trkpt lat="45.84254" lon="4.70036">
        <ele>272.27312</ele>
        <time>2022-08-16T15:21:52.000Z</time>
      </trkpt>
      <trkpt lat="45.84251" lon="4.70039">
        <ele>272.44097</ele>
        <time>2022-08-16T15:21:53.000Z</time>
      </trkpt>
      <trkpt lat="45.84248" lon="4.70041">
        <ele>272.62233</ele>
        <time>2022-08-16T15:21:54.000Z</time>
      </trkpt>
      <trkpt lat="45.84244" lon="4.70043">
        <ele>272.76966</ele>
        <time>2022-08-16T15:21:55.000Z</time>
      </trkpt>
      <trkpt lat="45.84241" lon="4.70043">
        <ele>272.88788</ele>
        <time>2022-08-16T15:21:56.000Z</time>
      </trkpt>
      <trkpt lat="45.84238" lon="4.70043">
        <ele>272.96207</ele>
        <time>2022-08-16T15:21:57.000Z</time>
      </trkpt>
      <trkpt lat="45.84235" lon="4.70043">
        <ele>273.01078</ele>
        <time>2022-08-16T15:21:58.000Z</time>
      </trkpt>
      <trkpt lat="45.84232" lon="4.70043">
        <ele>273.06802</ele>
        <time>2022-08-16T15:21:59.000Z</time>
      </trkpt>
      <trkpt lat="45.84229" lon="4.70044">
        <ele>273.19645</ele>
        <time>2022-08-16T15:22:00.000Z</time>
      </trkpt>
      <trkpt lat="45.84226" lon="4.70045">
        <ele>273.36841</ele>
        <time>2022-08-16T15:22:01.000Z</time>
      </trkpt>
      <trkpt lat="45.84223" lon="4.70047">
        <ele>273.55528</ele>
        <time>2022-08-16T15:22:02.000Z</time>
      </trkpt>
      <trkpt lat="45.8422" lon="4.70048">
        <ele>273.74558</ele>
        <time>2022-08-16T15:22:03.000Z</time>
      </trkpt>
      <trkpt lat="45.84218" lon="4.7005">
        <ele>273.95113</ele>
        <time>2022-08-16T15:22:04.000Z</time>
      </trkpt>
      <trkpt lat="45.84217" lon="4.70052">
        <ele>274.13188</ele>
        <time>2022-08-16T15:22:05.000Z</time>
      </trkpt>
      <trkpt lat="45.84212" lon="4.70054">
        <ele>274.42803</ele>
        <time>2022-08-16T15:22:07.000Z</time>
      </trkpt>
      <trkpt lat="45.84209" lon="4.70055">
        <ele>274.61798</ele>
        <time>2022-08-16T15:22:08.000Z</time>
      </trkpt>
      <trkpt lat="45.84206" lon="4.70056">
        <ele>274.79373</ele>
        <time>2022-08-16T15:22:09.000Z</time>
      </trkpt>
      <trkpt lat="45.84204" lon="4.70057">
        <ele>274.9819</ele>
        <time>2022-08-16T15:22:10.000Z</time>
      </trkpt>
      <trkpt lat="45.84202" lon="4.70059">
        <ele>275.17938</ele>
        <time>2022-08-16T15:22:11.000Z</time>
      </trkpt>
      <trkpt lat="45.842" lon="4.70061">
        <ele>275.38273</ele>
        <time>2022-08-16T15:22:12.000Z</time>
      </trkpt>
      <trkpt lat="45.84198" lon="4.70063">
        <ele>275.53306</ele>
        <time>2022-08-16T15:22:13.000Z</time>
      </trkpt>
      <trkpt lat="45.84196" lon="4.70064">
        <ele>275.71436</ele>
        <time>2022-08-16T15:22:15.000Z</time>
      </trkpt>
      <trkpt lat="45.84193" lon="4.70067">
        <ele>275.97908</ele>
        <time>2022-08-16T15:22:18.000Z</time>
      </trkpt>
      <trkpt lat="45.8419" lon="4.70069">
        <ele>276.22261</ele>
        <time>2022-08-16T15:22:20.000Z</time>
      </trkpt>
      <trkpt lat="45.84186" lon="4.70072">
        <ele>276.53094</ele>
        <time>2022-08-16T15:22:22.000Z</time>
      </trkpt>
      <trkpt lat="45.84184" lon="4.70074">
        <ele>276.72418</ele>
        <time>2022-08-16T15:22:23.000Z</time>
      </trkpt>
      <trkpt lat="45.84182" lon="4.70075">
        <ele>276.90238</ele>
        <time>2022-08-16T15:22:24.000Z</time>
      </trkpt>
      <trkpt lat="45.8418" lon="4.70077">
        <ele>277.1089</ele>
        <time>2022-08-16T15:22:25.000Z</time>
      </trkpt>
      <trkpt lat="45.84175" lon="4.70081">
        <ele>277.57054</ele>
        <time>2022-08-16T15:22:27.000Z</time>
      </trkpt>
      <trkpt lat="45.84172" lon="4.70082">
        <ele>277.7968</ele>
        <time>2022-08-16T15:22:28.000Z</time>
      </trkpt>
      <trkpt lat="45.8417" lon="4.70084">
        <ele>278.02232</ele>
        <time>2022-08-16T15:22:29.000Z</time>
      </trkpt>
      <trkpt lat="45.84167" lon="4.70085">
        <ele>278.24299</ele>
        <time>2022-08-16T15:22:30.000Z</time>
      </trkpt>
      <trkpt lat="45.84165" lon="4.70086">
        <ele>278.46412</ele>
        <time>2022-08-16T15:22:31.000Z</time>
      </trkpt>
      <trkpt lat="45.84162" lon="4.70087">
        <ele>278.68879</ele>
        <time>2022-08-16T15:22:32.000Z</time>
      </trkpt>
      <trkpt lat="45.84159" lon="4.70088">
        <ele>278.90721</ele>
        <time>2022-08-16T15:22:33.000Z</time>
      </trkpt>
      <trkpt lat="45.84157" lon="4.70089">
        <ele>279.07848</ele>
        <time>2022-08-16T15:22:34.000Z</time>
      </trkpt>
      <trkpt lat="45.84154" lon="4.7009">
        <ele>279.25884</ele>
        <time>2022-08-16T15:22:35.000Z</time>
      </trkpt>
      <trkpt lat="45.84152" lon="4.70091">
        <ele>279.46054</ele>
        <time>2022-08-16T15:22:36.000Z</time>
      </trkpt>
      <trkpt lat="45.84149" lon="4.70093">
        <ele>279.67362</ele>
        <time>2022-08-16T15:22:37.000Z</time>
      </trkpt>
      <trkpt lat="45.84145" lon="4.70098">
        <ele>280.067</ele>
        <time>2022-08-16T15:22:39.000Z</time>
      </trkpt>
      <trkpt lat="45.84144" lon="4.701">
        <ele>280.25059</ele>
        <time>2022-08-16T15:22:40.000Z</time>
      </trkpt>
      <trkpt lat="45.84142" lon="4.70102">
        <ele>280.42729</ele>
        <time>2022-08-16T15:22:41.000Z</time>
      </trkpt>
      <trkpt lat="45.8414" lon="4.70104">
        <ele>280.60211</ele>
        <time>2022-08-16T15:22:42.000Z</time>
      </trkpt>
      <trkpt lat="45.84138" lon="4.70107">
        <ele>280.81353</ele>
        <time>2022-08-16T15:22:43.000Z</time>
      </trkpt>
      <trkpt lat="45.84135" lon="4.70109">
        <ele>281.06114</ele>
        <time>2022-08-16T15:22:44.000Z</time>
      </trkpt>
      <trkpt lat="45.84133" lon="4.70112">
        <ele>281.30658</ele>
        <time>2022-08-16T15:22:45.000Z</time>
      </trkpt>
      <trkpt lat="45.8413" lon="4.70114">
        <ele>281.52214</ele>
        <time>2022-08-16T15:22:46.000Z</time>
      </trkpt>
      <trkpt lat="45.84128" lon="4.70116">
        <ele>281.74016</ele>
        <time>2022-08-16T15:22:47.000Z</time>
      </trkpt>
      <trkpt lat="45.84126" lon="4.70119">
        <ele>281.96902</ele>
        <time>2022-08-16T15:22:48.000Z</time>
      </trkpt>
      <trkpt lat="45.84124" lon="4.70123">
        <ele>282.16956</ele>
        <time>2022-08-16T15:22:49.000Z</time>
      </trkpt>
      <trkpt lat="45.84121" lon="4.70126">
        <ele>282.34505</ele>
        <time>2022-08-16T15:22:50.000Z</time>
      </trkpt>
      <trkpt lat="45.84118" lon="4.70128">
        <ele>282.5236</ele>
        <time>2022-08-16T15:22:51.000Z</time>
      </trkpt>
      <trkpt lat="45.84116" lon="4.7013">
        <ele>282.66378</ele>
        <time>2022-08-16T15:22:52.000Z</time>
      </trkpt>
      <trkpt lat="45.84113" lon="4.70132">
        <ele>282.75202</ele>
        <time>2022-08-16T15:22:53.000Z</time>
      </trkpt>
      <trkpt lat="45.84112" lon="4.70132">
        <ele>282.79347</ele>
        <time>2022-08-16T15:22:54.000Z</time>
      </trkpt>
      <trkpt lat="45.8411" lon="4.70133">
        <ele>282.81468</ele>
        <time>2022-08-16T15:22:55.000Z</time>
      </trkpt>
      <trkpt lat="45.84108" lon="4.70134">
        <ele>282.81369</ele>
        <time>2022-08-16T15:22:56.000Z</time>
      </trkpt>
      <trkpt lat="45.84105" lon="4.70135">
        <ele>282.7767</ele>
        <time>2022-08-16T15:22:57.000Z</time>
      </trkpt>
      <trkpt lat="45.84103" lon="4.70136">
        <ele>282.75005</ele>
        <time>2022-08-16T15:22:58.000Z</time>
      </trkpt>
      <trkpt lat="45.84102" lon="4.70141">
        <ele>282.79924</ele>
        <time>2022-08-16T15:23:00.000Z</time>
      </trkpt>
      <trkpt lat="45.84102" lon="4.70144">
        <ele>282.88233</ele>
        <time>2022-08-16T15:23:01.000Z</time>
      </trkpt>
      <trkpt lat="45.84102" lon="4.70148">
        <ele>282.96194</ele>
        <time>2022-08-16T15:23:02.000Z</time>
      </trkpt>
      <trkpt lat="45.84103" lon="4.70152">
        <ele>283.04677</ele>
        <time>2022-08-16T15:23:03.000Z</time>
      </trkpt>
      <trkpt lat="45.84103" lon="4.70156">
        <ele>283.1178</ele>
        <time>2022-08-16T15:23:04.000Z</time>
      </trkpt>
      <trkpt lat="45.84103" lon="4.7016">
        <ele>283.18198</ele>
        <time>2022-08-16T15:23:05.000Z</time>
      </trkpt>
      <trkpt lat="45.84104" lon="4.70163">
        <ele>283.22564</ele>
        <time>2022-08-16T15:23:06.000Z</time>
      </trkpt>
      <trkpt lat="45.84105" lon="4.70165">
        <ele>283.25774</ele>
        <time>2022-08-16T15:23:07.000Z</time>
      </trkpt>
      <trkpt lat="45.84106" lon="4.70169">
        <ele>283.30367</ele>
        <time>2022-08-16T15:23:08.000Z</time>
      </trkpt>
      <trkpt lat="45.84107" lon="4.70173">
        <ele>283.34915</ele>
        <time>2022-08-16T15:23:09.000Z</time>
      </trkpt>
      <trkpt lat="45.84107" lon="4.70177">
        <ele>283.38515</ele>
        <time>2022-08-16T15:23:10.000Z</time>
      </trkpt>
      <trkpt lat="45.84108" lon="4.7018">
        <ele>283.42686</ele>
        <time>2022-08-16T15:23:11.000Z</time>
      </trkpt>
      <trkpt lat="45.84109" lon="4.70184">
        <ele>283.48142</ele>
        <time>2022-08-16T15:23:12.000Z</time>
      </trkpt>
      <trkpt lat="45.8411" lon="4.70189">
        <ele>283.54226</ele>
        <time>2022-08-16T15:23:13.000Z</time>
      </trkpt>
      <trkpt lat="45.8411" lon="4.70192">
        <ele>283.59098</ele>
        <time>2022-08-16T15:23:14.000Z</time>
      </trkpt>
      <trkpt lat="45.84111" lon="4.70197">
        <ele>283.66006</ele>
        <time>2022-08-16T15:23:15.000Z</time>
      </trkpt>
      <trkpt lat="45.84112" lon="4.70202">
        <ele>283.71809</ele>
        <time>2022-08-16T15:23:16.000Z</time>
      </trkpt>
      <trkpt lat="45.84112" lon="4.70205">
        <ele>283.75544</ele>
        <time>2022-08-16T15:23:17.000Z</time>
      </trkpt>
      <trkpt lat="45.84113" lon="4.70209">
        <ele>283.78768</ele>
        <time>2022-08-16T15:23:18.000Z</time>
      </trkpt>
      <trkpt lat="45.84112" lon="4.70211">
        <ele>283.81241</ele>
        <time>2022-08-16T15:23:19.000Z</time>
      </trkpt>
      <trkpt lat="45.84112" lon="4.70217">
        <ele>283.84757</ele>
        <time>2022-08-16T15:23:21.000Z</time>
      </trkpt>
      <trkpt lat="45.84112" lon="4.70221">
        <ele>283.86515</ele>
        <time>2022-08-16T15:23:22.000Z</time>
      </trkpt>
      <trkpt lat="45.84111" lon="4.70224">
        <ele>283.88424</ele>
        <time>2022-08-16T15:23:23.000Z</time>
      </trkpt>
      <trkpt lat="45.8411" lon="4.70245">
        <ele>283.96638</ele>
        <time>2022-08-16T15:23:28.000Z</time>
      </trkpt>
      <trkpt lat="45.84111" lon="4.7025">
        <ele>283.99635</ele>
        <time>2022-08-16T15:23:29.000Z</time>
      </trkpt>
      <trkpt lat="45.84111" lon="4.70254">
        <ele>284.0376</ele>
        <time>2022-08-16T15:23:30.000Z</time>
      </trkpt>
      <trkpt lat="45.84112" lon="4.70259">
        <ele>284.08946</ele>
        <time>2022-08-16T15:23:31.000Z</time>
      </trkpt>
      <trkpt lat="45.84112" lon="4.70264">
        <ele>284.14188</ele>
        <time>2022-08-16T15:23:32.000Z</time>
      </trkpt>
      <trkpt lat="45.84112" lon="4.70269">
        <ele>284.18722</ele>
        <time>2022-08-16T15:23:33.000Z</time>
      </trkpt>
      <trkpt lat="45.84112" lon="4.70273">
        <ele>284.22968</ele>
        <time>2022-08-16T15:23:34.000Z</time>
      </trkpt>
      <trkpt lat="45.84113" lon="4.70278">
        <ele>284.26971</ele>
        <time>2022-08-16T15:23:35.000Z</time>
      </trkpt>
      <trkpt lat="45.84112" lon="4.70282">
        <ele>284.30777</ele>
        <time>2022-08-16T15:23:36.000Z</time>
      </trkpt>
      <trkpt lat="45.84112" lon="4.70289">
        <ele>284.37524</ele>
        <time>2022-08-16T15:23:38.000Z</time>
      </trkpt>
      <trkpt lat="45.84112" lon="4.70294">
        <ele>284.41594</ele>
        <time>2022-08-16T15:23:39.000Z</time>
      </trkpt>
      <trkpt lat="45.84112" lon="4.70299">
        <ele>284.45254</ele>
        <time>2022-08-16T15:23:40.000Z</time>
      </trkpt>
      <trkpt lat="45.84112" lon="4.70303">
        <ele>284.48604</ele>
        <time>2022-08-16T15:23:41.000Z</time>
      </trkpt>
      <trkpt lat="45.84112" lon="4.70307">
        <ele>284.51203</ele>
        <time>2022-08-16T15:23:42.000Z</time>
      </trkpt>
      <trkpt lat="45.84113" lon="4.70311">
        <ele>284.54211</ele>
        <time>2022-08-16T15:23:43.000Z</time>
      </trkpt>
      <trkpt lat="45.84113" lon="4.70315">
        <ele>284.57923</ele>
        <time>2022-08-16T15:23:44.000Z</time>
      </trkpt>
      <trkpt lat="45.84114" lon="4.7032">
        <ele>284.62455</ele>
        <time>2022-08-16T15:23:45.000Z</time>
      </trkpt>
      <trkpt lat="45.84115" lon="4.70324">
        <ele>284.67318</ele>
        <time>2022-08-16T15:23:46.000Z</time>
      </trkpt>
      <trkpt lat="45.84115" lon="4.70328">
        <ele>284.72186</ele>
        <time>2022-08-16T15:23:47.000Z</time>
      </trkpt>
      <trkpt lat="45.84116" lon="4.70332">
        <ele>284.75562</ele>
        <time>2022-08-16T15:23:48.000Z</time>
      </trkpt>
      <trkpt lat="45.84116" lon="4.70336">
        <ele>284.77752</ele>
        <time>2022-08-16T15:23:49.000Z</time>
      </trkpt>
      <trkpt lat="45.84116" lon="4.7034">
        <ele>284.77682</ele>
        <time>2022-08-16T15:23:50.000Z</time>
      </trkpt>
      <trkpt lat="45.84116" lon="4.70345">
        <ele>284.74929</ele>
        <time>2022-08-16T15:23:51.000Z</time>
      </trkpt>
      <trkpt lat="45.84116" lon="4.7035">
        <ele>284.69554</ele>
        <time>2022-08-16T15:23:52.000Z</time>
      </trkpt>
      <trkpt lat="45.84115" lon="4.70354">
        <ele>284.63023</ele>
        <time>2022-08-16T15:23:53.000Z</time>
      </trkpt>
      <trkpt lat="45.84114" lon="4.70357">
        <ele>284.58535</ele>
        <time>2022-08-16T15:23:54.000Z</time>
      </trkpt>
      <trkpt lat="45.84111" lon="4.7036">
        <ele>284.57472</ele>
        <time>2022-08-16T15:23:55.000Z</time>
      </trkpt>
      <trkpt lat="45.84108" lon="4.70363">
        <ele>284.59492</ele>
        <time>2022-08-16T15:23:56.000Z</time>
      </trkpt>
      <trkpt lat="45.84105" lon="4.70365">
        <ele>284.63928</ele>
        <time>2022-08-16T15:23:57.000Z</time>
      </trkpt>
      <trkpt lat="45.84102" lon="4.70367">
        <ele>284.6964</ele>
        <time>2022-08-16T15:23:58.000Z</time>
      </trkpt>
      <trkpt lat="45.841" lon="4.70369">
        <ele>284.75897</ele>
        <time>2022-08-16T15:23:59.000Z</time>
      </trkpt>
      <trkpt lat="45.84094" lon="4.70373">
        <ele>284.90481</ele>
        <time>2022-08-16T15:24:01.000Z</time>
      </trkpt>
      <trkpt lat="45.84091" lon="4.70375">
        <ele>284.98463</ele>
        <time>2022-08-16T15:24:02.000Z</time>
      </trkpt>
      <trkpt lat="45.84087" lon="4.70377">
        <ele>285.06716</ele>
        <time>2022-08-16T15:24:03.000Z</time>
      </trkpt>
      <trkpt lat="45.84083" lon="4.70378">
        <ele>285.13565</ele>
        <time>2022-08-16T15:24:04.000Z</time>
      </trkpt>
      <trkpt lat="45.8408" lon="4.7038">
        <ele>285.16761</ele>
        <time>2022-08-16T15:24:05.000Z</time>
      </trkpt>
      <trkpt lat="45.84076" lon="4.70382">
        <ele>285.17826</ele>
        <time>2022-08-16T15:24:06.000Z</time>
      </trkpt>
      <trkpt lat="45.8407" lon="4.70386">
        <ele>285.19114</ele>
        <time>2022-08-16T15:24:08.000Z</time>
      </trkpt>
      <trkpt lat="45.84067" lon="4.70387">
        <ele>285.21603</ele>
        <time>2022-08-16T15:24:09.000Z</time>
      </trkpt>
      <trkpt lat="45.84063" lon="4.70388">
        <ele>285.26129</ele>
        <time>2022-08-16T15:24:10.000Z</time>
      </trkpt>
      <trkpt lat="45.8406" lon="4.70389">
        <ele>285.33029</ele>
        <time>2022-08-16T15:24:11.000Z</time>
      </trkpt>
      <trkpt lat="45.84056" lon="4.7039">
        <ele>285.41542</ele>
        <time>2022-08-16T15:24:12.000Z</time>
      </trkpt>
      <trkpt lat="45.84054" lon="4.70391">
        <ele>285.49348</ele>
        <time>2022-08-16T15:24:13.000Z</time>
      </trkpt>
      <trkpt lat="45.84051" lon="4.70392">
        <ele>285.56959</ele>
        <time>2022-08-16T15:24:14.000Z</time>
      </trkpt>
      <trkpt lat="45.84048" lon="4.70393">
        <ele>285.65873</ele>
        <time>2022-08-16T15:24:15.000Z</time>
      </trkpt>
      <trkpt lat="45.84045" lon="4.70394">
        <ele>285.75518</ele>
        <time>2022-08-16T15:24:16.000Z</time>
      </trkpt>
      <trkpt lat="45.84042" lon="4.70395">
        <ele>285.836</ele>
        <time>2022-08-16T15:24:17.000Z</time>
      </trkpt>
      <trkpt lat="45.84039" lon="4.70397">
        <ele>285.91368</ele>
        <time>2022-08-16T15:24:18.000Z</time>
      </trkpt>
      <trkpt lat="45.84036" lon="4.70398">
        <ele>285.99157</ele>
        <time>2022-08-16T15:24:19.000Z</time>
      </trkpt>
      <trkpt lat="45.84032" lon="4.704">
        <ele>286.0608</ele>
        <time>2022-08-16T15:24:20.000Z</time>
      </trkpt>
      <trkpt lat="45.84029" lon="4.70402">
        <ele>286.126</ele>
        <time>2022-08-16T15:24:21.000Z</time>
      </trkpt>
      <trkpt lat="45.84026" lon="4.70403">
        <ele>286.18561</ele>
        <time>2022-08-16T15:24:22.000Z</time>
      </trkpt>
      <trkpt lat="45.84023" lon="4.70405">
        <ele>286.2452</ele>
        <time>2022-08-16T15:24:23.000Z</time>
      </trkpt>
      <trkpt lat="45.8402" lon="4.70406">
        <ele>286.30858</ele>
        <time>2022-08-16T15:24:24.000Z</time>
      </trkpt>
      <trkpt lat="45.84017" lon="4.70408">
        <ele>286.38663</ele>
        <time>2022-08-16T15:24:25.000Z</time>
      </trkpt>
      <trkpt lat="45.84013" lon="4.70409">
        <ele>286.47219</ele>
        <time>2022-08-16T15:24:26.000Z</time>
      </trkpt>
      <trkpt lat="45.84009" lon="4.70411">
        <ele>286.56083</ele>
        <time>2022-08-16T15:24:27.000Z</time>
      </trkpt>
      <trkpt lat="45.84006" lon="4.70414">
        <ele>286.68113</ele>
        <time>2022-08-16T15:24:28.000Z</time>
      </trkpt>
      <trkpt lat="45.84003" lon="4.70415">
        <ele>286.75889</ele>
        <time>2022-08-16T15:24:29.000Z</time>
      </trkpt>
      <trkpt lat="45.84" lon="4.70416">
        <ele>286.80533</ele>
        <time>2022-08-16T15:24:30.000Z</time>
      </trkpt>
      <trkpt lat="45.83997" lon="4.70417">
        <ele>286.83856</ele>
        <time>2022-08-16T15:24:31.000Z</time>
      </trkpt>
      <trkpt lat="45.83994" lon="4.70417">
        <ele>286.85473</ele>
        <time>2022-08-16T15:24:32.000Z</time>
      </trkpt>
      <trkpt lat="45.83991" lon="4.70417">
        <ele>286.85393</ele>
        <time>2022-08-16T15:24:33.000Z</time>
      </trkpt>
      <trkpt lat="45.83988" lon="4.70418">
        <ele>286.83918</ele>
        <time>2022-08-16T15:24:34.000Z</time>
      </trkpt>
      <trkpt lat="45.83985" lon="4.7042">
        <ele>286.81242</ele>
        <time>2022-08-16T15:24:35.000Z</time>
      </trkpt>
      <trkpt lat="45.83982" lon="4.70421">
        <ele>286.76733</ele>
        <time>2022-08-16T15:24:36.000Z</time>
      </trkpt>
      <trkpt lat="45.83978" lon="4.70422">
        <ele>286.71064</ele>
        <time>2022-08-16T15:24:37.000Z</time>
      </trkpt>
      <trkpt lat="45.83975" lon="4.70424">
        <ele>286.66758</ele>
        <time>2022-08-16T15:24:38.000Z</time>
      </trkpt>
      <trkpt lat="45.83972" lon="4.70426">
        <ele>286.641</ele>
        <time>2022-08-16T15:24:39.000Z</time>
      </trkpt>
      <trkpt lat="45.8397" lon="4.70428">
        <ele>286.62957</ele>
        <time>2022-08-16T15:24:40.000Z</time>
      </trkpt>
      <trkpt lat="45.83966" lon="4.7043">
        <ele>286.65129</ele>
        <time>2022-08-16T15:24:41.000Z</time>
      </trkpt>
      <trkpt lat="45.83963" lon="4.70432">
        <ele>286.70747</ele>
        <time>2022-08-16T15:24:42.000Z</time>
      </trkpt>
      <trkpt lat="45.8396" lon="4.70435">
        <ele>286.78076</ele>
        <time>2022-08-16T15:24:43.000Z</time>
      </trkpt>
      <trkpt lat="45.83957" lon="4.70438">
        <ele>286.84948</ele>
        <time>2022-08-16T15:24:44.000Z</time>
      </trkpt>
      <trkpt lat="45.83954" lon="4.7044">
        <ele>286.89825</ele>
        <time>2022-08-16T15:24:45.000Z</time>
      </trkpt>
      <trkpt lat="45.8395" lon="4.70443">
        <ele>286.93065</ele>
        <time>2022-08-16T15:24:46.000Z</time>
      </trkpt>
      <trkpt lat="45.83947" lon="4.70446">
        <ele>286.94275</ele>
        <time>2022-08-16T15:24:47.000Z</time>
      </trkpt>
      <trkpt lat="45.83944" lon="4.70449">
        <ele>286.93258</ele>
        <time>2022-08-16T15:24:48.000Z</time>
      </trkpt>
      <trkpt lat="45.83942" lon="4.70452">
        <ele>286.91513</ele>
        <time>2022-08-16T15:24:49.000Z</time>
      </trkpt>
      <trkpt lat="45.83939" lon="4.70454">
        <ele>286.90052</ele>
        <time>2022-08-16T15:24:50.000Z</time>
      </trkpt>
      <trkpt lat="45.83936" lon="4.70456">
        <ele>286.89892</ele>
        <time>2022-08-16T15:24:51.000Z</time>
      </trkpt>
      <trkpt lat="45.83934" lon="4.70459">
        <ele>286.93618</ele>
        <time>2022-08-16T15:24:52.000Z</time>
      </trkpt>
      <trkpt lat="45.83931" lon="4.70463">
        <ele>287.00108</ele>
        <time>2022-08-16T15:24:53.000Z</time>
      </trkpt>
      <trkpt lat="45.83929" lon="4.70466">
        <ele>287.06981</ele>
        <time>2022-08-16T15:24:54.000Z</time>
      </trkpt>
      <trkpt lat="45.83928" lon="4.7047">
        <ele>287.13505</ele>
        <time>2022-08-16T15:24:55.000Z</time>
      </trkpt>
      <trkpt lat="45.83926" lon="4.70474">
        <ele>287.18978</ele>
        <time>2022-08-16T15:24:56.000Z</time>
      </trkpt>
      <trkpt lat="45.83924" lon="4.70478">
        <ele>287.23734</ele>
        <time>2022-08-16T15:24:57.000Z</time>
      </trkpt>
      <trkpt lat="45.83921" lon="4.7048">
        <ele>287.28303</ele>
        <time>2022-08-16T15:24:58.000Z</time>
      </trkpt>
      <trkpt lat="45.83914" lon="4.70484">
        <ele>287.40844</ele>
        <time>2022-08-16T15:25:00.000Z</time>
      </trkpt>
      <trkpt lat="45.83907" lon="4.70487">
        <ele>287.55251</ele>
        <time>2022-08-16T15:25:02.000Z</time>
      </trkpt>
      <trkpt lat="45.83903" lon="4.70488">
        <ele>287.61881</ele>
        <time>2022-08-16T15:25:03.000Z</time>
      </trkpt>
      <trkpt lat="45.839" lon="4.70489">
        <ele>287.67695</ele>
        <time>2022-08-16T15:25:04.000Z</time>
      </trkpt>
      <trkpt lat="45.83897" lon="4.7049">
        <ele>287.73993</ele>
        <time>2022-08-16T15:25:05.000Z</time>
      </trkpt>
      <trkpt lat="45.83894" lon="4.70491">
        <ele>287.82017</ele>
        <time>2022-08-16T15:25:06.000Z</time>
      </trkpt>
      <trkpt lat="45.8389" lon="4.70493">
        <ele>287.91374</ele>
        <time>2022-08-16T15:25:07.000Z</time>
      </trkpt>
      <trkpt lat="45.83887" lon="4.70495">
        <ele>288.02687</ele>
        <time>2022-08-16T15:25:08.000Z</time>
      </trkpt>
      <trkpt lat="45.83882" lon="4.70496">
        <ele>288.15556</ele>
        <time>2022-08-16T15:25:09.000Z</time>
      </trkpt>
      <trkpt lat="45.83878" lon="4.70498">
        <ele>288.26928</ele>
        <time>2022-08-16T15:25:10.000Z</time>
      </trkpt>
      <trkpt lat="45.83874" lon="4.705">
        <ele>288.37248</ele>
        <time>2022-08-16T15:25:11.000Z</time>
      </trkpt>
      <trkpt lat="45.83867" lon="4.70504">
        <ele>288.53701</ele>
        <time>2022-08-16T15:25:13.000Z</time>
      </trkpt>
      <trkpt lat="45.83863" lon="4.70506">
        <ele>288.61007</ele>
        <time>2022-08-16T15:25:14.000Z</time>
      </trkpt>
      <trkpt lat="45.83856" lon="4.70509">
        <ele>288.72061</ele>
        <time>2022-08-16T15:25:15.000Z</time>
      </trkpt>
      <trkpt lat="45.83856" lon="4.70518">
        <ele>288.81213</ele>
        <time>2022-08-16T15:25:16.000Z</time>
      </trkpt>
      <trkpt lat="45.8385" lon="4.70519">
        <ele>288.88961</ele>
        <time>2022-08-16T15:25:17.000Z</time>
      </trkpt>
      <trkpt lat="45.83847" lon="4.70524">
        <ele>288.9966</ele>
        <time>2022-08-16T15:25:18.000Z</time>
      </trkpt>
      <trkpt lat="45.83842" lon="4.70527">
        <ele>289.10221</ele>
        <time>2022-08-16T15:25:19.000Z</time>
      </trkpt>
      <trkpt lat="45.83839" lon="4.70532">
        <ele>289.24396</ele>
        <time>2022-08-16T15:25:20.000Z</time>
      </trkpt>
      <trkpt lat="45.83835" lon="4.70535">
        <ele>289.4013</ele>
        <time>2022-08-16T15:25:21.000Z</time>
      </trkpt>
      <trkpt lat="45.83833" lon="4.70535">
        <ele>289.44567</ele>
        <time>2022-08-16T15:25:22.000Z</time>
      </trkpt>
      <trkpt lat="45.83829" lon="4.70535">
        <ele>289.55716</ele>
        <time>2022-08-16T15:25:23.000Z</time>
      </trkpt>
      <trkpt lat="45.83825" lon="4.70536">
        <ele>289.67884</ele>
        <time>2022-08-16T15:25:24.000Z</time>
      </trkpt>
      <trkpt lat="45.83823" lon="4.70539">
        <ele>289.81358</ele>
        <time>2022-08-16T15:25:25.000Z</time>
      </trkpt>
      <trkpt lat="45.83819" lon="4.70543">
        <ele>290.03404</ele>
        <time>2022-08-16T15:25:26.000Z</time>
      </trkpt>
      <trkpt lat="45.83815" lon="4.70543">
        <ele>290.15568</ele>
        <time>2022-08-16T15:25:27.000Z</time>
      </trkpt>
      <trkpt lat="45.8381" lon="4.70539">
        <ele>290.18154</ele>
        <time>2022-08-16T15:25:28.000Z</time>
      </trkpt>
      <trkpt lat="45.83806" lon="4.70542">
        <ele>290.36558</ele>
        <time>2022-08-16T15:25:29.000Z</time>
      </trkpt>
      <trkpt lat="45.83805" lon="4.7055">
        <ele>290.60495</ele>
        <time>2022-08-16T15:25:30.000Z</time>
      </trkpt>
      <trkpt lat="45.83803" lon="4.70559">
        <ele>290.89768</ele>
        <time>2022-08-16T15:25:31.000Z</time>
      </trkpt>
      <trkpt lat="45.83799" lon="4.7056">
        <ele>291.02375</ele>
        <time>2022-08-16T15:25:32.000Z</time>
      </trkpt>
      <trkpt lat="45.83794" lon="4.70561">
        <ele>291.1785</ele>
        <time>2022-08-16T15:25:33.000Z</time>
      </trkpt>
      <trkpt lat="45.83791" lon="4.70567">
        <ele>291.46144</ele>
        <time>2022-08-16T15:25:34.000Z</time>
      </trkpt>
      <trkpt lat="45.83787" lon="4.70573">
        <ele>291.74538</ele>
        <time>2022-08-16T15:25:35.000Z</time>
      </trkpt>
      <trkpt lat="45.83783" lon="4.70575">
        <ele>291.93547</ele>
        <time>2022-08-16T15:25:36.000Z</time>
      </trkpt>
      <trkpt lat="45.83778" lon="4.70578">
        <ele>292.11654</ele>
        <time>2022-08-16T15:25:37.000Z</time>
      </trkpt>
      <trkpt lat="45.83774" lon="4.70582">
        <ele>292.35001</ele>
        <time>2022-08-16T15:25:38.000Z</time>
      </trkpt>
      <trkpt lat="45.83769" lon="4.70584">
        <ele>292.56632</ele>
        <time>2022-08-16T15:25:39.000Z</time>
      </trkpt>
      <trkpt lat="45.83764" lon="4.70585">
        <ele>292.85556</ele>
        <time>2022-08-16T15:25:40.000Z</time>
      </trkpt>
      <trkpt lat="45.83757" lon="4.70585">
        <ele>293.30758</ele>
        <time>2022-08-16T15:25:41.000Z</time>
      </trkpt>
      <trkpt lat="45.83752" lon="4.70586">
        <ele>293.77423</ele>
        <time>2022-08-16T15:25:42.000Z</time>
      </trkpt>
      <trkpt lat="45.83747" lon="4.70587">
        <ele>294.18065</ele>
        <time>2022-08-16T15:25:43.000Z</time>
      </trkpt>
      <trkpt lat="45.83742" lon="4.70586">
        <ele>294.45031</ele>
        <time>2022-08-16T15:25:44.000Z</time>
      </trkpt>
      <trkpt lat="45.83737" lon="4.70585">
        <ele>294.63061</ele>
        <time>2022-08-16T15:25:45.000Z</time>
      </trkpt>
      <trkpt lat="45.83732" lon="4.70583">
        <ele>294.66608</ele>
        <time>2022-08-16T15:25:46.000Z</time>
      </trkpt>
      <trkpt lat="45.83726" lon="4.7058">
        <ele>294.67324</ele>
        <time>2022-08-16T15:25:47.000Z</time>
      </trkpt>
      <trkpt lat="45.83723" lon="4.70581">
        <ele>294.76186</ele>
        <time>2022-08-16T15:25:48.000Z</time>
      </trkpt>
      <trkpt lat="45.83717" lon="4.7058">
        <ele>294.7861</ele>
        <time>2022-08-16T15:25:49.000Z</time>
      </trkpt>
      <trkpt lat="45.83712" lon="4.70582">
        <ele>294.87785</ele>
        <time>2022-08-16T15:25:50.000Z</time>
      </trkpt>
      <trkpt lat="45.83708" lon="4.70586">
        <ele>295.00428</ele>
        <time>2022-08-16T15:25:51.000Z</time>
      </trkpt>
      <trkpt lat="45.83703" lon="4.7059">
        <ele>295.16764</ele>
        <time>2022-08-16T15:25:52.000Z</time>
      </trkpt>
      <trkpt lat="45.837" lon="4.70592">
        <ele>295.27902</ele>
        <time>2022-08-16T15:25:53.000Z</time>
      </trkpt>
      <trkpt lat="45.83697" lon="4.70594">
        <ele>295.39899</ele>
        <time>2022-08-16T15:25:54.000Z</time>
      </trkpt>
      <trkpt lat="45.83691" lon="4.70597">
        <ele>295.63625</ele>
        <time>2022-08-16T15:25:55.000Z</time>
      </trkpt>
      <trkpt lat="45.83685" lon="4.70597">
        <ele>295.80882</ele>
        <time>2022-08-16T15:25:56.000Z</time>
      </trkpt>
      <trkpt lat="45.83682" lon="4.70598">
        <ele>295.89283</ele>
        <time>2022-08-16T15:25:57.000Z</time>
      </trkpt>
      <trkpt lat="45.83677" lon="4.70601">
        <ele>296.14198</ele>
        <time>2022-08-16T15:25:58.000Z</time>
      </trkpt>
      <trkpt lat="45.8367" lon="4.70601">
        <ele>296.23479</ele>
        <time>2022-08-16T15:25:59.000Z</time>
      </trkpt>
      <trkpt lat="45.83666" lon="4.70601">
        <ele>296.29446</ele>
        <time>2022-08-16T15:26:00.000Z</time>
      </trkpt>
      <trkpt lat="45.83662" lon="4.70602">
        <ele>296.37043</ele>
        <time>2022-08-16T15:26:01.000Z</time>
      </trkpt>
      <trkpt lat="45.83654" lon="4.70604">
        <ele>296.47483</ele>
        <time>2022-08-16T15:26:02.000Z</time>
      </trkpt>
      <trkpt lat="45.83651" lon="4.70606">
        <ele>296.54037</ele>
        <time>2022-08-16T15:26:03.000Z</time>
      </trkpt>
      <trkpt lat="45.83646" lon="4.7061">
        <ele>296.66209</ele>
        <time>2022-08-16T15:26:04.000Z</time>
      </trkpt>
      <trkpt lat="45.83643" lon="4.70614">
        <ele>296.79928</ele>
        <time>2022-08-16T15:26:05.000Z</time>
      </trkpt>
      <trkpt lat="45.83639" lon="4.70619">
        <ele>296.97615</ele>
        <time>2022-08-16T15:26:06.000Z</time>
      </trkpt>
      <trkpt lat="45.83633" lon="4.70622">
        <ele>297.11819</ele>
        <time>2022-08-16T15:26:07.000Z</time>
      </trkpt>
      <trkpt lat="45.8363" lon="4.70624">
        <ele>297.22001</ele>
        <time>2022-08-16T15:26:08.000Z</time>
      </trkpt>
      <trkpt lat="45.83626" lon="4.70627">
        <ele>297.36583</ele>
        <time>2022-08-16T15:26:09.000Z</time>
      </trkpt>
      <trkpt lat="45.83621" lon="4.70623">
        <ele>297.37925</ele>
        <time>2022-08-16T15:26:10.000Z</time>
      </trkpt>
      <trkpt lat="45.83615" lon="4.70622">
        <ele>297.53033</ele>
        <time>2022-08-16T15:26:11.000Z</time>
      </trkpt>
      <trkpt lat="45.83611" lon="4.70619">
        <ele>297.65633</ele>
        <time>2022-08-16T15:26:12.000Z</time>
      </trkpt>
      <trkpt lat="45.83607" lon="4.70617">
        <ele>297.73673</ele>
        <time>2022-08-16T15:26:13.000Z</time>
      </trkpt>
      <trkpt lat="45.83604" lon="4.70615">
        <ele>297.79012</ele>
        <time>2022-08-16T15:26:14.000Z</time>
      </trkpt>
      <trkpt lat="45.83598" lon="4.70614">
        <ele>297.88983</ele>
        <time>2022-08-16T15:26:15.000Z</time>
      </trkpt>
      <trkpt lat="45.83594" lon="4.70612">
        <ele>297.9135</ele>
        <time>2022-08-16T15:26:16.000Z</time>
      </trkpt>
      <trkpt lat="45.83587" lon="4.70613">
        <ele>298.03823</ele>
        <time>2022-08-16T15:26:17.000Z</time>
      </trkpt>
      <trkpt lat="45.83581" lon="4.7061">
        <ele>298.14885</ele>
        <time>2022-08-16T15:26:18.000Z</time>
      </trkpt>
      <trkpt lat="45.83575" lon="4.7061">
        <ele>298.36811</ele>
        <time>2022-08-16T15:26:19.000Z</time>
      </trkpt>
      <trkpt lat="45.83569" lon="4.7061">
        <ele>298.53412</ele>
        <time>2022-08-16T15:26:20.000Z</time>
      </trkpt>
      <trkpt lat="45.83565" lon="4.70609">
        <ele>298.6655</ele>
        <time>2022-08-16T15:26:21.000Z</time>
      </trkpt>
      <trkpt lat="45.83559" lon="4.70608">
        <ele>298.74638</ele>
        <time>2022-08-16T15:26:22.000Z</time>
      </trkpt>
      <trkpt lat="45.83555" lon="4.70608">
        <ele>298.76825</ele>
        <time>2022-08-16T15:26:23.000Z</time>
      </trkpt>
      <trkpt lat="45.8355" lon="4.70608">
        <ele>298.80733</ele>
        <time>2022-08-16T15:26:24.000Z</time>
      </trkpt>
      <trkpt lat="45.83545" lon="4.70607">
        <ele>298.81108</ele>
        <time>2022-08-16T15:26:25.000Z</time>
      </trkpt>
      <trkpt lat="45.8354" lon="4.70605">
        <ele>298.8265</ele>
        <time>2022-08-16T15:26:26.000Z</time>
      </trkpt>
      <trkpt lat="45.83535" lon="4.706">
        <ele>298.80402</ele>
        <time>2022-08-16T15:26:27.000Z</time>
      </trkpt>
      <trkpt lat="45.83534" lon="4.70609">
        <ele>298.99914</ele>
        <time>2022-08-16T15:26:28.000Z</time>
      </trkpt>
      <trkpt lat="45.8353" lon="4.70613">
        <ele>299.15921</ele>
        <time>2022-08-16T15:26:29.000Z</time>
      </trkpt>
      <trkpt lat="45.83521" lon="4.70612">
        <ele>299.285</ele>
        <time>2022-08-16T15:26:30.000Z</time>
      </trkpt>
      <trkpt lat="45.83518" lon="4.70614">
        <ele>299.45117</ele>
        <time>2022-08-16T15:26:31.000Z</time>
      </trkpt>
      <trkpt lat="45.83511" lon="4.70611">
        <ele>299.71489</ele>
        <time>2022-08-16T15:26:32.000Z</time>
      </trkpt>
      <trkpt lat="45.83505" lon="4.7061">
        <ele>300.09202</ele>
        <time>2022-08-16T15:26:33.000Z</time>
      </trkpt>
      <trkpt lat="45.835" lon="4.70609">
        <ele>300.51817</ele>
        <time>2022-08-16T15:26:34.000Z</time>
      </trkpt>
      <trkpt lat="45.83495" lon="4.70611">
        <ele>300.91298</ele>
        <time>2022-08-16T15:26:35.000Z</time>
      </trkpt>
      <trkpt lat="45.83491" lon="4.70612">
        <ele>301.17194</ele>
        <time>2022-08-16T15:26:36.000Z</time>
      </trkpt>
      <trkpt lat="45.83485" lon="4.70612">
        <ele>301.60525</ele>
        <time>2022-08-16T15:26:37.000Z</time>
      </trkpt>
      <trkpt lat="45.8348" lon="4.70611">
        <ele>301.87405</ele>
        <time>2022-08-16T15:26:38.000Z</time>
      </trkpt>
      <trkpt lat="45.8348" lon="4.70608">
        <ele>301.80891</ele>
        <time>2022-08-16T15:26:39.000Z</time>
      </trkpt>
      <trkpt lat="45.83474" lon="4.70608">
        <ele>302.14132</ele>
        <time>2022-08-16T15:26:41.000Z</time>
      </trkpt>
      <trkpt lat="45.83472" lon="4.7061">
        <ele>302.30965</ele>
        <time>2022-08-16T15:26:42.000Z</time>
      </trkpt>
      <trkpt lat="45.83468" lon="4.70611">
        <ele>302.56648</ele>
        <time>2022-08-16T15:26:43.000Z</time>
      </trkpt>
      <trkpt lat="45.83465" lon="4.70615">
        <ele>302.81648</ele>
        <time>2022-08-16T15:26:44.000Z</time>
      </trkpt>
      <trkpt lat="45.83461" lon="4.70615">
        <ele>302.98894</ele>
        <time>2022-08-16T15:26:45.000Z</time>
      </trkpt>
      <trkpt lat="45.83459" lon="4.70615">
        <ele>303.06556</ele>
        <time>2022-08-16T15:26:46.000Z</time>
      </trkpt>
      <trkpt lat="45.83456" lon="4.70613">
        <ele>303.13644</ele>
        <time>2022-08-16T15:26:47.000Z</time>
      </trkpt>
      <trkpt lat="45.83453" lon="4.70614">
        <ele>303.26089</ele>
        <time>2022-08-16T15:26:48.000Z</time>
      </trkpt>
      <trkpt lat="45.8345" lon="4.70614">
        <ele>303.34594</ele>
        <time>2022-08-16T15:26:49.000Z</time>
      </trkpt>
      <trkpt lat="45.83447" lon="4.70614">
        <ele>303.40633</ele>
        <time>2022-08-16T15:26:50.000Z</time>
      </trkpt>
      <trkpt lat="45.83443" lon="4.70613">
        <ele>303.43366</ele>
        <time>2022-08-16T15:26:51.000Z</time>
      </trkpt>
      <trkpt lat="45.83439" lon="4.70612">
        <ele>303.43414</ele>
        <time>2022-08-16T15:26:52.000Z</time>
      </trkpt>
      <trkpt lat="45.83435" lon="4.7061">
        <ele>303.41441</ele>
        <time>2022-08-16T15:26:53.000Z</time>
      </trkpt>
      <trkpt lat="45.83431" lon="4.70608">
        <ele>303.38169</ele>
        <time>2022-08-16T15:26:54.000Z</time>
      </trkpt>
      <trkpt lat="45.83427" lon="4.70607">
        <ele>303.39388</ele>
        <time>2022-08-16T15:26:55.000Z</time>
      </trkpt>
      <trkpt lat="45.83423" lon="4.70606">
        <ele>303.41933</ele>
        <time>2022-08-16T15:26:56.000Z</time>
      </trkpt>
      <trkpt lat="45.83419" lon="4.70605">
        <ele>303.43767</ele>
        <time>2022-08-16T15:26:57.000Z</time>
      </trkpt>
      <trkpt lat="45.83414" lon="4.70604">
        <ele>303.46839</ele>
        <time>2022-08-16T15:26:58.000Z</time>
      </trkpt>
      <trkpt lat="45.8341" lon="4.70602">
        <ele>303.54658</ele>
        <time>2022-08-16T15:26:59.000Z</time>
      </trkpt>
      <trkpt lat="45.83405" lon="4.70602">
        <ele>303.67712</ele>
        <time>2022-08-16T15:27:00.000Z</time>
      </trkpt>
      <trkpt lat="45.83401" lon="4.70601">
        <ele>303.86125</ele>
        <time>2022-08-16T15:27:01.000Z</time>
      </trkpt>
      <trkpt lat="45.83397" lon="4.70602">
        <ele>304.09288</ele>
        <time>2022-08-16T15:27:02.000Z</time>
      </trkpt>
      <trkpt lat="45.83394" lon="4.70602">
        <ele>304.32277</ele>
        <time>2022-08-16T15:27:03.000Z</time>
      </trkpt>
      <trkpt lat="45.8339" lon="4.70602">
        <ele>304.57919</ele>
        <time>2022-08-16T15:27:04.000Z</time>
      </trkpt>
      <trkpt lat="45.83386" lon="4.70602">
        <ele>304.8441</ele>
        <time>2022-08-16T15:27:05.000Z</time>
      </trkpt>
      <trkpt lat="45.83382" lon="4.70601">
        <ele>305.08839</ele>
        <time>2022-08-16T15:27:06.000Z</time>
      </trkpt>
      <trkpt lat="45.83379" lon="4.70602">
        <ele>305.30694</ele>
        <time>2022-08-16T15:27:07.000Z</time>
      </trkpt>
      <trkpt lat="45.83375" lon="4.70602">
        <ele>305.53386</ele>
        <time>2022-08-16T15:27:08.000Z</time>
      </trkpt>
      <trkpt lat="45.83371" lon="4.70603">
        <ele>305.77644</ele>
        <time>2022-08-16T15:27:09.000Z</time>
      </trkpt>
      <trkpt lat="45.83367" lon="4.70604">
        <ele>305.99993</ele>
        <time>2022-08-16T15:27:10.000Z</time>
      </trkpt>
      <trkpt lat="45.83364" lon="4.70604">
        <ele>306.15409</ele>
        <time>2022-08-16T15:27:11.000Z</time>
      </trkpt>
      <trkpt lat="45.83361" lon="4.70604">
        <ele>306.29363</ele>
        <time>2022-08-16T15:27:12.000Z</time>
      </trkpt>
      <trkpt lat="45.83359" lon="4.70603">
        <ele>306.38981</ele>
        <time>2022-08-16T15:27:13.000Z</time>
      </trkpt>
      <trkpt lat="45.83356" lon="4.70602">
        <ele>306.46916</ele>
        <time>2022-08-16T15:27:14.000Z</time>
      </trkpt>
      <trkpt lat="45.83353" lon="4.706">
        <ele>306.51994</ele>
        <time>2022-08-16T15:27:16.000Z</time>
      </trkpt>
      <trkpt lat="45.83351" lon="4.70599">
        <ele>306.56321</ele>
        <time>2022-08-16T15:27:17.000Z</time>
      </trkpt>
      <trkpt lat="45.83349" lon="4.70599">
        <ele>306.60855</ele>
        <time>2022-08-16T15:27:18.000Z</time>
      </trkpt>
      <trkpt lat="45.83347" lon="4.706">
        <ele>306.6559</ele>
        <time>2022-08-16T15:27:19.000Z</time>
      </trkpt>
      <trkpt lat="45.83346" lon="4.70602">
        <ele>306.7143</ele>
        <time>2022-08-16T15:27:20.000Z</time>
      </trkpt>
      <trkpt lat="45.83345" lon="4.70606">
        <ele>306.77193</ele>
        <time>2022-08-16T15:27:21.000Z</time>
      </trkpt>
      <trkpt lat="45.83344" lon="4.7061">
        <ele>306.80681</ele>
        <time>2022-08-16T15:27:22.000Z</time>
      </trkpt>
      <trkpt lat="45.83344" lon="4.70614">
        <ele>306.8195</ele>
        <time>2022-08-16T15:27:23.000Z</time>
      </trkpt>
      <trkpt lat="45.83345" lon="4.70618">
        <ele>306.82619</ele>
        <time>2022-08-16T15:27:24.000Z</time>
      </trkpt>
      <trkpt lat="45.83345" lon="4.70622">
        <ele>306.81425</ele>
        <time>2022-08-16T15:27:25.000Z</time>
      </trkpt>
      <trkpt lat="45.83346" lon="4.70626">
        <ele>306.80839</ele>
        <time>2022-08-16T15:27:26.000Z</time>
      </trkpt>
      <trkpt lat="45.83346" lon="4.70629">
        <ele>306.83269</ele>
        <time>2022-08-16T15:27:27.000Z</time>
      </trkpt>
      <trkpt lat="45.83345" lon="4.70634">
        <ele>306.90359</ele>
        <time>2022-08-16T15:27:28.000Z</time>
      </trkpt>
      <trkpt lat="45.83345" lon="4.70639">
        <ele>307.00531</ele>
        <time>2022-08-16T15:27:29.000Z</time>
      </trkpt>
      <trkpt lat="45.83345" lon="4.70644">
        <ele>307.11304</ele>
        <time>2022-08-16T15:27:30.000Z</time>
      </trkpt>
      <trkpt lat="45.83345" lon="4.70649">
        <ele>307.25373</ele>
        <time>2022-08-16T15:27:31.000Z</time>
      </trkpt>
      <trkpt lat="45.83345" lon="4.70654">
        <ele>307.4301</ele>
        <time>2022-08-16T15:27:32.000Z</time>
      </trkpt>
      <trkpt lat="45.83344" lon="4.70659">
        <ele>307.64125</ele>
        <time>2022-08-16T15:27:33.000Z</time>
      </trkpt>
      <trkpt lat="45.83343" lon="4.70664">
        <ele>307.85341</ele>
        <time>2022-08-16T15:27:34.000Z</time>
      </trkpt>
      <trkpt lat="45.83342" lon="4.70668">
        <ele>308.05692</ele>
        <time>2022-08-16T15:27:35.000Z</time>
      </trkpt>
      <trkpt lat="45.83341" lon="4.70672">
        <ele>308.23547</ele>
        <time>2022-08-16T15:27:36.000Z</time>
      </trkpt>
      <trkpt lat="45.83341" lon="4.70676">
        <ele>308.39071</ele>
        <time>2022-08-16T15:27:37.000Z</time>
      </trkpt>
      <trkpt lat="45.83341" lon="4.7068">
        <ele>308.50176</ele>
        <time>2022-08-16T15:27:38.000Z</time>
      </trkpt>
      <trkpt lat="45.83342" lon="4.70688">
        <ele>308.65242</ele>
        <time>2022-08-16T15:27:40.000Z</time>
      </trkpt>
      <trkpt lat="45.83343" lon="4.70692">
        <ele>308.73309</ele>
        <time>2022-08-16T15:27:41.000Z</time>
      </trkpt>
      <trkpt lat="45.83343" lon="4.70697">
        <ele>308.81177</ele>
        <time>2022-08-16T15:27:42.000Z</time>
      </trkpt>
      <trkpt lat="45.83343" lon="4.70701">
        <ele>308.88415</ele>
        <time>2022-08-16T15:27:43.000Z</time>
      </trkpt>
      <trkpt lat="45.83342" lon="4.70705">
        <ele>308.94665</ele>
        <time>2022-08-16T15:27:44.000Z</time>
      </trkpt>
      <trkpt lat="45.83342" lon="4.70709">
        <ele>308.98537</ele>
        <time>2022-08-16T15:27:45.000Z</time>
      </trkpt>
      <trkpt lat="45.83341" lon="4.70713">
        <ele>309.01676</ele>
        <time>2022-08-16T15:27:46.000Z</time>
      </trkpt>
      <trkpt lat="45.8334" lon="4.70717">
        <ele>309.03492</ele>
        <time>2022-08-16T15:27:47.000Z</time>
      </trkpt>
      <trkpt lat="45.83339" lon="4.70721">
        <ele>309.01669</ele>
        <time>2022-08-16T15:27:48.000Z</time>
      </trkpt>
      <trkpt lat="45.83339" lon="4.70726">
        <ele>308.9691</ele>
        <time>2022-08-16T15:27:49.000Z</time>
      </trkpt>
      <trkpt lat="45.83339" lon="4.70732">
        <ele>308.92283</ele>
        <time>2022-08-16T15:27:50.000Z</time>
      </trkpt>
      <trkpt lat="45.83339" lon="4.70736">
        <ele>308.89666</ele>
        <time>2022-08-16T15:27:51.000Z</time>
      </trkpt>
      <trkpt lat="45.83339" lon="4.7074">
        <ele>308.87391</ele>
        <time>2022-08-16T15:27:52.000Z</time>
      </trkpt>
      <trkpt lat="45.83339" lon="4.70745">
        <ele>308.8453</ele>
        <time>2022-08-16T15:27:53.000Z</time>
      </trkpt>
      <trkpt lat="45.83338" lon="4.7075">
        <ele>308.81201</ele>
        <time>2022-08-16T15:27:54.000Z</time>
      </trkpt>
      <trkpt lat="45.83338" lon="4.70755">
        <ele>308.76992</ele>
        <time>2022-08-16T15:27:55.000Z</time>
      </trkpt>
      <trkpt lat="45.83338" lon="4.7076">
        <ele>308.72226</ele>
        <time>2022-08-16T15:27:56.000Z</time>
      </trkpt>
      <trkpt lat="45.83338" lon="4.70766">
        <ele>308.66818</ele>
        <time>2022-08-16T15:27:57.000Z</time>
      </trkpt>
      <trkpt lat="45.83337" lon="4.70771">
        <ele>308.61857</ele>
        <time>2022-08-16T15:27:58.000Z</time>
      </trkpt>
      <trkpt lat="45.83337" lon="4.70775">
        <ele>308.56708</ele>
        <time>2022-08-16T15:27:59.000Z</time>
      </trkpt>
      <trkpt lat="45.83336" lon="4.7078">
        <ele>308.51946</ele>
        <time>2022-08-16T15:28:00.000Z</time>
      </trkpt>
      <trkpt lat="45.83336" lon="4.70785">
        <ele>308.46949</ele>
        <time>2022-08-16T15:28:01.000Z</time>
      </trkpt>
      <trkpt lat="45.83336" lon="4.7079">
        <ele>308.41293</ele>
        <time>2022-08-16T15:28:02.000Z</time>
      </trkpt>
      <trkpt lat="45.83336" lon="4.70795">
        <ele>308.34225</ele>
        <time>2022-08-16T15:28:03.000Z</time>
      </trkpt>
      <trkpt lat="45.83336" lon="4.708">
        <ele>308.26406</ele>
        <time>2022-08-16T15:28:04.000Z</time>
      </trkpt>
      <trkpt lat="45.83336" lon="4.70806">
        <ele>308.191</ele>
        <time>2022-08-16T15:28:05.000Z</time>
      </trkpt>
      <trkpt lat="45.83335" lon="4.70811">
        <ele>308.12406</ele>
        <time>2022-08-16T15:28:06.000Z</time>
      </trkpt>
      <trkpt lat="45.83334" lon="4.70817">
        <ele>308.06527</ele>
        <time>2022-08-16T15:28:07.000Z</time>
      </trkpt>
      <trkpt lat="45.83334" lon="4.70822">
        <ele>308.0042</ele>
        <time>2022-08-16T15:28:08.000Z</time>
      </trkpt>
      <trkpt lat="45.83333" lon="4.70827">
        <ele>307.93857</ele>
        <time>2022-08-16T15:28:09.000Z</time>
      </trkpt>
      <trkpt lat="45.83333" lon="4.70832">
        <ele>307.85809</ele>
        <time>2022-08-16T15:28:10.000Z</time>
      </trkpt>
      <trkpt lat="45.83333" lon="4.70837">
        <ele>307.78755</ele>
        <time>2022-08-16T15:28:11.000Z</time>
      </trkpt>
      <trkpt lat="45.83332" lon="4.70842">
        <ele>307.71279</ele>
        <time>2022-08-16T15:28:12.000Z</time>
      </trkpt>
      <trkpt lat="45.83332" lon="4.70847">
        <ele>307.64972</ele>
        <time>2022-08-16T15:28:13.000Z</time>
      </trkpt>
      <trkpt lat="45.83331" lon="4.70852">
        <ele>307.57621</ele>
        <time>2022-08-16T15:28:14.000Z</time>
      </trkpt>
      <trkpt lat="45.83331" lon="4.70856">
        <ele>307.51366</ele>
        <time>2022-08-16T15:28:15.000Z</time>
      </trkpt>
      <trkpt lat="45.8333" lon="4.7086">
        <ele>307.45651</ele>
        <time>2022-08-16T15:28:16.000Z</time>
      </trkpt>
      <trkpt lat="45.83329" lon="4.70865">
        <ele>307.39543</ele>
        <time>2022-08-16T15:28:17.000Z</time>
      </trkpt>
      <trkpt lat="45.83329" lon="4.70868">
        <ele>307.3383</ele>
        <time>2022-08-16T15:28:18.000Z</time>
      </trkpt>
      <trkpt lat="45.83328" lon="4.70872">
        <ele>307.27995</ele>
        <time>2022-08-16T15:28:19.000Z</time>
      </trkpt>
      <trkpt lat="45.83328" lon="4.70875">
        <ele>307.20001</ele>
        <time>2022-08-16T15:28:20.000Z</time>
      </trkpt>
    </trkseg>
  </trk>
</gpx>